<?xml version='1.0' encoding='UTF-8'?><gpx version="1.1" creator="JPX - https://github.com/jenetics/jpx" xmlns="http://www.topografix.com/GPX/1/1"><trk><trkseg><trkpt lat="43.75525230199795" lon="11.586063927287553"><ele>1186.0</ele><time>2026-04-18T11:03:44Z</time></trkpt><trkpt lat="43.75531263578459" lon="11.586032275511668"><ele>1186.0</ele><time>2026-04-18T11:04:20Z</time></trkpt><trkpt lat="43.755488964858" lon="11.585982557084336"><ele>1186.0</ele><time>2026-04-18T11:04:25.999Z</time></trkpt><trkpt lat="43.755587012501145" lon="11.585947034388283"><ele>1186.0</ele><time>2026-04-18T11:04:56.999Z</time></trkpt><trkpt lat="43.755600265728965" lon="11.585852342623868"><ele>1186.0</ele><time>2026-04-18T11:04:59.999Z</time></trkpt><trkpt lat="43.75569928566543" lon="11.585850319553094"><ele>1186.0</ele><time>2026-04-18T11:05:03.999Z</time></trkpt><trkpt lat="43.755769489389685" lon="11.585902649492429"><ele>1186.0</ele><time>2026-04-18T11:05:04.999Z</time></trkpt><trkpt lat="43.75585601878879" lon="11.58592076851351"><ele>1186.0</ele><time>2026-04-18T11:05:06.999Z</time></trkpt><trkpt lat="43.75592480369741" lon="11.585885698719055"><ele>1186.0</ele><time>2026-04-18T11:05:08.999Z</time></trkpt><trkpt lat="43.75601214380867" lon="11.58588765666491"><ele>1186.0</ele><time>2026-04-18T11:05:10.999Z</time></trkpt><trkpt lat="43.7561058010094" lon="11.585911683078514"><ele>1186.0</ele><time>2026-04-18T11:05:12.999Z</time></trkpt><trkpt lat="43.75617821883126" lon="11.585885578421689"><ele>1182.8</ele><time>2026-04-18T11:05:14.999Z</time></trkpt><trkpt lat="43.75626964322247" lon="11.585861966009462"><ele>1179.6</ele><time>2026-04-18T11:05:17.999Z</time></trkpt><trkpt lat="43.756371136391685" lon="11.58587357784636"><ele>1176.4</ele><time>2026-04-18T11:05:19.999Z</time></trkpt><trkpt lat="43.75645913175805" lon="11.585883302911965"><ele>1173.2</ele><time>2026-04-18T11:05:21.999Z</time></trkpt><trkpt lat="43.75655000832644" lon="11.585872479796777"><ele>1170.0</ele><time>2026-04-18T11:05:24.998Z</time></trkpt><trkpt lat="43.75663581839794" lon="11.585903687151689"><ele>1170.0</ele><time>2026-04-18T11:05:26.998Z</time></trkpt><trkpt lat="43.756705070346506" lon="11.58592738608269"><ele>1170.0</ele><time>2026-04-18T11:05:28.998Z</time></trkpt><trkpt lat="43.75681798912182" lon="11.585928037348307"><ele>1170.0</ele><time>2026-04-18T11:05:30.998Z</time></trkpt><trkpt lat="43.7569032788518" lon="11.585923763655272"><ele>1170.0</ele><time>2026-04-18T11:05:32.998Z</time></trkpt><trkpt lat="43.75698330513831" lon="11.585891478640825"><ele>1170.0</ele><time>2026-04-18T11:05:34.998Z</time></trkpt><trkpt lat="43.757049888217075" lon="11.585875565402004"><ele>1170.0</ele><time>2026-04-18T11:05:36.998Z</time></trkpt><trkpt lat="43.75697873999388" lon="11.585923678902441"><ele>1170.0</ele><time>2026-04-18T11:06:32.999Z</time></trkpt><trkpt lat="43.75687291435516" lon="11.585940518095207"><ele>1170.0</ele><time>2026-04-18T11:06:34.999Z</time></trkpt><trkpt lat="43.75679928479197" lon="11.585923824431259"><ele>1170.0</ele><time>2026-04-18T11:06:36.999Z</time></trkpt><trkpt lat="43.756733906779914" lon="11.585932933756288"><ele>1170.0</ele><time>2026-04-18T11:06:38.999Z</time></trkpt><trkpt lat="43.75665511566379" lon="11.585879365529491"><ele>1170.0</ele><time>2026-04-18T11:06:41.999Z</time></trkpt><trkpt lat="43.75654523341553" lon="11.585881141455886"><ele>1170.0</ele><time>2026-04-18T11:06:44.999Z</time></trkpt><trkpt lat="43.75644235858278" lon="11.585910636810263"><ele>1170.0</ele><time>2026-04-18T11:06:46.999Z</time></trkpt><trkpt lat="43.75632926768031" lon="11.585921057721485"><ele>1170.0</ele><time>2026-04-18T11:06:48.999Z</time></trkpt><trkpt lat="43.7562268488424" lon="11.585899771305813"><ele>1170.0</ele><time>2026-04-18T11:06:50.999Z</time></trkpt><trkpt lat="43.75611377010491" lon="11.585945314039405"><ele>1170.0</ele><time>2026-04-18T11:06:53.999Z</time></trkpt><trkpt lat="43.75600392169878" lon="11.585952890127073"><ele>1170.0</ele><time>2026-04-18T11:06:55.999Z</time></trkpt><trkpt lat="43.75593532060762" lon="11.585937721890398"><ele>1172.6666666666667</ele><time>2026-04-18T11:06:56.999Z</time></trkpt><trkpt lat="43.75581525879358" lon="11.585951527790694"><ele>1175.3333333333333</ele><time>2026-04-18T11:06:58.999Z</time></trkpt><trkpt lat="43.75572682596491" lon="11.585970853610329"><ele>1178.0</ele><time>2026-04-18T11:07:01.999Z</time></trkpt><trkpt lat="43.75564358490547" lon="11.585977149407535"><ele>1180.6666666666665</ele><time>2026-04-18T11:07:03.999Z</time></trkpt><trkpt lat="43.75558248346702" lon="11.585998297799028"><ele>1183.3333333333333</ele><time>2026-04-18T11:07:16.999Z</time></trkpt><trkpt lat="43.755502498624736" lon="11.586004985433808"><ele>1186.0</ele><time>2026-04-18T11:07:19.999Z</time></trkpt><trkpt lat="43.755399105443345" lon="11.586047918760523"><ele>1186.0</ele><time>2026-04-18T11:07:21.999Z</time></trkpt><trkpt lat="43.7553324997702" lon="11.586032293281438"><ele>1186.0</ele><time>2026-04-18T11:07:22.999Z</time></trkpt><trkpt lat="43.755269023210566" lon="11.586034928385788"><ele>1186.0</ele><time>2026-04-18T11:07:25.998Z</time></trkpt><trkpt lat="43.75531790000488" lon="11.586118763749772"><ele>1186.0</ele><time>2026-04-18T11:07:49Z</time></trkpt><trkpt lat="43.755425937174735" lon="11.586184198438882"><ele>1186.0</ele><time>2026-04-18T11:07:52Z</time></trkpt><trkpt lat="43.75549182598704" lon="11.586184201617778"><ele>1186.0</ele><time>2026-04-18T11:07:53Z</time></trkpt><trkpt lat="43.7555406227334" lon="11.586247617361773"><ele>1185.1666666666665</ele><time>2026-04-18T11:07:55Z</time></trkpt><trkpt lat="43.75561911732381" lon="11.586266838810927"><ele>1184.3333333333333</ele><time>2026-04-18T11:07:57Z</time></trkpt><trkpt lat="43.75568995846878" lon="11.586261768028407"><ele>1183.5</ele><time>2026-04-18T11:07:59Z</time></trkpt><trkpt lat="43.75576853919665" lon="11.586259957042726"><ele>1182.6666666666667</ele><time>2026-04-18T11:08:01Z</time></trkpt><trkpt lat="43.75582241038192" lon="11.586311468320211"><ele>1181.8333333333335</ele><time>2026-04-18T11:08:03Z</time></trkpt><trkpt lat="43.755892687571574" lon="11.58640986163996"><ele>1181.0</ele><time>2026-04-18T11:08:06Z</time></trkpt><trkpt lat="43.75592265031311" lon="11.58649017545565"><ele>1181.0</ele><time>2026-04-18T11:08:09Z</time></trkpt><trkpt lat="43.75598635784802" lon="11.586628280525415"><ele>1181.0</ele><time>2026-04-18T11:08:11Z</time></trkpt><trkpt lat="43.75603525733824" lon="11.586756278274658"><ele>1181.0</ele><time>2026-04-18T11:08:13Z</time></trkpt><trkpt lat="43.756073310424995" lon="11.586861261852318"><ele>1181.0</ele><time>2026-04-18T11:08:15Z</time></trkpt><trkpt lat="43.75611418402817" lon="11.5869843104612"><ele>1181.0</ele><time>2026-04-18T11:08:17Z</time></trkpt><trkpt lat="43.756085863417674" lon="11.587104660436058"><ele>1177.8</ele><time>2026-04-18T11:08:19Z</time></trkpt><trkpt lat="43.75604052408492" lon="11.587197479745305"><ele>1174.6</ele><time>2026-04-18T11:08:21Z</time></trkpt><trkpt lat="43.75604881401487" lon="11.587347075226036"><ele>1171.4</ele><time>2026-04-18T11:08:22.999Z</time></trkpt><trkpt lat="43.75611403160678" lon="11.587473593673385"><ele>1168.2</ele><time>2026-04-18T11:08:24.999Z</time></trkpt><trkpt lat="43.75620009827806" lon="11.587540076276992"><ele>1165.0</ele><time>2026-04-18T11:08:26.999Z</time></trkpt><trkpt lat="43.756283482205035" lon="11.587560574136099"><ele>1165.0</ele><time>2026-04-18T11:08:28.999Z</time></trkpt><trkpt lat="43.75635461891569" lon="11.587599501950582"><ele>1165.0</ele><time>2026-04-18T11:08:30.999Z</time></trkpt><trkpt lat="43.75642457394335" lon="11.587622776729644"><ele>1165.0</ele><time>2026-04-18T11:08:31.999Z</time></trkpt><trkpt lat="43.75651077390036" lon="11.587663444877903"><ele>1165.0</ele><time>2026-04-18T11:08:33.999Z</time></trkpt><trkpt lat="43.75658462589569" lon="11.587744044252714"><ele>1165.0</ele><time>2026-04-18T11:08:35.999Z</time></trkpt><trkpt lat="43.756668872535904" lon="11.58771083265451"><ele>1165.0</ele><time>2026-04-18T11:08:37.999Z</time></trkpt><trkpt lat="43.75679700539169" lon="11.58769252719416"><ele>1162.6</ele><time>2026-04-18T11:08:39.999Z</time></trkpt><trkpt lat="43.75691424880443" lon="11.587642433588785"><ele>1160.2</ele><time>2026-04-18T11:08:41.999Z</time></trkpt><trkpt lat="43.75701404797719" lon="11.587576170102537"><ele>1157.8</ele><time>2026-04-18T11:08:43.999Z</time></trkpt><trkpt lat="43.75709127106835" lon="11.587516681185567"><ele>1155.4</ele><time>2026-04-18T11:08:45.999Z</time></trkpt><trkpt lat="43.757151665430996" lon="11.587460706936007"><ele>1153.0</ele><time>2026-04-18T11:08:46.999Z</time></trkpt><trkpt lat="43.75727292316984" lon="11.587374172393648"><ele>1153.0</ele><time>2026-04-18T11:08:48.999Z</time></trkpt><trkpt lat="43.757352288075154" lon="11.587316130304407"><ele>1153.0</ele><time>2026-04-18T11:08:49.999Z</time></trkpt><trkpt lat="43.75742022079462" lon="11.587291544513086"><ele>1153.0</ele><time>2026-04-18T11:08:50.999Z</time></trkpt><trkpt lat="43.75750622564819" lon="11.587265356408723"><ele>1153.0</ele><time>2026-04-18T11:08:51.999Z</time></trkpt><trkpt lat="43.75756242326236" lon="11.58733387761982"><ele>1153.0</ele><time>2026-04-18T11:08:54.999Z</time></trkpt><trkpt lat="43.757549487252824" lon="11.587433393650294"><ele>1153.0</ele><time>2026-04-18T11:08:56.999Z</time></trkpt><trkpt lat="43.757497996449175" lon="11.587490338114476"><ele>1153.0</ele><time>2026-04-18T11:08:57.999Z</time></trkpt><trkpt lat="43.7574396344313" lon="11.587531021850356"><ele>1153.0</ele><time>2026-04-18T11:09:00.999Z</time></trkpt><trkpt lat="43.75741640515816" lon="11.58761710634944"><ele>1153.0</ele><time>2026-04-18T11:09:02.999Z</time></trkpt><trkpt lat="43.75746080933235" lon="11.587698936830218"><ele>1153.0</ele><time>2026-04-18T11:09:04.999Z</time></trkpt><trkpt lat="43.757545692066294" lon="11.587743291878272"><ele>1153.0</ele><time>2026-04-18T11:09:06.999Z</time></trkpt><trkpt lat="43.75764514326933" lon="11.58779106379766"><ele>1153.0</ele><time>2026-04-18T11:09:08.999Z</time></trkpt><trkpt lat="43.75775199098083" lon="11.587826294721674"><ele>1150.6</ele><time>2026-04-18T11:09:10.999Z</time></trkpt><trkpt lat="43.757842229042986" lon="11.587827007845487"><ele>1148.1999999999998</ele><time>2026-04-18T11:09:12.999Z</time></trkpt><trkpt lat="43.75790550611034" lon="11.587758458659875"><ele>1145.8</ele><time>2026-04-18T11:09:15.999Z</time></trkpt><trkpt lat="43.75795161596967" lon="11.587648500959338"><ele>1143.3999999999999</ele><time>2026-04-18T11:09:18.999Z</time></trkpt><trkpt lat="43.758056435076725" lon="11.58752391739773"><ele>1141.0</ele><time>2026-04-18T11:09:21.999Z</time></trkpt><trkpt lat="43.758162131900875" lon="11.587538850105815"><ele>1141.0</ele><time>2026-04-18T11:09:22.999Z</time></trkpt><trkpt lat="43.75826174280337" lon="11.587591956082466"><ele>1141.0</ele><time>2026-04-18T11:09:23.999Z</time></trkpt><trkpt lat="43.7583404429729" lon="11.587597224013363"><ele>1141.0</ele><time>2026-04-18T11:09:24.999Z</time></trkpt><trkpt lat="43.758413005936866" lon="11.587625224817568"><ele>1141.0</ele><time>2026-04-18T11:09:25.999Z</time></trkpt><trkpt lat="43.75849066919395" lon="11.58765848305603"><ele>1141.0</ele><time>2026-04-18T11:09:26.999Z</time></trkpt><trkpt lat="43.75856834934319" lon="11.587703051997048"><ele>1141.0</ele><time>2026-04-18T11:09:27.999Z</time></trkpt><trkpt lat="43.758640709723096" lon="11.58775915148148"><ele>1139.5</ele><time>2026-04-18T11:09:28.999Z</time></trkpt><trkpt lat="43.75874277762088" lon="11.587790847064605"><ele>1138.0</ele><time>2026-04-18T11:09:30.999Z</time></trkpt><trkpt lat="43.758811979883006" lon="11.587778532641003"><ele>1136.5</ele><time>2026-04-18T11:09:31.999Z</time></trkpt><trkpt lat="43.75888339609996" lon="11.587749807086066"><ele>1135.0</ele><time>2026-04-18T11:09:32.998Z</time></trkpt><trkpt lat="43.75897477495606" lon="11.587715729550116"><ele>1133.5</ele><time>2026-04-18T11:09:34.998Z</time></trkpt><trkpt lat="43.75905760680887" lon="11.587652702823746"><ele>1132.0</ele><time>2026-04-18T11:09:36.998Z</time></trkpt><trkpt lat="43.75917880862526" lon="11.587625151850357"><ele>1132.0</ele><time>2026-04-18T11:09:38.998Z</time></trkpt><trkpt lat="43.75924684977566" lon="11.587608810260372"><ele>1132.0</ele><time>2026-04-18T11:09:39.998Z</time></trkpt><trkpt lat="43.75930428041956" lon="11.58755726104868"><ele>1132.0</ele><time>2026-04-18T11:09:40.998Z</time></trkpt><trkpt lat="43.75934929152738" lon="11.587483940522802"><ele>1132.0</ele><time>2026-04-18T11:09:41.998Z</time></trkpt><trkpt lat="43.7593961148609" lon="11.58740995162555"><ele>1132.0</ele><time>2026-04-18T11:09:42.998Z</time></trkpt><trkpt lat="43.75944180941829" lon="11.587325574064408"><ele>1132.0</ele><time>2026-04-18T11:09:43.998Z</time></trkpt><trkpt lat="43.75947939534924" lon="11.587234225907421"><ele>1132.0</ele><time>2026-04-18T11:09:44.998Z</time></trkpt><trkpt lat="43.75951941910104" lon="11.58715310329117"><ele>1130.8333333333333</ele><time>2026-04-18T11:09:45.998Z</time></trkpt><trkpt lat="43.759562052831434" lon="11.587075631848762"><ele>1129.6666666666665</ele><time>2026-04-18T11:09:46.998Z</time></trkpt><trkpt lat="43.75959038204725" lon="11.586993359610098"><ele>1128.5</ele><time>2026-04-18T11:09:47.998Z</time></trkpt><trkpt lat="43.75963813680376" lon="11.586856344794704"><ele>1127.3333333333333</ele><time>2026-04-18T11:09:49.998Z</time></trkpt><trkpt lat="43.75972652692755" lon="11.586754979616012"><ele>1126.1666666666667</ele><time>2026-04-18T11:09:51.998Z</time></trkpt><trkpt lat="43.75971633658376" lon="11.586653375901788"><ele>1125.0</ele><time>2026-04-18T11:10:53.999Z</time></trkpt><trkpt lat="43.759653631141866" lon="11.586515047569167"><ele>1125.0</ele><time>2026-04-18T11:10:55.999Z</time></trkpt><trkpt lat="43.75957500250475" lon="11.586401931835871"><ele>1125.0</ele><time>2026-04-18T11:10:57.999Z</time></trkpt><trkpt lat="43.75946972107935" lon="11.586378852705252"><ele>1125.0</ele><time>2026-04-18T11:10:59.999Z</time></trkpt><trkpt lat="43.75935676165759" lon="11.586342632919903"><ele>1125.0</ele><time>2026-04-18T11:11:01.999Z</time></trkpt><trkpt lat="43.75928369255566" lon="11.586328871333798"><ele>1125.0</ele><time>2026-04-18T11:11:02.999Z</time></trkpt><trkpt lat="43.75917289944138" lon="11.586308900072193"><ele>1126.0</ele><time>2026-04-18T11:11:04.999Z</time></trkpt><trkpt lat="43.75907003803564" lon="11.586274613620109"><ele>1127.0</ele><time>2026-04-18T11:11:06.999Z</time></trkpt><trkpt lat="43.758975800953536" lon="11.586227811264528"><ele>1128.0</ele><time>2026-04-18T11:11:08.999Z</time></trkpt><trkpt lat="43.758929464776784" lon="11.586115255805373"><ele>1129.0</ele><time>2026-04-18T11:11:10.999Z</time></trkpt><trkpt lat="43.75897117163256" lon="11.586036568569135"><ele>1130.0</ele><time>2026-04-18T11:11:12.999Z</time></trkpt><trkpt lat="43.75901599966072" lon="11.585892291545294"><ele>1128.1666666666667</ele><time>2026-04-18T11:11:14.999Z</time></trkpt><trkpt lat="43.75904699196255" lon="11.585792986363595"><ele>1126.3333333333335</ele><time>2026-04-18T11:11:15.999Z</time></trkpt><trkpt lat="43.75908977801509" lon="11.585657334351037"><ele>1124.5</ele><time>2026-04-18T11:11:16.999Z</time></trkpt><trkpt lat="43.7591046222429" lon="11.585552355207117"><ele>1122.6666666666667</ele><time>2026-04-18T11:11:17.999Z</time></trkpt><trkpt lat="43.75910270043827" lon="11.585463900753991"><ele>1120.8333333333333</ele><time>2026-04-18T11:11:18.999Z</time></trkpt><trkpt lat="43.75909385960634" lon="11.585359534494224"><ele>1119.0</ele><time>2026-04-18T11:11:19.999Z</time></trkpt><trkpt lat="43.7590774380055" lon="11.585245757249501"><ele>1118.0</ele><time>2026-04-18T11:11:20.999Z</time></trkpt><trkpt lat="43.75904907828908" lon="11.585122704557126"><ele>1117.0</ele><time>2026-04-18T11:11:21.999Z</time></trkpt><trkpt lat="43.75901905841257" lon="11.585007384460958"><ele>1116.0</ele><time>2026-04-18T11:11:22.999Z</time></trkpt><trkpt lat="43.759016418279394" lon="11.584917468344056"><ele>1115.0</ele><time>2026-04-18T11:11:23.999Z</time></trkpt><trkpt lat="43.75901912555852" lon="11.584816646826402"><ele>1114.0</ele><time>2026-04-18T11:11:24.999Z</time></trkpt><trkpt lat="43.75901170173412" lon="11.584729796827897"><ele>1113.0</ele><time>2026-04-18T11:11:25.999Z</time></trkpt><trkpt lat="43.758999721990676" lon="11.584640940445249"><ele>1112.0</ele><time>2026-04-18T11:11:26.999Z</time></trkpt><trkpt lat="43.758958903597176" lon="11.584480207597435"><ele>1111.6666666666667</ele><time>2026-04-18T11:11:28.999Z</time></trkpt><trkpt lat="43.75893212889344" lon="11.584331623224301"><ele>1111.3333333333335</ele><time>2026-04-18T11:11:30.999Z</time></trkpt><trkpt lat="43.75891564657307" lon="11.584215102023895"><ele>1111.0</ele><time>2026-04-18T11:11:32.999Z</time></trkpt><trkpt lat="43.75891330282583" lon="11.58407980789897"><ele>1110.6666666666667</ele><time>2026-04-18T11:11:34.999Z</time></trkpt><trkpt lat="43.75893267216543" lon="11.583991265371697"><ele>1110.3333333333333</ele><time>2026-04-18T11:11:36.999Z</time></trkpt><trkpt lat="43.75899139337425" lon="11.583927053720034"><ele>1110.0</ele><time>2026-04-18T11:11:38.999Z</time></trkpt><trkpt lat="43.75904932875326" lon="11.583846737023183"><ele>1110.0</ele><time>2026-04-18T11:11:40.999Z</time></trkpt><trkpt lat="43.75911770199651" lon="11.583793366905835"><ele>1110.0</ele><time>2026-04-18T11:11:59Z</time></trkpt><trkpt lat="43.75918650377581" lon="11.583741613427762"><ele>1110.0</ele><time>2026-04-18T11:12:00Z</time></trkpt><trkpt lat="43.75926901388763" lon="11.583677824442894"><ele>1110.0</ele><time>2026-04-18T11:12:01Z</time></trkpt><trkpt lat="43.75934531764415" lon="11.583606414789292"><ele>1110.0</ele><time>2026-04-18T11:12:02Z</time></trkpt><trkpt lat="43.759404450376756" lon="11.583556275642998"><ele>1110.0</ele><time>2026-04-18T11:12:03Z</time></trkpt><trkpt lat="43.75949405011419" lon="11.58347460607996"><ele>1109.3333333333333</ele><time>2026-04-18T11:12:05Z</time></trkpt><trkpt lat="43.75956448348618" lon="11.583377169311804"><ele>1108.6666666666667</ele><time>2026-04-18T11:12:07Z</time></trkpt><trkpt lat="43.7596348297948" lon="11.583318798885783"><ele>1108.0</ele><time>2026-04-18T11:12:10Z</time></trkpt><trkpt lat="43.759715483220006" lon="11.583306582284031"><ele>1107.3333333333335</ele><time>2026-04-18T11:12:12Z</time></trkpt><trkpt lat="43.759782819604645" lon="11.583279473888888"><ele>1106.6666666666667</ele><time>2026-04-18T11:12:14Z</time></trkpt><trkpt lat="43.75985935179198" lon="11.583202292611682"><ele>1106.0</ele><time>2026-04-18T11:12:16Z</time></trkpt><trkpt lat="43.759952669770215" lon="11.583119693855163"><ele>1106.0</ele><time>2026-04-18T11:12:18Z</time></trkpt><trkpt lat="43.760029080546545" lon="11.583047525918925"><ele>1106.0</ele><time>2026-04-18T11:12:20Z</time></trkpt><trkpt lat="43.76009495224217" lon="11.582972935384145"><ele>1106.0</ele><time>2026-04-18T11:12:22Z</time></trkpt><trkpt lat="43.76019003158269" lon="11.582856531887863"><ele>1106.0</ele><time>2026-04-18T11:12:24Z</time></trkpt><trkpt lat="43.76027165603967" lon="11.582769175055287"><ele>1106.0</ele><time>2026-04-18T11:12:25Z</time></trkpt><trkpt lat="43.76036516581712" lon="11.582686183545452"><ele>1107.2</ele><time>2026-04-18T11:12:26Z</time></trkpt><trkpt lat="43.76047231195514" lon="11.582599420600108"><ele>1108.3999999999999</ele><time>2026-04-18T11:12:27Z</time></trkpt><trkpt lat="43.7605747762442" lon="11.582523524181099"><ele>1109.6</ele><time>2026-04-18T11:12:28Z</time></trkpt><trkpt lat="43.76065354820604" lon="11.582470178347139"><ele>1110.8</ele><time>2026-04-18T11:12:29Z</time></trkpt><trkpt lat="43.76072050853702" lon="11.582436026178671"><ele>1112.0</ele><time>2026-04-18T11:12:30Z</time></trkpt><trkpt lat="43.76085579435193" lon="11.582458135746794"><ele>1112.0</ele><time>2026-04-18T11:12:32Z</time></trkpt><trkpt lat="43.76094682974128" lon="11.582504028102752"><ele>1112.0</ele><time>2026-04-18T11:12:33Z</time></trkpt><trkpt lat="43.7610403877129" lon="11.582561855203428"><ele>1112.0</ele><time>2026-04-18T11:12:34Z</time></trkpt><trkpt lat="43.76114580023651" lon="11.582640795398795"><ele>1112.0</ele><time>2026-04-18T11:12:35Z</time></trkpt><trkpt lat="43.761233874812255" lon="11.582695991738406"><ele>1112.0</ele><time>2026-04-18T11:12:36Z</time></trkpt><trkpt lat="43.76132110756895" lon="11.582728655536538"><ele>1112.5</ele><time>2026-04-18T11:12:37Z</time></trkpt><trkpt lat="43.76140388737421" lon="11.582763369935607"><ele>1113.0</ele><time>2026-04-18T11:12:38Z</time></trkpt><trkpt lat="43.761482897521596" lon="11.58279326332623"><ele>1113.5</ele><time>2026-04-18T11:12:39Z</time></trkpt><trkpt lat="43.76156303108749" lon="11.582825768704613"><ele>1114.0</ele><time>2026-04-18T11:12:40Z</time></trkpt><trkpt lat="43.761652248736794" lon="11.582857341196341"><ele>1114.5</ele><time>2026-04-18T11:12:41Z</time></trkpt><trkpt lat="43.76173482539117" lon="11.582879078760365"><ele>1115.0</ele><time>2026-04-18T11:12:42Z</time></trkpt><trkpt lat="43.761815289134695" lon="11.582907311946048"><ele>1112.8333333333335</ele><time>2026-04-18T11:12:42.999Z</time></trkpt><trkpt lat="43.761903786810116" lon="11.582918032935833"><ele>1110.6666666666667</ele><time>2026-04-18T11:12:43.999Z</time></trkpt><trkpt lat="43.76199513158128" lon="11.58291730131267"><ele>1108.5</ele><time>2026-04-18T11:12:44.999Z</time></trkpt><trkpt lat="43.762078340399995" lon="11.582923701415142"><ele>1106.3333333333333</ele><time>2026-04-18T11:12:45.999Z</time></trkpt><trkpt lat="43.762152631552624" lon="11.582935310956215"><ele>1104.1666666666665</ele><time>2026-04-18T11:12:46.999Z</time></trkpt><trkpt lat="43.76222966288348" lon="11.582956210382573"><ele>1102.0</ele><time>2026-04-18T11:12:47.999Z</time></trkpt><trkpt lat="43.762309540143384" lon="11.582944555209652"><ele>1102.0</ele><time>2026-04-18T11:12:48.999Z</time></trkpt><trkpt lat="43.76237889959506" lon="11.582917227702346"><ele>1102.0</ele><time>2026-04-18T11:12:49.999Z</time></trkpt><trkpt lat="43.7624599462598" lon="11.582869177405273"><ele>1102.0</ele><time>2026-04-18T11:12:50.999Z</time></trkpt><trkpt lat="43.762533868831724" lon="11.582804799714207"><ele>1102.0</ele><time>2026-04-18T11:12:51.999Z</time></trkpt><trkpt lat="43.762594252378776" lon="11.582746524433935"><ele>1102.0</ele><time>2026-04-18T11:12:52.999Z</time></trkpt><trkpt lat="43.762654675417245" lon="11.582709040769"><ele>1102.0</ele><time>2026-04-18T11:12:53.999Z</time></trkpt><trkpt lat="43.76273793811959" lon="11.582635777731552"><ele>1102.1666666666665</ele><time>2026-04-18T11:12:54.999Z</time></trkpt><trkpt lat="43.76283282328928" lon="11.582614563579602"><ele>1102.3333333333333</ele><time>2026-04-18T11:12:56.999Z</time></trkpt><trkpt lat="43.76291381643303" lon="11.58260580915829"><ele>1102.5</ele><time>2026-04-18T11:12:58.999Z</time></trkpt><trkpt lat="43.76298123872982" lon="11.582596594788559"><ele>1102.6666666666667</ele><time>2026-04-18T11:13:00.999Z</time></trkpt><trkpt lat="43.7631090433819" lon="11.582561420579632"><ele>1102.8333333333335</ele><time>2026-04-18T11:13:02.999Z</time></trkpt><trkpt lat="43.76317938998546" lon="11.58255144580195"><ele>1103.0</ele><time>2026-04-18T11:13:03.999Z</time></trkpt><trkpt lat="43.76331211907604" lon="11.582509301670983"><ele>1103.0</ele><time>2026-04-18T11:13:05.999Z</time></trkpt><trkpt lat="43.76337727363127" lon="11.582474798717472"><ele>1103.0</ele><time>2026-04-18T11:13:06.999Z</time></trkpt><trkpt lat="43.76346569968934" lon="11.582446500793589"><ele>1103.0</ele><time>2026-04-18T11:13:08.999Z</time></trkpt><trkpt lat="43.763537455762425" lon="11.582429223876957"><ele>1103.0</ele><time>2026-04-18T11:13:09.999Z</time></trkpt><trkpt lat="43.763604284363545" lon="11.582392833762404"><ele>1103.0</ele><time>2026-04-18T11:13:10.999Z</time></trkpt><trkpt lat="43.763709995329656" lon="11.582357268063705"><ele>1103.0</ele><time>2026-04-18T11:13:11.999Z</time></trkpt><trkpt lat="43.763787912340405" lon="11.582357843439747"><ele>1101.6666666666667</ele><time>2026-04-18T11:13:12.999Z</time></trkpt><trkpt lat="43.763852025575325" lon="11.582350049648998"><ele>1100.3333333333335</ele><time>2026-04-18T11:13:13.999Z</time></trkpt><trkpt lat="43.763923701940236" lon="11.582335041738462"><ele>1099.0</ele><time>2026-04-18T11:13:14.999Z</time></trkpt><trkpt lat="43.76405325009731" lon="11.582280809467859"><ele>1097.6666666666667</ele><time>2026-04-18T11:13:16.999Z</time></trkpt><trkpt lat="43.76412815622781" lon="11.582265529842337"><ele>1096.3333333333333</ele><time>2026-04-18T11:13:17.999Z</time></trkpt><trkpt lat="43.764194825163116" lon="11.582257060130745"><ele>1095.0</ele><time>2026-04-18T11:13:18.999Z</time></trkpt><trkpt lat="43.76429670404262" lon="11.58220995047848"><ele>1092.8</ele><time>2026-04-18T11:13:20.999Z</time></trkpt><trkpt lat="43.76440147316006" lon="11.582169586752526"><ele>1090.6</ele><time>2026-04-18T11:13:22.999Z</time></trkpt><trkpt lat="43.76451765442552" lon="11.582122721264588"><ele>1088.4</ele><time>2026-04-18T11:13:24.999Z</time></trkpt><trkpt lat="43.764578741905765" lon="11.582089029825168"><ele>1086.2</ele><time>2026-04-18T11:13:25.999Z</time></trkpt><trkpt lat="43.76471354130398" lon="11.582050445826372"><ele>1084.0</ele><time>2026-04-18T11:13:27.999Z</time></trkpt><trkpt lat="43.76478746491123" lon="11.582067725731106"><ele>1084.0</ele><time>2026-04-18T11:13:28.999Z</time></trkpt><trkpt lat="43.764863445315406" lon="11.582085826448571"><ele>1084.0</ele><time>2026-04-18T11:13:29.999Z</time></trkpt><trkpt lat="43.76494087280613" lon="11.58206601840703"><ele>1084.0</ele><time>2026-04-18T11:13:30.999Z</time></trkpt><trkpt lat="43.765029942829706" lon="11.582032868710401"><ele>1084.0</ele><time>2026-04-18T11:13:31.999Z</time></trkpt><trkpt lat="43.76512761060265" lon="11.581990473625702"><ele>1084.0</ele><time>2026-04-18T11:13:32.999Z</time></trkpt><trkpt lat="43.76519751571769" lon="11.58197590388325"><ele>1084.0</ele><time>2026-04-18T11:13:33.999Z</time></trkpt><trkpt lat="43.7652751408326" lon="11.581954373761294"><ele>1084.2</ele><time>2026-04-18T11:13:34.999Z</time></trkpt><trkpt lat="43.765361888142216" lon="11.581957351940414"><ele>1084.4</ele><time>2026-04-18T11:13:36.999Z</time></trkpt><trkpt lat="43.765471141327794" lon="11.581915882675839"><ele>1084.6</ele><time>2026-04-18T11:13:38.999Z</time></trkpt><trkpt lat="43.7655710422278" lon="11.581933629016092"><ele>1084.8</ele><time>2026-04-18T11:13:40.999Z</time></trkpt><trkpt lat="43.76564387964738" lon="11.581914557541358"><ele>1085.0</ele><time>2026-04-18T11:13:41.999Z</time></trkpt><trkpt lat="43.765735582916086" lon="11.581928994120933"><ele>1085.0</ele><time>2026-04-18T11:13:43.999Z</time></trkpt><trkpt lat="43.765837012637476" lon="11.581911493439511"><ele>1085.0</ele><time>2026-04-18T11:13:45.999Z</time></trkpt><trkpt lat="43.76594300257477" lon="11.581982546189987"><ele>1085.0</ele><time>2026-04-18T11:13:47.999Z</time></trkpt><trkpt lat="43.76602398094333" lon="11.582020910748243"><ele>1085.0</ele><time>2026-04-18T11:13:49.999Z</time></trkpt><trkpt lat="43.76608165716421" lon="11.582137756870557"><ele>1085.0</ele><time>2026-04-18T11:13:51.999Z</time></trkpt><trkpt lat="43.76614547682138" lon="11.58224788145788"><ele>1088.0</ele><time>2026-04-18T11:13:53.999Z</time></trkpt><trkpt lat="43.76620215575998" lon="11.582374788359395"><ele>1091.0</ele><time>2026-04-18T11:13:55.999Z</time></trkpt><trkpt lat="43.76624707864494" lon="11.58251556731008"><ele>1094.0</ele><time>2026-04-18T11:13:56.999Z</time></trkpt><trkpt lat="43.76625347861687" lon="11.582603031574774"><ele>1097.0</ele><time>2026-04-18T11:13:57.998Z</time></trkpt><trkpt lat="43.76627252969558" lon="11.582740801436673"><ele>1100.0</ele><time>2026-04-18T11:13:59.998Z</time></trkpt><trkpt lat="43.7663068252772" lon="11.582825111268761"><ele>1098.2</ele><time>2026-04-18T11:14:00.998Z</time></trkpt><trkpt lat="43.766330648103974" lon="11.582914734792944"><ele>1096.4</ele><time>2026-04-18T11:14:01.998Z</time></trkpt><trkpt lat="43.76640807690421" lon="11.58303394697083"><ele>1094.6</ele><time>2026-04-18T11:14:03.998Z</time></trkpt><trkpt lat="43.76644146573562" lon="11.58311209045296"><ele>1092.8</ele><time>2026-04-18T11:14:05Z</time></trkpt><trkpt lat="43.7665509305834" lon="11.583161942870518"><ele>1091.0</ele><time>2026-04-18T11:14:07Z</time></trkpt><trkpt lat="43.76666098424841" lon="11.583235622404798"><ele>1091.0</ele><time>2026-04-18T11:14:09Z</time></trkpt><trkpt lat="43.766742501388414" lon="11.583184628312296"><ele>1091.0</ele><time>2026-04-18T11:14:11Z</time></trkpt><trkpt lat="43.766824125607194" lon="11.58318547880858"><ele>1091.0</ele><time>2026-04-18T11:14:13Z</time></trkpt><trkpt lat="43.76690405725811" lon="11.583167229364298"><ele>1091.0</ele><time>2026-04-18T11:14:14Z</time></trkpt><trkpt lat="43.76697692412471" lon="11.58317798193793"><ele>1091.0</ele><time>2026-04-18T11:14:15Z</time></trkpt><trkpt lat="43.76705384143603" lon="11.58319831428995"><ele>1091.0</ele><time>2026-04-18T11:14:16Z</time></trkpt><trkpt lat="43.767180514215966" lon="11.583293431692393"><ele>1092.5</ele><time>2026-04-18T11:14:18Z</time></trkpt><trkpt lat="43.76727011340016" lon="11.583393252730911"><ele>1094.0</ele><time>2026-04-18T11:14:19Z</time></trkpt><trkpt lat="43.76735188596567" lon="11.583454534378928"><ele>1095.5</ele><time>2026-04-18T11:14:20Z</time></trkpt><trkpt lat="43.767416714826645" lon="11.583492020578744"><ele>1097.0</ele><time>2026-04-18T11:14:21Z</time></trkpt><trkpt lat="43.76748890148186" lon="11.583468355606524"><ele>1098.5</ele><time>2026-04-18T11:14:22Z</time></trkpt><trkpt lat="43.7675730558821" lon="11.583445248185807"><ele>1100.0</ele><time>2026-04-18T11:14:23Z</time></trkpt><trkpt lat="43.76766095080653" lon="11.583399510913068"><ele>1101.0</ele><time>2026-04-18T11:14:24Z</time></trkpt><trkpt lat="43.767741331195815" lon="11.583326938572943"><ele>1102.0</ele><time>2026-04-18T11:14:25Z</time></trkpt><trkpt lat="43.76783076026586" lon="11.583236645452542"><ele>1103.0</ele><time>2026-04-18T11:14:26Z</time></trkpt><trkpt lat="43.76790554637475" lon="11.583165985371243"><ele>1104.0</ele><time>2026-04-18T11:14:27Z</time></trkpt><trkpt lat="43.76797461877561" lon="11.583108633785839"><ele>1105.0</ele><time>2026-04-18T11:14:28Z</time></trkpt><trkpt lat="43.76804642275884" lon="11.583062974451177"><ele>1105.0</ele><time>2026-04-18T11:14:29Z</time></trkpt><trkpt lat="43.76811005274402" lon="11.583049521385275"><ele>1105.0</ele><time>2026-04-18T11:14:30Z</time></trkpt><trkpt lat="43.768192303880255" lon="11.583007401889107"><ele>1105.0</ele><time>2026-04-18T11:14:32Z</time></trkpt><trkpt lat="43.76825553430522" lon="11.582993090776064"><ele>1105.0</ele><time>2026-04-18T11:14:34Z</time></trkpt><trkpt lat="43.768319395631764" lon="11.582956872200912"><ele>1105.0</ele><time>2026-04-18T11:14:36Z</time></trkpt><trkpt lat="43.768401100031056" lon="11.583002209296316"><ele>1105.0</ele><time>2026-04-18T11:15:14.999Z</time></trkpt><trkpt lat="43.7685223820902" lon="11.583038015542837"><ele>1106.2</ele><time>2026-04-18T11:15:16.999Z</time></trkpt><trkpt lat="43.76860725035997" lon="11.583102168664277"><ele>1107.4</ele><time>2026-04-18T11:15:18.999Z</time></trkpt><trkpt lat="43.768679557339524" lon="11.58312136145358"><ele>1108.6</ele><time>2026-04-18T11:15:19.999Z</time></trkpt><trkpt lat="43.76877011294044" lon="11.58316561283421"><ele>1109.8</ele><time>2026-04-18T11:15:20.999Z</time></trkpt><trkpt lat="43.76886356750618" lon="11.583229352796284"><ele>1111.0</ele><time>2026-04-18T11:15:21.999Z</time></trkpt><trkpt lat="43.768934016526295" lon="11.583302062728562"><ele>1111.0</ele><time>2026-04-18T11:15:22.999Z</time></trkpt><trkpt lat="43.769021952986634" lon="11.583353917304734"><ele>1111.0</ele><time>2026-04-18T11:15:24.999Z</time></trkpt><trkpt lat="43.76908259158573" lon="11.583384056149262"><ele>1111.0</ele><time>2026-04-18T11:15:25.999Z</time></trkpt><trkpt lat="43.76916907725976" lon="11.583446710853002"><ele>1111.0</ele><time>2026-04-18T11:15:26.999Z</time></trkpt><trkpt lat="43.76923850088741" lon="11.583505545469054"><ele>1111.0</ele><time>2026-04-18T11:15:27.999Z</time></trkpt><trkpt lat="43.769311005324454" lon="11.583577774643963"><ele>1111.0</ele><time>2026-04-18T11:15:28.999Z</time></trkpt><trkpt lat="43.76945346430523" lon="11.583685132272509"><ele>1110.8</ele><time>2026-04-18T11:15:30.999Z</time></trkpt><trkpt lat="43.76952019195868" lon="11.583769590149293"><ele>1110.6</ele><time>2026-04-18T11:15:31.999Z</time></trkpt><trkpt lat="43.769588024911805" lon="11.583862929276487"><ele>1110.4</ele><time>2026-04-18T11:15:32.999Z</time></trkpt><trkpt lat="43.769658296881396" lon="11.58393971239015"><ele>1110.2</ele><time>2026-04-18T11:15:33.999Z</time></trkpt><trkpt lat="43.76972777168504" lon="11.584037142461286"><ele>1110.0</ele><time>2026-04-18T11:15:34.999Z</time></trkpt><trkpt lat="43.769809468745535" lon="11.584150360941639"><ele>1110.0</ele><time>2026-04-18T11:15:35.999Z</time></trkpt><trkpt lat="43.769896921253846" lon="11.584234445943947"><ele>1110.0</ele><time>2026-04-18T11:15:36.999Z</time></trkpt><trkpt lat="43.77001199192234" lon="11.584303710125146"><ele>1110.0</ele><time>2026-04-18T11:15:37.999Z</time></trkpt><trkpt lat="43.77009420102326" lon="11.584383444139057"><ele>1110.0</ele><time>2026-04-18T11:15:38.999Z</time></trkpt><trkpt lat="43.77016491633879" lon="11.584455395340866"><ele>1110.0</ele><time>2026-04-18T11:15:40.999Z</time></trkpt><trkpt lat="43.77025682558815" lon="11.584574916864966"><ele>1108.0</ele><time>2026-04-18T11:15:41.999Z</time></trkpt><trkpt lat="43.770301633201996" lon="11.58466671336251"><ele>1106.0</ele><time>2026-04-18T11:15:42.999Z</time></trkpt><trkpt lat="43.7703100754255" lon="11.584771640900167"><ele>1104.0</ele><time>2026-04-18T11:15:44.999Z</time></trkpt><trkpt lat="43.77037248780514" lon="11.584875318915374"><ele>1102.0</ele><time>2026-04-18T11:15:45.999Z</time></trkpt><trkpt lat="43.77046217047168" lon="11.58506105885224"><ele>1100.0</ele><time>2026-04-18T11:15:46.999Z</time></trkpt><trkpt lat="43.77049144314632" lon="11.58519782354307"><ele>1100.0</ele><time>2026-04-18T11:15:47.999Z</time></trkpt><trkpt lat="43.77048841019551" lon="11.58530792898089"><ele>1100.0</ele><time>2026-04-18T11:15:48.999Z</time></trkpt><trkpt lat="43.77051244336166" lon="11.585425607021637"><ele>1100.0</ele><time>2026-04-18T11:15:49.999Z</time></trkpt><trkpt lat="43.770558175379776" lon="11.585548001110151"><ele>1100.0</ele><time>2026-04-18T11:15:50.999Z</time></trkpt><trkpt lat="43.77058994639165" lon="11.585654499770484"><ele>1100.0</ele><time>2026-04-18T11:15:51.999Z</time></trkpt><trkpt lat="43.77063743250245" lon="11.58575308450422"><ele>1100.0</ele><time>2026-04-18T11:15:52.999Z</time></trkpt><trkpt lat="43.770704189668564" lon="11.585851322979744"><ele>1101.2</ele><time>2026-04-18T11:15:53.999Z</time></trkpt><trkpt lat="43.770786652973236" lon="11.58589502291769"><ele>1102.4</ele><time>2026-04-18T11:15:54.999Z</time></trkpt><trkpt lat="43.77085492860238" lon="11.585995061945345"><ele>1103.6</ele><time>2026-04-18T11:15:55.999Z</time></trkpt><trkpt lat="43.7709158234589" lon="11.586091698753133"><ele>1104.8</ele><time>2026-04-18T11:15:56.999Z</time></trkpt><trkpt lat="43.77098908943446" lon="11.586234785695307"><ele>1106.0</ele><time>2026-04-18T11:15:57.999Z</time></trkpt><trkpt lat="43.7710405915808" lon="11.586324719658167"><ele>1102.6666666666667</ele><time>2026-04-18T11:15:58.999Z</time></trkpt><trkpt lat="43.771104133951496" lon="11.586400187992641"><ele>1099.3333333333335</ele><time>2026-04-18T11:15:59.999Z</time></trkpt><trkpt lat="43.771170211527135" lon="11.586496936609567"><ele>1096.0</ele><time>2026-04-18T11:16:00.999Z</time></trkpt><trkpt lat="43.77123137207214" lon="11.586595877490883"><ele>1092.6666666666667</ele><time>2026-04-18T11:16:01.999Z</time></trkpt><trkpt lat="43.77125031699268" lon="11.586680629521956"><ele>1089.3333333333333</ele><time>2026-04-18T11:16:02.999Z</time></trkpt><trkpt lat="43.771271160637085" lon="11.586780913842693"><ele>1086.0</ele><time>2026-04-18T11:16:03.999Z</time></trkpt><trkpt lat="43.77133087209647" lon="11.586926862327271"><ele>1086.5</ele><time>2026-04-18T11:16:04.999Z</time></trkpt><trkpt lat="43.77134152828307" lon="11.587064555610135"><ele>1087.0</ele><time>2026-04-18T11:16:05.999Z</time></trkpt><trkpt lat="43.77135916636619" lon="11.587203229326265"><ele>1087.5</ele><time>2026-04-18T11:16:06.999Z</time></trkpt><trkpt lat="43.77137168453489" lon="11.587348979075555"><ele>1088.0</ele><time>2026-04-18T11:16:07.999Z</time></trkpt><trkpt lat="43.77136662357543" lon="11.58745265611383"><ele>1088.5</ele><time>2026-04-18T11:16:08.998Z</time></trkpt><trkpt lat="43.77136357689925" lon="11.587544266015662"><ele>1089.0</ele><time>2026-04-18T11:16:09.998Z</time></trkpt><trkpt lat="43.77134747914263" lon="11.58765043862154"><ele>1089.0</ele><time>2026-04-18T11:16:11Z</time></trkpt><trkpt lat="43.77136757622999" lon="11.587791813517919"><ele>1089.0</ele><time>2026-04-18T11:16:13Z</time></trkpt><trkpt lat="43.77141398027063" lon="11.587873263527458"><ele>1089.0</ele><time>2026-04-18T11:16:15Z</time></trkpt><trkpt lat="43.771517631312086" lon="11.58802386376928"><ele>1089.0</ele><time>2026-04-18T11:16:17Z</time></trkpt><trkpt lat="43.771616666665054" lon="11.588082622574069"><ele>1089.0</ele><time>2026-04-18T11:16:18Z</time></trkpt><trkpt lat="43.77173036155115" lon="11.588140465530769"><ele>1089.2</ele><time>2026-04-18T11:16:19Z</time></trkpt><trkpt lat="43.771794960600566" lon="11.58819326099084"><ele>1089.4</ele><time>2026-04-18T11:16:20Z</time></trkpt><trkpt lat="43.77187230526223" lon="11.588168708436292"><ele>1089.6</ele><time>2026-04-18T11:16:35Z</time></trkpt><trkpt lat="43.77197731924578" lon="11.588104350296623"><ele>1089.8</ele><time>2026-04-18T11:16:37Z</time></trkpt><trkpt lat="43.7720756012646" lon="11.588077233244505"><ele>1090.0</ele><time>2026-04-18T11:16:38Z</time></trkpt><trkpt lat="43.77216995591984" lon="11.588042296128373"><ele>1089.5</ele><time>2026-04-18T11:16:39Z</time></trkpt><trkpt lat="43.77227168767761" lon="11.588038763011276"><ele>1089.0</ele><time>2026-04-18T11:16:40Z</time></trkpt><trkpt lat="43.77235208145034" lon="11.588011380222518"><ele>1088.5</ele><time>2026-04-18T11:16:41Z</time></trkpt><trkpt lat="43.772426284743545" lon="11.587976874799706"><ele>1088.0</ele><time>2026-04-18T11:16:42Z</time></trkpt><trkpt lat="43.77249265826654" lon="11.587943736046206"><ele>1087.5</ele><time>2026-04-18T11:16:43Z</time></trkpt><trkpt lat="43.77256977061637" lon="11.58792048539674"><ele>1087.0</ele><time>2026-04-18T11:16:44Z</time></trkpt><trkpt lat="43.77263248883792" lon="11.587890133447187"><ele>1084.8333333333333</ele><time>2026-04-18T11:16:46Z</time></trkpt><trkpt lat="43.77271218978532" lon="11.58784647046895"><ele>1082.6666666666665</ele><time>2026-04-18T11:16:47Z</time></trkpt><trkpt lat="43.77277556499746" lon="11.587827138347954"><ele>1080.5</ele><time>2026-04-18T11:16:48Z</time></trkpt><trkpt lat="43.772819970936176" lon="11.587733896208467"><ele>1078.3333333333333</ele><time>2026-04-18T11:16:49Z</time></trkpt><trkpt lat="43.77287307362552" lon="11.587628737935676"><ele>1076.1666666666667</ele><time>2026-04-18T11:16:50Z</time></trkpt><trkpt lat="43.77292992398369" lon="11.587536685053708"><ele>1074.0</ele><time>2026-04-18T11:16:51Z</time></trkpt><trkpt lat="43.772969368815986" lon="11.587451961417942"><ele>1074.0</ele><time>2026-04-18T11:16:52Z</time></trkpt><trkpt lat="43.77299824700469" lon="11.587305806387885"><ele>1074.0</ele><time>2026-04-18T11:16:54Z</time></trkpt><trkpt lat="43.7730271694161" lon="11.587214108020477"><ele>1074.0</ele><time>2026-04-18T11:16:55Z</time></trkpt><trkpt lat="43.77307133495233" lon="11.587083394685017"><ele>1074.0</ele><time>2026-04-18T11:16:56Z</time></trkpt><trkpt lat="43.773115553029335" lon="11.586963460610779"><ele>1074.0</ele><time>2026-04-18T11:16:57Z</time></trkpt><trkpt lat="43.773144165440534" lon="11.586856121066035"><ele>1072.5</ele><time>2026-04-18T11:16:58Z</time></trkpt><trkpt lat="43.773212556382546" lon="11.586718090614466"><ele>1071.0</ele><time>2026-04-18T11:17:00Z</time></trkpt><trkpt lat="43.77326949364643" lon="11.586619115691972"><ele>1069.5</ele><time>2026-04-18T11:17:01Z</time></trkpt><trkpt lat="43.77332550859902" lon="11.586515710504841"><ele>1068.0</ele><time>2026-04-18T11:17:02Z</time></trkpt><trkpt lat="43.773427011964486" lon="11.586337613544323"><ele>1068.0</ele><time>2026-04-18T11:17:04Z</time></trkpt><trkpt lat="43.77348339741435" lon="11.586233505291855"><ele>1068.0</ele><time>2026-04-18T11:17:05Z</time></trkpt><trkpt lat="43.773559173117725" lon="11.586135472937297"><ele>1068.0</ele><time>2026-04-18T11:17:06Z</time></trkpt><trkpt lat="43.77362322724744" lon="11.586062505385755"><ele>1068.0</ele><time>2026-04-18T11:17:07Z</time></trkpt><trkpt lat="43.773678512653596" lon="11.585997170488417"><ele>1068.0</ele><time>2026-04-18T11:17:08Z</time></trkpt><trkpt lat="43.77377991013337" lon="11.585859585484332"><ele>1066.8333333333333</ele><time>2026-04-18T11:17:09.999Z</time></trkpt><trkpt lat="43.77382389240989" lon="11.58579679191149"><ele>1065.6666666666667</ele><time>2026-04-18T11:17:10.999Z</time></trkpt><trkpt lat="43.77390372664256" lon="11.58568370843155"><ele>1064.5</ele><time>2026-04-18T11:17:12.999Z</time></trkpt><trkpt lat="43.773987749210136" lon="11.585645139929415"><ele>1063.3333333333335</ele><time>2026-04-18T11:17:14.999Z</time></trkpt><trkpt lat="43.77406710239015" lon="11.585564868134178"><ele>1062.1666666666667</ele><time>2026-04-18T11:17:15.999Z</time></trkpt><trkpt lat="43.774119208493445" lon="11.585498689238904"><ele>1061.0</ele><time>2026-04-18T11:17:16.999Z</time></trkpt><trkpt lat="43.77420955056198" lon="11.585385226191699"><ele>1061.0</ele><time>2026-04-18T11:17:18.999Z</time></trkpt><trkpt lat="43.77427540138282" lon="11.585348618570334"><ele>1061.0</ele><time>2026-04-18T11:17:19.999Z</time></trkpt><trkpt lat="43.77434412065852" lon="11.585273752169574"><ele>1061.0</ele><time>2026-04-18T11:17:21.999Z</time></trkpt><trkpt lat="43.77441897668783" lon="11.585202867452672"><ele>1061.0</ele><time>2026-04-18T11:17:22.999Z</time></trkpt><trkpt lat="43.77450898259144" lon="11.585158527480026"><ele>1061.0</ele><time>2026-04-18T11:17:24.999Z</time></trkpt><trkpt lat="43.77462816520578" lon="11.58508242941409"><ele>1057.6</ele><time>2026-04-18T11:17:26.999Z</time></trkpt><trkpt lat="43.774721767333645" lon="11.585090102578482"><ele>1054.1999999999998</ele><time>2026-04-18T11:17:28.999Z</time></trkpt><trkpt lat="43.77481739899731" lon="11.585113828183397"><ele>1050.8000000000002</ele><time>2026-04-18T11:17:30.999Z</time></trkpt><trkpt lat="43.77492646154229" lon="11.585113254655708"><ele>1047.4</ele><time>2026-04-18T11:17:32.999Z</time></trkpt><trkpt lat="43.77498014591274" lon="11.585018263096748"><ele>1044.0</ele><time>2026-04-18T11:17:34.999Z</time></trkpt><trkpt lat="43.77488814833392" lon="11.584886915052778"><ele>1044.0</ele><time>2026-04-18T11:17:36.999Z</time></trkpt><trkpt lat="43.774818045442956" lon="11.584839271946732"><ele>1044.0</ele><time>2026-04-18T11:17:37.999Z</time></trkpt><trkpt lat="43.77480411930975" lon="11.584704145728347"><ele>1044.0</ele><time>2026-04-18T11:17:39.999Z</time></trkpt><trkpt lat="43.774789757643525" lon="11.58460490229767"><ele>1044.0</ele><time>2026-04-18T11:17:40.999Z</time></trkpt><trkpt lat="43.77478984778656" lon="11.584481671383712"><ele>1044.0</ele><time>2026-04-18T11:17:41.999Z</time></trkpt><trkpt lat="43.77482750396699" lon="11.58431848356522"><ele>1042.5</ele><time>2026-04-18T11:17:43.999Z</time></trkpt><trkpt lat="43.77484312735292" lon="11.584208984346567"><ele>1041.0</ele><time>2026-04-18T11:17:44.999Z</time></trkpt><trkpt lat="43.77485772169361" lon="11.584094145646814"><ele>1039.5</ele><time>2026-04-18T11:17:45.999Z</time></trkpt><trkpt lat="43.77486983934055" lon="11.583998795350627"><ele>1038.0</ele><time>2026-04-18T11:17:46.999Z</time></trkpt><trkpt lat="43.77488069707254" lon="11.583901139118911"><ele>1036.5</ele><time>2026-04-18T11:17:47.999Z</time></trkpt><trkpt lat="43.774891554427874" lon="11.583789955087799"><ele>1035.0</ele><time>2026-04-18T11:17:48.999Z</time></trkpt><trkpt lat="43.77488070184297" lon="11.58369938176305"><ele>1033.8333333333333</ele><time>2026-04-18T11:17:49.999Z</time></trkpt><trkpt lat="43.77485938882586" lon="11.583541889749556"><ele>1032.6666666666667</ele><time>2026-04-18T11:17:51.999Z</time></trkpt><trkpt lat="43.774808032481765" lon="11.583467023786918"><ele>1031.5</ele><time>2026-04-18T11:17:52.999Z</time></trkpt><trkpt lat="43.774752599905874" lon="11.583417861301397"><ele>1030.3333333333335</ele><time>2026-04-18T11:17:53.999Z</time></trkpt><trkpt lat="43.77468808816669" lon="11.583404430533164"><ele>1029.1666666666667</ele><time>2026-04-18T11:17:54.999Z</time></trkpt><trkpt lat="43.774576220947516" lon="11.583411702439662"><ele>1028.0</ele><time>2026-04-18T11:17:56.999Z</time></trkpt><trkpt lat="43.77451429708716" lon="11.583429995486858"><ele>1028.0</ele><time>2026-04-18T11:17:57.999Z</time></trkpt><trkpt lat="43.774435027581696" lon="11.583491999804458"><ele>1028.0</ele><time>2026-04-18T11:17:58.999Z</time></trkpt><trkpt lat="43.774339499739085" lon="11.583519347173414"><ele>1028.0</ele><time>2026-04-18T11:17:59.999Z</time></trkpt><trkpt lat="43.77427544444237" lon="11.583567552962517"><ele>1028.0</ele><time>2026-04-18T11:18:00.999Z</time></trkpt><trkpt lat="43.77421422685632" lon="11.583604892500022"><ele>1028.0</ele><time>2026-04-18T11:18:01.999Z</time></trkpt><trkpt lat="43.774130171599275" lon="11.58363994054114"><ele>1028.0</ele><time>2026-04-18T11:18:02.999Z</time></trkpt><trkpt lat="43.77406983678637" lon="11.583702740144686"><ele>1029.6</ele><time>2026-04-18T11:18:03.999Z</time></trkpt><trkpt lat="43.773996538906346" lon="11.58374026711823"><ele>1031.1999999999998</ele><time>2026-04-18T11:18:04.999Z</time></trkpt><trkpt lat="43.773933215157555" lon="11.58377294657464"><ele>1032.8</ele><time>2026-04-18T11:18:05.999Z</time></trkpt><trkpt lat="43.773862782078574" lon="11.583816165379533"><ele>1034.3999999999999</ele><time>2026-04-18T11:18:06.999Z</time></trkpt><trkpt lat="43.7737277394568" lon="11.583900045325484"><ele>1036.0</ele><time>2026-04-18T11:18:08.999Z</time></trkpt><trkpt lat="43.77361562709562" lon="11.583971613412016"><ele>1036.0</ele><time>2026-04-18T11:18:10.999Z</time></trkpt><trkpt lat="43.77353882753512" lon="11.584007127499362"><ele>1036.0</ele><time>2026-04-18T11:18:11.999Z</time></trkpt><trkpt lat="43.77345931796823" lon="11.584009253723957"><ele>1036.0</ele><time>2026-04-18T11:18:13.999Z</time></trkpt><trkpt lat="43.773401493638985" lon="11.583925569360206"><ele>1036.0</ele><time>2026-04-18T11:18:14.999Z</time></trkpt><trkpt lat="43.773365420258415" lon="11.583799623421756"><ele>1036.0</ele><time>2026-04-18T11:18:17Z</time></trkpt><trkpt lat="43.773403352905994" lon="11.583713122794867"><ele>1036.0</ele><time>2026-04-18T11:18:19Z</time></trkpt><trkpt lat="43.773462238621384" lon="11.583521750210847"><ele>1033.8</ele><time>2026-04-18T11:18:20Z</time></trkpt><trkpt lat="43.77349794496969" lon="11.58336184661921"><ele>1031.6</ele><time>2026-04-18T11:18:21Z</time></trkpt><trkpt lat="43.77357536680819" lon="11.583231541556266"><ele>1029.4</ele><time>2026-04-18T11:18:22Z</time></trkpt><trkpt lat="43.77362406402291" lon="11.583097500694212"><ele>1027.2</ele><time>2026-04-18T11:18:23Z</time></trkpt><trkpt lat="43.77365155487981" lon="11.582995852363931"><ele>1025.0</ele><time>2026-04-18T11:18:24Z</time></trkpt><trkpt lat="43.7736817267773" lon="11.582848012782112"><ele>1023.3333333333334</ele><time>2026-04-18T11:18:26Z</time></trkpt><trkpt lat="43.77368780011789" lon="11.582754409827142"><ele>1021.6666666666667</ele><time>2026-04-18T11:18:27Z</time></trkpt><trkpt lat="43.77368774785242" lon="11.582637521661228"><ele>1020.0</ele><time>2026-04-18T11:18:28Z</time></trkpt><trkpt lat="43.773660504548936" lon="11.582542194286654"><ele>1018.3333333333333</ele><time>2026-04-18T11:18:29Z</time></trkpt><trkpt lat="43.7736721366662" lon="11.582420323700507"><ele>1016.6666666666666</ele><time>2026-04-18T11:18:32Z</time></trkpt><trkpt lat="43.77369439797888" lon="11.58229490482929"><ele>1015.0</ele><time>2026-04-18T11:18:33Z</time></trkpt><trkpt lat="43.77374118137408" lon="11.58215882481061"><ele>1015.0</ele><time>2026-04-18T11:18:34Z</time></trkpt><trkpt lat="43.77380005064326" lon="11.582035646207673"><ele>1015.0</ele><time>2026-04-18T11:18:35Z</time></trkpt><trkpt lat="43.773833722782065" lon="11.581947782994451"><ele>1015.0</ele><time>2026-04-18T11:18:36Z</time></trkpt><trkpt lat="43.773863707775654" lon="11.581864330426908"><ele>1015.0</ele><time>2026-04-18T11:18:37Z</time></trkpt><trkpt lat="43.77388909323805" lon="11.581697688532122"><ele>1015.0</ele><time>2026-04-18T11:18:38Z</time></trkpt><trkpt lat="43.773840862810495" lon="11.58154834593118"><ele>1013.2</ele><time>2026-04-18T11:18:39Z</time></trkpt><trkpt lat="43.773787061732385" lon="11.581437496302819"><ele>1011.4</ele><time>2026-04-18T11:18:43Z</time></trkpt><trkpt lat="43.773891030785336" lon="11.581330963350588"><ele>1009.5999999999999</ele><time>2026-04-18T11:18:46Z</time></trkpt><trkpt lat="43.773978057903086" lon="11.581299279565096"><ele>1007.8</ele><time>2026-04-18T11:18:47Z</time></trkpt><trkpt lat="43.7740732957214" lon="11.581285285287526"><ele>1006.0</ele><time>2026-04-18T11:18:49Z</time></trkpt><trkpt lat="43.774145352956246" lon="11.581241584895771"><ele>1005.4999999999999</ele><time>2026-04-18T11:18:50Z</time></trkpt><trkpt lat="43.77427927528281" lon="11.581163096746032"><ele>1005.0</ele><time>2026-04-18T11:18:52Z</time></trkpt><trkpt lat="43.774338714739" lon="11.58108511409653"><ele>1004.5</ele><time>2026-04-18T11:18:53Z</time></trkpt><trkpt lat="43.77437578301414" lon="11.580974661879152"><ele>1004.0</ele><time>2026-04-18T11:18:54Z</time></trkpt><trkpt lat="43.77438957720035" lon="11.580883195804297"><ele>1003.4999999999999</ele><time>2026-04-18T11:18:55Z</time></trkpt><trkpt lat="43.774393557561886" lon="11.580792820267796"><ele>1003.0</ele><time>2026-04-18T11:18:56Z</time></trkpt><trkpt lat="43.77444307412459" lon="11.580615715903242"><ele>1002.0</ele><time>2026-04-18T11:18:58Z</time></trkpt><trkpt lat="43.7745233177838" lon="11.580508471806494"><ele>1001.0</ele><time>2026-04-18T11:19:00Z</time></trkpt><trkpt lat="43.77460277177352" lon="11.580409759127209"><ele>1000.0</ele><time>2026-04-18T11:19:02Z</time></trkpt><trkpt lat="43.77467295754972" lon="11.580324160337474"><ele>999.0</ele><time>2026-04-18T11:19:03Z</time></trkpt><trkpt lat="43.7747887991661" lon="11.58020800369884"><ele>997.8333333333334</ele><time>2026-04-18T11:19:04.999Z</time></trkpt><trkpt lat="43.774856918543" lon="11.58013405426809"><ele>996.6666666666667</ele><time>2026-04-18T11:19:05.999Z</time></trkpt><trkpt lat="43.7749259568159" lon="11.580070233627964"><ele>995.5</ele><time>2026-04-18T11:19:06.999Z</time></trkpt><trkpt lat="43.77498288597784" lon="11.580006229113296"><ele>994.3333333333334</ele><time>2026-04-18T11:19:07.999Z</time></trkpt><trkpt lat="43.77503202178316" lon="11.579900652774322"><ele>993.1666666666667</ele><time>2026-04-18T11:19:08.999Z</time></trkpt><trkpt lat="43.7750164977297" lon="11.579762577316277"><ele>992.0</ele><time>2026-04-18T11:19:09.999Z</time></trkpt><trkpt lat="43.775023362937034" lon="11.579660362602544"><ele>992.0</ele><time>2026-04-18T11:19:10.999Z</time></trkpt><trkpt lat="43.77503476551173" lon="11.579534700644825"><ele>992.0</ele><time>2026-04-18T11:19:11.999Z</time></trkpt><trkpt lat="43.77504867099509" lon="11.57940594540349"><ele>992.0</ele><time>2026-04-18T11:19:12.999Z</time></trkpt><trkpt lat="43.775065031241375" lon="11.579299294092529"><ele>992.0</ele><time>2026-04-18T11:19:13.999Z</time></trkpt><trkpt lat="43.77509796339421" lon="11.579140994156347"><ele>992.0</ele><time>2026-04-18T11:19:15.999Z</time></trkpt><trkpt lat="43.77512329638362" lon="11.579053399390022"><ele>990.8</ele><time>2026-04-18T11:19:16.999Z</time></trkpt><trkpt lat="43.775155044813964" lon="11.578974217150574"><ele>989.6</ele><time>2026-04-18T11:19:17.999Z</time></trkpt><trkpt lat="43.77527218152894" lon="11.578868824109598"><ele>988.3999999999999</ele><time>2026-04-18T11:19:19.999Z</time></trkpt><trkpt lat="43.77536485776954" lon="11.578842792624261"><ele>987.1999999999999</ele><time>2026-04-18T11:19:20.999Z</time></trkpt><trkpt lat="43.775435811461186" lon="11.578799342173177"><ele>986.0</ele><time>2026-04-18T11:19:21.999Z</time></trkpt><trkpt lat="43.775522616079776" lon="11.578592520018475"><ele>983.6666666666667</ele><time>2026-04-18T11:19:23.999Z</time></trkpt><trkpt lat="43.77555858235867" lon="11.578438109728488"><ele>981.3333333333334</ele><time>2026-04-18T11:19:24.999Z</time></trkpt><trkpt lat="43.775604901065826" lon="11.578274133725003"><ele>979.0</ele><time>2026-04-18T11:19:25.999Z</time></trkpt><trkpt lat="43.7756314219768" lon="11.578192182304091"><ele>976.6666666666667</ele><time>2026-04-18T11:19:26.999Z</time></trkpt><trkpt lat="43.775651518291205" lon="11.578109100883031"><ele>974.3333333333334</ele><time>2026-04-18T11:19:28.999Z</time></trkpt><trkpt lat="43.77567597919025" lon="11.578022505173521"><ele>972.0</ele><time>2026-04-18T11:20:31Z</time></trkpt><trkpt lat="43.77596999247874" lon="11.578285018581509"><ele>971.5</ele><time>2026-04-18T11:20:38Z</time></trkpt><trkpt lat="43.77603214282945" lon="11.578331733235535"><ele>971.0</ele><time>2026-04-18T11:20:39Z</time></trkpt><trkpt lat="43.77608879537716" lon="11.578385265265327"><ele>970.5</ele><time>2026-04-18T11:20:40Z</time></trkpt><trkpt lat="43.77617182384855" lon="11.57843565933199"><ele>970.0</ele><time>2026-04-18T11:20:42Z</time></trkpt><trkpt lat="43.7762230731497" lon="11.578540539732737"><ele>969.5</ele><time>2026-04-18T11:20:44Z</time></trkpt><trkpt lat="43.77627153472809" lon="11.57865877839861"><ele>969.0</ele><time>2026-04-18T11:20:45Z</time></trkpt><trkpt lat="43.77637010536312" lon="11.578773631697025"><ele>969.0</ele><time>2026-04-18T11:20:46Z</time></trkpt><trkpt lat="43.77643463077671" lon="11.578875074834263"><ele>969.0000000000001</ele><time>2026-04-18T11:20:47Z</time></trkpt><trkpt lat="43.77649528873845" lon="11.578934912494834"><ele>969.0000000000001</ele><time>2026-04-18T11:20:48Z</time></trkpt><trkpt lat="43.77652994163098" lon="11.57904473184679"><ele>969.0</ele><time>2026-04-18T11:20:49Z</time></trkpt><trkpt lat="43.77658769920824" lon="11.579148844922976"><ele>969.0</ele><time>2026-04-18T11:20:51Z</time></trkpt><trkpt lat="43.77669914059891" lon="11.57941085081229"><ele>970.2</ele><time>2026-04-18T11:20:52Z</time></trkpt><trkpt lat="43.77679631501684" lon="11.579568016378802"><ele>971.4000000000001</ele><time>2026-04-18T11:20:53Z</time></trkpt><trkpt lat="43.77685047912681" lon="11.57968969014518"><ele>972.6</ele><time>2026-04-18T11:20:54Z</time></trkpt><trkpt lat="43.77690659346693" lon="11.57974036081368"><ele>973.8</ele><time>2026-04-18T11:20:55Z</time></trkpt><trkpt lat="43.77696463433834" lon="11.579806690586578"><ele>975.0</ele><time>2026-04-18T11:20:56Z</time></trkpt><trkpt lat="43.777014515497754" lon="11.579863474190724"><ele>968.25</ele><time>2026-04-18T11:20:57Z</time></trkpt><trkpt lat="43.777087455425345" lon="11.579915590868007"><ele>961.5</ele><time>2026-04-18T11:20:59Z</time></trkpt><trkpt lat="43.777174380645384" lon="11.5799574117649"><ele>954.75</ele><time>2026-04-18T11:21:01Z</time></trkpt><trkpt lat="43.77729938249484" lon="11.579927321562879"><ele>948.0</ele><time>2026-04-18T11:21:03Z</time></trkpt><trkpt lat="43.77740679301048" lon="11.579719234937762"><ele>948.0</ele><time>2026-04-18T11:21:05Z</time></trkpt><trkpt lat="43.77739585684332" lon="11.579528487289537"><ele>948.0</ele><time>2026-04-18T11:21:06Z</time></trkpt><trkpt lat="43.77736806974724" lon="11.579383095292185"><ele>948.0</ele><time>2026-04-18T11:21:07Z</time></trkpt><trkpt lat="43.777353377656304" lon="11.579297585738875"><ele>948.0</ele><time>2026-04-18T11:21:08Z</time></trkpt><trkpt lat="43.77733814093155" lon="11.579200376803419"><ele>948.0</ele><time>2026-04-18T11:21:08.999Z</time></trkpt><trkpt lat="43.77732607595244" lon="11.579062003062022"><ele>947.8333333333334</ele><time>2026-04-18T11:21:10.999Z</time></trkpt><trkpt lat="43.777326586850144" lon="11.578944158860796"><ele>947.6666666666667</ele><time>2026-04-18T11:21:11.999Z</time></trkpt><trkpt lat="43.77733698846793" lon="11.578816230800932"><ele>947.5</ele><time>2026-04-18T11:21:12.999Z</time></trkpt><trkpt lat="43.77734812852509" lon="11.578725149548617"><ele>947.3333333333334</ele><time>2026-04-18T11:21:13.999Z</time></trkpt><trkpt lat="43.77736369660552" lon="11.578634120660183"><ele>947.1666666666667</ele><time>2026-04-18T11:21:14.999Z</time></trkpt><trkpt lat="43.777385804543435" lon="11.578510974948708"><ele>947.0</ele><time>2026-04-18T11:21:15.999Z</time></trkpt><trkpt lat="43.77742761609773" lon="11.578400999552844"><ele>945.6</ele><time>2026-04-18T11:21:16.999Z</time></trkpt><trkpt lat="43.77751311813172" lon="11.578275249651606"><ele>944.2</ele><time>2026-04-18T11:21:17.999Z</time></trkpt><trkpt lat="43.77760492863733" lon="11.57819412675466"><ele>942.8</ele><time>2026-04-18T11:21:18.999Z</time></trkpt><trkpt lat="43.77766262975604" lon="11.578078391468097"><ele>941.4</ele><time>2026-04-18T11:21:19.999Z</time></trkpt><trkpt lat="43.77771546537794" lon="11.57799863301506"><ele>940.0</ele><time>2026-04-18T11:21:20.999Z</time></trkpt><trkpt lat="43.77778058928645" lon="11.577931896020427"><ele>937.0</ele><time>2026-04-18T11:21:21.999Z</time></trkpt><trkpt lat="43.777850830173165" lon="11.577807242889863"><ele>934.0</ele><time>2026-04-18T11:21:23.999Z</time></trkpt><trkpt lat="43.77793323176726" lon="11.577729863859021"><ele>931.0</ele><time>2026-04-18T11:21:51.999Z</time></trkpt><trkpt lat="43.778021121365065" lon="11.577694407280394"><ele>928.0</ele><time>2026-04-18T11:21:53.999Z</time></trkpt><trkpt lat="43.7780781775086" lon="11.57765354116422"><ele>925.0</ele><time>2026-04-18T11:21:54.999Z</time></trkpt><trkpt lat="43.778180539834665" lon="11.57764723486074"><ele>925.0</ele><time>2026-04-18T11:21:56.999Z</time></trkpt><trkpt lat="43.7782459646234" lon="11.577667113498563"><ele>925.0</ele><time>2026-04-18T11:21:57.999Z</time></trkpt><trkpt lat="43.77830793985305" lon="11.577701673716364"><ele>925.0</ele><time>2026-04-18T11:21:58.999Z</time></trkpt><trkpt lat="43.778371240393284" lon="11.57774122494848"><ele>925.0</ele><time>2026-04-18T11:21:59.999Z</time></trkpt><trkpt lat="43.778435930319745" lon="11.577774944065622"><ele>925.0</ele><time>2026-04-18T11:22:00.999Z</time></trkpt><trkpt lat="43.77848016287307" lon="11.577855060209812"><ele>925.0</ele><time>2026-04-18T11:22:01.999Z</time></trkpt><trkpt lat="43.778489928438226" lon="11.577966412453488"><ele>925.0</ele><time>2026-04-18T11:22:02.999Z</time></trkpt><trkpt lat="43.77853473016191" lon="11.57805688935702"><ele>923.6</ele><time>2026-04-18T11:22:03.999Z</time></trkpt><trkpt lat="43.77858065655439" lon="11.578223118225086"><ele>922.2</ele><time>2026-04-18T11:22:05.999Z</time></trkpt><trkpt lat="43.77863484106145" lon="11.57829316683262"><ele>920.8</ele><time>2026-04-18T11:22:06.999Z</time></trkpt><trkpt lat="43.77866570378651" lon="11.578385035089427"><ele>919.4</ele><time>2026-04-18T11:22:07.999Z</time></trkpt><trkpt lat="43.77873372321521" lon="11.578540426471967"><ele>918.0</ele><time>2026-04-18T11:22:09.999Z</time></trkpt><trkpt lat="43.778776567041355" lon="11.578623418772267"><ele>917.5</ele><time>2026-04-18T11:22:10.999Z</time></trkpt><trkpt lat="43.778818350029425" lon="11.578698248564967"><ele>917.0</ele><time>2026-04-18T11:22:11.999Z</time></trkpt><trkpt lat="43.778906805313014" lon="11.578808686557773"><ele>916.5</ele><time>2026-04-18T11:22:13.999Z</time></trkpt><trkpt lat="43.778965831308085" lon="11.578887225378665"><ele>916.0</ele><time>2026-04-18T11:22:15.999Z</time></trkpt><trkpt lat="43.77890021431626" lon="11.579124129841448"><ele>916.0</ele><time>2026-04-18T11:22:18.999Z</time></trkpt><trkpt lat="43.77885083078857" lon="11.579236538329054"><ele>916.0</ele><time>2026-04-18T11:22:19.999Z</time></trkpt><trkpt lat="43.778834415843846" lon="11.579322442284562"><ele>916.0</ele><time>2026-04-18T11:22:20.999Z</time></trkpt><trkpt lat="43.778815247524186" lon="11.579409988262697"><ele>916.0</ele><time>2026-04-18T11:22:21.999Z</time></trkpt><trkpt lat="43.77876773937247" lon="11.579494445015316"><ele>916.0</ele><time>2026-04-18T11:22:22.999Z</time></trkpt><trkpt lat="43.778734656768954" lon="11.579578693575588"><ele>916.0</ele><time>2026-04-18T11:22:23.999Z</time></trkpt><trkpt lat="43.778747059145104" lon="11.579677334239573"><ele>916.0</ele><time>2026-04-18T11:22:25.998Z</time></trkpt><trkpt lat="43.77879755944448" lon="11.579749443645506"><ele>917.9999999999999</ele><time>2026-04-18T11:22:53Z</time></trkpt><trkpt lat="43.77873091141947" lon="11.579743511663123"><ele>920.0</ele><time>2026-04-18T11:23:27.999Z</time></trkpt><trkpt lat="43.77868307211752" lon="11.57983841178913"><ele>922.0</ele><time>2026-04-18T11:29:05Z</time></trkpt><trkpt lat="43.77874071508129" lon="11.579797248260181"><ele>924.0</ele><time>2026-04-18T11:30:29.999Z</time></trkpt><trkpt lat="43.77872999978868" lon="11.579679917988793"><ele>925.9999999999999</ele><time>2026-04-18T11:31:17Z</time></trkpt><trkpt lat="43.778795172597945" lon="11.579703940125198"><ele>928.0</ele><time>2026-04-18T11:34:12.999Z</time></trkpt><trkpt lat="43.778712939494305" lon="11.579762652240532"><ele>928.0</ele><time>2026-04-18T11:34:57.999Z</time></trkpt><trkpt lat="43.778801621730935" lon="11.579699084394532"><ele>928.0</ele><time>2026-04-18T11:36:13.999Z</time></trkpt><trkpt lat="43.77889268673896" lon="11.579689254385274"><ele>928.0</ele><time>2026-04-18T11:36:17.999Z</time></trkpt><trkpt lat="43.77895603344597" lon="11.579676627149002"><ele>928.0</ele><time>2026-04-18T11:36:19.999Z</time></trkpt><trkpt lat="43.77908318593197" lon="11.579664550021775"><ele>928.0</ele><time>2026-04-18T11:36:21.999Z</time></trkpt><trkpt lat="43.77918915599201" lon="11.579665059595936"><ele>927.9999999999999</ele><time>2026-04-18T11:36:23.999Z</time></trkpt><trkpt lat="43.77928561043746" lon="11.579639386484773"><ele>928.0</ele><time>2026-04-18T11:36:26.999Z</time></trkpt><trkpt lat="43.77937321466845" lon="11.579596960262226"><ele>928.0</ele><time>2026-04-18T11:36:29.999Z</time></trkpt><trkpt lat="43.7794598777528" lon="11.579578757401027"><ele>928.0</ele><time>2026-04-18T11:36:31.999Z</time></trkpt><trkpt lat="43.77952409749305" lon="11.579592376654748"><ele>927.9999999999999</ele><time>2026-04-18T11:36:33.999Z</time></trkpt><trkpt lat="43.779590561981166" lon="11.579588658493801"><ele>928.0</ele><time>2026-04-18T11:36:42.999Z</time></trkpt><trkpt lat="43.77965864869097" lon="11.57959717876571"><ele>927.3333333333333</ele><time>2026-04-18T11:36:43.999Z</time></trkpt><trkpt lat="43.779734136733026" lon="11.579624344530012"><ele>926.6666666666666</ele><time>2026-04-18T11:36:44.999Z</time></trkpt><trkpt lat="43.77980044052339" lon="11.579644848233524"><ele>926.0</ele><time>2026-04-18T11:36:45.999Z</time></trkpt><trkpt lat="43.77986553510342" lon="11.579672851955078"><ele>925.3333333333333</ele><time>2026-04-18T11:36:46.999Z</time></trkpt><trkpt lat="43.77993736366114" lon="11.579706492229114"><ele>924.6666666666666</ele><time>2026-04-18T11:36:47.999Z</time></trkpt><trkpt lat="43.78000347149212" lon="11.579722536543084"><ele>924.0</ele><time>2026-04-18T11:36:48.999Z</time></trkpt><trkpt lat="43.780096587239264" lon="11.579740136977145"><ele>924.0</ele><time>2026-04-18T11:36:49.999Z</time></trkpt><trkpt lat="43.78017497611344" lon="11.579775820157677"><ele>924.0</ele><time>2026-04-18T11:36:50.999Z</time></trkpt><trkpt lat="43.780253858343066" lon="11.579791995901155"><ele>924.0</ele><time>2026-04-18T11:36:51.999Z</time></trkpt><trkpt lat="43.78032961041903" lon="11.579805830663044"><ele>924.0</ele><time>2026-04-18T11:36:52.999Z</time></trkpt><trkpt lat="43.78041125147505" lon="11.579831166422025"><ele>924.0</ele><time>2026-04-18T11:36:53.999Z</time></trkpt><trkpt lat="43.7804742852078" lon="11.579889717243708"><ele>924.0</ele><time>2026-04-18T11:36:54.999Z</time></trkpt><trkpt lat="43.78053858511322" lon="11.579906291118462"><ele>922.8000000000001</ele><time>2026-04-18T11:36:55.999Z</time></trkpt><trkpt lat="43.780653552116654" lon="11.579815073818521"><ele>921.6000000000001</ele><time>2026-04-18T11:36:57.999Z</time></trkpt><trkpt lat="43.78071679202044" lon="11.579744810962595"><ele>920.4</ele><time>2026-04-18T11:36:58.999Z</time></trkpt><trkpt lat="43.78078368476732" lon="11.579694744842142"><ele>919.2</ele><time>2026-04-18T11:36:59.999Z</time></trkpt><trkpt lat="43.78086791479051" lon="11.579645791707938"><ele>918.0</ele><time>2026-04-18T11:37:00.999Z</time></trkpt><trkpt lat="43.78094445088601" lon="11.579597225540168"><ele>916.5999999999999</ele><time>2026-04-18T11:37:01.999Z</time></trkpt><trkpt lat="43.78103337925596" lon="11.579566854150052"><ele>915.1999999999999</ele><time>2026-04-18T11:37:02.999Z</time></trkpt><trkpt lat="43.781112505500204" lon="11.579563121358573"><ele>913.8</ele><time>2026-04-18T11:37:03.999Z</time></trkpt><trkpt lat="43.78120297742667" lon="11.579534170585344"><ele>912.4</ele><time>2026-04-18T11:37:04.999Z</time></trkpt><trkpt lat="43.781291587751284" lon="11.579508774585559"><ele>911.0</ele><time>2026-04-18T11:37:05.999Z</time></trkpt><trkpt lat="43.78137445802912" lon="11.5793845549625"><ele>911.0</ele><time>2026-04-18T11:37:06.999Z</time></trkpt><trkpt lat="43.78146435059364" lon="11.579289733456374"><ele>910.9999999999999</ele><time>2026-04-18T11:37:07.999Z</time></trkpt><trkpt lat="43.781539813118094" lon="11.57917821387149"><ele>910.9999999999999</ele><time>2026-04-18T11:37:09Z</time></trkpt><trkpt lat="43.781634860879905" lon="11.579092009535866"><ele>911.0</ele><time>2026-04-18T11:37:10Z</time></trkpt><trkpt lat="43.7817082715439" lon="11.57902041808496"><ele>911.0</ele><time>2026-04-18T11:37:11Z</time></trkpt><trkpt lat="43.781789296154294" lon="11.57897214133764"><ele>909.5</ele><time>2026-04-18T11:37:12Z</time></trkpt><trkpt lat="43.78188733951007" lon="11.578924980394776"><ele>908.0</ele><time>2026-04-18T11:37:13Z</time></trkpt><trkpt lat="43.78200301891104" lon="11.578868580937263"><ele>906.5</ele><time>2026-04-18T11:37:14Z</time></trkpt><trkpt lat="43.782113198734905" lon="11.578746841603522"><ele>905.0</ele><time>2026-04-18T11:37:15Z</time></trkpt><trkpt lat="43.78219023367932" lon="11.578664789372795"><ele>905.0</ele><time>2026-04-18T11:37:16Z</time></trkpt><trkpt lat="43.782256795513284" lon="11.578548914160015"><ele>905.0</ele><time>2026-04-18T11:37:17Z</time></trkpt><trkpt lat="43.78234546424034" lon="11.578469622625818"><ele>905.0</ele><time>2026-04-18T11:37:18Z</time></trkpt><trkpt lat="43.782438843924005" lon="11.578418036080528"><ele>905.0</ele><time>2026-04-18T11:37:19Z</time></trkpt><trkpt lat="43.78252915416181" lon="11.578296878057145"><ele>905.0</ele><time>2026-04-18T11:37:20Z</time></trkpt><trkpt lat="43.782624156522566" lon="11.578229082906512"><ele>906.5</ele><time>2026-04-18T11:37:21Z</time></trkpt><trkpt lat="43.78273496181796" lon="11.578143514866806"><ele>908.0</ele><time>2026-04-18T11:37:22Z</time></trkpt><trkpt lat="43.782846637508634" lon="11.578095066444467"><ele>909.5</ele><time>2026-04-18T11:37:23Z</time></trkpt><trkpt lat="43.78292455305095" lon="11.577985656644227"><ele>911.0</ele><time>2026-04-18T11:37:24Z</time></trkpt><trkpt lat="43.78300821779321" lon="11.577901357617787"><ele>907.0</ele><time>2026-04-18T11:37:25Z</time></trkpt><trkpt lat="43.783087928546344" lon="11.577843011108252"><ele>902.9999999999999</ele><time>2026-04-18T11:37:26Z</time></trkpt><trkpt lat="43.78317200565729" lon="11.577829760898332"><ele>898.9999999999999</ele><time>2026-04-18T11:37:27Z</time></trkpt><trkpt lat="43.78326287451919" lon="11.577802087040666"><ele>895.0</ele><time>2026-04-18T11:37:28Z</time></trkpt><trkpt lat="43.78337840685346" lon="11.577821142224336"><ele>891.0</ele><time>2026-04-18T11:37:29Z</time></trkpt><trkpt lat="43.78346649097941" lon="11.577804968181194"><ele>894.0</ele><time>2026-04-18T11:37:30Z</time></trkpt><trkpt lat="43.78360746912733" lon="11.577759039385972"><ele>897.0</ele><time>2026-04-18T11:37:31Z</time></trkpt><trkpt lat="43.78372202047084" lon="11.57771760566914"><ele>900.0</ele><time>2026-04-18T11:37:32Z</time></trkpt><trkpt lat="43.78382903596288" lon="11.577667610902752"><ele>903.0</ele><time>2026-04-18T11:37:33Z</time></trkpt><trkpt lat="43.78390787450017" lon="11.577621484817431"><ele>903.0</ele><time>2026-04-18T11:37:34Z</time></trkpt><trkpt lat="43.78396138001567" lon="11.577511312728227"><ele>903.0</ele><time>2026-04-18T11:37:35Z</time></trkpt><trkpt lat="43.784033513214986" lon="11.577393073893314"><ele>903.0</ele><time>2026-04-18T11:37:36Z</time></trkpt><trkpt lat="43.78410740655545" lon="11.577291126251557"><ele>903.0</ele><time>2026-04-18T11:37:37Z</time></trkpt><trkpt lat="43.78415938797707" lon="11.577170336059105"><ele>903.0</ele><time>2026-04-18T11:37:38Z</time></trkpt><trkpt lat="43.78419714851389" lon="11.577018507105523"><ele>905.0</ele><time>2026-04-18T11:37:39Z</time></trkpt><trkpt lat="43.78421032848279" lon="11.576887071902734"><ele>907.0</ele><time>2026-04-18T11:37:40Z</time></trkpt><trkpt lat="43.78420653701867" lon="11.576791555962169"><ele>909.0</ele><time>2026-04-18T11:37:41Z</time></trkpt><trkpt lat="43.78423857555474" lon="11.576675493836872"><ele>911.0</ele><time>2026-04-18T11:37:42Z</time></trkpt><trkpt lat="43.784302350086584" lon="11.576576937358379"><ele>913.0</ele><time>2026-04-18T11:37:43Z</time></trkpt><trkpt lat="43.7843649551748" lon="11.576458353848574"><ele>913.0</ele><time>2026-04-18T11:37:44Z</time></trkpt><trkpt lat="43.78441234337433" lon="11.576348195122186"><ele>913.0</ele><time>2026-04-18T11:37:45Z</time></trkpt><trkpt lat="43.784466915799264" lon="11.576213287163705"><ele>913.0</ele><time>2026-04-18T11:37:46Z</time></trkpt><trkpt lat="43.784520523755546" lon="11.576129163390444"><ele>913.0</ele><time>2026-04-18T11:37:47Z</time></trkpt><trkpt lat="43.784543438023896" lon="11.576026199540195"><ele>913.0</ele><time>2026-04-18T11:37:48Z</time></trkpt><trkpt lat="43.784563795959876" lon="11.575877141554834"><ele>911.1666666666666</ele><time>2026-04-18T11:37:49Z</time></trkpt><trkpt lat="43.784587453133845" lon="11.575760885788203"><ele>909.3333333333333</ele><time>2026-04-18T11:37:50Z</time></trkpt><trkpt lat="43.78460926621147" lon="11.575644276445407"><ele>907.5</ele><time>2026-04-18T11:37:51Z</time></trkpt><trkpt lat="43.78463767611041" lon="11.575562073712005"><ele>905.6666666666667</ele><time>2026-04-18T11:37:52Z</time></trkpt><trkpt lat="43.78468387407846" lon="11.575470937195156"><ele>903.8333333333334</ele><time>2026-04-18T11:37:53Z</time></trkpt><trkpt lat="43.78475291271044" lon="11.575380628017308"><ele>902.0</ele><time>2026-04-18T11:37:54Z</time></trkpt><trkpt lat="43.78481943242708" lon="11.57528231493526"><ele>902.6</ele><time>2026-04-18T11:37:55Z</time></trkpt><trkpt lat="43.784902441666226" lon="11.575175817252509"><ele>903.2</ele><time>2026-04-18T11:37:56Z</time></trkpt><trkpt lat="43.78497196307105" lon="11.575098141447329"><ele>903.8</ele><time>2026-04-18T11:37:57Z</time></trkpt><trkpt lat="43.785043440246696" lon="11.575004264837272"><ele>904.4</ele><time>2026-04-18T11:37:58Z</time></trkpt><trkpt lat="43.78511634879118" lon="11.574882628187167"><ele>905.0</ele><time>2026-04-18T11:37:59Z</time></trkpt><trkpt lat="43.785194070804614" lon="11.574781689971273"><ele>905.0</ele><time>2026-04-18T11:38:00Z</time></trkpt><trkpt lat="43.7852666127548" lon="11.574678335564588"><ele>905.0</ele><time>2026-04-18T11:38:00.999Z</time></trkpt><trkpt lat="43.785336053012365" lon="11.574570666026206"><ele>905.0</ele><time>2026-04-18T11:38:01.999Z</time></trkpt><trkpt lat="43.78540584945102" lon="11.574485854837603"><ele>905.0</ele><time>2026-04-18T11:38:02.999Z</time></trkpt><trkpt lat="43.7854694287571" lon="11.574386737950126"><ele>905.0</ele><time>2026-04-18T11:38:03.999Z</time></trkpt><trkpt lat="43.785531341855304" lon="11.574297925313928"><ele>901.8</ele><time>2026-04-18T11:38:04.999Z</time></trkpt><trkpt lat="43.7855931228325" lon="11.574198475949753"><ele>898.6</ele><time>2026-04-18T11:38:05.999Z</time></trkpt><trkpt lat="43.78565327609154" lon="11.574104815833051"><ele>895.4000000000001</ele><time>2026-04-18T11:38:06.999Z</time></trkpt><trkpt lat="43.78572007908411" lon="11.57402431182212"><ele>892.2</ele><time>2026-04-18T11:38:07.999Z</time></trkpt><trkpt lat="43.785791907678906" lon="11.573942340410984"><ele>889.0</ele><time>2026-04-18T11:38:08.999Z</time></trkpt><trkpt lat="43.785859398868176" lon="11.573852203871695"><ele>888.9999999999999</ele><time>2026-04-18T11:38:09.999Z</time></trkpt><trkpt lat="43.78593080363125" lon="11.573793025841047"><ele>889.0</ele><time>2026-04-18T11:38:10.999Z</time></trkpt><trkpt lat="43.78597181809428" lon="11.573713974527307"><ele>889.0</ele><time>2026-04-18T11:38:11.999Z</time></trkpt><trkpt lat="43.78601292564207" lon="11.573598259902655"><ele>889.0</ele><time>2026-04-18T11:38:12.999Z</time></trkpt><trkpt lat="43.78606438329055" lon="11.573518121317246"><ele>888.9999999999999</ele><time>2026-04-18T11:38:13.999Z</time></trkpt><trkpt lat="43.78612533299944" lon="11.57339589040336"><ele>889.0</ele><time>2026-04-18T11:38:14.999Z</time></trkpt><trkpt lat="43.78619356353754" lon="11.573298902676196"><ele>889.1666666666666</ele><time>2026-04-18T11:38:15.999Z</time></trkpt><trkpt lat="43.78624027061608" lon="11.573183195865786"><ele>889.3333333333333</ele><time>2026-04-18T11:38:16.999Z</time></trkpt><trkpt lat="43.78627310858089" lon="11.573059612396886"><ele>889.5</ele><time>2026-04-18T11:38:17.999Z</time></trkpt><trkpt lat="43.786316279633276" lon="11.572966757998017"><ele>889.6666666666667</ele><time>2026-04-18T11:38:18.999Z</time></trkpt><trkpt lat="43.786366030701636" lon="11.572877694926918"><ele>889.8333333333334</ele><time>2026-04-18T11:38:19.999Z</time></trkpt><trkpt lat="43.78643416949948" lon="11.572807460770427"><ele>890.0</ele><time>2026-04-18T11:38:20.999Z</time></trkpt><trkpt lat="43.78650306664598" lon="11.572758929229156"><ele>889.8</ele><time>2026-04-18T11:38:21.999Z</time></trkpt><trkpt lat="43.786575853440155" lon="11.572746857627411"><ele>889.6</ele><time>2026-04-18T11:38:22.999Z</time></trkpt><trkpt lat="43.78665895506905" lon="11.572741672138717"><ele>889.4000000000001</ele><time>2026-04-18T11:38:23.999Z</time></trkpt><trkpt lat="43.786737203378465" lon="11.572734263308922"><ele>889.2</ele><time>2026-04-18T11:38:24.999Z</time></trkpt><trkpt lat="43.786884122712024" lon="11.572698715063108"><ele>889.0</ele><time>2026-04-18T11:38:26.999Z</time></trkpt><trkpt lat="43.78694811526075" lon="11.572621512326808"><ele>889.0</ele><time>2026-04-18T11:38:27.999Z</time></trkpt><trkpt lat="43.78700039841023" lon="11.572525101576309"><ele>889.0000000000001</ele><time>2026-04-18T11:38:28.999Z</time></trkpt><trkpt lat="43.78699697784822" lon="11.572396560588706"><ele>889.0000000000001</ele><time>2026-04-18T11:38:29.999Z</time></trkpt><trkpt lat="43.78702729111369" lon="11.5722757063294"><ele>889.0</ele><time>2026-04-18T11:38:30.999Z</time></trkpt><trkpt lat="43.78707034680572" lon="11.57213863965515"><ele>889.0</ele><time>2026-04-18T11:38:31.999Z</time></trkpt><trkpt lat="43.787126648045565" lon="11.572054100848742"><ele>887.8000000000001</ele><time>2026-04-18T11:38:32.999Z</time></trkpt><trkpt lat="43.78716832170602" lon="11.57196506910623"><ele>886.6000000000001</ele><time>2026-04-18T11:38:33.999Z</time></trkpt><trkpt lat="43.78723193042389" lon="11.571841261720214"><ele>885.4</ele><time>2026-04-18T11:38:34.999Z</time></trkpt><trkpt lat="43.78726028784298" lon="11.571683593081847"><ele>884.2</ele><time>2026-04-18T11:38:35.999Z</time></trkpt><trkpt lat="43.787362170579186" lon="11.571580860149474"><ele>883.0</ele><time>2026-04-18T11:38:36.999Z</time></trkpt><trkpt lat="43.78739645333048" lon="11.571423015135617"><ele>883.0</ele><time>2026-04-18T11:38:37.999Z</time></trkpt><trkpt lat="43.78743677381284" lon="11.571274859917262"><ele>883.0</ele><time>2026-04-18T11:38:39.999Z</time></trkpt><trkpt lat="43.78746306020316" lon="11.571188165038752"><ele>883.0</ele><time>2026-04-18T11:38:40.999Z</time></trkpt><trkpt lat="43.78749749626366" lon="11.571074591822152"><ele>883.0</ele><time>2026-04-18T11:38:42.999Z</time></trkpt><trkpt lat="43.78745874467722" lon="11.571198901559061"><ele>883.0</ele><time>2026-04-18T11:38:57.999Z</time></trkpt><trkpt lat="43.78738057867458" lon="11.571287523517684"><ele>883.0</ele><time>2026-04-18T11:39:23Z</time></trkpt><trkpt lat="43.787366725113564" lon="11.571375494063348"><ele>883.0</ele><time>2026-04-18T11:39:24Z</time></trkpt><trkpt lat="43.78734143861883" lon="11.571508656037796"><ele>883.0</ele><time>2026-04-18T11:39:25Z</time></trkpt><trkpt lat="43.78731144590945" lon="11.571651039087481"><ele>883.0</ele><time>2026-04-18T11:39:26Z</time></trkpt><trkpt lat="43.78727751215749" lon="11.571829737131047"><ele>883.0</ele><time>2026-04-18T11:39:27Z</time></trkpt><trkpt lat="43.78724369310056" lon="11.572001497398709"><ele>884.2</ele><time>2026-04-18T11:39:28Z</time></trkpt><trkpt lat="43.787217790180094" lon="11.572164058657727"><ele>885.4</ele><time>2026-04-18T11:39:29Z</time></trkpt><trkpt lat="43.78719589758743" lon="11.572305273249329"><ele>886.6000000000001</ele><time>2026-04-18T11:39:30Z</time></trkpt><trkpt lat="43.78718377727304" lon="11.572432650909153"><ele>887.8000000000001</ele><time>2026-04-18T11:39:31Z</time></trkpt><trkpt lat="43.787174873455896" lon="11.5725310651181"><ele>889.0</ele><time>2026-04-18T11:39:32Z</time></trkpt><trkpt lat="43.787165667954866" lon="11.572617623928656"><ele>889.0</ele><time>2026-04-18T11:39:33Z</time></trkpt><trkpt lat="43.78714855120865" lon="11.572748871108121"><ele>889.0000000000001</ele><time>2026-04-18T11:39:35Z</time></trkpt><trkpt lat="43.78719588787751" lon="11.572817803270492"><ele>889.0000000000001</ele><time>2026-04-18T11:39:37Z</time></trkpt><trkpt lat="43.78727349316948" lon="11.572883638819135"><ele>889.0</ele><time>2026-04-18T11:39:39Z</time></trkpt><trkpt lat="43.78736448648286" lon="11.572972683352944"><ele>889.0</ele><time>2026-04-18T11:39:41Z</time></trkpt><trkpt lat="43.78744690779577" lon="11.573001660181061"><ele>888.9999999999999</ele><time>2026-04-18T11:39:44Z</time></trkpt><trkpt lat="43.78750723685238" lon="11.572942272443985"><ele>889.0</ele><time>2026-04-18T11:39:46Z</time></trkpt><trkpt lat="43.787533891951014" lon="11.572853883632778"><ele>889.0</ele><time>2026-04-18T11:39:49Z</time></trkpt><trkpt lat="43.787582071846465" lon="11.572752497590828"><ele>889.0</ele><time>2026-04-18T11:39:52Z</time></trkpt><trkpt lat="43.787624760901224" lon="11.572656968599299"><ele>888.9999999999999</ele><time>2026-04-18T11:39:53Z</time></trkpt><trkpt lat="43.78767775401707" lon="11.57255513647364"><ele>889.0</ele><time>2026-04-18T11:39:54Z</time></trkpt><trkpt lat="43.78772957050387" lon="11.572467832433047"><ele>888.0</ele><time>2026-04-18T11:39:55Z</time></trkpt><trkpt lat="43.78779129747251" lon="11.57238388767414"><ele>887.0000000000001</ele><time>2026-04-18T11:39:56Z</time></trkpt><trkpt lat="43.78787499996791" lon="11.572304682628548"><ele>886.0000000000001</ele><time>2026-04-18T11:39:57Z</time></trkpt><trkpt lat="43.78797770876915" lon="11.572240658874204"><ele>885.0</ele><time>2026-04-18T11:39:58Z</time></trkpt><trkpt lat="43.7880739217279" lon="11.572184030017967"><ele>884.0</ele><time>2026-04-18T11:39:59Z</time></trkpt><trkpt lat="43.78815597360068" lon="11.572140365740767"><ele>884.0</ele><time>2026-04-18T11:40:00Z</time></trkpt><trkpt lat="43.788233622512195" lon="11.572115978721035"><ele>884.0000000000001</ele><time>2026-04-18T11:40:01Z</time></trkpt><trkpt lat="43.788321836174404" lon="11.572093085334247"><ele>884.0000000000001</ele><time>2026-04-18T11:40:02Z</time></trkpt><trkpt lat="43.78842245353494" lon="11.57210576728208"><ele>884.0</ele><time>2026-04-18T11:40:03Z</time></trkpt><trkpt lat="43.78851895520342" lon="11.572117325419484"><ele>884.0</ele><time>2026-04-18T11:40:04Z</time></trkpt><trkpt lat="43.788626610791816" lon="11.572113831371786"><ele>882.8000000000001</ele><time>2026-04-18T11:40:05Z</time></trkpt><trkpt lat="43.788730058369275" lon="11.572096401570644"><ele>881.6000000000001</ele><time>2026-04-18T11:40:06Z</time></trkpt><trkpt lat="43.78883353911163" lon="11.572069696501137"><ele>880.4</ele><time>2026-04-18T11:40:07Z</time></trkpt><trkpt lat="43.788932357083816" lon="11.572045606998302"><ele>879.2</ele><time>2026-04-18T11:40:07.999Z</time></trkpt><trkpt lat="43.789020717675584" lon="11.572018351260201"><ele>878.0</ele><time>2026-04-18T11:40:08.999Z</time></trkpt><trkpt lat="43.789095127490036" lon="11.571981720260855"><ele>879.0</ele><time>2026-04-18T11:40:09.999Z</time></trkpt><trkpt lat="43.78916247562498" lon="11.57193521222559"><ele>880.0</ele><time>2026-04-18T11:40:10.999Z</time></trkpt><trkpt lat="43.7892399363842" lon="11.57187118399434"><ele>881.0</ele><time>2026-04-18T11:40:11.999Z</time></trkpt><trkpt lat="43.78935391808497" lon="11.571802954630028"><ele>882.0</ele><time>2026-04-18T11:40:12.999Z</time></trkpt><trkpt lat="43.78943681924222" lon="11.571780289360001"><ele>883.0</ele><time>2026-04-18T11:40:13.999Z</time></trkpt><trkpt lat="43.78952402132338" lon="11.571807823879565"><ele>882.9999999999999</ele><time>2026-04-18T11:40:14.999Z</time></trkpt><trkpt lat="43.78961689869902" lon="11.571857537653903"><ele>883.0</ele><time>2026-04-18T11:40:15.999Z</time></trkpt><trkpt lat="43.78970765826865" lon="11.571858847630226"><ele>883.0</ele><time>2026-04-18T11:40:16.999Z</time></trkpt><trkpt lat="43.789775007657894" lon="11.571863259180875"><ele>883.0</ele><time>2026-04-18T11:40:17.999Z</time></trkpt><trkpt lat="43.78984347963864" lon="11.571873323621677"><ele>882.9999999999999</ele><time>2026-04-18T11:40:18.999Z</time></trkpt><trkpt lat="43.7898967553631" lon="11.571740050805772"><ele>883.0</ele><time>2026-04-18T11:40:19.999Z</time></trkpt><trkpt lat="43.790041419246066" lon="11.57173401836722"><ele>882.9999999999999</ele><time>2026-04-18T11:40:20.999Z</time></trkpt><trkpt lat="43.79013477835416" lon="11.57179355132053"><ele>883.0</ele><time>2026-04-18T11:40:21.999Z</time></trkpt><trkpt lat="43.79020742941724" lon="11.571812001192463"><ele>883.0</ele><time>2026-04-18T11:40:22.999Z</time></trkpt><trkpt lat="43.79029608120321" lon="11.571828791829102"><ele>883.0</ele><time>2026-04-18T11:40:23.999Z</time></trkpt><trkpt lat="43.79039623529676" lon="11.571832080852715"><ele>882.9999999999999</ele><time>2026-04-18T11:40:24.999Z</time></trkpt><trkpt lat="43.79046782725759" lon="11.57179943784923"><ele>883.0</ele><time>2026-04-18T11:40:25.999Z</time></trkpt><trkpt lat="43.790532032818106" lon="11.571729011533115"><ele>881.6666666666666</ele><time>2026-04-18T11:40:26.999Z</time></trkpt><trkpt lat="43.79061211532994" lon="11.571645616831068"><ele>880.3333333333333</ele><time>2026-04-18T11:40:27.999Z</time></trkpt><trkpt lat="43.79068448296608" lon="11.571569139780626"><ele>879.0</ele><time>2026-04-18T11:40:28.999Z</time></trkpt><trkpt lat="43.79074889163184" lon="11.571488040361997"><ele>877.6666666666667</ele><time>2026-04-18T11:40:29.999Z</time></trkpt><trkpt lat="43.79079106369437" lon="11.57140371148118"><ele>876.3333333333334</ele><time>2026-04-18T11:40:30.999Z</time></trkpt><trkpt lat="43.79081641541555" lon="11.571286023884202"><ele>875.0</ele><time>2026-04-18T11:40:31.999Z</time></trkpt><trkpt lat="43.79085378073964" lon="11.571172863144538"><ele>875.0</ele><time>2026-04-18T11:40:32.999Z</time></trkpt><trkpt lat="43.79089860029239" lon="11.571039324569046"><ele>875.0</ele><time>2026-04-18T11:40:33.999Z</time></trkpt><trkpt lat="43.791028323101656" lon="11.570954291535422"><ele>875.0</ele><time>2026-04-18T11:40:34.999Z</time></trkpt><trkpt lat="43.7911855097168" lon="11.571041296339258"><ele>875.0</ele><time>2026-04-18T11:40:35.999Z</time></trkpt><trkpt lat="43.79133355354333" lon="11.571053290055143"><ele>868.4</ele><time>2026-04-18T11:40:36.999Z</time></trkpt><trkpt lat="43.79141739740592" lon="11.571047676305659"><ele>861.8</ele><time>2026-04-18T11:40:37.999Z</time></trkpt><trkpt lat="43.79149065578948" lon="11.571041066157017"><ele>855.2</ele><time>2026-04-18T11:40:38.999Z</time></trkpt><trkpt lat="43.791601447941396" lon="11.571025213818888"><ele>848.6</ele><time>2026-04-18T11:40:40.999Z</time></trkpt><trkpt lat="43.79168622180359" lon="11.570883432894663"><ele>842.0</ele><time>2026-04-18T11:40:42.999Z</time></trkpt><trkpt lat="43.791700330712466" lon="11.570721532393078"><ele>842.0</ele><time>2026-04-18T11:40:43.999Z</time></trkpt><trkpt lat="43.7917494305146" lon="11.570596864845138"><ele>842.0</ele><time>2026-04-18T11:40:44.999Z</time></trkpt><trkpt lat="43.79183384702789" lon="11.570475209827656"><ele>842.0</ele><time>2026-04-18T11:40:45.999Z</time></trkpt><trkpt lat="43.79187160898063" lon="11.570332278314547"><ele>842.0</ele><time>2026-04-18T11:40:46.999Z</time></trkpt><trkpt lat="43.79188757093434" lon="11.570200115061168"><ele>842.0</ele><time>2026-04-18T11:40:47.999Z</time></trkpt><trkpt lat="43.79191806325363" lon="11.570065394569967"><ele>840.0000000000001</ele><time>2026-04-18T11:40:48.999Z</time></trkpt><trkpt lat="43.79195551088901" lon="11.569980709581115"><ele>838.0</ele><time>2026-04-18T11:40:49.999Z</time></trkpt><trkpt lat="43.792002954756455" lon="11.569913979284324"><ele>836.0</ele><time>2026-04-18T11:40:50.999Z</time></trkpt><trkpt lat="43.7920891591578" lon="11.569905397434507"><ele>834.0</ele><time>2026-04-18T11:40:51.999Z</time></trkpt><trkpt lat="43.79217581354099" lon="11.569887582408557"><ele>832.0000000000001</ele><time>2026-04-18T11:40:52.999Z</time></trkpt><trkpt lat="43.7922866470871" lon="11.569856431525654"><ele>830.0</ele><time>2026-04-18T11:40:53.999Z</time></trkpt><trkpt lat="43.792386075901646" lon="11.569812090621674"><ele>830.0000000000001</ele><time>2026-04-18T11:40:54.999Z</time></trkpt><trkpt lat="43.79247693037746" lon="11.5697988812122"><ele>830.0</ele><time>2026-04-18T11:40:55.999Z</time></trkpt><trkpt lat="43.7925428482167" lon="11.569778871146285"><ele>830.0</ele><time>2026-04-18T11:40:56.999Z</time></trkpt><trkpt lat="43.79259990468014" lon="11.56973845521514"><ele>830.0</ele><time>2026-04-18T11:40:57.999Z</time></trkpt><trkpt lat="43.7927037890142" lon="11.56969793069621"><ele>830.0000000000001</ele><time>2026-04-18T11:40:59.999Z</time></trkpt><trkpt lat="43.792795137804134" lon="11.569662296251554"><ele>830.0</ele><time>2026-04-18T11:41:01.999Z</time></trkpt><trkpt lat="43.7928658117909" lon="11.569634702536069"><ele>828.1666666666667</ele><time>2026-04-18T11:41:03.999Z</time></trkpt><trkpt lat="43.7929417270157" lon="11.569591946458845"><ele>826.3333333333334</ele><time>2026-04-18T11:41:28Z</time></trkpt><trkpt lat="43.79299576502109" lon="11.569532191762468"><ele>824.5</ele><time>2026-04-18T11:42:32.999Z</time></trkpt><trkpt lat="43.79303503382776" lon="11.569463890519797"><ele>822.6666666666667</ele><time>2026-04-18T11:42:38.999Z</time></trkpt><trkpt lat="43.79307588298626" lon="11.569319899015309"><ele>820.8333333333334</ele><time>2026-04-18T11:42:40.999Z</time></trkpt><trkpt lat="43.79308199755989" lon="11.5692087800356"><ele>819.0</ele><time>2026-04-18T11:42:41.999Z</time></trkpt><trkpt lat="43.793095649054365" lon="11.569105922128038"><ele>818.8571428571429</ele><time>2026-04-18T11:42:42.999Z</time></trkpt><trkpt lat="43.79310970628218" lon="11.569009539661582"><ele>818.7142857142858</ele><time>2026-04-18T11:42:43.999Z</time></trkpt><trkpt lat="43.79311965244989" lon="11.568917230068676"><ele>818.5714285714286</ele><time>2026-04-18T11:42:44.999Z</time></trkpt><trkpt lat="43.79315338698561" lon="11.568821768396225"><ele>818.4285714285714</ele><time>2026-04-18T11:42:45.999Z</time></trkpt><trkpt lat="43.793183166118794" lon="11.568715940076302"><ele>818.2857142857143</ele><time>2026-04-18T11:42:46.999Z</time></trkpt><trkpt lat="43.793217201762175" lon="11.568626679783637"><ele>818.1428571428571</ele><time>2026-04-18T11:42:47.999Z</time></trkpt><trkpt lat="43.793246203253034" lon="11.568543399184357"><ele>818.0</ele><time>2026-04-18T11:42:48.999Z</time></trkpt><trkpt lat="43.79327213696009" lon="11.568453013820466"><ele>818.1666666666667</ele><time>2026-04-18T11:42:49.999Z</time></trkpt><trkpt lat="43.793293424763114" lon="11.568366433277996"><ele>818.3333333333334</ele><time>2026-04-18T11:42:50.999Z</time></trkpt><trkpt lat="43.79331242781441" lon="11.568272171242626"><ele>818.5</ele><time>2026-04-18T11:42:51.999Z</time></trkpt><trkpt lat="43.79333959660898" lon="11.568167286621062"><ele>818.6666666666667</ele><time>2026-04-18T11:42:52.999Z</time></trkpt><trkpt lat="43.79334790238946" lon="11.567986524909378"><ele>818.8333333333334</ele><time>2026-04-18T11:42:54.999Z</time></trkpt><trkpt lat="43.79338167568485" lon="11.567901983938203"><ele>819.0</ele><time>2026-04-18T11:42:55.999Z</time></trkpt><trkpt lat="43.79345112610308" lon="11.5678550734651"><ele>815.5</ele><time>2026-04-18T11:42:56.999Z</time></trkpt><trkpt lat="43.79352169995018" lon="11.567830278880164"><ele>812.0</ele><time>2026-04-18T11:42:57.999Z</time></trkpt><trkpt lat="43.79362616141138" lon="11.56780530068052"><ele>808.5</ele><time>2026-04-18T11:42:59.999Z</time></trkpt><trkpt lat="43.79369393527057" lon="11.56774075211237"><ele>805.0</ele><time>2026-04-18T11:43:01.999Z</time></trkpt><trkpt lat="43.79373323442737" lon="11.567630961500125"><ele>801.5</ele><time>2026-04-18T11:43:03.999Z</time></trkpt><trkpt lat="43.79376563870984" lon="11.56755336291628"><ele>798.0</ele><time>2026-04-18T11:43:04.999Z</time></trkpt><trkpt lat="43.793845989265705" lon="11.567432990645704"><ele>798.0</ele><time>2026-04-18T11:43:06.999Z</time></trkpt><trkpt lat="43.79393075803172" lon="11.567375585140349"><ele>798.0</ele><time>2026-04-18T11:43:07.999Z</time></trkpt><trkpt lat="43.79401869021923" lon="11.567302534551937"><ele>798.0</ele><time>2026-04-18T11:43:08.999Z</time></trkpt><trkpt lat="43.79410107288589" lon="11.567221906300958"><ele>798.0</ele><time>2026-04-18T11:43:09.999Z</time></trkpt><trkpt lat="43.79419197670464" lon="11.56714751297236"><ele>798.0</ele><time>2026-04-18T11:43:10.999Z</time></trkpt><trkpt lat="43.794283962222266" lon="11.5670693596497"><ele>792.5999999999999</ele><time>2026-04-18T11:43:11.999Z</time></trkpt><trkpt lat="43.794362028391035" lon="11.566952249222357"><ele>787.1999999999999</ele><time>2026-04-18T11:43:12.999Z</time></trkpt><trkpt lat="43.79443648674831" lon="11.566853752467562"><ele>781.8</ele><time>2026-04-18T11:43:13.999Z</time></trkpt><trkpt lat="43.79449365248205" lon="11.56674821258876"><ele>776.4</ele><time>2026-04-18T11:43:14.999Z</time></trkpt><trkpt lat="43.79454718340259" lon="11.566641372033498"><ele>771.0</ele><time>2026-04-18T11:43:15.999Z</time></trkpt><trkpt lat="43.79459887774644" lon="11.566550511176683"><ele>771.0</ele><time>2026-04-18T11:43:16.999Z</time></trkpt><trkpt lat="43.79462714889717" lon="11.566471755305164"><ele>771.0</ele><time>2026-04-18T11:43:17.999Z</time></trkpt><trkpt lat="43.79464885576628" lon="11.566378139529489"><ele>771.0</ele><time>2026-04-18T11:43:18.999Z</time></trkpt><trkpt lat="43.794637820817115" lon="11.566271521180058"><ele>771.0</ele><time>2026-04-18T11:43:19.999Z</time></trkpt><trkpt lat="43.7946119971662" lon="11.566157040545374"><ele>771.0</ele><time>2026-04-18T11:43:20.999Z</time></trkpt><trkpt lat="43.794580752089175" lon="11.56603338524413"><ele>771.0</ele><time>2026-04-18T11:43:21.999Z</time></trkpt><trkpt lat="43.79453703708102" lon="11.56594404012111"><ele>770.6666666666666</ele><time>2026-04-18T11:43:22.999Z</time></trkpt><trkpt lat="43.794496468877206" lon="11.56583928249973"><ele>770.3333333333333</ele><time>2026-04-18T11:43:23.999Z</time></trkpt><trkpt lat="43.79447509051334" lon="11.565737557265097"><ele>770.0</ele><time>2026-04-18T11:43:24.999Z</time></trkpt><trkpt lat="43.794456126174424" lon="11.565641289517613"><ele>769.6666666666666</ele><time>2026-04-18T11:43:25.999Z</time></trkpt><trkpt lat="43.79447807618303" lon="11.565462998572425"><ele>769.3333333333333</ele><time>2026-04-18T11:43:28Z</time></trkpt><trkpt lat="43.79454099584356" lon="11.565418175648059"><ele>769.0</ele><time>2026-04-18T11:43:29Z</time></trkpt><trkpt lat="43.794636127472074" lon="11.565354570937924"><ele>768.9999999999999</ele><time>2026-04-18T11:43:30Z</time></trkpt><trkpt lat="43.794732393038075" lon="11.565295958221078"><ele>769.0</ele><time>2026-04-18T11:43:31Z</time></trkpt><trkpt lat="43.79479122680897" lon="11.565232930114506"><ele>769.0</ele><time>2026-04-18T11:43:32Z</time></trkpt><trkpt lat="43.794798536699446" lon="11.565132113519537"><ele>769.0</ele><time>2026-04-18T11:43:33Z</time></trkpt><trkpt lat="43.79482566839719" lon="11.565008402281865"><ele>768.9999999999999</ele><time>2026-04-18T11:43:34Z</time></trkpt><trkpt lat="43.79486319670607" lon="11.56491174479758"><ele>769.0</ele><time>2026-04-18T11:43:35Z</time></trkpt><trkpt lat="43.7949368357364" lon="11.564839762884683"><ele>768.9999999999999</ele><time>2026-04-18T11:43:36Z</time></trkpt><trkpt lat="43.795016812599755" lon="11.564794878017171"><ele>769.0</ele><time>2026-04-18T11:43:37Z</time></trkpt><trkpt lat="43.795098624269855" lon="11.564735563073745"><ele>769.0</ele><time>2026-04-18T11:43:38Z</time></trkpt><trkpt lat="43.7951455839679" lon="11.56466705298028"><ele>769.0</ele><time>2026-04-18T11:43:39Z</time></trkpt><trkpt lat="43.79516790123509" lon="11.564575943885025"><ele>768.9999999999999</ele><time>2026-04-18T11:43:40Z</time></trkpt><trkpt lat="43.79518111202191" lon="11.564462263675999"><ele>769.0</ele><time>2026-04-18T11:43:41Z</time></trkpt><trkpt lat="43.79518405512177" lon="11.564336328834402"><ele>769.8333333333333</ele><time>2026-04-18T11:43:42Z</time></trkpt><trkpt lat="43.795168469096474" lon="11.56421011465545"><ele>770.6666666666666</ele><time>2026-04-18T11:43:43Z</time></trkpt><trkpt lat="43.79514203536693" lon="11.564114968768685"><ele>771.5</ele><time>2026-04-18T11:43:44Z</time></trkpt><trkpt lat="43.79512657939743" lon="11.56400859047357"><ele>772.3333333333333</ele><time>2026-04-18T11:43:45Z</time></trkpt><trkpt lat="43.79510604165987" lon="11.563880784474911"><ele>773.1666666666666</ele><time>2026-04-18T11:43:46Z</time></trkpt><trkpt lat="43.79510194538139" lon="11.56373813003569"><ele>774.0</ele><time>2026-04-18T11:43:47Z</time></trkpt><trkpt lat="43.79513876361661" lon="11.563612835060745"><ele>764.4000000000001</ele><time>2026-04-18T11:43:48Z</time></trkpt><trkpt lat="43.79518910549674" lon="11.563504613190696"><ele>754.8</ele><time>2026-04-18T11:43:49Z</time></trkpt><trkpt lat="43.79524761045492" lon="11.563366854219296"><ele>745.2</ele><time>2026-04-18T11:43:50Z</time></trkpt><trkpt lat="43.79529385430158" lon="11.563243357385959"><ele>735.5999999999999</ele><time>2026-04-18T11:43:51Z</time></trkpt><trkpt lat="43.79532351345394" lon="11.563123430746536"><ele>726.0</ele><time>2026-04-18T11:43:52Z</time></trkpt><trkpt lat="43.79536314394382" lon="11.562997567483595"><ele>726.0</ele><time>2026-04-18T11:43:53Z</time></trkpt><trkpt lat="43.795386383650886" lon="11.56288162651999"><ele>726.0</ele><time>2026-04-18T11:43:54Z</time></trkpt><trkpt lat="43.795405005403815" lon="11.562777167705393"><ele>726.0</ele><time>2026-04-18T11:43:55Z</time></trkpt><trkpt lat="43.795423102594214" lon="11.56265011967501"><ele>726.0</ele><time>2026-04-18T11:43:56Z</time></trkpt><trkpt lat="43.79547628087729" lon="11.56255104057139"><ele>726.0</ele><time>2026-04-18T11:43:57Z</time></trkpt><trkpt lat="43.79552680592756" lon="11.562457331491588"><ele>726.0</ele><time>2026-04-18T11:43:58Z</time></trkpt><trkpt lat="43.79560147504999" lon="11.562360467583623"><ele>727.5999999999999</ele><time>2026-04-18T11:43:59Z</time></trkpt><trkpt lat="43.79566697740384" lon="11.562262446696286"><ele>729.2</ele><time>2026-04-18T11:44:00Z</time></trkpt><trkpt lat="43.795719699192816" lon="11.562157104350065"><ele>730.8</ele><time>2026-04-18T11:44:01Z</time></trkpt><trkpt lat="43.79578019612679" lon="11.56204044140902"><ele>732.4000000000001</ele><time>2026-04-18T11:44:02Z</time></trkpt><trkpt lat="43.79583234997814" lon="11.561893651054445"><ele>734.0</ele><time>2026-04-18T11:44:03Z</time></trkpt><trkpt lat="43.79587121426395" lon="11.561759579387079"><ele>735.3333333333333</ele><time>2026-04-18T11:44:04Z</time></trkpt><trkpt lat="43.79591612961797" lon="11.561633140323547"><ele>736.6666666666666</ele><time>2026-04-18T11:44:05Z</time></trkpt><trkpt lat="43.795966527085874" lon="11.561519699621604"><ele>738.0</ele><time>2026-04-18T11:44:06Z</time></trkpt><trkpt lat="43.79600933070522" lon="11.561438125799684"><ele>739.3333333333334</ele><time>2026-04-18T11:44:07Z</time></trkpt><trkpt lat="43.796095363657415" lon="11.56139504172604"><ele>740.6666666666667</ele><time>2026-04-18T11:44:08Z</time></trkpt><trkpt lat="43.79617916783742" lon="11.561367448381905"><ele>742.0</ele><time>2026-04-18T11:44:09Z</time></trkpt><trkpt lat="43.79630061302021" lon="11.561286484186658"><ele>736.0</ele><time>2026-04-18T11:44:11Z</time></trkpt><trkpt lat="43.796364340743885" lon="11.561218566538106"><ele>730.0</ele><time>2026-04-18T11:44:12Z</time></trkpt><trkpt lat="43.79642102324082" lon="11.561115945775494"><ele>724.0</ele><time>2026-04-18T11:44:13Z</time></trkpt><trkpt lat="43.79648641757494" lon="11.561000882799195"><ele>718.0</ele><time>2026-04-18T11:44:14Z</time></trkpt><trkpt lat="43.796543447268114" lon="11.56088929031918"><ele>712.0</ele><time>2026-04-18T11:44:15Z</time></trkpt><trkpt lat="43.79680398526297" lon="11.560899673227627"><ele>709.0</ele><time>2026-04-18T11:44:17Z</time></trkpt><trkpt lat="43.796871711876165" lon="11.560797124297858"><ele>706.0</ele><time>2026-04-18T11:44:18Z</time></trkpt><trkpt lat="43.79692724061274" lon="11.560709933029425"><ele>703.0</ele><time>2026-04-18T11:44:19Z</time></trkpt><trkpt lat="43.79697976102622" lon="11.56061628358582"><ele>700.0</ele><time>2026-04-18T11:44:20Z</time></trkpt><trkpt lat="43.7970200472762" lon="11.560513407975494"><ele>697.0</ele><time>2026-04-18T11:44:20.999Z</time></trkpt><trkpt lat="43.79705659673887" lon="11.560427421106445"><ele>694.0</ele><time>2026-04-18T11:44:21.999Z</time></trkpt><trkpt lat="43.79711084454974" lon="11.560304875281366"><ele>694.0</ele><time>2026-04-18T11:44:23.999Z</time></trkpt><trkpt lat="43.79706720767332" lon="11.560129359363065"><ele>694.0</ele><time>2026-04-18T11:44:26.999Z</time></trkpt><trkpt lat="43.79713493861631" lon="11.56004591397187"><ele>694.0</ele><time>2026-04-18T11:44:48.999Z</time></trkpt><trkpt lat="43.79719794456345" lon="11.559946640094392"><ele>694.0</ele><time>2026-04-18T11:46:10Z</time></trkpt><trkpt lat="43.79726353367801" lon="11.559858991714734"><ele>694.0</ele><time>2026-04-18T11:46:11Z</time></trkpt><trkpt lat="43.79734852941468" lon="11.559729636440805"><ele>694.0</ele><time>2026-04-18T11:46:12Z</time></trkpt><trkpt lat="43.79745148458505" lon="11.55959107030537"><ele>694.0</ele><time>2026-04-18T11:46:13Z</time></trkpt><trkpt lat="43.79754219934899" lon="11.559432717180638"><ele>694.0</ele><time>2026-04-18T11:46:14Z</time></trkpt><trkpt lat="43.797618970093254" lon="11.559306603248917"><ele>694.0</ele><time>2026-04-18T11:46:15Z</time></trkpt><trkpt lat="43.79769259772822" lon="11.559207625826176"><ele>692.4000000000001</ele><time>2026-04-18T11:46:16Z</time></trkpt><trkpt lat="43.79776888430078" lon="11.559135947086247"><ele>690.8</ele><time>2026-04-18T11:46:17Z</time></trkpt><trkpt lat="43.7978305726142" lon="11.559068715112085"><ele>689.2</ele><time>2026-04-18T11:46:18Z</time></trkpt><trkpt lat="43.79788354520419" lon="11.559011021692772"><ele>687.5999999999999</ele><time>2026-04-18T11:46:19Z</time></trkpt><trkpt lat="43.79797098083558" lon="11.558922067533828"><ele>686.0</ele><time>2026-04-18T11:46:21Z</time></trkpt><trkpt lat="43.79804913669011" lon="11.558829118067298"><ele>686.0</ele><time>2026-04-18T11:46:36.999Z</time></trkpt><trkpt lat="43.79809279591749" lon="11.558712498183878"><ele>686.0</ele><time>2026-04-18T11:46:38.999Z</time></trkpt><trkpt lat="43.79803535932637" lon="11.558650551916843"><ele>686.0</ele><time>2026-04-18T11:46:39.999Z</time></trkpt><trkpt lat="43.79809296634474" lon="11.558531763505087"><ele>686.0</ele><time>2026-04-18T11:46:42.999Z</time></trkpt><trkpt lat="43.79812806956248" lon="11.558447478874031"><ele>686.0</ele><time>2026-04-18T11:46:43.999Z</time></trkpt><trkpt lat="43.79815454533459" lon="11.558356242530843"><ele>686.0</ele><time>2026-04-18T11:46:44.999Z</time></trkpt><trkpt lat="43.79821897891976" lon="11.558290314384045"><ele>687.3333333333333</ele><time>2026-04-18T11:46:45.999Z</time></trkpt><trkpt lat="43.79827142513291" lon="11.558210698211813"><ele>688.6666666666666</ele><time>2026-04-18T11:46:46.999Z</time></trkpt><trkpt lat="43.79830423086402" lon="11.55812453711511"><ele>690.0</ele><time>2026-04-18T11:46:47.999Z</time></trkpt><trkpt lat="43.79840691323166" lon="11.558004343901178"><ele>691.3333333333334</ele><time>2026-04-18T11:46:49.999Z</time></trkpt><trkpt lat="43.798464982493016" lon="11.557943102605616"><ele>692.6666666666667</ele><time>2026-04-18T11:46:50.999Z</time></trkpt><trkpt lat="43.79851602735328" lon="11.557879568023932"><ele>694.0</ele><time>2026-04-18T11:46:51.999Z</time></trkpt><trkpt lat="43.79860355587814" lon="11.557856740677408"><ele>690.2</ele><time>2026-04-18T11:46:53.999Z</time></trkpt><trkpt lat="43.79869589756848" lon="11.557882547693218"><ele>686.4000000000001</ele><time>2026-04-18T11:46:55.999Z</time></trkpt><trkpt lat="43.798788819492394" lon="11.557900758835116"><ele>682.6</ele><time>2026-04-18T11:46:57.999Z</time></trkpt><trkpt lat="43.79886574557758" lon="11.55787372504251"><ele>678.8</ele><time>2026-04-18T11:46:59.999Z</time></trkpt><trkpt lat="43.79893964597775" lon="11.557795364041915"><ele>675.0</ele><time>2026-04-18T11:47:01.999Z</time></trkpt><trkpt lat="43.799036433303904" lon="11.557725339793247"><ele>675.0</ele><time>2026-04-18T11:47:03.999Z</time></trkpt><trkpt lat="43.79908938346192" lon="11.55765446871517"><ele>675.0</ele><time>2026-04-18T11:47:05.999Z</time></trkpt><trkpt lat="43.79912575008507" lon="11.557571591270019"><ele>675.0</ele><time>2026-04-18T11:47:08.999Z</time></trkpt><trkpt lat="43.79916277534209" lon="11.55745753670875"><ele>675.0</ele><time>2026-04-18T11:47:12.999Z</time></trkpt><trkpt lat="43.79919072394132" lon="11.557371442354102"><ele>675.0</ele><time>2026-04-18T11:47:37.998Z</time></trkpt><trkpt lat="43.799156969408635" lon="11.557475421611803"><ele>675.0</ele><time>2026-04-18T11:47:53Z</time></trkpt><trkpt lat="43.799119756187395" lon="11.557590055191328"><ele>675.0</ele><time>2026-04-18T11:47:56Z</time></trkpt><trkpt lat="43.799072377291616" lon="11.557674144999828"><ele>675.0</ele><time>2026-04-18T11:47:58Z</time></trkpt><trkpt lat="43.799015931176754" lon="11.557796684566553"><ele>675.0</ele><time>2026-04-18T11:48:00Z</time></trkpt><trkpt lat="43.79894481333782" lon="11.557811756077948"><ele>675.0</ele><time>2026-04-18T11:48:01Z</time></trkpt><trkpt lat="43.798853257615434" lon="11.557841064790223"><ele>675.0</ele><time>2026-04-18T11:48:03Z</time></trkpt><trkpt lat="43.79878690078506" lon="11.557914963214545"><ele>675.0</ele><time>2026-04-18T11:48:05Z</time></trkpt><trkpt lat="43.79872273761965" lon="11.557932571079943"><ele>675.0</ele><time>2026-04-18T11:48:08Z</time></trkpt><trkpt lat="43.79867066440029" lon="11.557843151508116"><ele>675.0</ele><time>2026-04-18T11:48:09Z</time></trkpt><trkpt lat="43.79860355041937" lon="11.557823006187627"><ele>675.0</ele><time>2026-04-18T11:48:11Z</time></trkpt><trkpt lat="43.7985365063015" lon="11.557806072407548"><ele>675.0</ele><time>2026-04-18T11:48:17Z</time></trkpt><trkpt lat="43.79842685176358" lon="11.557954206741371"><ele>675.0</ele><time>2026-04-18T11:48:20Z</time></trkpt><trkpt lat="43.79837545947424" lon="11.558027493701024"><ele>675.0</ele><time>2026-04-18T11:48:21Z</time></trkpt><trkpt lat="43.79833575705002" lon="11.558121193297008"><ele>678.1666666666666</ele><time>2026-04-18T11:48:22Z</time></trkpt><trkpt lat="43.798285257069935" lon="11.558174894948856"><ele>681.3333333333334</ele><time>2026-04-18T11:48:23Z</time></trkpt><trkpt lat="43.798240185746344" lon="11.55823898991191"><ele>684.5</ele><time>2026-04-18T11:48:24Z</time></trkpt><trkpt lat="43.79815213881691" lon="11.558364458505125"><ele>687.6666666666667</ele><time>2026-04-18T11:48:26Z</time></trkpt><trkpt lat="43.79809404654014" lon="11.558475396959569"><ele>690.8333333333334</ele><time>2026-04-18T11:48:28Z</time></trkpt><trkpt lat="43.798047286754255" lon="11.558558718327019"><ele>694.0</ele><time>2026-04-18T11:48:30Z</time></trkpt><trkpt lat="43.79803459403784" lon="11.558660968392296"><ele>692.4000000000001</ele><time>2026-04-18T11:48:31.999Z</time></trkpt><trkpt lat="43.798052447197385" lon="11.558819737499075"><ele>690.8</ele><time>2026-04-18T11:48:35.999Z</time></trkpt><trkpt lat="43.79795058036846" lon="11.55892169258978"><ele>689.2</ele><time>2026-04-18T11:48:37.999Z</time></trkpt><trkpt lat="43.79788976639174" lon="11.558983250045685"><ele>687.5999999999999</ele><time>2026-04-18T11:48:38.999Z</time></trkpt><trkpt lat="43.79783174480607" lon="11.559049623995016"><ele>686.0</ele><time>2026-04-18T11:48:39.999Z</time></trkpt><trkpt lat="43.79777871663209" lon="11.559110820442296"><ele>686.0</ele><time>2026-04-18T11:48:40.999Z</time></trkpt><trkpt lat="43.79769384204551" lon="11.559177462441076"><ele>686.0</ele><time>2026-04-18T11:48:42.999Z</time></trkpt><trkpt lat="43.79763244990302" lon="11.559266225560648"><ele>686.0</ele><time>2026-04-18T11:48:44.999Z</time></trkpt><trkpt lat="43.79755198027081" lon="11.559406314026402"><ele>686.0</ele><time>2026-04-18T11:48:46.999Z</time></trkpt><trkpt lat="43.79749164797795" lon="11.559490665064724"><ele>686.0</ele><time>2026-04-18T11:48:47.999Z</time></trkpt><trkpt lat="43.797427624571284" lon="11.559612858418351"><ele>687.3333333333333</ele><time>2026-04-18T11:48:48.999Z</time></trkpt><trkpt lat="43.797358093625874" lon="11.559751115934041"><ele>688.6666666666666</ele><time>2026-04-18T11:48:49.999Z</time></trkpt><trkpt lat="43.79730776676015" lon="11.559853710753652"><ele>690.0</ele><time>2026-04-18T11:48:50.999Z</time></trkpt><trkpt lat="43.79725525708516" lon="11.559934672462896"><ele>691.3333333333334</ele><time>2026-04-18T11:48:51.999Z</time></trkpt><trkpt lat="43.797208047175836" lon="11.559994855883286"><ele>692.6666666666667</ele><time>2026-04-18T11:48:52.999Z</time></trkpt><trkpt lat="43.7971548584442" lon="11.560047547277042"><ele>694.0</ele><time>2026-04-18T11:48:53.999Z</time></trkpt><trkpt lat="43.797100039009706" lon="11.560091660808437"><ele>694.0</ele><time>2026-04-18T11:48:54.999Z</time></trkpt><trkpt lat="43.79702216375383" lon="11.560164524044648"><ele>694.0</ele><time>2026-04-18T11:48:56.999Z</time></trkpt><trkpt lat="43.79692570644775" lon="11.560188905019839"><ele>694.0</ele><time>2026-04-18T11:48:58.999Z</time></trkpt><trkpt lat="43.79682849589003" lon="11.560186815182524"><ele>694.0</ele><time>2026-04-18T11:49:00.999Z</time></trkpt><trkpt lat="43.79670315242416" lon="11.560224168240026"><ele>694.0</ele><time>2026-04-18T11:49:02.999Z</time></trkpt><trkpt lat="43.79661498338143" lon="11.5602584619892"><ele>696.8333333333334</ele><time>2026-04-18T11:49:03.999Z</time></trkpt><trkpt lat="43.796535709904155" lon="11.560280922588634"><ele>699.6666666666667</ele><time>2026-04-18T11:49:04.999Z</time></trkpt><trkpt lat="43.79642526185954" lon="11.560286872705701"><ele>702.5</ele><time>2026-04-18T11:49:06.999Z</time></trkpt><trkpt lat="43.79635344884336" lon="11.56028689789003"><ele>705.3333333333334</ele><time>2026-04-18T11:49:07.999Z</time></trkpt><trkpt lat="43.79627298120917" lon="11.560296534896331"><ele>708.1666666666666</ele><time>2026-04-18T11:49:08.999Z</time></trkpt><trkpt lat="43.7961991204713" lon="11.560302813732154"><ele>711.0</ele><time>2026-04-18T11:49:09.999Z</time></trkpt><trkpt lat="43.79612589156766" lon="11.560305516482014"><ele>716.8</ele><time>2026-04-18T11:49:10.999Z</time></trkpt><trkpt lat="43.79599906607612" lon="11.560379071712497"><ele>722.5999999999999</ele><time>2026-04-18T11:49:12.999Z</time></trkpt><trkpt lat="43.79591733937434" lon="11.56042668615595"><ele>728.4</ele><time>2026-04-18T11:49:13.999Z</time></trkpt><trkpt lat="43.79585304334565" lon="11.560455570753767"><ele>734.2</ele><time>2026-04-18T11:49:14.999Z</time></trkpt><trkpt lat="43.79573373916811" lon="11.560497579216536"><ele>740.0</ele><time>2026-04-18T11:49:16.999Z</time></trkpt><trkpt lat="43.795639168871126" lon="11.560579369630863"><ele>739.9999999999999</ele><time>2026-04-18T11:49:18.999Z</time></trkpt><trkpt lat="43.795582972292024" lon="11.560627987413875"><ele>740.0</ele><time>2026-04-18T11:49:19.999Z</time></trkpt><trkpt lat="43.79551299640758" lon="11.560667414196793"><ele>740.0</ele><time>2026-04-18T11:49:20.999Z</time></trkpt><trkpt lat="43.79545105442396" lon="11.56070797301436"><ele>740.0</ele><time>2026-04-18T11:49:21.999Z</time></trkpt><trkpt lat="43.79538246193425" lon="11.560750908741158"><ele>740.0</ele><time>2026-04-18T11:49:22.999Z</time></trkpt><trkpt lat="43.795311709690225" lon="11.560787104561108"><ele>739.9999999999999</ele><time>2026-04-18T11:49:23.999Z</time></trkpt><trkpt lat="43.795238524970365" lon="11.56082016479792"><ele>740.0</ele><time>2026-04-18T11:49:24.999Z</time></trkpt><trkpt lat="43.79517163823914" lon="11.560845102429765"><ele>741.1666666666666</ele><time>2026-04-18T11:49:25.999Z</time></trkpt><trkpt lat="43.795107810037614" lon="11.56085611929762"><ele>742.3333333333333</ele><time>2026-04-18T11:49:26.999Z</time></trkpt><trkpt lat="43.795029349197925" lon="11.560873774650027"><ele>743.5</ele><time>2026-04-18T11:49:27.999Z</time></trkpt><trkpt lat="43.79495585439398" lon="11.560885326035624"><ele>744.6666666666666</ele><time>2026-04-18T11:49:28.999Z</time></trkpt><trkpt lat="43.79487783373822" lon="11.560881044381352"><ele>745.8333333333334</ele><time>2026-04-18T11:49:29.999Z</time></trkpt><trkpt lat="43.79480269519347" lon="11.560870553969734"><ele>747.0</ele><time>2026-04-18T11:49:30.999Z</time></trkpt><trkpt lat="43.794696561073415" lon="11.560854636476016"><ele>747.0</ele><time>2026-04-18T11:49:32.999Z</time></trkpt><trkpt lat="43.79459824976949" lon="11.560845846554676"><ele>747.0</ele><time>2026-04-18T11:49:34.999Z</time></trkpt><trkpt lat="43.79450754342494" lon="11.560816308089269"><ele>747.0</ele><time>2026-04-18T11:49:36.999Z</time></trkpt><trkpt lat="43.79444902261036" lon="11.560707900146134"><ele>747.0</ele><time>2026-04-18T11:49:38.999Z</time></trkpt><trkpt lat="43.794477352606066" lon="11.560578974904766"><ele>747.0</ele><time>2026-04-18T11:49:40.998Z</time></trkpt><trkpt lat="43.794460992226554" lon="11.56036042066855"><ele>745.3333333333334</ele><time>2026-04-18T11:49:42.998Z</time></trkpt><trkpt lat="43.79447611308216" lon="11.560262441781456"><ele>743.6666666666666</ele><time>2026-04-18T11:49:43.998Z</time></trkpt><trkpt lat="43.79449494410412" lon="11.56013966531781"><ele>742.0</ele><time>2026-04-18T11:49:45Z</time></trkpt><trkpt lat="43.794507710605465" lon="11.560035579870778"><ele>740.3333333333333</ele><time>2026-04-18T11:49:46Z</time></trkpt><trkpt lat="43.79451057859065" lon="11.559942248704274"><ele>738.6666666666666</ele><time>2026-04-18T11:49:47Z</time></trkpt><trkpt lat="43.79450315347571" lon="11.559789499192705"><ele>737.0</ele><time>2026-04-18T11:49:48Z</time></trkpt><trkpt lat="43.79449818525314" lon="11.559666451165414"><ele>737.0</ele><time>2026-04-18T11:49:49Z</time></trkpt><trkpt lat="43.794491721702215" lon="11.559572775664922"><ele>737.0</ele><time>2026-04-18T11:49:50Z</time></trkpt><trkpt lat="43.79445415537979" lon="11.559439662073597"><ele>737.0</ele><time>2026-04-18T11:49:52Z</time></trkpt><trkpt lat="43.79438968383574" lon="11.559380129477828"><ele>737.0</ele><time>2026-04-18T11:49:54Z</time></trkpt><trkpt lat="43.79430160933509" lon="11.559395726730552"><ele>737.0</ele><time>2026-04-18T11:50:45.999Z</time></trkpt><trkpt lat="43.794188765996665" lon="11.559482769980903"><ele>739.2</ele><time>2026-04-18T11:50:47.999Z</time></trkpt><trkpt lat="43.79412617986927" lon="11.559511704093326"><ele>741.4000000000001</ele><time>2026-04-18T11:50:48.999Z</time></trkpt><trkpt lat="43.79402116333921" lon="11.559563609343748"><ele>743.5999999999999</ele><time>2026-04-18T11:50:50.999Z</time></trkpt><trkpt lat="43.79395783578455" lon="11.559580963794723"><ele>745.8</ele><time>2026-04-18T11:50:51.999Z</time></trkpt><trkpt lat="43.793829665403166" lon="11.55959036800551"><ele>748.0</ele><time>2026-04-18T11:50:53.999Z</time></trkpt><trkpt lat="43.79373027943929" lon="11.55962539041716"><ele>748.0</ele><time>2026-04-18T11:50:55.999Z</time></trkpt><trkpt lat="43.79364846417805" lon="11.55955589965515"><ele>748.0</ele><time>2026-04-18T11:50:57.999Z</time></trkpt><trkpt lat="43.793570877636185" lon="11.559510796302705"><ele>748.0</ele><time>2026-04-18T11:51:13.999Z</time></trkpt><trkpt lat="43.793487124542224" lon="11.559519785271481"><ele>748.0</ele><time>2026-04-18T11:51:16.999Z</time></trkpt><trkpt lat="43.793564416108175" lon="11.559544649684605"><ele>748.0</ele><time>2026-04-18T11:54:57.999Z</time></trkpt><trkpt lat="43.7936478736652" lon="11.55950334797422"><ele>748.0</ele><time>2026-04-18T11:57:35.999Z</time></trkpt><trkpt lat="43.793714218847825" lon="11.559545467092715"><ele>748.0</ele><time>2026-04-18T11:58:59Z</time></trkpt><trkpt lat="43.793791714027826" lon="11.559581213487503"><ele>748.0</ele><time>2026-04-18T11:59:01.999Z</time></trkpt><trkpt lat="43.79386991622867" lon="11.559551529278679"><ele>748.0</ele><time>2026-04-18T11:59:03.999Z</time></trkpt><trkpt lat="43.79393617359444" lon="11.55953684371425"><ele>748.0</ele><time>2026-04-18T11:59:05.999Z</time></trkpt><trkpt lat="43.79400272651505" lon="11.559541797734486"><ele>748.0</ele><time>2026-04-18T11:59:08.999Z</time></trkpt><trkpt lat="43.7940674592823" lon="11.55952684886381"><ele>748.0</ele><time>2026-04-18T11:59:10.999Z</time></trkpt><trkpt lat="43.79416263608743" lon="11.559497860105706"><ele>748.0</ele><time>2026-04-18T11:59:13.999Z</time></trkpt><trkpt lat="43.79423485479724" lon="11.559473721163773"><ele>748.0</ele><time>2026-04-18T11:59:15.999Z</time></trkpt><trkpt lat="43.79431445518907" lon="11.559434584759735"><ele>748.0</ele><time>2026-04-18T11:59:18.999Z</time></trkpt><trkpt lat="43.794383805238446" lon="11.559401229155487"><ele>748.0</ele><time>2026-04-18T11:59:21.999Z</time></trkpt><trkpt lat="43.79445219317297" lon="11.559461041950119"><ele>748.0</ele><time>2026-04-18T11:59:25.999Z</time></trkpt><trkpt lat="43.79434756416845" lon="11.559369735856901"><ele>748.0</ele><time>2026-04-18T11:59:39.999Z</time></trkpt><trkpt lat="43.79428153974012" lon="11.55930489946628"><ele>748.0</ele><time>2026-04-18T11:59:41.999Z</time></trkpt><trkpt lat="43.79420198950032" lon="11.559247896352064"><ele>748.0</ele><time>2026-04-18T11:59:43.999Z</time></trkpt><trkpt lat="43.794144920686136" lon="11.559208106505302"><ele>748.0</ele><time>2026-04-18T11:59:45.999Z</time></trkpt><trkpt lat="43.794076231299215" lon="11.559154855287895"><ele>748.0</ele><time>2026-04-18T11:59:48.999Z</time></trkpt><trkpt lat="43.79396743715238" lon="11.559104907545203"><ele>748.0</ele><time>2026-04-18T11:59:52.999Z</time></trkpt><trkpt lat="43.793890856332936" lon="11.559079218450586"><ele>748.0</ele><time>2026-04-18T11:59:54.999Z</time></trkpt><trkpt lat="43.793801980339765" lon="11.559029941418002"><ele>748.0</ele><time>2026-04-18T11:59:56.999Z</time></trkpt><trkpt lat="43.79370687610985" lon="11.558961333173162"><ele>748.0</ele><time>2026-04-18T11:59:58.999Z</time></trkpt><trkpt lat="43.7936162280484" lon="11.558861774968063"><ele>748.0</ele><time>2026-04-18T12:00:00.999Z</time></trkpt><trkpt lat="43.79355707643438" lon="11.558808388697441"><ele>748.0</ele><time>2026-04-18T12:00:03.999Z</time></trkpt><trkpt lat="43.793496720411106" lon="11.558747074609741"><ele>748.0</ele><time>2026-04-18T12:00:08.999Z</time></trkpt><trkpt lat="43.79346128095537" lon="11.558667934340694"><ele>748.0</ele><time>2026-04-18T12:00:11.999Z</time></trkpt><trkpt lat="43.793449306351505" lon="11.558561880092535"><ele>748.0</ele><time>2026-04-18T12:00:13.999Z</time></trkpt><trkpt lat="43.79344754583625" lon="11.558470476154415"><ele>748.0</ele><time>2026-04-18T12:00:16Z</time></trkpt><trkpt lat="43.793437663946094" lon="11.558566184926617"><ele>748.0</ele><time>2026-04-18T12:00:48Z</time></trkpt><trkpt lat="43.793468510254186" lon="11.558683218283056"><ele>748.0</ele><time>2026-04-18T12:00:51Z</time></trkpt><trkpt lat="43.7935033196826" lon="11.55876712797755"><ele>748.0</ele><time>2026-04-18T12:00:53Z</time></trkpt><trkpt lat="43.793599089515396" lon="11.558820745917423"><ele>748.0</ele><time>2026-04-18T12:00:55Z</time></trkpt><trkpt lat="43.79367641925802" lon="11.558897862511252"><ele>748.0</ele><time>2026-04-18T12:00:57Z</time></trkpt><trkpt lat="43.7937366956527" lon="11.558959684934813"><ele>748.0</ele><time>2026-04-18T12:00:58Z</time></trkpt><trkpt lat="43.79380131530274" lon="11.559020035917216"><ele>748.0</ele><time>2026-04-18T12:00:59Z</time></trkpt><trkpt lat="43.79390795855455" lon="11.559083927842941"><ele>748.0</ele><time>2026-04-18T12:01:01Z</time></trkpt><trkpt lat="43.79397908758575" lon="11.559094091559217"><ele>748.0</ele><time>2026-04-18T12:01:03Z</time></trkpt><trkpt lat="43.794068913131184" lon="11.559133149961458"><ele>748.0</ele><time>2026-04-18T12:01:06Z</time></trkpt><trkpt lat="43.79417053215914" lon="11.559201160316134"><ele>748.0</ele><time>2026-04-18T12:01:08.999Z</time></trkpt><trkpt lat="43.79424398828919" lon="11.559257819706568"><ele>748.0</ele><time>2026-04-18T12:01:10.999Z</time></trkpt><trkpt lat="43.7943187437435" lon="11.55931927534875"><ele>748.0</ele><time>2026-04-18T12:01:12.999Z</time></trkpt><trkpt lat="43.79437292246145" lon="11.559371829334362"><ele>748.0</ele><time>2026-04-18T12:01:15.999Z</time></trkpt><trkpt lat="43.7944220500578" lon="11.559465039101317"><ele>748.0</ele><time>2026-04-18T12:01:19.999Z</time></trkpt><trkpt lat="43.794447336486236" lon="11.559583062331278"><ele>748.0</ele><time>2026-04-18T12:01:21.999Z</time></trkpt><trkpt lat="43.794444703182556" lon="11.559706888553386"><ele>747.8333333333334</ele><time>2026-04-18T12:01:23.999Z</time></trkpt><trkpt lat="43.79445241582292" lon="11.559818966851383"><ele>747.6666666666667</ele><time>2026-04-18T12:01:25.999Z</time></trkpt><trkpt lat="43.79445338472334" lon="11.559930401249249"><ele>747.5</ele><time>2026-04-18T12:01:27.999Z</time></trkpt><trkpt lat="43.79444738068483" lon="11.560042755742048"><ele>747.3333333333334</ele><time>2026-04-18T12:01:29.999Z</time></trkpt><trkpt lat="43.794429358330106" lon="11.560164001756545"><ele>747.1666666666666</ele><time>2026-04-18T12:01:31.999Z</time></trkpt><trkpt lat="43.794416998477175" lon="11.560311402879666"><ele>747.0</ele><time>2026-04-18T12:01:33.999Z</time></trkpt><trkpt lat="43.79440420658966" lon="11.560425154800848"><ele>747.0</ele><time>2026-04-18T12:01:35.999Z</time></trkpt><trkpt lat="43.79440595115881" lon="11.560528802561517"><ele>747.0</ele><time>2026-04-18T12:01:37.999Z</time></trkpt><trkpt lat="43.79442928097335" lon="11.560676012243261"><ele>747.0</ele><time>2026-04-18T12:01:39.999Z</time></trkpt><trkpt lat="43.794488478323466" lon="11.56077756070856"><ele>747.0</ele><time>2026-04-18T12:01:41.999Z</time></trkpt><trkpt lat="43.79456534132714" lon="11.560832224345239"><ele>747.0</ele><time>2026-04-18T12:01:43.999Z</time></trkpt><trkpt lat="43.79464963571517" lon="11.560842497047455"><ele>747.0</ele><time>2026-04-18T12:01:45.999Z</time></trkpt><trkpt lat="43.79473804242383" lon="11.560848126217497"><ele>747.0</ele><time>2026-04-18T12:01:47.999Z</time></trkpt><trkpt lat="43.794834034191965" lon="11.560861735377525"><ele>747.0</ele><time>2026-04-18T12:01:49.999Z</time></trkpt><trkpt lat="43.79495625101915" lon="11.560864753562162"><ele>747.0</ele><time>2026-04-18T12:01:51.999Z</time></trkpt><trkpt lat="43.79506270695252" lon="11.56086750936298"><ele>747.0</ele><time>2026-04-18T12:01:53.999Z</time></trkpt><trkpt lat="43.79514013400469" lon="11.560849199615744"><ele>747.0</ele><time>2026-04-18T12:01:55.999Z</time></trkpt><trkpt lat="43.79522108946658" lon="11.560811500161966"><ele>745.8333333333334</ele><time>2026-04-18T12:01:57.999Z</time></trkpt><trkpt lat="43.79530095021666" lon="11.560780832124525"><ele>744.6666666666666</ele><time>2026-04-18T12:01:59.999Z</time></trkpt><trkpt lat="43.795386964163164" lon="11.560742033665662"><ele>743.5</ele><time>2026-04-18T12:02:01.999Z</time></trkpt><trkpt lat="43.79545431432648" lon="11.560699168271883"><ele>742.3333333333333</ele><time>2026-04-18T12:02:03.999Z</time></trkpt><trkpt lat="43.79553319698252" lon="11.560651169948997"><ele>741.1666666666666</ele><time>2026-04-18T12:02:05.999Z</time></trkpt><trkpt lat="43.79560303580628" lon="11.560590678910472"><ele>740.0</ele><time>2026-04-18T12:02:08.999Z</time></trkpt><trkpt lat="43.79567496360496" lon="11.560541445141064"><ele>740.0</ele><time>2026-04-18T12:02:10.999Z</time></trkpt><trkpt lat="43.79576391180693" lon="11.560502012142175"><ele>740.0</ele><time>2026-04-18T12:02:12.999Z</time></trkpt><trkpt lat="43.79586316390174" lon="11.56045586300511"><ele>740.0</ele><time>2026-04-18T12:02:14.999Z</time></trkpt><trkpt lat="43.79593928902876" lon="11.560424266911141"><ele>740.0</ele><time>2026-04-18T12:02:16.999Z</time></trkpt><trkpt lat="43.796008988869225" lon="11.560378377662285"><ele>740.0</ele><time>2026-04-18T12:02:18.999Z</time></trkpt><trkpt lat="43.796119534956986" lon="11.56033582843823"><ele>735.1666666666666</ele><time>2026-04-18T12:02:21Z</time></trkpt><trkpt lat="43.79622660398652" lon="11.560308665314691"><ele>730.3333333333333</ele><time>2026-04-18T12:02:23Z</time></trkpt><trkpt lat="43.7963115461611" lon="11.560296821651372"><ele>725.5</ele><time>2026-04-18T12:02:25Z</time></trkpt><trkpt lat="43.796378788522276" lon="11.560303470612961"><ele>720.6666666666666</ele><time>2026-04-18T12:02:26Z</time></trkpt><trkpt lat="43.79647241719391" lon="11.560289480313182"><ele>715.8333333333334</ele><time>2026-04-18T12:02:28Z</time></trkpt><trkpt lat="43.7965613771572" lon="11.560267002812548"><ele>711.0</ele><time>2026-04-18T12:02:30Z</time></trkpt><trkpt lat="43.79664556035093" lon="11.560249263592485"><ele>711.0</ele><time>2026-04-18T12:02:32Z</time></trkpt><trkpt lat="43.79673286719774" lon="11.560226707006889"><ele>711.0</ele><time>2026-04-18T12:02:34Z</time></trkpt><trkpt lat="43.79682879959697" lon="11.560206267816891"><ele>711.0</ele><time>2026-04-18T12:02:36Z</time></trkpt><trkpt lat="43.79690498651271" lon="11.560200129352454"><ele>711.0</ele><time>2026-04-18T12:02:38Z</time></trkpt><trkpt lat="43.79696504962374" lon="11.560263841011846"><ele>711.0</ele><time>2026-04-18T12:02:49Z</time></trkpt><trkpt lat="43.79693710485342" lon="11.560354014199216"><ele>711.0</ele><time>2026-04-18T12:02:51Z</time></trkpt><trkpt lat="43.79697007882508" lon="11.560494723458286"><ele>711.1999999999999</ele><time>2026-04-18T12:02:52Z</time></trkpt><trkpt lat="43.79691746466145" lon="11.560615579933684"><ele>711.4</ele><time>2026-04-18T12:02:53Z</time></trkpt><trkpt lat="43.796847656299505" lon="11.560730469463403"><ele>711.6</ele><time>2026-04-18T12:02:54Z</time></trkpt><trkpt lat="43.7967889197134" lon="11.560821868051438"><ele>711.8</ele><time>2026-04-18T12:02:55Z</time></trkpt><trkpt lat="43.796721155307495" lon="11.560919903108502"><ele>712.0</ele><time>2026-04-18T12:02:56Z</time></trkpt><trkpt lat="43.79664615211329" lon="11.561020308397474"><ele>712.0</ele><time>2026-04-18T12:02:57Z</time></trkpt><trkpt lat="43.79658577123875" lon="11.561110470727225"><ele>712.0</ele><time>2026-04-18T12:02:58Z</time></trkpt><trkpt lat="43.79654046156955" lon="11.561297356056702"><ele>712.0</ele><time>2026-04-18T12:03:00Z</time></trkpt><trkpt lat="43.796277522552614" lon="11.56123245979076"><ele>708.8</ele><time>2026-04-18T12:03:01Z</time></trkpt><trkpt lat="43.79620688828841" lon="11.561294145644784"><ele>705.6</ele><time>2026-04-18T12:03:02Z</time></trkpt><trkpt lat="43.7961207325704" lon="11.561336665898862"><ele>702.4</ele><time>2026-04-18T12:03:03Z</time></trkpt><trkpt lat="43.796028287186004" lon="11.561398960772337"><ele>699.1999999999999</ele><time>2026-04-18T12:03:04Z</time></trkpt><trkpt lat="43.79593069248373" lon="11.561434971154586"><ele>696.0</ele><time>2026-04-18T12:03:05Z</time></trkpt><trkpt lat="43.79586487757403" lon="11.561539747601469"><ele>705.5</ele><time>2026-04-18T12:03:06Z</time></trkpt><trkpt lat="43.795822094855" lon="11.561702986786113"><ele>715.0</ele><time>2026-04-18T12:03:07Z</time></trkpt><trkpt lat="43.795779933657116" lon="11.561889156997825"><ele>724.5</ele><time>2026-04-18T12:03:08Z</time></trkpt><trkpt lat="43.79572408513517" lon="11.562055757076026"><ele>734.0</ele><time>2026-04-18T12:03:09Z</time></trkpt><trkpt lat="43.79566604257904" lon="11.562190871186722"><ele>734.0</ele><time>2026-04-18T12:03:10Z</time></trkpt><trkpt lat="43.795598513058124" lon="11.562305618880663"><ele>734.0</ele><time>2026-04-18T12:03:11Z</time></trkpt><trkpt lat="43.7955294807315" lon="11.562421257298162"><ele>734.0</ele><time>2026-04-18T12:03:12Z</time></trkpt><trkpt lat="43.79544907216466" lon="11.562541660093379"><ele>734.0</ele><time>2026-04-18T12:03:13Z</time></trkpt><trkpt lat="43.79539104626256" lon="11.562674176559621"><ele>734.0</ele><time>2026-04-18T12:03:14Z</time></trkpt><trkpt lat="43.79535271431097" lon="11.562834358469251"><ele>732.0</ele><time>2026-04-18T12:03:14.999Z</time></trkpt><trkpt lat="43.79530747672484" lon="11.563002467284898"><ele>730.0</ele><time>2026-04-18T12:03:15.999Z</time></trkpt><trkpt lat="43.79529246370216" lon="11.56318264887431"><ele>728.0</ele><time>2026-04-18T12:03:16.999Z</time></trkpt><trkpt lat="43.79524323372285" lon="11.563331731850257"><ele>726.0</ele><time>2026-04-18T12:03:17.999Z</time></trkpt><trkpt lat="43.79520679280982" lon="11.563465522875738"><ele>735.5999999999999</ele><time>2026-04-18T12:03:18.999Z</time></trkpt><trkpt lat="43.795152001016994" lon="11.563591297651739"><ele>745.2</ele><time>2026-04-18T12:03:19.999Z</time></trkpt><trkpt lat="43.795086455507125" lon="11.563693105226596"><ele>754.8</ele><time>2026-04-18T12:03:20.999Z</time></trkpt><trkpt lat="43.79506111507157" lon="11.563826390223689"><ele>764.4000000000001</ele><time>2026-04-18T12:03:21.999Z</time></trkpt><trkpt lat="43.795067752286506" lon="11.563971998721344"><ele>774.0</ele><time>2026-04-18T12:03:22.999Z</time></trkpt><trkpt lat="43.79509818015586" lon="11.564104886198276"><ele>774.0</ele><time>2026-04-18T12:03:23.999Z</time></trkpt><trkpt lat="43.79514723623624" lon="11.564215567239787"><ele>774.0</ele><time>2026-04-18T12:03:24.999Z</time></trkpt><trkpt lat="43.79516543985488" lon="11.56431555015763"><ele>774.0</ele><time>2026-04-18T12:03:25.999Z</time></trkpt><trkpt lat="43.795175834526184" lon="11.564402059062514"><ele>774.0</ele><time>2026-04-18T12:03:26.999Z</time></trkpt><trkpt lat="43.7951637928528" lon="11.564508525480232"><ele>774.0</ele><time>2026-04-18T12:03:27.999Z</time></trkpt><trkpt lat="43.79513229695159" lon="11.564621438596715"><ele>774.0</ele><time>2026-04-18T12:03:28.999Z</time></trkpt><trkpt lat="43.79508738926564" lon="11.564706710164472"><ele>773.1666666666666</ele><time>2026-04-18T12:03:29.999Z</time></trkpt><trkpt lat="43.795039816517054" lon="11.564768334764139"><ele>772.3333333333333</ele><time>2026-04-18T12:03:30.999Z</time></trkpt><trkpt lat="43.79497240797666" lon="11.564820461999446"><ele>771.5</ele><time>2026-04-18T12:03:31.999Z</time></trkpt><trkpt lat="43.794891525167" lon="11.564868974119317"><ele>770.6666666666666</ele><time>2026-04-18T12:03:32.999Z</time></trkpt><trkpt lat="43.794834669466745" lon="11.56494518683762"><ele>769.8333333333333</ele><time>2026-04-18T12:03:33.999Z</time></trkpt><trkpt lat="43.79479384723311" lon="11.565018981878278"><ele>769.0</ele><time>2026-04-18T12:03:34.999Z</time></trkpt><trkpt lat="43.79477438087431" lon="11.565127092897056"><ele>769.0</ele><time>2026-04-18T12:03:35.999Z</time></trkpt><trkpt lat="43.79476263637394" lon="11.565237788016807"><ele>769.0</ele><time>2026-04-18T12:03:37.999Z</time></trkpt><trkpt lat="43.7946831412004" lon="11.565321955912365"><ele>769.0</ele><time>2026-04-18T12:03:39.999Z</time></trkpt><trkpt lat="43.79455021473851" lon="11.565392263271152"><ele>769.0</ele><time>2026-04-18T12:03:41.999Z</time></trkpt><trkpt lat="43.794478603224775" lon="11.565446263382869"><ele>769.0</ele><time>2026-04-18T12:03:42.999Z</time></trkpt><trkpt lat="43.79444582130521" lon="11.565587460593164"><ele>769.0</ele><time>2026-04-18T12:03:44.999Z</time></trkpt><trkpt lat="43.79446688366521" lon="11.565703139405297"><ele>769.0</ele><time>2026-04-18T12:03:45.999Z</time></trkpt><trkpt lat="43.79452098773121" lon="11.565823227075889"><ele>769.0</ele><time>2026-04-18T12:03:46.999Z</time></trkpt><trkpt lat="43.7945836916482" lon="11.565940527354664"><ele>769.0</ele><time>2026-04-18T12:03:47.999Z</time></trkpt><trkpt lat="43.794618576652915" lon="11.566068410182734"><ele>769.0</ele><time>2026-04-18T12:03:48.999Z</time></trkpt><trkpt lat="43.794660423396586" lon="11.566158636848412"><ele>769.3333333333333</ele><time>2026-04-18T12:03:49.999Z</time></trkpt><trkpt lat="43.7946750352277" lon="11.566263659078325"><ele>769.6666666666666</ele><time>2026-04-18T12:03:50.999Z</time></trkpt><trkpt lat="43.79467662915044" lon="11.56636897378773"><ele>770.0</ele><time>2026-04-18T12:03:51.999Z</time></trkpt><trkpt lat="43.79466241466063" lon="11.566474093884258"><ele>770.3333333333333</ele><time>2026-04-18T12:03:52.999Z</time></trkpt><trkpt lat="43.79462280920174" lon="11.56656295344424"><ele>770.6666666666666</ele><time>2026-04-18T12:03:53.999Z</time></trkpt><trkpt lat="43.79455688275111" lon="11.56664804396915"><ele>771.0</ele><time>2026-04-18T12:03:54.999Z</time></trkpt><trkpt lat="43.79447901267736" lon="11.566724003253585"><ele>771.0</ele><time>2026-04-18T12:03:55.999Z</time></trkpt><trkpt lat="43.79441362228353" lon="11.566829672982534"><ele>771.0</ele><time>2026-04-18T12:03:56.999Z</time></trkpt><trkpt lat="43.79428292563782" lon="11.566988298252653"><ele>771.0</ele><time>2026-04-18T12:03:58.999Z</time></trkpt><trkpt lat="43.794176165033974" lon="11.567094613669878"><ele>771.0</ele><time>2026-04-18T12:03:59.999Z</time></trkpt><trkpt lat="43.794056041536145" lon="11.567195095311472"><ele>776.4</ele><time>2026-04-18T12:04:00.999Z</time></trkpt><trkpt lat="43.79395169390435" lon="11.56728690576647"><ele>781.8</ele><time>2026-04-18T12:04:01.999Z</time></trkpt><trkpt lat="43.79387428826099" lon="11.567324411225819"><ele>787.1999999999999</ele><time>2026-04-18T12:04:02.999Z</time></trkpt><trkpt lat="43.79379966343989" lon="11.567394600027333"><ele>792.5999999999999</ele><time>2026-04-18T12:04:03.999Z</time></trkpt><trkpt lat="43.79372741593918" lon="11.567461489776827"><ele>798.0</ele><time>2026-04-18T12:04:04.999Z</time></trkpt><trkpt lat="43.79368822660253" lon="11.567577838700004"><ele>798.0</ele><time>2026-04-18T12:04:05.999Z</time></trkpt><trkpt lat="43.793648925895695" lon="11.567692737456683"><ele>798.0</ele><time>2026-04-18T12:04:06.999Z</time></trkpt><trkpt lat="43.793606479675844" lon="11.567767103299403"><ele>798.0</ele><time>2026-04-18T12:04:07.999Z</time></trkpt><trkpt lat="43.79351382366479" lon="11.567790076122076"><ele>798.0</ele><time>2026-04-18T12:04:08.999Z</time></trkpt><trkpt lat="43.79342338625725" lon="11.567817334102669"><ele>798.0</ele><time>2026-04-18T12:04:09.999Z</time></trkpt><trkpt lat="43.79335123534924" lon="11.567882464738322"><ele>798.0</ele><time>2026-04-18T12:04:10.999Z</time></trkpt><trkpt lat="43.793323367970316" lon="11.567990223040889"><ele>801.5999999999999</ele><time>2026-04-18T12:04:11.999Z</time></trkpt><trkpt lat="43.79331863725879" lon="11.568109929114641"><ele>805.1999999999999</ele><time>2026-04-18T12:04:12.999Z</time></trkpt><trkpt lat="43.7933358589302" lon="11.56825391506165"><ele>808.8</ele><time>2026-04-18T12:04:13.999Z</time></trkpt><trkpt lat="43.79331305413848" lon="11.568368276408458"><ele>812.4</ele><time>2026-04-18T12:04:14.999Z</time></trkpt><trkpt lat="43.79326484205429" lon="11.568538566302111"><ele>816.0</ele><time>2026-04-18T12:04:15.999Z</time></trkpt><trkpt lat="43.79319817852634" lon="11.568721037271082"><ele>816.5</ele><time>2026-04-18T12:04:16.999Z</time></trkpt><trkpt lat="43.79314023527319" lon="11.568899327998352"><ele>817.0</ele><time>2026-04-18T12:04:17.999Z</time></trkpt><trkpt lat="43.793109420886225" lon="11.569051058477603"><ele>817.5</ele><time>2026-04-18T12:04:18.999Z</time></trkpt><trkpt lat="43.793091294137895" lon="11.569193810055426"><ele>818.0</ele><time>2026-04-18T12:04:19.999Z</time></trkpt><trkpt lat="43.793073319445924" lon="11.569328634806476"><ele>818.0000000000001</ele><time>2026-04-18T12:04:20.999Z</time></trkpt><trkpt lat="43.793049460661884" lon="11.569436526885685"><ele>818.0</ele><time>2026-04-18T12:04:21.999Z</time></trkpt><trkpt lat="43.79298969326563" lon="11.56955693236679"><ele>818.0</ele><time>2026-04-18T12:04:23.999Z</time></trkpt><trkpt lat="43.79293413023172" lon="11.569606914449738"><ele>818.0</ele><time>2026-04-18T12:04:24.999Z</time></trkpt><trkpt lat="43.792849472697384" lon="11.569702879935024"><ele>818.0000000000001</ele><time>2026-04-18T12:04:27Z</time></trkpt><trkpt lat="43.79282485871091" lon="11.56979524632727"><ele>818.0</ele><time>2026-04-18T12:04:29Z</time></trkpt><trkpt lat="43.79287627399389" lon="11.569868530308248"><ele>818.1666666666667</ele><time>2026-04-18T12:04:32Z</time></trkpt><trkpt lat="43.792941507234886" lon="11.56991196522762"><ele>818.3333333333334</ele><time>2026-04-18T12:04:35Z</time></trkpt><trkpt lat="43.79285828577298" lon="11.569853788147404"><ele>818.5</ele><time>2026-04-18T12:04:59Z</time></trkpt><trkpt lat="43.792795872153874" lon="11.56983089954146"><ele>818.6666666666667</ele><time>2026-04-18T12:05:00Z</time></trkpt><trkpt lat="43.79272305633696" lon="11.569831551603366"><ele>818.8333333333334</ele><time>2026-04-18T12:05:03Z</time></trkpt><trkpt lat="43.79264407934914" lon="11.569851616263433"><ele>819.0</ele><time>2026-04-18T12:05:16Z</time></trkpt><trkpt lat="43.7924357118784" lon="11.569824693228977"><ele>821.2</ele><time>2026-04-18T12:05:18Z</time></trkpt><trkpt lat="43.792344727429786" lon="11.569824113051306"><ele>823.4000000000001</ele><time>2026-04-18T12:05:19Z</time></trkpt><trkpt lat="43.79223094945819" lon="11.569839555902472"><ele>825.6</ele><time>2026-04-18T12:05:20Z</time></trkpt><trkpt lat="43.79212203215889" lon="11.56984671959145"><ele>827.8</ele><time>2026-04-18T12:05:20.999Z</time></trkpt><trkpt lat="43.79204031320538" lon="11.569861498528685"><ele>830.0</ele><time>2026-04-18T12:05:21.999Z</time></trkpt><trkpt lat="43.79197503821922" lon="11.569907274921142"><ele>830.0</ele><time>2026-04-18T12:05:22.999Z</time></trkpt><trkpt lat="43.79191664876701" lon="11.569984765851537"><ele>830.0</ele><time>2026-04-18T12:05:23.999Z</time></trkpt><trkpt lat="43.79187134126051" lon="11.570109647012227"><ele>830.0</ele><time>2026-04-18T12:05:24.999Z</time></trkpt><trkpt lat="43.79184718873701" lon="11.570260604679346"><ele>830.0</ele><time>2026-04-18T12:05:25.999Z</time></trkpt><trkpt lat="43.79182113984893" lon="11.570371145083996"><ele>830.0</ele><time>2026-04-18T12:05:26.999Z</time></trkpt><trkpt lat="43.79177924621836" lon="11.570476130858326"><ele>832.4</ele><time>2026-04-18T12:05:27.999Z</time></trkpt><trkpt lat="43.79172949461818" lon="11.570611354450403"><ele>834.8</ele><time>2026-04-18T12:05:28.999Z</time></trkpt><trkpt lat="43.791663160335595" lon="11.570753557627667"><ele>837.2</ele><time>2026-04-18T12:05:29.999Z</time></trkpt><trkpt lat="43.79163261543925" lon="11.57090021175185"><ele>839.6</ele><time>2026-04-18T12:05:30.999Z</time></trkpt><trkpt lat="43.79162714422474" lon="11.571004466730034"><ele>842.0</ele><time>2026-04-18T12:05:31.999Z</time></trkpt><trkpt lat="43.79150726556703" lon="11.571081578008515"><ele>842.0</ele><time>2026-04-18T12:05:33.999Z</time></trkpt><trkpt lat="43.79142006963648" lon="11.571071534976008"><ele>842.0</ele><time>2026-04-18T12:05:34.999Z</time></trkpt><trkpt lat="43.79130396859131" lon="11.571037409470955"><ele>842.0</ele><time>2026-04-18T12:05:35.999Z</time></trkpt><trkpt lat="43.791167404066634" lon="11.5710048497452"><ele>842.0</ele><time>2026-04-18T12:05:36.999Z</time></trkpt><trkpt lat="43.79103834554674" lon="11.571005000908471"><ele>846.0</ele><time>2026-04-18T12:05:37.999Z</time></trkpt><trkpt lat="43.79091741827806" lon="11.570938013020921"><ele>850.0</ele><time>2026-04-18T12:05:38.999Z</time></trkpt><trkpt lat="43.79083294344141" lon="11.570995274728057"><ele>854.0</ele><time>2026-04-18T12:05:39.999Z</time></trkpt><trkpt lat="43.79081447731816" lon="11.571199159786236"><ele>858.0</ele><time>2026-04-18T12:05:40.999Z</time></trkpt><trkpt lat="43.79077764561959" lon="11.571341115710405"><ele>858.0</ele><time>2026-04-18T12:05:41.999Z</time></trkpt><trkpt lat="43.790725690987756" lon="11.571467580058984"><ele>858.0</ele><time>2026-04-18T12:05:42.999Z</time></trkpt><trkpt lat="43.7906699409797" lon="11.571534655888158"><ele>858.0</ele><time>2026-04-18T12:05:43.999Z</time></trkpt><trkpt lat="43.79058512683351" lon="11.571615632361867"><ele>858.0</ele><time>2026-04-18T12:05:44.999Z</time></trkpt><trkpt lat="43.79048141283378" lon="11.571716407366695"><ele>858.0</ele><time>2026-04-18T12:05:45.999Z</time></trkpt><trkpt lat="43.79041374770338" lon="11.571775574607093"><ele>858.0</ele><time>2026-04-18T12:05:46.999Z</time></trkpt><trkpt lat="43.7903454906723" lon="11.57180255932877"><ele>858.0</ele><time>2026-04-18T12:05:47.999Z</time></trkpt><trkpt lat="43.79025587112047" lon="11.571777141404986"><ele>858.0</ele><time>2026-04-18T12:05:48.999Z</time></trkpt><trkpt lat="43.790153098715116" lon="11.571751468948557"><ele>858.0</ele><time>2026-04-18T12:05:49.999Z</time></trkpt><trkpt lat="43.79004779853665" lon="11.571708987241044"><ele>858.0</ele><time>2026-04-18T12:05:50.999Z</time></trkpt><trkpt lat="43.7899297065599" lon="11.57167680539609"><ele>863.0</ele><time>2026-04-18T12:05:51.999Z</time></trkpt><trkpt lat="43.78983332055976" lon="11.571712627039467"><ele>868.0</ele><time>2026-04-18T12:05:52.999Z</time></trkpt><trkpt lat="43.78972840624357" lon="11.571819515350503"><ele>873.0</ele><time>2026-04-18T12:05:53.999Z</time></trkpt><trkpt lat="43.78963083915629" lon="11.571840725653148"><ele>878.0</ele><time>2026-04-18T12:05:54.999Z</time></trkpt><trkpt lat="43.78957566483208" lon="11.571786630624327"><ele>883.0</ele><time>2026-04-18T12:05:55.999Z</time></trkpt><trkpt lat="43.789496182606314" lon="11.571767670161217"><ele>883.0</ele><time>2026-04-18T12:05:56.999Z</time></trkpt><trkpt lat="43.789377820993074" lon="11.571751062116086"><ele>883.0</ele><time>2026-04-18T12:05:57.999Z</time></trkpt><trkpt lat="43.78925662975901" lon="11.571762321377632"><ele>883.0</ele><time>2026-04-18T12:05:58.999Z</time></trkpt><trkpt lat="43.789170791875854" lon="11.571840569407021"><ele>883.0</ele><time>2026-04-18T12:05:59.999Z</time></trkpt><trkpt lat="43.78907874151348" lon="11.571937607995377"><ele>882.0</ele><time>2026-04-18T12:06:00.999Z</time></trkpt><trkpt lat="43.78898226433022" lon="11.572012628676651"><ele>881.0</ele><time>2026-04-18T12:06:01.999Z</time></trkpt><trkpt lat="43.7888897506273" lon="11.572009735222526"><ele>880.0</ele><time>2026-04-18T12:06:02.999Z</time></trkpt><trkpt lat="43.788802515062784" lon="11.572024317748237"><ele>879.0</ele><time>2026-04-18T12:06:03.999Z</time></trkpt><trkpt lat="43.78871611834704" lon="11.57203561682685"><ele>878.0</ele><time>2026-04-18T12:06:04.999Z</time></trkpt><trkpt lat="43.78864307960842" lon="11.572041900801409"><ele>878.0000000000001</ele><time>2026-04-18T12:06:05.999Z</time></trkpt><trkpt lat="43.78856176590126" lon="11.572080732714056"><ele>878.0</ele><time>2026-04-18T12:06:06.999Z</time></trkpt><trkpt lat="43.78847149200198" lon="11.572073391165842"><ele>878.0</ele><time>2026-04-18T12:06:07.999Z</time></trkpt><trkpt lat="43.78838603405654" lon="11.572071376911742"><ele>878.0</ele><time>2026-04-18T12:06:08.999Z</time></trkpt><trkpt lat="43.788306813337954" lon="11.572072982084038"><ele>878.0000000000001</ele><time>2026-04-18T12:06:09.999Z</time></trkpt><trkpt lat="43.788216947111415" lon="11.572072300918782"><ele>878.0</ele><time>2026-04-18T12:06:10.999Z</time></trkpt><trkpt lat="43.78813053861455" lon="11.572090407295232"><ele>879.0000000000001</ele><time>2026-04-18T12:06:11.999Z</time></trkpt><trkpt lat="43.78805013240115" lon="11.572136731008017"><ele>880.0</ele><time>2026-04-18T12:06:12.999Z</time></trkpt><trkpt lat="43.78797836206886" lon="11.57219047611801"><ele>881.0</ele><time>2026-04-18T12:06:13.999Z</time></trkpt><trkpt lat="43.78790026505221" lon="11.57225906083641"><ele>882.0</ele><time>2026-04-18T12:06:14.999Z</time></trkpt><trkpt lat="43.78782914190629" lon="11.5723030796614"><ele>883.0000000000001</ele><time>2026-04-18T12:06:15.999Z</time></trkpt><trkpt lat="43.78776221635338" lon="11.572359689644705"><ele>884.0</ele><time>2026-04-18T12:06:16.999Z</time></trkpt><trkpt lat="43.78770989278433" lon="11.572436332163178"><ele>884.8333333333334</ele><time>2026-04-18T12:06:17.999Z</time></trkpt><trkpt lat="43.78766182480704" lon="11.57252396310038"><ele>885.6666666666667</ele><time>2026-04-18T12:06:18.999Z</time></trkpt><trkpt lat="43.787623747983005" lon="11.572602397155993"><ele>886.5</ele><time>2026-04-18T12:06:19.999Z</time></trkpt><trkpt lat="43.78758632825423" lon="11.57267474114327"><ele>887.3333333333333</ele><time>2026-04-18T12:06:20.999Z</time></trkpt><trkpt lat="43.78753785830914" lon="11.572804025165597"><ele>888.1666666666666</ele><time>2026-04-18T12:06:22.999Z</time></trkpt><trkpt lat="43.787503393906526" lon="11.572894524644745"><ele>889.0</ele><time>2026-04-18T12:06:24.999Z</time></trkpt><trkpt lat="43.7874951528178" lon="11.57298462011054"><ele>889.0</ele><time>2026-04-18T12:06:27.999Z</time></trkpt><trkpt lat="43.78738355472005" lon="11.5729325838199"><ele>889.0000000000001</ele><time>2026-04-18T12:06:29.999Z</time></trkpt><trkpt lat="43.78729913929328" lon="11.57286038922081"><ele>889.0000000000001</ele><time>2026-04-18T12:06:31.999Z</time></trkpt><trkpt lat="43.78723019671391" lon="11.57279915762435"><ele>889.0</ele><time>2026-04-18T12:06:34Z</time></trkpt><trkpt lat="43.78717696856339" lon="11.572751882796288"><ele>889.0</ele><time>2026-04-18T12:06:55Z</time></trkpt><trkpt lat="43.7871959736239" lon="11.572565310735106"><ele>889.0</ele><time>2026-04-18T12:06:57Z</time></trkpt><trkpt lat="43.78721797925629" lon="11.572450332872519"><ele>889.0000000000001</ele><time>2026-04-18T12:06:58Z</time></trkpt><trkpt lat="43.78723589563604" lon="11.572311881808899"><ele>889.0000000000001</ele><time>2026-04-18T12:06:59Z</time></trkpt><trkpt lat="43.787257104843356" lon="11.572160954081117"><ele>889.0</ele><time>2026-04-18T12:07:00Z</time></trkpt><trkpt lat="43.78728413842489" lon="11.571988649938064"><ele>889.0</ele><time>2026-04-18T12:07:01Z</time></trkpt><trkpt lat="43.78731384894908" lon="11.571811561046545"><ele>887.5</ele><time>2026-04-18T12:07:02Z</time></trkpt><trkpt lat="43.78734868940776" lon="11.571631329420311"><ele>886.0</ele><time>2026-04-18T12:07:03Z</time></trkpt><trkpt lat="43.78738003316935" lon="11.571455109972023"><ele>884.5</ele><time>2026-04-18T12:07:04Z</time></trkpt><trkpt lat="43.78741863851542" lon="11.571276752220088"><ele>883.0</ele><time>2026-04-18T12:07:05Z</time></trkpt><trkpt lat="43.78747874297419" lon="11.571107323818763"><ele>880.25</ele><time>2026-04-18T12:07:06Z</time></trkpt><trkpt lat="43.78754053109498" lon="11.570935600337231"><ele>877.5</ele><time>2026-04-18T12:07:07Z</time></trkpt><trkpt lat="43.78760124055491" lon="11.570760823786728"><ele>874.75</ele><time>2026-04-18T12:07:08Z</time></trkpt><trkpt lat="43.7876675735237" lon="11.570598254228672"><ele>872.0</ele><time>2026-04-18T12:07:09Z</time></trkpt><trkpt lat="43.78777446241576" lon="11.570469191249416"><ele>876.0</ele><time>2026-04-18T12:07:10Z</time></trkpt><trkpt lat="43.787870721047625" lon="11.570319335940985"><ele>880.0</ele><time>2026-04-18T12:07:11Z</time></trkpt><trkpt lat="43.78797010525531" lon="11.57018655477047"><ele>884.0</ele><time>2026-04-18T12:07:12Z</time></trkpt><trkpt lat="43.788041224932854" lon="11.570022909365601"><ele>888.0</ele><time>2026-04-18T12:07:13Z</time></trkpt><trkpt lat="43.78807666600682" lon="11.56982278503516"><ele>888.0</ele><time>2026-04-18T12:07:14Z</time></trkpt><trkpt lat="43.78809381863669" lon="11.569610906847277"><ele>888.0</ele><time>2026-04-18T12:07:15Z</time></trkpt><trkpt lat="43.7881248725454" lon="11.569421023511458"><ele>888.0</ele><time>2026-04-18T12:07:16Z</time></trkpt><trkpt lat="43.78816104527279" lon="11.569207343517277"><ele>884.3333333333333</ele><time>2026-04-18T12:07:17Z</time></trkpt><trkpt lat="43.78817944186301" lon="11.569002466363274"><ele>880.6666666666666</ele><time>2026-04-18T12:07:18Z</time></trkpt><trkpt lat="43.788226385401146" lon="11.568786132512995"><ele>877.0</ele><time>2026-04-18T12:07:19Z</time></trkpt><trkpt lat="43.78822168932694" lon="11.568567959905948"><ele>874.5</ele><time>2026-04-18T12:07:20Z</time></trkpt><trkpt lat="43.78823479853908" lon="11.568372887291575"><ele>872.0</ele><time>2026-04-18T12:07:21Z</time></trkpt><trkpt lat="43.78823050179639" lon="11.568177609972507"><ele>869.5</ele><time>2026-04-18T12:07:22Z</time></trkpt><trkpt lat="43.78823104943982" lon="11.568005232270199"><ele>867.0</ele><time>2026-04-18T12:07:23Z</time></trkpt><trkpt lat="43.788274833629785" lon="11.567821612773313"><ele>871.0</ele><time>2026-04-18T12:07:24Z</time></trkpt><trkpt lat="43.788381293880946" lon="11.567664115645231"><ele>875.0</ele><time>2026-04-18T12:07:24.999Z</time></trkpt><trkpt lat="43.788511855947704" lon="11.567484500490062"><ele>879.0</ele><time>2026-04-18T12:07:25.999Z</time></trkpt><trkpt lat="43.788648640627535" lon="11.567295538805967"><ele>879.0</ele><time>2026-04-18T12:07:26.999Z</time></trkpt><trkpt lat="43.78876348053469" lon="11.567081369310543"><ele>879.0</ele><time>2026-04-18T12:07:27.999Z</time></trkpt><trkpt lat="43.788858117207475" lon="11.566850879613328"><ele>879.0</ele><time>2026-04-18T12:07:28.999Z</time></trkpt><trkpt lat="43.788946061944145" lon="11.566574371195289"><ele>873.0</ele><time>2026-04-18T12:07:29.999Z</time></trkpt><trkpt lat="43.789027958387905" lon="11.566379317506128"><ele>867.0</ele><time>2026-04-18T12:07:30.999Z</time></trkpt><trkpt lat="43.789137884011346" lon="11.566168027645976"><ele>861.0</ele><time>2026-04-18T12:07:31.999Z</time></trkpt><trkpt lat="43.789284409969895" lon="11.565955212280306"><ele>862.0</ele><time>2026-04-18T12:07:32.999Z</time></trkpt><trkpt lat="43.78943046044293" lon="11.565773534136563"><ele>863.0</ele><time>2026-04-18T12:07:33.999Z</time></trkpt><trkpt lat="43.789565823790525" lon="11.565619882471402"><ele>864.0</ele><time>2026-04-18T12:07:34.999Z</time></trkpt><trkpt lat="43.789691027378275" lon="11.565477250112842"><ele>857.3333333333333</ele><time>2026-04-18T12:07:35.999Z</time></trkpt><trkpt lat="43.78979616913544" lon="11.565330502862631"><ele>850.6666666666666</ele><time>2026-04-18T12:07:36.999Z</time></trkpt><trkpt lat="43.78986725954351" lon="11.565134629808135"><ele>844.0</ele><time>2026-04-18T12:07:37.999Z</time></trkpt><trkpt lat="43.789923510122705" lon="11.56490440070852"><ele>844.0</ele><time>2026-04-18T12:07:38.999Z</time></trkpt><trkpt lat="43.78997594342695" lon="11.56463594966848"><ele>844.0</ele><time>2026-04-18T12:07:39.999Z</time></trkpt><trkpt lat="43.790028991988166" lon="11.564365695149833"><ele>844.0</ele><time>2026-04-18T12:07:40.999Z</time></trkpt><trkpt lat="43.79008526227931" lon="11.564081860233783"><ele>844.6666666666666</ele><time>2026-04-18T12:07:41.999Z</time></trkpt><trkpt lat="43.790139657496994" lon="11.563792030361931"><ele>845.3333333333333</ele><time>2026-04-18T12:07:42.999Z</time></trkpt><trkpt lat="43.790177157740956" lon="11.563496649897584"><ele>846.0</ele><time>2026-04-18T12:07:43.999Z</time></trkpt><trkpt lat="43.790187748271265" lon="11.563198482008527"><ele>846.0</ele><time>2026-04-18T12:07:44.999Z</time></trkpt><trkpt lat="43.79017510763099" lon="11.56290390535667"><ele>846.0</ele><time>2026-04-18T12:07:45.999Z</time></trkpt><trkpt lat="43.790144920779184" lon="11.562618806211834"><ele>846.0</ele><time>2026-04-18T12:07:46.999Z</time></trkpt><trkpt lat="43.79010718567026" lon="11.562347896398492"><ele>842.0</ele><time>2026-04-18T12:07:47.999Z</time></trkpt><trkpt lat="43.790066652816016" lon="11.56210951433092"><ele>838.0</ele><time>2026-04-18T12:07:48.999Z</time></trkpt><trkpt lat="43.79003830462845" lon="11.56185861769472"><ele>834.0</ele><time>2026-04-18T12:07:49.999Z</time></trkpt><trkpt lat="43.79004654290901" lon="11.561595192917421"><ele>834.0</ele><time>2026-04-18T12:07:50.999Z</time></trkpt><trkpt lat="43.79007890783324" lon="11.561345632333822"><ele>834.0</ele><time>2026-04-18T12:07:51.999Z</time></trkpt><trkpt lat="43.79013553163432" lon="11.561129186752783"><ele>834.0</ele><time>2026-04-18T12:07:52.999Z</time></trkpt><trkpt lat="43.79020345060472" lon="11.560934948547867"><ele>835.0</ele><time>2026-04-18T12:07:53.999Z</time></trkpt><trkpt lat="43.79027507658693" lon="11.560758117173204"><ele>836.0</ele><time>2026-04-18T12:07:54.999Z</time></trkpt><trkpt lat="43.790342473876294" lon="11.560585370766873"><ele>837.0</ele><time>2026-04-18T12:07:55.999Z</time></trkpt><trkpt lat="43.79040120153863" lon="11.560413472813465"><ele>838.0</ele><time>2026-04-18T12:07:56.999Z</time></trkpt><trkpt lat="43.79045056993765" lon="11.560212860995684"><ele>838.0</ele><time>2026-04-18T12:07:57.999Z</time></trkpt><trkpt lat="43.79048414829424" lon="11.559996854237099"><ele>838.0</ele><time>2026-04-18T12:07:58.999Z</time></trkpt><trkpt lat="43.79051370706303" lon="11.559781453960072"><ele>838.0</ele><time>2026-04-18T12:07:59.999Z</time></trkpt><trkpt lat="43.79054599800623" lon="11.559557725804705"><ele>836.3333333333333</ele><time>2026-04-18T12:08:00.999Z</time></trkpt><trkpt lat="43.79059649147812" lon="11.559340023110435"><ele>834.6666666666667</ele><time>2026-04-18T12:08:01.999Z</time></trkpt><trkpt lat="43.79064823232542" lon="11.559118653034062"><ele>833.0</ele><time>2026-04-18T12:08:02.999Z</time></trkpt><trkpt lat="43.79073981897622" lon="11.558931330236456"><ele>833.0</ele><time>2026-04-18T12:08:03.999Z</time></trkpt><trkpt lat="43.79086040592985" lon="11.558755485428021"><ele>833.0</ele><time>2026-04-18T12:08:04.999Z</time></trkpt><trkpt lat="43.79099670400446" lon="11.558594012250333"><ele>833.0</ele><time>2026-04-18T12:08:05.999Z</time></trkpt><trkpt lat="43.791134811681594" lon="11.55843345463"><ele>830.0</ele><time>2026-04-18T12:08:06.999Z</time></trkpt><trkpt lat="43.791286021914836" lon="11.558305750575"><ele>827.0</ele><time>2026-04-18T12:08:07.999Z</time></trkpt><trkpt lat="43.79143551231818" lon="11.558187831595678"><ele>824.0</ele><time>2026-04-18T12:08:08.999Z</time></trkpt><trkpt lat="43.791570361024085" lon="11.55808241146183"><ele>824.0</ele><time>2026-04-18T12:08:09.999Z</time></trkpt><trkpt lat="43.79168170543843" lon="11.557961479466632"><ele>824.0</ele><time>2026-04-18T12:08:10.999Z</time></trkpt><trkpt lat="43.791748500058596" lon="11.557823024733292"><ele>824.0</ele><time>2026-04-18T12:08:11.999Z</time></trkpt><trkpt lat="43.79176920890386" lon="11.557663217670239"><ele>824.0</ele><time>2026-04-18T12:08:12.999Z</time></trkpt><trkpt lat="43.79174864202709" lon="11.557477335195221"><ele>825.8000000000001</ele><time>2026-04-18T12:08:13.999Z</time></trkpt><trkpt lat="43.7917154951319" lon="11.557316285704097"><ele>827.6</ele><time>2026-04-18T12:08:14.999Z</time></trkpt><trkpt lat="43.79172351949722" lon="11.557172255557747"><ele>829.4</ele><time>2026-04-18T12:08:15.999Z</time></trkpt><trkpt lat="43.79178216366504" lon="11.55705538612427"><ele>831.2</ele><time>2026-04-18T12:08:16.999Z</time></trkpt><trkpt lat="43.79188739693164" lon="11.556978476116926"><ele>833.0</ele><time>2026-04-18T12:08:17.999Z</time></trkpt><trkpt lat="43.79201735285161" lon="11.556900070539928"><ele>825.5</ele><time>2026-04-18T12:08:18.999Z</time></trkpt><trkpt lat="43.79211338767181" lon="11.556797767735073"><ele>818.0</ele><time>2026-04-18T12:08:19.999Z</time></trkpt><trkpt lat="43.79217560397706" lon="11.556664166857887"><ele>810.5</ele><time>2026-04-18T12:08:20.999Z</time></trkpt><trkpt lat="43.792202504698984" lon="11.556490219921413"><ele>803.0</ele><time>2026-04-18T12:08:21.999Z</time></trkpt><trkpt lat="43.792182023365775" lon="11.556304524440852"><ele>802.0</ele><time>2026-04-18T12:08:22.999Z</time></trkpt><trkpt lat="43.792126174514046" lon="11.55612663546121"><ele>801.0</ele><time>2026-04-18T12:08:23.999Z</time></trkpt><trkpt lat="43.79200716540776" lon="11.555975395446223"><ele>800.0</ele><time>2026-04-18T12:08:24.999Z</time></trkpt><trkpt lat="43.79187548557071" lon="11.555843245496309"><ele>805.5</ele><time>2026-04-18T12:08:25.999Z</time></trkpt><trkpt lat="43.79176850635102" lon="11.555718362276806"><ele>811.0</ele><time>2026-04-18T12:08:26.999Z</time></trkpt><trkpt lat="43.79169705118653" lon="11.555575217143579"><ele>816.5</ele><time>2026-04-18T12:08:27.999Z</time></trkpt><trkpt lat="43.79166212546927" lon="11.555420345647093"><ele>822.0</ele><time>2026-04-18T12:08:28.999Z</time></trkpt><trkpt lat="43.79164296196481" lon="11.555255913074019"><ele>822.0</ele><time>2026-04-18T12:08:29.999Z</time></trkpt><trkpt lat="43.79168498903885" lon="11.555104090893131"><ele>822.0</ele><time>2026-04-18T12:08:30.999Z</time></trkpt><trkpt lat="43.7917634232408" lon="11.554964892548067"><ele>822.0</ele><time>2026-04-18T12:08:31.999Z</time></trkpt><trkpt lat="43.79187238934854" lon="11.554847783160815"><ele>822.0</ele><time>2026-04-18T12:08:32.999Z</time></trkpt><trkpt lat="43.79199270254175" lon="11.55474762219654"><ele>818.75</ele><time>2026-04-18T12:08:33.999Z</time></trkpt><trkpt lat="43.79211930302246" lon="11.554653776150015"><ele>815.5</ele><time>2026-04-18T12:08:34.999Z</time></trkpt><trkpt lat="43.79223309075039" lon="11.554516261800487"><ele>812.25</ele><time>2026-04-18T12:08:35.999Z</time></trkpt><trkpt lat="43.79232713788319" lon="11.554368370897954"><ele>809.0</ele><time>2026-04-18T12:08:36.999Z</time></trkpt><trkpt lat="43.79241959090632" lon="11.554210801241378"><ele>809.0</ele><time>2026-04-18T12:08:37.999Z</time></trkpt><trkpt lat="43.7924913609616" lon="11.554037921659344"><ele>809.0</ele><time>2026-04-18T12:08:39Z</time></trkpt><trkpt lat="43.79256560562637" lon="11.553880736078677"><ele>809.0</ele><time>2026-04-18T12:08:40Z</time></trkpt><trkpt lat="43.792643071054286" lon="11.553739225459122"><ele>809.0</ele><time>2026-04-18T12:08:41Z</time></trkpt><trkpt lat="43.79272060182215" lon="11.553612132221867"><ele>807.25</ele><time>2026-04-18T12:08:42Z</time></trkpt><trkpt lat="43.79280334932089" lon="11.553480119880424"><ele>805.5</ele><time>2026-04-18T12:08:43Z</time></trkpt><trkpt lat="43.79289619318425" lon="11.553350705812385"><ele>803.75</ele><time>2026-04-18T12:08:44Z</time></trkpt><trkpt lat="43.79299420966722" lon="11.553235464256215"><ele>802.0</ele><time>2026-04-18T12:08:45Z</time></trkpt><trkpt lat="43.7930796760498" lon="11.553119036869209"><ele>802.0</ele><time>2026-04-18T12:08:46Z</time></trkpt><trkpt lat="43.79315306585205" lon="11.552988170524047"><ele>802.0</ele><time>2026-04-18T12:08:47Z</time></trkpt><trkpt lat="43.79316242871505" lon="11.55280761190366"><ele>802.0</ele><time>2026-04-18T12:08:48Z</time></trkpt><trkpt lat="43.79316437587588" lon="11.55262175983148"><ele>802.0</ele><time>2026-04-18T12:08:49Z</time></trkpt><trkpt lat="43.79313182087193" lon="11.552409949752974"><ele>801.3333333333333</ele><time>2026-04-18T12:08:50Z</time></trkpt><trkpt lat="43.79308875209373" lon="11.552167687130673"><ele>800.6666666666667</ele><time>2026-04-18T12:08:51Z</time></trkpt><trkpt lat="43.79306862151547" lon="11.551917557358772"><ele>800.0</ele><time>2026-04-18T12:08:52Z</time></trkpt><trkpt lat="43.79303978552442" lon="11.551684204819042"><ele>797.0</ele><time>2026-04-18T12:08:53Z</time></trkpt><trkpt lat="43.79301415189483" lon="11.551441023283145"><ele>794.0</ele><time>2026-04-18T12:08:54Z</time></trkpt><trkpt lat="43.79299343077628" lon="11.551195977848813"><ele>791.0</ele><time>2026-04-18T12:08:55Z</time></trkpt><trkpt lat="43.79296889826437" lon="11.550961024254152"><ele>789.6666666666667</ele><time>2026-04-18T12:08:56Z</time></trkpt><trkpt lat="43.792945447512395" lon="11.550720290532052"><ele>788.3333333333333</ele><time>2026-04-18T12:08:57Z</time></trkpt><trkpt lat="43.792927456761404" lon="11.550460583253152"><ele>787.0</ele><time>2026-04-18T12:08:58Z</time></trkpt><trkpt lat="43.7929466403516" lon="11.55018487503729"><ele>784.6666666666666</ele><time>2026-04-18T12:08:59Z</time></trkpt><trkpt lat="43.79294823066056" lon="11.549900572323438"><ele>782.3333333333333</ele><time>2026-04-18T12:09:00Z</time></trkpt><trkpt lat="43.79296343740206" lon="11.54962321093364"><ele>780.0</ele><time>2026-04-18T12:09:01Z</time></trkpt><trkpt lat="43.7929720213561" lon="11.549345768531852"><ele>779.0</ele><time>2026-04-18T12:09:02Z</time></trkpt><trkpt lat="43.79298183422008" lon="11.549075667778292"><ele>778.0</ele><time>2026-04-18T12:09:03Z</time></trkpt><trkpt lat="43.792992573379586" lon="11.54880092960187"><ele>777.0</ele><time>2026-04-18T12:09:04Z</time></trkpt><trkpt lat="43.79300584009945" lon="11.548528842721772"><ele>777.0</ele><time>2026-04-18T12:09:05Z</time></trkpt><trkpt lat="43.79304565542568" lon="11.548271850532705"><ele>777.0</ele><time>2026-04-18T12:09:06Z</time></trkpt><trkpt lat="43.79306341938814" lon="11.54803621682973"><ele>777.0</ele><time>2026-04-18T12:09:07Z</time></trkpt><trkpt lat="43.793127869464456" lon="11.547844027918194"><ele>778.0</ele><time>2026-04-18T12:09:08Z</time></trkpt><trkpt lat="43.793232874627265" lon="11.547676900649583"><ele>779.0</ele><time>2026-04-18T12:09:09Z</time></trkpt><trkpt lat="43.79338345875212" lon="11.547544805825911"><ele>780.0</ele><time>2026-04-18T12:09:10Z</time></trkpt><trkpt lat="43.79355057066127" lon="11.547458421259108"><ele>780.0</ele><time>2026-04-18T12:09:11Z</time></trkpt><trkpt lat="43.793747445619736" lon="11.547424898972919"><ele>780.0</ele><time>2026-04-18T12:09:12Z</time></trkpt><trkpt lat="43.79395565190301" lon="11.547429293134941"><ele>780.0</ele><time>2026-04-18T12:09:13Z</time></trkpt><trkpt lat="43.79414632939615" lon="11.547446557472226"><ele>780.0</ele><time>2026-04-18T12:09:14Z</time></trkpt><trkpt lat="43.794312380816" lon="11.547452907289518"><ele>780.0</ele><time>2026-04-18T12:09:15Z</time></trkpt><trkpt lat="43.79444958989627" lon="11.547420687156587"><ele>780.0</ele><time>2026-04-18T12:09:16Z</time></trkpt><trkpt lat="43.79457059312433" lon="11.547340948408376"><ele>780.0</ele><time>2026-04-18T12:09:17Z</time></trkpt><trkpt lat="43.794673792878385" lon="11.547222727094272"><ele>776.0</ele><time>2026-04-18T12:09:18Z</time></trkpt><trkpt lat="43.79473869091568" lon="11.547048200219411"><ele>772.0</ele><time>2026-04-18T12:09:19Z</time></trkpt><trkpt lat="43.794751476263855" lon="11.54684780465146"><ele>768.0</ele><time>2026-04-18T12:09:20Z</time></trkpt><trkpt lat="43.79472694641222" lon="11.546598358838454"><ele>768.0</ele><time>2026-04-18T12:09:21Z</time></trkpt><trkpt lat="43.79468816442184" lon="11.546318646497992"><ele>768.0</ele><time>2026-04-18T12:09:22Z</time></trkpt><trkpt lat="43.79472141564146" lon="11.546067262209656"><ele>768.0</ele><time>2026-04-18T12:09:23Z</time></trkpt><trkpt lat="43.794769174899606" lon="11.54578746585766"><ele>767.3333333333334</ele><time>2026-04-18T12:09:23.999Z</time></trkpt><trkpt lat="43.79484051674103" lon="11.54551293369872"><ele>766.6666666666667</ele><time>2026-04-18T12:09:24.999Z</time></trkpt><trkpt lat="43.79491495060621" lon="11.545265822650208"><ele>766.0</ele><time>2026-04-18T12:09:25.999Z</time></trkpt><trkpt lat="43.79499137720592" lon="11.545038993427832"><ele>767.3333333333334</ele><time>2026-04-18T12:09:26.999Z</time></trkpt><trkpt lat="43.79504173595365" lon="11.544814442353816"><ele>768.6666666666667</ele><time>2026-04-18T12:09:27.999Z</time></trkpt><trkpt lat="43.79509904235156" lon="11.544598990125035"><ele>770.0</ele><time>2026-04-18T12:09:28.999Z</time></trkpt><trkpt lat="43.79511974164901" lon="11.544354309464616"><ele>770.6666666666667</ele><time>2026-04-18T12:09:29.999Z</time></trkpt><trkpt lat="43.79514778106336" lon="11.54412955895348"><ele>771.3333333333333</ele><time>2026-04-18T12:09:30.999Z</time></trkpt><trkpt lat="43.79519263079892" lon="11.543926091519385"><ele>772.0</ele><time>2026-04-18T12:09:31.999Z</time></trkpt><trkpt lat="43.79522392311934" lon="11.543724635488768"><ele>764.75</ele><time>2026-04-18T12:09:32.999Z</time></trkpt><trkpt lat="43.79525534339665" lon="11.543534467961061"><ele>757.5</ele><time>2026-04-18T12:09:33.999Z</time></trkpt><trkpt lat="43.795285222771554" lon="11.543350955029473"><ele>750.25</ele><time>2026-04-18T12:09:34.999Z</time></trkpt><trkpt lat="43.79530180051454" lon="11.543169975090764"><ele>743.0</ele><time>2026-04-18T12:09:35.999Z</time></trkpt><trkpt lat="43.7953335662063" lon="11.54299863329868"><ele>744.25</ele><time>2026-04-18T12:09:36.999Z</time></trkpt><trkpt lat="43.79537331275322" lon="11.542832459565055"><ele>745.5</ele><time>2026-04-18T12:09:37.999Z</time></trkpt><trkpt lat="43.79539564953725" lon="11.542665207661786"><ele>746.75</ele><time>2026-04-18T12:09:38.999Z</time></trkpt><trkpt lat="43.79540651040395" lon="11.54249627151489"><ele>748.0</ele><time>2026-04-18T12:09:39.999Z</time></trkpt><trkpt lat="43.79539904277278" lon="11.542315817656261"><ele>748.0</ele><time>2026-04-18T12:09:40.999Z</time></trkpt><trkpt lat="43.795377621469605" lon="11.54212770357405"><ele>748.0</ele><time>2026-04-18T12:09:41.999Z</time></trkpt><trkpt lat="43.79535407937083" lon="11.541943441574293"><ele>748.0</ele><time>2026-04-18T12:09:42.999Z</time></trkpt><trkpt lat="43.79533081499213" lon="11.541768703391506"><ele>748.0</ele><time>2026-04-18T12:09:43.999Z</time></trkpt><trkpt lat="43.79530586492354" lon="11.541591363201519"><ele>747.5</ele><time>2026-04-18T12:09:44.999Z</time></trkpt><trkpt lat="43.79528337300135" lon="11.5414013843209"><ele>747.0</ele><time>2026-04-18T12:09:45.999Z</time></trkpt><trkpt lat="43.795269482277135" lon="11.541207309662425"><ele>746.5</ele><time>2026-04-18T12:09:46.999Z</time></trkpt><trkpt lat="43.795273109422254" lon="11.541003146302346"><ele>746.0</ele><time>2026-04-18T12:09:47.999Z</time></trkpt><trkpt lat="43.79529028585834" lon="11.540802251789032"><ele>744.5</ele><time>2026-04-18T12:09:48.999Z</time></trkpt><trkpt lat="43.79530854719323" lon="11.540609714761874"><ele>743.0</ele><time>2026-04-18T12:09:49.999Z</time></trkpt><trkpt lat="43.79532644352193" lon="11.540418188788982"><ele>741.5</ele><time>2026-04-18T12:09:50.999Z</time></trkpt><trkpt lat="43.795343917472366" lon="11.54023290339227"><ele>740.0</ele><time>2026-04-18T12:09:51.999Z</time></trkpt><trkpt lat="43.795358360405096" lon="11.540037548308586"><ele>739.5</ele><time>2026-04-18T12:09:52.999Z</time></trkpt><trkpt lat="43.795353743823426" lon="11.53983427217393"><ele>739.0</ele><time>2026-04-18T12:09:53.999Z</time></trkpt><trkpt lat="43.79530274955361" lon="11.539656498529615"><ele>738.5</ele><time>2026-04-18T12:09:54.999Z</time></trkpt><trkpt lat="43.79523504974385" lon="11.539495542191572"><ele>738.0</ele><time>2026-04-18T12:09:55.999Z</time></trkpt><trkpt lat="43.79514348563131" lon="11.539356122881218"><ele>738.0</ele><time>2026-04-18T12:09:56.999Z</time></trkpt><trkpt lat="43.79503616804372" lon="11.539238483683887"><ele>738.0</ele><time>2026-04-18T12:09:57.999Z</time></trkpt><trkpt lat="43.794917159100116" lon="11.539145425897091"><ele>738.0</ele><time>2026-04-18T12:09:58.999Z</time></trkpt><trkpt lat="43.79479521608264" lon="11.539063264810121"><ele>738.0</ele><time>2026-04-18T12:09:59.999Z</time></trkpt><trkpt lat="43.79467520219804" lon="11.538977887062828"><ele>738.0</ele><time>2026-04-18T12:10:00.999Z</time></trkpt><trkpt lat="43.7945708796212" lon="11.538893162588792"><ele>738.0</ele><time>2026-04-18T12:10:01.999Z</time></trkpt><trkpt lat="43.7944863628537" lon="11.538766309047777"><ele>738.0</ele><time>2026-04-18T12:10:02.999Z</time></trkpt><trkpt lat="43.794425711588865" lon="11.538632725578951"><ele>738.0</ele><time>2026-04-18T12:10:03.999Z</time></trkpt><trkpt lat="43.79441017157028" lon="11.53845745284342"><ele>738.75</ele><time>2026-04-18T12:10:04.999Z</time></trkpt><trkpt lat="43.79444214398094" lon="11.538279926098758"><ele>739.5</ele><time>2026-04-18T12:10:05.999Z</time></trkpt><trkpt lat="43.79446854496307" lon="11.538080142991642"><ele>740.25</ele><time>2026-04-18T12:10:06.999Z</time></trkpt><trkpt lat="43.79445656649417" lon="11.537899400527957"><ele>741.0</ele><time>2026-04-18T12:10:07.999Z</time></trkpt><trkpt lat="43.79439753544139" lon="11.5377380009222"><ele>739.5</ele><time>2026-04-18T12:10:08.999Z</time></trkpt><trkpt lat="43.794306985063315" lon="11.537605767949763"><ele>738.0</ele><time>2026-04-18T12:10:09.999Z</time></trkpt><trkpt lat="43.794212492457746" lon="11.537487572041488"><ele>736.5</ele><time>2026-04-18T12:10:10.999Z</time></trkpt><trkpt lat="43.79411360492659" lon="11.537357177123306"><ele>735.0</ele><time>2026-04-18T12:10:11.999Z</time></trkpt><trkpt lat="43.79400819665008" lon="11.537221207453843"><ele>735.0</ele><time>2026-04-18T12:10:12.999Z</time></trkpt><trkpt lat="43.79390270082069" lon="11.537059937147104"><ele>735.0</ele><time>2026-04-18T12:10:13.999Z</time></trkpt><trkpt lat="43.79382169542631" lon="11.536850422563651"><ele>735.0</ele><time>2026-04-18T12:10:14.999Z</time></trkpt><trkpt lat="43.79373809032322" lon="11.536621224902994"><ele>733.6666666666666</ele><time>2026-04-18T12:10:15.999Z</time></trkpt><trkpt lat="43.79364225654427" lon="11.536398690841047"><ele>732.3333333333333</ele><time>2026-04-18T12:10:16.999Z</time></trkpt><trkpt lat="43.79355598381985" lon="11.536151782003111"><ele>731.0</ele><time>2026-04-18T12:10:17.999Z</time></trkpt><trkpt lat="43.79346870112044" lon="11.5358973483904"><ele>731.0</ele><time>2026-04-18T12:10:18.999Z</time></trkpt><trkpt lat="43.79338229629403" lon="11.535642458942968"><ele>731.0</ele><time>2026-04-18T12:10:19.999Z</time></trkpt><trkpt lat="43.79329872664198" lon="11.535387811147183"><ele>731.0</ele><time>2026-04-18T12:10:20.999Z</time></trkpt><trkpt lat="43.7932272827811" lon="11.535135462968109"><ele>733.0</ele><time>2026-04-18T12:10:21.999Z</time></trkpt><trkpt lat="43.793164070529755" lon="11.53488115449256"><ele>735.0</ele><time>2026-04-18T12:10:22.999Z</time></trkpt><trkpt lat="43.79311262365927" lon="11.534626591035673"><ele>737.0</ele><time>2026-04-18T12:10:23.999Z</time></trkpt><trkpt lat="43.793059373805384" lon="11.534380137935601"><ele>739.6666666666666</ele><time>2026-04-18T12:10:24.999Z</time></trkpt><trkpt lat="43.79300915664985" lon="11.53413935782157"><ele>742.3333333333334</ele><time>2026-04-18T12:10:25.999Z</time></trkpt><trkpt lat="43.792988913145656" lon="11.533889017243137"><ele>745.0</ele><time>2026-04-18T12:10:26.999Z</time></trkpt><trkpt lat="43.793005283470144" lon="11.533633359551438"><ele>745.6666666666667</ele><time>2026-04-18T12:10:27.999Z</time></trkpt><trkpt lat="43.79299284197485" lon="11.533379501085223"><ele>746.3333333333334</ele><time>2026-04-18T12:10:28.999Z</time></trkpt><trkpt lat="43.79295726818092" lon="11.533129072058195"><ele>747.0</ele><time>2026-04-18T12:10:29.999Z</time></trkpt><trkpt lat="43.79294778721785" lon="11.532856550018838"><ele>747.0</ele><time>2026-04-18T12:10:30.999Z</time></trkpt><trkpt lat="43.79298614007493" lon="11.532587548319905"><ele>747.0</ele><time>2026-04-18T12:10:31.999Z</time></trkpt><trkpt lat="43.79299752810054" lon="11.532306260945925"><ele>747.0</ele><time>2026-04-18T12:10:32.999Z</time></trkpt><trkpt lat="43.793021156827436" lon="11.532028164558065"><ele>745.3333333333334</ele><time>2026-04-18T12:10:33.999Z</time></trkpt><trkpt lat="43.79305354964242" lon="11.531763544463022"><ele>743.6666666666667</ele><time>2026-04-18T12:10:34.999Z</time></trkpt><trkpt lat="43.793037402200476" lon="11.53151426584792"><ele>742.0</ele><time>2026-04-18T12:10:35.999Z</time></trkpt><trkpt lat="43.793059973683064" lon="11.531286714517407"><ele>741.25</ele><time>2026-04-18T12:10:36.999Z</time></trkpt><trkpt lat="43.79308162289331" lon="11.531076234170657"><ele>740.5</ele><time>2026-04-18T12:10:37.999Z</time></trkpt><trkpt lat="43.79311250812013" lon="11.530909212298015"><ele>739.75</ele><time>2026-04-18T12:10:38.998Z</time></trkpt><trkpt lat="43.793112974545856" lon="11.530752743052394"><ele>739.0</ele><time>2026-04-18T12:10:39.998Z</time></trkpt><trkpt lat="43.79305825707032" lon="11.530598911939332"><ele>739.0</ele><time>2026-04-18T12:10:40.998Z</time></trkpt><trkpt lat="43.79295802301229" lon="11.53049120185701"><ele>739.0</ele><time>2026-04-18T12:10:41.998Z</time></trkpt><trkpt lat="43.792816714556615" lon="11.530409469091348"><ele>739.0</ele><time>2026-04-18T12:10:42.998Z</time></trkpt><trkpt lat="43.792655387501604" lon="11.530307559784514"><ele>732.6666666666667</ele><time>2026-04-18T12:10:43.998Z</time></trkpt><trkpt lat="43.79249240424643" lon="11.530183253123026"><ele>726.3333333333334</ele><time>2026-04-18T12:10:45Z</time></trkpt><trkpt lat="43.79233838404773" lon="11.530043308444675"><ele>720.0</ele><time>2026-04-18T12:10:46Z</time></trkpt><trkpt lat="43.79221546468966" lon="11.529896117485967"><ele>720.0</ele><time>2026-04-18T12:10:47Z</time></trkpt><trkpt lat="43.792121279053084" lon="11.529738748910209"><ele>720.0</ele><time>2026-04-18T12:10:48Z</time></trkpt><trkpt lat="43.79206360348113" lon="11.529553537790799"><ele>720.0</ele><time>2026-04-18T12:10:49Z</time></trkpt><trkpt lat="43.7920322766975" lon="11.529321985144398"><ele>722.6666666666666</ele><time>2026-04-18T12:10:50Z</time></trkpt><trkpt lat="43.7920353590466" lon="11.529067718588053"><ele>725.3333333333333</ele><time>2026-04-18T12:10:51Z</time></trkpt><trkpt lat="43.79200893011466" lon="11.528820770676488"><ele>728.0</ele><time>2026-04-18T12:10:52Z</time></trkpt><trkpt lat="43.79192395933881" lon="11.528587648181386"><ele>717.6666666666666</ele><time>2026-04-18T12:10:53Z</time></trkpt><trkpt lat="43.79181050350456" lon="11.52834685040304"><ele>707.3333333333334</ele><time>2026-04-18T12:10:54Z</time></trkpt><trkpt lat="43.79173108034645" lon="11.52810918104568"><ele>697.0</ele><time>2026-04-18T12:10:55Z</time></trkpt><trkpt lat="43.7916734875615" lon="11.527934140640113"><ele>696.5</ele><time>2026-04-18T12:10:56Z</time></trkpt><trkpt lat="43.79165068836825" lon="11.52775726286253"><ele>696.0</ele><time>2026-04-18T12:10:57Z</time></trkpt><trkpt lat="43.791679654717015" lon="11.527570691504412"><ele>695.5</ele><time>2026-04-18T12:10:58Z</time></trkpt><trkpt lat="43.79176534168852" lon="11.527384734713744"><ele>695.0</ele><time>2026-04-18T12:10:59Z</time></trkpt><trkpt lat="43.79184234559575" lon="11.527190540892242"><ele>691.6666666666666</ele><time>2026-04-18T12:11:00Z</time></trkpt><trkpt lat="43.79185926055897" lon="11.526976874938581"><ele>688.3333333333334</ele><time>2026-04-18T12:11:01Z</time></trkpt><trkpt lat="43.791838935417736" lon="11.526730233734785"><ele>685.0</ele><time>2026-04-18T12:11:02Z</time></trkpt><trkpt lat="43.791817031443784" lon="11.52650751938415"><ele>690.6666666666667</ele><time>2026-04-18T12:11:03Z</time></trkpt><trkpt lat="43.79184112945443" lon="11.52631718740652"><ele>696.3333333333334</ele><time>2026-04-18T12:11:04Z</time></trkpt><trkpt lat="43.79191055568461" lon="11.526100324960854"><ele>702.0</ele><time>2026-04-18T12:11:05Z</time></trkpt><trkpt lat="43.79197728017779" lon="11.525860149847203"><ele>702.0</ele><time>2026-04-18T12:11:06Z</time></trkpt><trkpt lat="43.79204203196554" lon="11.525645720635753"><ele>702.0</ele><time>2026-04-18T12:11:07Z</time></trkpt><trkpt lat="43.79209876915257" lon="11.525440889116062"><ele>702.0</ele><time>2026-04-18T12:11:08Z</time></trkpt><trkpt lat="43.79209613506296" lon="11.525238087414463"><ele>698.75</ele><time>2026-04-18T12:11:09Z</time></trkpt><trkpt lat="43.7920263892779" lon="11.5250410624746"><ele>695.5</ele><time>2026-04-18T12:11:10Z</time></trkpt><trkpt lat="43.79198751282779" lon="11.524855927159921"><ele>692.25</ele><time>2026-04-18T12:11:11Z</time></trkpt><trkpt lat="43.79193866613586" lon="11.524718029480718"><ele>689.0</ele><time>2026-04-18T12:11:12Z</time></trkpt><trkpt lat="43.79193987282054" lon="11.524586148990075"><ele>686.0</ele><time>2026-04-18T12:11:13Z</time></trkpt><trkpt lat="43.79199757902979" lon="11.524465839666567"><ele>683.0</ele><time>2026-04-18T12:11:14Z</time></trkpt><trkpt lat="43.792108741529255" lon="11.524372737251218"><ele>680.0</ele><time>2026-04-18T12:11:15Z</time></trkpt><trkpt lat="43.79223149265312" lon="11.524279037114901"><ele>677.0</ele><time>2026-04-18T12:11:16Z</time></trkpt><trkpt lat="43.79234420120084" lon="11.524121467703917"><ele>677.0</ele><time>2026-04-18T12:11:17Z</time></trkpt><trkpt lat="43.792427996536716" lon="11.523900242537223"><ele>677.0</ele><time>2026-04-18T12:11:18Z</time></trkpt><trkpt lat="43.79250113013244" lon="11.523639034679276"><ele>677.0</ele><time>2026-04-18T12:11:19Z</time></trkpt><trkpt lat="43.79259588655205" lon="11.523427628250557"><ele>678.0</ele><time>2026-04-18T12:11:20Z</time></trkpt><trkpt lat="43.7926675263733" lon="11.523236211861507"><ele>679.0</ele><time>2026-04-18T12:11:21Z</time></trkpt><trkpt lat="43.79273257032725" lon="11.523060687312844"><ele>680.0</ele><time>2026-04-18T12:11:22Z</time></trkpt><trkpt lat="43.79277389273345" lon="11.522877060469574"><ele>681.0</ele><time>2026-04-18T12:11:23Z</time></trkpt><trkpt lat="43.79281403854983" lon="11.522695485284995"><ele>679.0</ele><time>2026-04-18T12:11:24Z</time></trkpt><trkpt lat="43.79277159766997" lon="11.52251498290762"><ele>677.0</ele><time>2026-04-18T12:11:25Z</time></trkpt><trkpt lat="43.79273967631845" lon="11.522348031449498"><ele>675.0</ele><time>2026-04-18T12:11:26Z</time></trkpt><trkpt lat="43.79271172754947" lon="11.522183473055781"><ele>673.0</ele><time>2026-04-18T12:11:27Z</time></trkpt><trkpt lat="43.792693673893815" lon="11.522008220791037"><ele>671.5</ele><time>2026-04-18T12:11:28Z</time></trkpt><trkpt lat="43.792685422175346" lon="11.521824805082506"><ele>670.0</ele><time>2026-04-18T12:11:29Z</time></trkpt><trkpt lat="43.79268297838687" lon="11.521641635032259"><ele>668.5</ele><time>2026-04-18T12:11:30Z</time></trkpt><trkpt lat="43.792676165422755" lon="11.521444861641664"><ele>667.0</ele><time>2026-04-18T12:11:31Z</time></trkpt><trkpt lat="43.79266308663773" lon="11.52124039789458"><ele>657.6666666666667</ele><time>2026-04-18T12:11:32Z</time></trkpt><trkpt lat="43.792643561702626" lon="11.52102967070282"><ele>648.3333333333334</ele><time>2026-04-18T12:11:33Z</time></trkpt><trkpt lat="43.79262337700992" lon="11.52082141583642"><ele>639.0</ele><time>2026-04-18T12:11:34Z</time></trkpt><trkpt lat="43.792597864582724" lon="11.520617691691424"><ele>639.0</ele><time>2026-04-18T12:11:35Z</time></trkpt><trkpt lat="43.79260443936464" lon="11.520424071062067"><ele>639.0</ele><time>2026-04-18T12:11:35.999Z</time></trkpt><trkpt lat="43.79263603037126" lon="11.520238542294829"><ele>639.0</ele><time>2026-04-18T12:11:36.999Z</time></trkpt><trkpt lat="43.79269675463804" lon="11.52004645389936"><ele>639.0</ele><time>2026-04-18T12:11:37.999Z</time></trkpt><trkpt lat="43.792781651843725" lon="11.519870502079774"><ele>636.0</ele><time>2026-04-18T12:11:38.999Z</time></trkpt><trkpt lat="43.79287523986339" lon="11.519703808214397"><ele>633.0</ele><time>2026-04-18T12:11:39.999Z</time></trkpt><trkpt lat="43.79298389766369" lon="11.519566151302353"><ele>630.0</ele><time>2026-04-18T12:11:40.999Z</time></trkpt><trkpt lat="43.7931100030959" lon="11.519452824706352"><ele>630.0</ele><time>2026-04-18T12:11:41.999Z</time></trkpt><trkpt lat="43.793231999484256" lon="11.51933893453047"><ele>630.0</ele><time>2026-04-18T12:11:42.999Z</time></trkpt><trkpt lat="43.793344275930274" lon="11.519209423086755"><ele>630.0</ele><time>2026-04-18T12:11:43.999Z</time></trkpt><trkpt lat="43.793432316792064" lon="11.519059804874436"><ele>630.0</ele><time>2026-04-18T12:11:44.999Z</time></trkpt><trkpt lat="43.793491481539846" lon="11.518905297480996"><ele>628.5</ele><time>2026-04-18T12:11:45.999Z</time></trkpt><trkpt lat="43.79351417300564" lon="11.518742378841374"><ele>627.0</ele><time>2026-04-18T12:11:46.999Z</time></trkpt><trkpt lat="43.79348664331671" lon="11.518590004032562"><ele>625.5</ele><time>2026-04-18T12:11:47.999Z</time></trkpt><trkpt lat="43.79341139419685" lon="11.518442834378037"><ele>624.0</ele><time>2026-04-18T12:11:48.999Z</time></trkpt><trkpt lat="43.79333131432696" lon="11.51827749282551"><ele>624.0</ele><time>2026-04-18T12:11:49.999Z</time></trkpt><trkpt lat="43.793218334015314" lon="11.518131463781723"><ele>624.0</ele><time>2026-04-18T12:11:50.999Z</time></trkpt><trkpt lat="43.79311914956759" lon="11.517980750632061"><ele>624.0</ele><time>2026-04-18T12:11:51.999Z</time></trkpt><trkpt lat="43.79301758552132" lon="11.517828398727188"><ele>627.6666666666666</ele><time>2026-04-18T12:11:52.999Z</time></trkpt><trkpt lat="43.79290787579694" lon="11.51766880869117"><ele>631.3333333333333</ele><time>2026-04-18T12:11:53.999Z</time></trkpt><trkpt lat="43.792800522533156" lon="11.51750082151903"><ele>635.0</ele><time>2026-04-18T12:11:54.999Z</time></trkpt><trkpt lat="43.7926931761859" lon="11.517341849483632"><ele>631.0</ele><time>2026-04-18T12:11:55.999Z</time></trkpt><trkpt lat="43.792586533549056" lon="11.51720173340715"><ele>627.0</ele><time>2026-04-18T12:11:56.999Z</time></trkpt><trkpt lat="43.7924753431711" lon="11.51707230418219"><ele>623.0</ele><time>2026-04-18T12:11:57.999Z</time></trkpt><trkpt lat="43.79234552110998" lon="11.516962159354538"><ele>619.0</ele><time>2026-04-18T12:11:58.999Z</time></trkpt><trkpt lat="43.79221143832647" lon="11.516860747204468"><ele>619.0</ele><time>2026-04-18T12:11:59.999Z</time></trkpt><trkpt lat="43.792083656448" lon="11.5167540291185"><ele>619.0</ele><time>2026-04-18T12:12:00.999Z</time></trkpt><trkpt lat="43.79196460275563" lon="11.51663603022456"><ele>619.0</ele><time>2026-04-18T12:12:01.999Z</time></trkpt><trkpt lat="43.79185431765869" lon="11.51650144481877"><ele>619.0</ele><time>2026-04-18T12:12:02.999Z</time></trkpt><trkpt lat="43.7917403246732" lon="11.516350417134664"><ele>613.6666666666667</ele><time>2026-04-18T12:12:03.999Z</time></trkpt><trkpt lat="43.79162795215942" lon="11.516197492044816"><ele>608.3333333333334</ele><time>2026-04-18T12:12:04.999Z</time></trkpt><trkpt lat="43.79151875322841" lon="11.5160521224668"><ele>603.0</ele><time>2026-04-18T12:12:05.999Z</time></trkpt><trkpt lat="43.79142853228471" lon="11.515893333274713"><ele>603.0</ele><time>2026-04-18T12:12:06.999Z</time></trkpt><trkpt lat="43.791327929698014" lon="11.51575590596302"><ele>603.0</ele><time>2026-04-18T12:12:07.999Z</time></trkpt><trkpt lat="43.79123597164677" lon="11.515653908298749"><ele>603.0</ele><time>2026-04-18T12:12:08.999Z</time></trkpt><trkpt lat="43.791183133527795" lon="11.515520603878079"><ele>603.0</ele><time>2026-04-18T12:12:09.999Z</time></trkpt><trkpt lat="43.79116670387021" lon="11.515365205279341"><ele>601.5</ele><time>2026-04-18T12:12:10.999Z</time></trkpt><trkpt lat="43.79119641163838" lon="11.515212544632853"><ele>600.0</ele><time>2026-04-18T12:12:11.999Z</time></trkpt><trkpt lat="43.79127877887164" lon="11.51508639614364"><ele>598.5</ele><time>2026-04-18T12:12:12.999Z</time></trkpt><trkpt lat="43.791375752024905" lon="11.514962893253141"><ele>597.0</ele><time>2026-04-18T12:12:13.999Z</time></trkpt><trkpt lat="43.79148332907908" lon="11.514839915888816"><ele>597.0</ele><time>2026-04-18T12:12:14.999Z</time></trkpt><trkpt lat="43.79160070908098" lon="11.514709261549417"><ele>597.0</ele><time>2026-04-18T12:12:15.999Z</time></trkpt><trkpt lat="43.79172815076561" lon="11.514590915419584"><ele>597.0</ele><time>2026-04-18T12:12:16.999Z</time></trkpt><trkpt lat="43.791862824720496" lon="11.514489482547086"><ele>594.25</ele><time>2026-04-18T12:12:17.999Z</time></trkpt><trkpt lat="43.791997959149846" lon="11.514406896181907"><ele>591.5</ele><time>2026-04-18T12:12:18.999Z</time></trkpt><trkpt lat="43.79213448836806" lon="11.514339223520466"><ele>588.75</ele><time>2026-04-18T12:12:19.999Z</time></trkpt><trkpt lat="43.79225025999728" lon="11.514260095908378"><ele>586.0</ele><time>2026-04-18T12:12:20.999Z</time></trkpt><trkpt lat="43.79237430556415" lon="11.51417248702823"><ele>586.0</ele><time>2026-04-18T12:12:21.999Z</time></trkpt><trkpt lat="43.79245555944349" lon="11.514051771788408"><ele>586.0</ele><time>2026-04-18T12:12:22.999Z</time></trkpt><trkpt lat="43.792499035808106" lon="11.513904038478982"><ele>586.0</ele><time>2026-04-18T12:12:23.999Z</time></trkpt><trkpt lat="43.79251039051898" lon="11.513749489009806"><ele>586.0</ele><time>2026-04-18T12:12:24.999Z</time></trkpt><trkpt lat="43.79249391542359" lon="11.51360464815217"><ele>582.75</ele><time>2026-04-18T12:12:25.999Z</time></trkpt><trkpt lat="43.792450327774944" lon="11.513470900898334"><ele>579.5</ele><time>2026-04-18T12:12:26.999Z</time></trkpt><trkpt lat="43.792373913565655" lon="11.513338456818445"><ele>576.25</ele><time>2026-04-18T12:12:27.999Z</time></trkpt><trkpt lat="43.792263583133085" lon="11.513240032331952"><ele>573.0</ele><time>2026-04-18T12:12:28.999Z</time></trkpt><trkpt lat="43.792144791663674" lon="11.513197164494159"><ele>573.0</ele><time>2026-04-18T12:12:29.999Z</time></trkpt><trkpt lat="43.79200900738986" lon="11.513162879446792"><ele>573.0</ele><time>2026-04-18T12:12:30.999Z</time></trkpt><trkpt lat="43.79186472949974" lon="11.513122087224922"><ele>573.0</ele><time>2026-04-18T12:12:31.999Z</time></trkpt><trkpt lat="43.79171693634089" lon="11.513073299342421"><ele>573.0</ele><time>2026-04-18T12:12:32.999Z</time></trkpt><trkpt lat="43.79157185288874" lon="11.513022853972606"><ele>570.6666666666666</ele><time>2026-04-18T12:12:33.999Z</time></trkpt><trkpt lat="43.79142375326276" lon="11.51298218386565"><ele>568.3333333333333</ele><time>2026-04-18T12:12:34.999Z</time></trkpt><trkpt lat="43.79127395528887" lon="11.51294321045012"><ele>566.0</ele><time>2026-04-18T12:12:35.999Z</time></trkpt><trkpt lat="43.79112682061946" lon="11.512907455065768"><ele>563.5</ele><time>2026-04-18T12:12:36.999Z</time></trkpt><trkpt lat="43.79097568376721" lon="11.512903616388195"><ele>561.0</ele><time>2026-04-18T12:12:37.999Z</time></trkpt><trkpt lat="43.79083473228012" lon="11.512941881402728"><ele>558.5</ele><time>2026-04-18T12:12:38.999Z</time></trkpt><trkpt lat="43.79069391389073" lon="11.512997645022045"><ele>556.0</ele><time>2026-04-18T12:12:39.999Z</time></trkpt><trkpt lat="43.79055640435292" lon="11.513036117255552"><ele>556.0</ele><time>2026-04-18T12:12:40.999Z</time></trkpt><trkpt lat="43.79041270387303" lon="11.513076042325741"><ele>556.0</ele><time>2026-04-18T12:12:41.999Z</time></trkpt><trkpt lat="43.79026467607474" lon="11.513117459079886"><ele>556.0</ele><time>2026-04-18T12:12:42.999Z</time></trkpt><trkpt lat="43.790110432793725" lon="11.513157912501255"><ele>552.0</ele><time>2026-04-18T12:12:43.999Z</time></trkpt><trkpt lat="43.789952800108615" lon="11.513205649351102"><ele>548.0</ele><time>2026-04-18T12:12:44.999Z</time></trkpt><trkpt lat="43.78979793443578" lon="11.513254213053413"><ele>544.0</ele><time>2026-04-18T12:12:45.999Z</time></trkpt><trkpt lat="43.7896475340483" lon="11.513287089663951"><ele>544.0</ele><time>2026-04-18T12:12:46.999Z</time></trkpt><trkpt lat="43.78949046805826" lon="11.513294976479624"><ele>544.0</ele><time>2026-04-18T12:12:47.999Z</time></trkpt><trkpt lat="43.78933039863676" lon="11.513293743085525"><ele>544.0</ele><time>2026-04-18T12:12:48.999Z</time></trkpt><trkpt lat="43.78918138665722" lon="11.51328419891547"><ele>541.3333333333334</ele><time>2026-04-18T12:12:49.999Z</time></trkpt><trkpt lat="43.78903513283744" lon="11.51326066454936"><ele>538.6666666666666</ele><time>2026-04-18T12:12:51Z</time></trkpt><trkpt lat="43.788892004941616" lon="11.513168900277273"><ele>536.0</ele><time>2026-04-18T12:12:52Z</time></trkpt><trkpt lat="43.78875815365686" lon="11.513046580610116"><ele>534.6666666666666</ele><time>2026-04-18T12:12:53Z</time></trkpt><trkpt lat="43.78862671680293" lon="11.512889146334237"><ele>533.3333333333334</ele><time>2026-04-18T12:12:54Z</time></trkpt><trkpt lat="43.788511093899864" lon="11.512737110460971"><ele>532.0</ele><time>2026-04-18T12:12:55Z</time></trkpt><trkpt lat="43.78840709927187" lon="11.512599734327923"><ele>531.25</ele><time>2026-04-18T12:12:56Z</time></trkpt><trkpt lat="43.788312163111975" lon="11.51247432441846"><ele>530.5</ele><time>2026-04-18T12:12:57Z</time></trkpt><trkpt lat="43.78822353785389" lon="11.512359701441047"><ele>529.75</ele><time>2026-04-18T12:12:58Z</time></trkpt><trkpt lat="43.788136451244576" lon="11.51224763275761"><ele>529.0</ele><time>2026-04-18T12:12:59Z</time></trkpt><trkpt lat="43.78805029512999" lon="11.512136761507413"><ele>528.2</ele><time>2026-04-18T12:13:00Z</time></trkpt><trkpt lat="43.78796610561622" lon="11.512028420978316"><ele>527.4</ele><time>2026-04-18T12:13:01Z</time></trkpt><trkpt lat="43.787886838400944" lon="11.51192641485248"><ele>526.6</ele><time>2026-04-18T12:13:02Z</time></trkpt><trkpt lat="43.78781074190494" lon="11.511829262988577"><ele>525.8</ele><time>2026-04-18T12:13:03Z</time></trkpt><trkpt lat="43.787733074182164" lon="11.51173052007439"><ele>525.0</ele><time>2026-04-18T12:13:04Z</time></trkpt><trkpt lat="43.78765520507806" lon="11.511629150003792"><ele>525.0</ele><time>2026-04-18T12:13:05Z</time></trkpt><trkpt lat="43.78756697205659" lon="11.511544049699886"><ele>525.0</ele><time>2026-04-18T12:13:06Z</time></trkpt><trkpt lat="43.787491637084344" lon="11.511439543285785"><ele>525.0</ele><time>2026-04-18T12:13:07Z</time></trkpt><trkpt lat="43.78740805741273" lon="11.511335904979825"><ele>525.0</ele><time>2026-04-18T12:13:08Z</time></trkpt><trkpt lat="43.78731951835794" lon="11.511228770717967"><ele>525.0</ele><time>2026-04-18T12:13:09Z</time></trkpt><trkpt lat="43.78724499459966" lon="11.511102045295557"><ele>524.4</ele><time>2026-04-18T12:13:10Z</time></trkpt><trkpt lat="43.78716594818741" lon="11.511000134554354"><ele>523.8</ele><time>2026-04-18T12:13:11Z</time></trkpt><trkpt lat="43.78708948940668" lon="11.510901559687692"><ele>523.2</ele><time>2026-04-18T12:13:12Z</time></trkpt><trkpt lat="43.78701637599615" lon="11.510807297937458"><ele>522.6</ele><time>2026-04-18T12:13:13Z</time></trkpt><trkpt lat="43.786940602657616" lon="11.510709975128663"><ele>522.0</ele><time>2026-04-18T12:13:14Z</time></trkpt><trkpt lat="43.78686073480452" lon="11.510608014806058"><ele>523.0</ele><time>2026-04-18T12:13:15Z</time></trkpt><trkpt lat="43.78676833483509" lon="11.510517444929443"><ele>524.0</ele><time>2026-04-18T12:13:16Z</time></trkpt><trkpt lat="43.78668172719643" lon="11.510409210415425"><ele>525.0</ele><time>2026-04-18T12:13:17Z</time></trkpt><trkpt lat="43.786588940938984" lon="11.51029600187848"><ele>526.0</ele><time>2026-04-18T12:13:18Z</time></trkpt><trkpt lat="43.78650093854683" lon="11.51018399083813"><ele>524.2</ele><time>2026-04-18T12:13:19Z</time></trkpt><trkpt lat="43.78642552172157" lon="11.510084239693056"><ele>522.4000000000001</ele><time>2026-04-18T12:13:20Z</time></trkpt><trkpt lat="43.7863515040574" lon="11.509983590389286"><ele>520.6</ele><time>2026-04-18T12:13:21Z</time></trkpt><trkpt lat="43.78627360464964" lon="11.509884745237752"><ele>518.8000000000001</ele><time>2026-04-18T12:13:22Z</time></trkpt><trkpt lat="43.7861966724674" lon="11.509789270778672"><ele>517.0</ele><time>2026-04-18T12:13:23Z</time></trkpt><trkpt lat="43.78611241489221" lon="11.509697536705593"><ele>517.0</ele><time>2026-04-18T12:13:24Z</time></trkpt><trkpt lat="43.78603509062614" lon="11.509606156700325"><ele>517.0</ele><time>2026-04-18T12:13:25Z</time></trkpt><trkpt lat="43.78595561637729" lon="11.5095087650607"><ele>517.0</ele><time>2026-04-18T12:13:26Z</time></trkpt><trkpt lat="43.78587185196854" lon="11.509405909454843"><ele>517.0</ele><time>2026-04-18T12:13:27Z</time></trkpt><trkpt lat="43.78579441199037" lon="11.509281179354637"><ele>517.0</ele><time>2026-04-18T12:13:28Z</time></trkpt><trkpt lat="43.785725468550964" lon="11.509129526019414"><ele>516.3333333333334</ele><time>2026-04-18T12:13:29Z</time></trkpt><trkpt lat="43.78565934896906" lon="11.508954334259784"><ele>515.6666666666666</ele><time>2026-04-18T12:13:30Z</time></trkpt><trkpt lat="43.785584720939156" lon="11.508767033677788"><ele>515.0</ele><time>2026-04-18T12:13:31Z</time></trkpt><trkpt lat="43.785505906446794" lon="11.508571098786819"><ele>513.0</ele><time>2026-04-18T12:13:32Z</time></trkpt><trkpt lat="43.78543087122564" lon="11.50836457183897"><ele>511.0</ele><time>2026-04-18T12:13:33Z</time></trkpt><trkpt lat="43.78536266657703" lon="11.50814438565198"><ele>509.0</ele><time>2026-04-18T12:13:34Z</time></trkpt><trkpt lat="43.78529451800774" lon="11.507921781236716"><ele>507.0</ele><time>2026-04-18T12:13:35Z</time></trkpt><trkpt lat="43.78523039177422" lon="11.507705292224673"><ele>505.0</ele><time>2026-04-18T12:13:36Z</time></trkpt><trkpt lat="43.785173593043716" lon="11.50749846711103"><ele>503.0</ele><time>2026-04-18T12:13:37Z</time></trkpt><trkpt lat="43.78514855427437" lon="11.507292533472029"><ele>503.0</ele><time>2026-04-18T12:13:38Z</time></trkpt><trkpt lat="43.78511432915766" lon="11.507097005977599"><ele>503.0</ele><time>2026-04-18T12:13:38.999Z</time></trkpt><trkpt lat="43.785080648740745" lon="11.506901886825787"><ele>503.0</ele><time>2026-04-18T12:13:39.999Z</time></trkpt><trkpt lat="43.78503384494422" lon="11.506709161935397"><ele>503.0</ele><time>2026-04-18T12:13:40.999Z</time></trkpt><trkpt lat="43.785003535202726" lon="11.506512653712402"><ele>501.66666666666663</ele><time>2026-04-18T12:13:41.999Z</time></trkpt><trkpt lat="43.784967405078966" lon="11.506307040070306"><ele>500.33333333333337</ele><time>2026-04-18T12:13:42.999Z</time></trkpt><trkpt lat="43.784939728517145" lon="11.506096271095483"><ele>499.0</ele><time>2026-04-18T12:13:43.999Z</time></trkpt><trkpt lat="43.784915838590656" lon="11.505879166316126"><ele>496.6666666666667</ele><time>2026-04-18T12:13:44.999Z</time></trkpt><trkpt lat="43.784888558609055" lon="11.505658094508833"><ele>494.33333333333337</ele><time>2026-04-18T12:13:45.999Z</time></trkpt><trkpt lat="43.78485938600289" lon="11.505441824896883"><ele>492.0</ele><time>2026-04-18T12:13:46.999Z</time></trkpt><trkpt lat="43.78483134308761" lon="11.505237028357003"><ele>491.25</ele><time>2026-04-18T12:13:47.999Z</time></trkpt><trkpt lat="43.784793989981196" lon="11.5050222593535"><ele>490.5</ele><time>2026-04-18T12:13:48.999Z</time></trkpt><trkpt lat="43.784755222412564" lon="11.50482389513929"><ele>489.75</ele><time>2026-04-18T12:13:49.999Z</time></trkpt><trkpt lat="43.78472308744801" lon="11.504636235605156"><ele>489.0</ele><time>2026-04-18T12:13:50.999Z</time></trkpt><trkpt lat="43.78469129080407" lon="11.504440697371662"><ele>487.75</ele><time>2026-04-18T12:13:51.999Z</time></trkpt><trkpt lat="43.784660515723914" lon="11.50423891498382"><ele>486.5</ele><time>2026-04-18T12:13:52.999Z</time></trkpt><trkpt lat="43.7846281684906" lon="11.504034369659413"><ele>485.25</ele><time>2026-04-18T12:13:53.999Z</time></trkpt><trkpt lat="43.784591220260566" lon="11.503834314146918"><ele>484.0</ele><time>2026-04-18T12:13:54.999Z</time></trkpt><trkpt lat="43.784552285216094" lon="11.50365188718647"><ele>484.00000000000006</ele><time>2026-04-18T12:13:55.999Z</time></trkpt><trkpt lat="43.784516969891044" lon="11.503485888188013"><ele>484.0</ele><time>2026-04-18T12:13:56.999Z</time></trkpt><trkpt lat="43.78449173957932" lon="11.503361245430137"><ele>484.0</ele><time>2026-04-18T12:13:57.999Z</time></trkpt><trkpt lat="43.78448413009935" lon="11.50327146804781"><ele>484.0</ele><time>2026-04-18T12:13:58.999Z</time></trkpt><trkpt lat="43.784479058968095" lon="11.503173438834416"><ele>484.00000000000006</ele><time>2026-04-18T12:13:59.999Z</time></trkpt><trkpt lat="43.784495273887096" lon="11.503044250085807"><ele>484.0</ele><time>2026-04-18T12:14:00.999Z</time></trkpt><trkpt lat="43.78453002414116" lon="11.502882521541668"><ele>483.25</ele><time>2026-04-18T12:14:01.999Z</time></trkpt><trkpt lat="43.78456262031287" lon="11.50271280001793"><ele>482.5</ele><time>2026-04-18T12:14:02.999Z</time></trkpt><trkpt lat="43.78458776256681" lon="11.502556813402153"><ele>481.75</ele><time>2026-04-18T12:14:03.999Z</time></trkpt><trkpt lat="43.78461481532279" lon="11.502413667089773"><ele>481.0</ele><time>2026-04-18T12:14:04.999Z</time></trkpt><trkpt lat="43.78464091741763" lon="11.502262507066948"><ele>481.0</ele><time>2026-04-18T12:14:05.999Z</time></trkpt><trkpt lat="43.784651311063136" lon="11.50210239161035"><ele>481.0</ele><time>2026-04-18T12:14:06.999Z</time></trkpt><trkpt lat="43.78463938885437" lon="11.501933724369124"><ele>481.0</ele><time>2026-04-18T12:14:07.999Z</time></trkpt><trkpt lat="43.78460815052947" lon="11.501752287082699"><ele>481.0</ele><time>2026-04-18T12:14:08.999Z</time></trkpt><trkpt lat="43.78455716599816" lon="11.501573593131509"><ele>480.5</ele><time>2026-04-18T12:14:09.999Z</time></trkpt><trkpt lat="43.78449368972121" lon="11.501395214754229"><ele>480.0</ele><time>2026-04-18T12:14:10.999Z</time></trkpt><trkpt lat="43.78441503435191" lon="11.501212196485818"><ele>479.5</ele><time>2026-04-18T12:14:11.999Z</time></trkpt><trkpt lat="43.7843454764197" lon="11.501046528276584"><ele>479.0</ele><time>2026-04-18T12:14:12.999Z</time></trkpt><trkpt lat="43.784290921361055" lon="11.5008815638654"><ele>477.5</ele><time>2026-04-18T12:14:13.999Z</time></trkpt><trkpt lat="43.784267941250945" lon="11.500711485927988"><ele>476.0</ele><time>2026-04-18T12:14:14.999Z</time></trkpt><trkpt lat="43.78426006272298" lon="11.500542608732172"><ele>474.5</ele><time>2026-04-18T12:14:15.999Z</time></trkpt><trkpt lat="43.78427208847243" lon="11.500375404155845"><ele>473.0</ele><time>2026-04-18T12:14:16.999Z</time></trkpt><trkpt lat="43.784302108377744" lon="11.500214326595882"><ele>471.25</ele><time>2026-04-18T12:14:17.999Z</time></trkpt><trkpt lat="43.78433301314676" lon="11.500058387101145"><ele>469.5</ele><time>2026-04-18T12:14:18.999Z</time></trkpt><trkpt lat="43.784359106386546" lon="11.499906814335345"><ele>467.75</ele><time>2026-04-18T12:14:19.999Z</time></trkpt><trkpt lat="43.78440295962817" lon="11.499762985048696"><ele>466.0</ele><time>2026-04-18T12:14:20.999Z</time></trkpt><trkpt lat="43.78443595944223" lon="11.499599738370645"><ele>464.75</ele><time>2026-04-18T12:14:21.999Z</time></trkpt><trkpt lat="43.78445740240216" lon="11.499424626789011"><ele>463.5</ele><time>2026-04-18T12:14:22.999Z</time></trkpt><trkpt lat="43.78448723208115" lon="11.499242162824626"><ele>462.25</ele><time>2026-04-18T12:14:23.999Z</time></trkpt><trkpt lat="43.78448949479626" lon="11.499051927029821"><ele>461.0</ele><time>2026-04-18T12:14:24.999Z</time></trkpt><trkpt lat="43.784452550634946" lon="11.498855293651879"><ele>460.66666666666663</ele><time>2026-04-18T12:14:25.999Z</time></trkpt><trkpt lat="43.784380245436054" lon="11.498662473973003"><ele>460.33333333333337</ele><time>2026-04-18T12:14:26.999Z</time></trkpt><trkpt lat="43.78428422595127" lon="11.498475066676743"><ele>460.0</ele><time>2026-04-18T12:14:27.999Z</time></trkpt><trkpt lat="43.78417241869522" lon="11.498295076182833"><ele>460.0</ele><time>2026-04-18T12:14:28.999Z</time></trkpt><trkpt lat="43.78405046463644" lon="11.498125970593032"><ele>460.0</ele><time>2026-04-18T12:14:29.999Z</time></trkpt><trkpt lat="43.78394273347609" lon="11.49795888438834"><ele>460.0</ele><time>2026-04-18T12:14:30.999Z</time></trkpt><trkpt lat="43.783840921280316" lon="11.497838373400464"><ele>459.25</ele><time>2026-04-18T12:14:31.999Z</time></trkpt><trkpt lat="43.78375274667921" lon="11.497731142179779"><ele>458.5</ele><time>2026-04-18T12:14:32.999Z</time></trkpt><trkpt lat="43.78371035853562" lon="11.497574840221764"><ele>457.75</ele><time>2026-04-18T12:14:33.999Z</time></trkpt><trkpt lat="43.78372092954426" lon="11.497404717636723"><ele>457.0</ele><time>2026-04-18T12:14:34.999Z</time></trkpt><trkpt lat="43.78379830575523" lon="11.497246907960298"><ele>455.33333333333337</ele><time>2026-04-18T12:14:35.999Z</time></trkpt><trkpt lat="43.783873163413226" lon="11.497068887857347"><ele>453.66666666666663</ele><time>2026-04-18T12:14:36.999Z</time></trkpt><trkpt lat="43.78394984636661" lon="11.496871639351397"><ele>452.0</ele><time>2026-04-18T12:14:37.999Z</time></trkpt><trkpt lat="43.784005845214075" lon="11.496652659040237"><ele>452.0</ele><time>2026-04-18T12:14:38.999Z</time></trkpt><trkpt lat="43.78400966004779" lon="11.496409882233163"><ele>452.0</ele><time>2026-04-18T12:14:39.999Z</time></trkpt><trkpt lat="43.784003257424935" lon="11.496169113904642"><ele>452.0</ele><time>2026-04-18T12:14:40.999Z</time></trkpt><trkpt lat="43.78400291183858" lon="11.495929254090623"><ele>449.66666666666663</ele><time>2026-04-18T12:14:41.999Z</time></trkpt><trkpt lat="43.783967505803446" lon="11.495694843377631"><ele>447.33333333333337</ele><time>2026-04-18T12:14:42.999Z</time></trkpt><trkpt lat="43.783922149808525" lon="11.495474195385354"><ele>445.0</ele><time>2026-04-18T12:14:43.999Z</time></trkpt><trkpt lat="43.78386425147005" lon="11.495264134530753"><ele>443.0</ele><time>2026-04-18T12:14:44.999Z</time></trkpt><trkpt lat="43.783805758327844" lon="11.495061741104166"><ele>441.0</ele><time>2026-04-18T12:14:45.999Z</time></trkpt><trkpt lat="43.78374697763096" lon="11.494862350847905"><ele>439.0</ele><time>2026-04-18T12:14:46.999Z</time></trkpt><trkpt lat="43.78370876847092" lon="11.494667053555244"><ele>437.6666666666667</ele><time>2026-04-18T12:14:47.999Z</time></trkpt><trkpt lat="43.78368997022869" lon="11.494455626517563"><ele>436.33333333333337</ele><time>2026-04-18T12:14:48.999Z</time></trkpt><trkpt lat="43.78366201375782" lon="11.494246467339188"><ele>435.0</ele><time>2026-04-18T12:14:49.999Z</time></trkpt><trkpt lat="43.78358233328904" lon="11.494060103011261"><ele>431.66666666666663</ele><time>2026-04-18T12:14:50.999Z</time></trkpt><trkpt lat="43.783480983661164" lon="11.493891810020104"><ele>428.3333333333333</ele><time>2026-04-18T12:14:51.999Z</time></trkpt><trkpt lat="43.783358476389296" lon="11.493747923710702"><ele>425.0</ele><time>2026-04-18T12:14:52.998Z</time></trkpt><trkpt lat="43.78323556413947" lon="11.493613463200631"><ele>425.0</ele><time>2026-04-18T12:14:53.998Z</time></trkpt><trkpt lat="43.78312001960313" lon="11.493484513283198"><ele>425.0</ele><time>2026-04-18T12:14:54.998Z</time></trkpt><trkpt lat="43.78300929000602" lon="11.493360747967781"><ele>425.0</ele><time>2026-04-18T12:14:55.998Z</time></trkpt><trkpt lat="43.78290753665585" lon="11.493242655011334"><ele>425.0</ele><time>2026-04-18T12:14:57Z</time></trkpt><trkpt lat="43.78283725914003" lon="11.493111758557355"><ele>425.0</ele><time>2026-04-18T12:14:58Z</time></trkpt><trkpt lat="43.78278718571104" lon="11.492975581939096"><ele>425.0</ele><time>2026-04-18T12:14:59Z</time></trkpt><trkpt lat="43.78276752796202" lon="11.4928076759656"><ele>425.0</ele><time>2026-04-18T12:15:00Z</time></trkpt><trkpt lat="43.7827768575092" lon="11.492624789261171"><ele>425.0</ele><time>2026-04-18T12:15:01Z</time></trkpt><trkpt lat="43.78278399411522" lon="11.492427269348832"><ele>423.66666666666663</ele><time>2026-04-18T12:15:02Z</time></trkpt><trkpt lat="43.782787605112034" lon="11.49222201023055"><ele>422.33333333333337</ele><time>2026-04-18T12:15:03Z</time></trkpt><trkpt lat="43.782779407460815" lon="11.492004011891847"><ele>421.0</ele><time>2026-04-18T12:15:04Z</time></trkpt><trkpt lat="43.78274870887787" lon="11.491786155133218"><ele>418.6666666666667</ele><time>2026-04-18T12:15:05Z</time></trkpt><trkpt lat="43.78271356575627" lon="11.49156750205449"><ele>416.33333333333337</ele><time>2026-04-18T12:15:06Z</time></trkpt><trkpt lat="43.78267916260025" lon="11.491345431613546"><ele>414.0</ele><time>2026-04-18T12:15:07Z</time></trkpt><trkpt lat="43.782638979082456" lon="11.491125573639712"><ele>410.5</ele><time>2026-04-18T12:15:08Z</time></trkpt><trkpt lat="43.78258687712652" lon="11.49091277376797"><ele>407.0</ele><time>2026-04-18T12:15:09Z</time></trkpt><trkpt lat="43.782522697425684" lon="11.49072256319276"><ele>403.5</ele><time>2026-04-18T12:15:10Z</time></trkpt><trkpt lat="43.7824713349621" lon="11.490559564304254"><ele>400.0</ele><time>2026-04-18T12:15:11Z</time></trkpt><trkpt lat="43.782418904742975" lon="11.49043239681719"><ele>400.0</ele><time>2026-04-18T12:15:12Z</time></trkpt><trkpt lat="43.782384907443095" lon="11.490337058886977"><ele>400.0</ele><time>2026-04-18T12:15:13Z</time></trkpt><trkpt lat="43.78238537783457" lon="11.490244133179043"><ele>400.0</ele><time>2026-04-18T12:15:14Z</time></trkpt><trkpt lat="43.7824627606762" lon="11.490064121582945"><ele>400.0</ele><time>2026-04-18T12:15:16Z</time></trkpt><trkpt lat="43.782450229099524" lon="11.48994075246786"><ele>400.0</ele><time>2026-04-18T12:15:17Z</time></trkpt><trkpt lat="43.782351082885334" lon="11.489853564012783"><ele>400.0</ele><time>2026-04-18T12:15:18Z</time></trkpt><trkpt lat="43.78228373126973" lon="11.489742762969053"><ele>400.0</ele><time>2026-04-18T12:15:19Z</time></trkpt><trkpt lat="43.78222683688691" lon="11.489668246141528"><ele>400.0</ele><time>2026-04-18T12:15:20Z</time></trkpt><trkpt lat="43.78216807618637" lon="11.489595838692454"><ele>400.0</ele><time>2026-04-18T12:15:21Z</time></trkpt><trkpt lat="43.78210586425466" lon="11.489517870596053"><ele>400.0</ele><time>2026-04-18T12:15:22Z</time></trkpt><trkpt lat="43.781925951410486" lon="11.489335827939616"><ele>400.0</ele><time>2026-04-18T12:15:23Z</time></trkpt><trkpt lat="43.78185549546887" lon="11.48904678954707"><ele>400.0</ele><time>2026-04-18T12:15:24Z</time></trkpt><trkpt lat="43.78185385129062" lon="11.4888775037035"><ele>400.0</ele><time>2026-04-18T12:15:25Z</time></trkpt><trkpt lat="43.78216715100698" lon="11.48867858712251"><ele>398.4</ele><time>2026-04-18T12:15:26Z</time></trkpt><trkpt lat="43.78221154636766" lon="11.488500489103762"><ele>396.8</ele><time>2026-04-18T12:15:28Z</time></trkpt><trkpt lat="43.782231690599076" lon="11.488372861456911"><ele>395.20000000000005</ele><time>2026-04-18T12:15:29Z</time></trkpt><trkpt lat="43.78225434701251" lon="11.488243780434352"><ele>393.6</ele><time>2026-04-18T12:15:30Z</time></trkpt><trkpt lat="43.78227993780252" lon="11.488107414012196"><ele>392.0</ele><time>2026-04-18T12:15:31Z</time></trkpt><trkpt lat="43.782301069951494" lon="11.487953933787452"><ele>390.5</ele><time>2026-04-18T12:15:32Z</time></trkpt><trkpt lat="43.78231931193404" lon="11.48778336664531"><ele>389.0</ele><time>2026-04-18T12:15:33Z</time></trkpt><trkpt lat="43.78234572433217" lon="11.487617587157873"><ele>387.5</ele><time>2026-04-18T12:15:34Z</time></trkpt><trkpt lat="43.78237670196053" lon="11.487466596945017"><ele>386.0</ele><time>2026-04-18T12:15:35Z</time></trkpt><trkpt lat="43.782415724420495" lon="11.48731360355253"><ele>386.0</ele><time>2026-04-18T12:15:36Z</time></trkpt><trkpt lat="43.78244769840268" lon="11.48716596098309"><ele>386.0</ele><time>2026-04-18T12:15:37Z</time></trkpt><trkpt lat="43.78246248592444" lon="11.48702556583968"><ele>386.0</ele><time>2026-04-18T12:15:38Z</time></trkpt><trkpt lat="43.78246850772897" lon="11.486894647924393"><ele>386.0</ele><time>2026-04-18T12:15:39Z</time></trkpt><trkpt lat="43.78246123061678" lon="11.486758982308258"><ele>386.0</ele><time>2026-04-18T12:15:40Z</time></trkpt><trkpt lat="43.78242448236502" lon="11.486607061356581"><ele>385.16666666666663</ele><time>2026-04-18T12:15:41Z</time></trkpt><trkpt lat="43.782380593898935" lon="11.486455863991175"><ele>384.3333333333333</ele><time>2026-04-18T12:15:42Z</time></trkpt><trkpt lat="43.78234648387896" lon="11.486322576671542"><ele>383.5</ele><time>2026-04-18T12:15:43Z</time></trkpt><trkpt lat="43.78231624172375" lon="11.486227426944787"><ele>382.66666666666663</ele><time>2026-04-18T12:15:44Z</time></trkpt><trkpt lat="43.78233011482613" lon="11.48611789195581"><ele>381.8333333333333</ele><time>2026-04-18T12:15:45Z</time></trkpt><trkpt lat="43.78230428478505" lon="11.486037660508483"><ele>381.0</ele><time>2026-04-18T12:15:46Z</time></trkpt><trkpt lat="43.78226926280459" lon="11.485928875363998"><ele>379.75</ele><time>2026-04-18T12:15:47Z</time></trkpt><trkpt lat="43.78222422135181" lon="11.485786710085081"><ele>378.5</ele><time>2026-04-18T12:15:48Z</time></trkpt><trkpt lat="43.78216593383806" lon="11.485597557563018"><ele>377.25</ele><time>2026-04-18T12:15:49Z</time></trkpt><trkpt lat="43.78210242000021" lon="11.485384351196362"><ele>376.0</ele><time>2026-04-18T12:15:50Z</time></trkpt><trkpt lat="43.78205510870202" lon="11.485209408972736"><ele>375.8</ele><time>2026-04-18T12:15:51Z</time></trkpt><trkpt lat="43.78201947098299" lon="11.485054964600504"><ele>375.6</ele><time>2026-04-18T12:15:51.999Z</time></trkpt><trkpt lat="43.78199472864544" lon="11.484927068500662"><ele>375.4</ele><time>2026-04-18T12:15:52.999Z</time></trkpt><trkpt lat="43.781978035849434" lon="11.484824916383246"><ele>375.2</ele><time>2026-04-18T12:15:53.999Z</time></trkpt><trkpt lat="43.781965262647425" lon="11.484681877531619"><ele>375.0</ele><time>2026-04-18T12:15:55.999Z</time></trkpt><trkpt lat="43.7820023289101" lon="11.484579967313126"><ele>375.0</ele><time>2026-04-18T12:15:57.999Z</time></trkpt><trkpt lat="43.782076885577965" lon="11.484441104227214"><ele>375.0</ele><time>2026-04-18T12:15:59.999Z</time></trkpt><trkpt lat="43.78212978478759" lon="11.484364224312941"><ele>375.0</ele><time>2026-04-18T12:16:00.999Z</time></trkpt><trkpt lat="43.78218861544274" lon="11.484275189302018"><ele>375.0</ele><time>2026-04-18T12:16:01.999Z</time></trkpt><trkpt lat="43.78224212736052" lon="11.484191056386774"><ele>375.0</ele><time>2026-04-18T12:16:02.999Z</time></trkpt><trkpt lat="43.782296826703345" lon="11.484105056705655"><ele>375.0</ele><time>2026-04-18T12:16:03.999Z</time></trkpt><trkpt lat="43.78235206129491" lon="11.48401821541704"><ele>375.0</ele><time>2026-04-18T12:16:04.999Z</time></trkpt><trkpt lat="43.78241012322425" lon="11.483926928921216"><ele>375.0</ele><time>2026-04-18T12:16:05.999Z</time></trkpt><trkpt lat="43.78246933333206" lon="11.483832137521375"><ele>375.0</ele><time>2026-04-18T12:16:06.999Z</time></trkpt><trkpt lat="43.782525054994096" lon="11.48374046545539"><ele>375.0</ele><time>2026-04-18T12:16:07.999Z</time></trkpt><trkpt lat="43.7825781252458" lon="11.483653155344347"><ele>375.0</ele><time>2026-04-18T12:16:08.999Z</time></trkpt><trkpt lat="43.78261832030752" lon="11.483553982827745"><ele>374.3333333333333</ele><time>2026-04-18T12:16:09.999Z</time></trkpt><trkpt lat="43.78267771429292" lon="11.483477499281713"><ele>373.6666666666667</ele><time>2026-04-18T12:16:10.999Z</time></trkpt><trkpt lat="43.78274197957028" lon="11.48341149890987"><ele>373.0</ele><time>2026-04-18T12:16:11.999Z</time></trkpt><trkpt lat="43.782814061826905" lon="11.483355561658925"><ele>372.33333333333337</ele><time>2026-04-18T12:16:12.999Z</time></trkpt><trkpt lat="43.78289959769986" lon="11.483332973771118"><ele>371.6666666666667</ele><time>2026-04-18T12:16:13.999Z</time></trkpt><trkpt lat="43.7829867048222" lon="11.483290842054194"><ele>371.0</ele><time>2026-04-18T12:16:14.999Z</time></trkpt><trkpt lat="43.78308196920551" lon="11.48324689269595"><ele>370.5</ele><time>2026-04-18T12:16:15.999Z</time></trkpt><trkpt lat="43.78315718986464" lon="11.483210376085575"><ele>370.0</ele><time>2026-04-18T12:16:16.999Z</time></trkpt><trkpt lat="43.78322619096634" lon="11.483176637898504"><ele>369.5</ele><time>2026-04-18T12:16:17.999Z</time></trkpt><trkpt lat="43.783288394205506" lon="11.483140135757875"><ele>369.0</ele><time>2026-04-18T12:16:18.999Z</time></trkpt><trkpt lat="43.78337773984713" lon="11.483068198033546"><ele>368.5</ele><time>2026-04-18T12:16:20.999Z</time></trkpt><trkpt lat="43.783397737048254" lon="11.482955456584168"><ele>368.0</ele><time>2026-04-18T12:16:22.999Z</time></trkpt><trkpt lat="43.783467610928625" lon="11.482986573695696"><ele>368.0</ele><time>2026-04-18T12:16:24.999Z</time></trkpt><trkpt lat="43.783414523887906" lon="11.482916912799483"><ele>368.0</ele><time>2026-04-18T12:16:40.999Z</time></trkpt><trkpt lat="43.7833509161575" lon="11.482943640220432"><ele>368.0</ele><time>2026-04-18T12:19:56Z</time></trkpt><trkpt lat="43.78328791498617" lon="11.482886480472082"><ele>368.0</ele><time>2026-04-18T12:19:58Z</time></trkpt><trkpt lat="43.783206894448014" lon="11.482808381870125"><ele>368.0</ele><time>2026-04-18T12:19:59.999Z</time></trkpt><trkpt lat="43.783132275902915" lon="11.482739982211163"><ele>368.0</ele><time>2026-04-18T12:20:01.999Z</time></trkpt><trkpt lat="43.78309766907109" lon="11.482647674002962"><ele>367.5</ele><time>2026-04-18T12:20:03.999Z</time></trkpt><trkpt lat="43.78315291090018" lon="11.482531399983314"><ele>367.0</ele><time>2026-04-18T12:20:05.999Z</time></trkpt><trkpt lat="43.783223646446714" lon="11.482396972466322"><ele>366.5</ele><time>2026-04-18T12:20:07.999Z</time></trkpt><trkpt lat="43.78326287190025" lon="11.482322499153128"><ele>366.0</ele><time>2026-04-18T12:20:08.999Z</time></trkpt><trkpt lat="43.783306897174064" lon="11.482238912934372"><ele>365.5</ele><time>2026-04-18T12:20:09.999Z</time></trkpt><trkpt lat="43.783355366087015" lon="11.482145628370285"><ele>365.0</ele><time>2026-04-18T12:20:10.999Z</time></trkpt><trkpt lat="43.78339423385069" lon="11.482062771323136"><ele>365.0</ele><time>2026-04-18T12:20:11.999Z</time></trkpt><trkpt lat="43.78342723114906" lon="11.481986300078654"><ele>365.0</ele><time>2026-04-18T12:20:12.999Z</time></trkpt><trkpt lat="43.78345942691499" lon="11.481911144520424"><ele>365.0</ele><time>2026-04-18T12:20:13.999Z</time></trkpt><trkpt lat="43.78351679256598" lon="11.481773941879373"><ele>365.0</ele><time>2026-04-18T12:20:15.999Z</time></trkpt><trkpt lat="43.78357802569198" lon="11.481627489460433"><ele>365.0</ele><time>2026-04-18T12:20:17.999Z</time></trkpt><trkpt lat="43.783610142035535" lon="11.48155067609838"><ele>365.0</ele><time>2026-04-18T12:20:18.999Z</time></trkpt><trkpt lat="43.78366959640687" lon="11.481408763908243"><ele>365.0</ele><time>2026-04-18T12:20:20.999Z</time></trkpt><trkpt lat="43.78372947102692" lon="11.48127506737181"><ele>365.0</ele><time>2026-04-18T12:20:22.999Z</time></trkpt><trkpt lat="43.783788042553134" lon="11.481149652832084"><ele>365.0</ele><time>2026-04-18T12:20:24.999Z</time></trkpt><trkpt lat="43.7838466523846" lon="11.481035665886681"><ele>365.0</ele><time>2026-04-18T12:20:26.999Z</time></trkpt><trkpt lat="43.783901247492224" lon="11.480928215077725"><ele>365.0</ele><time>2026-04-18T12:20:28.999Z</time></trkpt><trkpt lat="43.783951760989964" lon="11.480826468924914"><ele>363.2</ele><time>2026-04-18T12:20:30.999Z</time></trkpt><trkpt lat="43.784000930745734" lon="11.480715602341364"><ele>361.4</ele><time>2026-04-18T12:20:32.999Z</time></trkpt><trkpt lat="43.78404545436655" lon="11.480581407790174"><ele>359.6</ele><time>2026-04-18T12:20:34.999Z</time></trkpt><trkpt lat="43.784024851244595" lon="11.48068278475908"><ele>357.8</ele><time>2026-04-18T12:21:11.998Z</time></trkpt><trkpt lat="43.78397540741692" lon="11.48074375905609"><ele>356.0</ele><time>2026-04-18T12:21:12.998Z</time></trkpt><trkpt lat="43.78388486405854" lon="11.480897287051622"><ele>356.0</ele><time>2026-04-18T12:21:13.998Z</time></trkpt><trkpt lat="43.78384349679576" lon="11.480984010544708"><ele>356.0</ele><time>2026-04-18T12:21:15Z</time></trkpt><trkpt lat="43.783800004043876" lon="11.481048502109838"><ele>356.0</ele><time>2026-04-18T12:21:16Z</time></trkpt><trkpt lat="43.78374119900217" lon="11.48114377504526"><ele>356.0</ele><time>2026-04-18T12:21:18Z</time></trkpt><trkpt lat="43.783790670143304" lon="11.481219598163051"><ele>356.0</ele><time>2026-04-18T12:21:22Z</time></trkpt><trkpt lat="43.78385803719307" lon="11.481051904218877"><ele>356.0</ele><time>2026-04-18T12:21:24Z</time></trkpt><trkpt lat="43.78389336194196" lon="11.480932043080086"><ele>355.99999999999994</ele><time>2026-04-18T12:21:25Z</time></trkpt><trkpt lat="43.78393547369852" lon="11.480844866774866"><ele>356.0</ele><time>2026-04-18T12:21:26Z</time></trkpt><trkpt lat="43.783968755515474" lon="11.480757785836836"><ele>356.0</ele><time>2026-04-18T12:21:27Z</time></trkpt><trkpt lat="43.784012765556355" lon="11.480680021457104"><ele>356.0</ele><time>2026-04-18T12:21:28Z</time></trkpt><trkpt lat="43.78403997267149" lon="11.480598672191416"><ele>356.0</ele><time>2026-04-18T12:21:29Z</time></trkpt><trkpt lat="43.784065385788374" lon="11.480512709466042"><ele>355.99999999999994</ele><time>2026-04-18T12:21:30Z</time></trkpt><trkpt lat="43.78408779426249" lon="11.480415103394865"><ele>356.0</ele><time>2026-04-18T12:21:31Z</time></trkpt><trkpt lat="43.784102764376115" lon="11.480317094678217"><ele>353.6666666666667</ele><time>2026-04-18T12:21:32Z</time></trkpt><trkpt lat="43.78411059750653" lon="11.480214798119029"><ele>351.33333333333337</ele><time>2026-04-18T12:21:33Z</time></trkpt><trkpt lat="43.78410651650279" lon="11.480092009704899"><ele>349.0</ele><time>2026-04-18T12:21:34Z</time></trkpt><trkpt lat="43.784076427552264" lon="11.479979339748045"><ele>346.6666666666667</ele><time>2026-04-18T12:21:35Z</time></trkpt><trkpt lat="43.784047025091866" lon="11.479871806428111"><ele>344.3333333333333</ele><time>2026-04-18T12:21:36Z</time></trkpt><trkpt lat="43.78402364851703" lon="11.479772606500601"><ele>342.0</ele><time>2026-04-18T12:21:37Z</time></trkpt><trkpt lat="43.7840042021702" lon="11.479671460844056"><ele>340.3333333333333</ele><time>2026-04-18T12:21:38Z</time></trkpt><trkpt lat="43.78398518401063" lon="11.479566081507818"><ele>338.6666666666667</ele><time>2026-04-18T12:21:39Z</time></trkpt><trkpt lat="43.783963623731566" lon="11.479446616346376"><ele>337.0</ele><time>2026-04-18T12:21:40Z</time></trkpt><trkpt lat="43.78394641800807" lon="11.479336560517028"><ele>335.33333333333337</ele><time>2026-04-18T12:21:41Z</time></trkpt><trkpt lat="43.783934941060906" lon="11.479233838795896"><ele>333.6666666666667</ele><time>2026-04-18T12:21:42Z</time></trkpt><trkpt lat="43.7839265931698" lon="11.479129096419973"><ele>332.0</ele><time>2026-04-18T12:21:43Z</time></trkpt><trkpt lat="43.783918924607676" lon="11.479024385692705"><ele>332.0</ele><time>2026-04-18T12:21:44Z</time></trkpt><trkpt lat="43.783911485297345" lon="11.478915701063771"><ele>332.0</ele><time>2026-04-18T12:21:45Z</time></trkpt><trkpt lat="43.783908395404985" lon="11.478818257351595"><ele>332.0</ele><time>2026-04-18T12:21:46Z</time></trkpt><trkpt lat="43.78392810700754" lon="11.478651319151217"><ele>332.0</ele><time>2026-04-18T12:21:48Z</time></trkpt><trkpt lat="43.783949342139586" lon="11.478490695711637"><ele>332.0</ele><time>2026-04-18T12:21:50Z</time></trkpt><trkpt lat="43.78396607282059" lon="11.478324697211981"><ele>330.6666666666667</ele><time>2026-04-18T12:21:52Z</time></trkpt><trkpt lat="43.783975669859736" lon="11.47820220412438"><ele>329.33333333333337</ele><time>2026-04-18T12:21:53Z</time></trkpt><trkpt lat="43.783983860961726" lon="11.478090608762344"><ele>328.0</ele><time>2026-04-18T12:21:54Z</time></trkpt><trkpt lat="43.78399074460161" lon="11.477985977459433"><ele>326.6666666666667</ele><time>2026-04-18T12:21:55Z</time></trkpt><trkpt lat="43.78399902790755" lon="11.477882538412773"><ele>325.3333333333333</ele><time>2026-04-18T12:21:56Z</time></trkpt><trkpt lat="43.78400910339534" lon="11.477788231852415"><ele>324.0</ele><time>2026-04-18T12:21:57Z</time></trkpt><trkpt lat="43.784021926842776" lon="11.477699953370864"><ele>323.0</ele><time>2026-04-18T12:21:58Z</time></trkpt><trkpt lat="43.78403769633941" lon="11.47761250139634"><ele>322.0</ele><time>2026-04-18T12:21:59Z</time></trkpt><trkpt lat="43.78405541443295" lon="11.477525387475353"><ele>321.0</ele><time>2026-04-18T12:21:59.999Z</time></trkpt><trkpt lat="43.78407068004317" lon="11.477386771098564"><ele>320.0</ele><time>2026-04-18T12:22:01.999Z</time></trkpt><trkpt lat="43.783880881652216" lon="11.477428544436547"><ele>319.0</ele><time>2026-04-18T12:22:38.999Z</time></trkpt><trkpt lat="43.78380671096339" lon="11.477492840559874"><ele>319.0</ele><time>2026-04-18T12:22:39.999Z</time></trkpt><trkpt lat="43.78371742761192" lon="11.477569150694048"><ele>319.0</ele><time>2026-04-18T12:22:40.999Z</time></trkpt><trkpt lat="43.78364642188016" lon="11.47764578838887"><ele>319.0</ele><time>2026-04-18T12:22:41.999Z</time></trkpt><trkpt lat="43.78356130594375" lon="11.47771644393904"><ele>319.0</ele><time>2026-04-18T12:22:42.999Z</time></trkpt><trkpt lat="43.78347913254624" lon="11.477785349114342"><ele>319.0</ele><time>2026-04-18T12:22:43.999Z</time></trkpt><trkpt lat="43.78339545130923" lon="11.477869107617497"><ele>320.25</ele><time>2026-04-18T12:22:44.999Z</time></trkpt><trkpt lat="43.78329107581628" lon="11.477966702878067"><ele>321.5</ele><time>2026-04-18T12:22:45.999Z</time></trkpt><trkpt lat="43.783170398271075" lon="11.478090942273813"><ele>322.75</ele><time>2026-04-18T12:22:46.999Z</time></trkpt><trkpt lat="43.78305478250585" lon="11.478253325828348"><ele>324.0</ele><time>2026-04-18T12:22:47.999Z</time></trkpt><trkpt lat="43.78292334997441" lon="11.478431212264402"><ele>324.0</ele><time>2026-04-18T12:22:48.999Z</time></trkpt><trkpt lat="43.7827785407854" lon="11.478629495877131"><ele>324.0</ele><time>2026-04-18T12:22:49.999Z</time></trkpt><trkpt lat="43.78262402359088" lon="11.478848577577926"><ele>324.0</ele><time>2026-04-18T12:22:50.999Z</time></trkpt><trkpt lat="43.78245817735205" lon="11.479074466090461"><ele>323.5</ele><time>2026-04-18T12:22:51.999Z</time></trkpt><trkpt lat="43.78228711426869" lon="11.479307225044133"><ele>323.0</ele><time>2026-04-18T12:22:52.999Z</time></trkpt><trkpt lat="43.782143054287175" lon="11.479528417501376"><ele>324.33333333333337</ele><time>2026-04-18T12:22:53.999Z</time></trkpt><trkpt lat="43.78202216225282" lon="11.47969174125774"><ele>325.6666666666667</ele><time>2026-04-18T12:22:54.999Z</time></trkpt><trkpt lat="43.781900722718404" lon="11.479842806843557"><ele>327.0</ele><time>2026-04-18T12:22:55.999Z</time></trkpt><trkpt lat="43.781795513606" lon="11.479973347646869"><ele>327.0</ele><time>2026-04-18T12:22:56.999Z</time></trkpt><trkpt lat="43.781704339061385" lon="11.480091750604071"><ele>327.0</ele><time>2026-04-18T12:22:57.999Z</time></trkpt><trkpt lat="43.78162667057346" lon="11.480196529334597"><ele>327.0</ele><time>2026-04-18T12:22:58.999Z</time></trkpt><trkpt lat="43.78156998319708" lon="11.480274430596115"><ele>327.0</ele><time>2026-04-18T12:22:59.999Z</time></trkpt><trkpt lat="43.78149432672423" lon="11.48038043503688"><ele>327.0</ele><time>2026-04-18T12:23:01.999Z</time></trkpt><trkpt lat="43.78138990976249" lon="11.480498686029444"><ele>327.0</ele><time>2026-04-18T12:23:03.999Z</time></trkpt><trkpt lat="43.78129105635712" lon="11.48052130536107"><ele>327.0</ele><time>2026-04-18T12:23:04.999Z</time></trkpt><trkpt lat="43.78119349744504" lon="11.480459653935002"><ele>327.0</ele><time>2026-04-18T12:23:05.999Z</time></trkpt><trkpt lat="43.78115760028622" lon="11.4803338002529"><ele>327.0</ele><time>2026-04-18T12:23:06.999Z</time></trkpt><trkpt lat="43.78109140163477" lon="11.480190991630892"><ele>327.0</ele><time>2026-04-18T12:23:07.999Z</time></trkpt><trkpt lat="43.78101298769503" lon="11.480017363836986"><ele>326.5</ele><time>2026-04-18T12:23:08.999Z</time></trkpt><trkpt lat="43.78092602021432" lon="11.479827289131054"><ele>326.0</ele><time>2026-04-18T12:23:09.999Z</time></trkpt><trkpt lat="43.780850657118336" lon="11.479666006563027"><ele>325.5</ele><time>2026-04-18T12:23:10.999Z</time></trkpt><trkpt lat="43.78076797009783" lon="11.479498070779456"><ele>325.0</ele><time>2026-04-18T12:23:11.998Z</time></trkpt><trkpt lat="43.78067986071914" lon="11.479346282355904"><ele>325.0</ele><time>2026-04-18T12:23:12.998Z</time></trkpt><trkpt lat="43.78059758842578" lon="11.479233790421453"><ele>325.0</ele><time>2026-04-18T12:23:13.998Z</time></trkpt><trkpt lat="43.780489084772555" lon="11.479151838152122"><ele>325.0</ele><time>2026-04-18T12:23:14.998Z</time></trkpt><trkpt lat="43.78036006178461" lon="11.47912804620613"><ele>325.0</ele><time>2026-04-18T12:23:15.998Z</time></trkpt><trkpt lat="43.780227554458655" lon="11.479149638372792"><ele>327.0</ele><time>2026-04-18T12:23:16.998Z</time></trkpt><trkpt lat="43.780090086795596" lon="11.479180171028084"><ele>329.0</ele><time>2026-04-18T12:23:17.998Z</time></trkpt><trkpt lat="43.77993892068448" lon="11.47918881079962"><ele>331.0</ele><time>2026-04-18T12:23:18.998Z</time></trkpt><trkpt lat="43.77977517582637" lon="11.479227153522913"><ele>331.0</ele><time>2026-04-18T12:23:19.998Z</time></trkpt><trkpt lat="43.77960615112415" lon="11.479231000674115"><ele>331.0</ele><time>2026-04-18T12:23:21Z</time></trkpt><trkpt lat="43.77942755758564" lon="11.47922762780168"><ele>331.0</ele><time>2026-04-18T12:23:22Z</time></trkpt><trkpt lat="43.77927525196132" lon="11.47921249388418"><ele>332.0</ele><time>2026-04-18T12:23:23Z</time></trkpt><trkpt lat="43.779136201327226" lon="11.479194787279894"><ele>333.0</ele><time>2026-04-18T12:23:24Z</time></trkpt><trkpt lat="43.77901347388457" lon="11.479180199353618"><ele>334.0</ele><time>2026-04-18T12:23:25Z</time></trkpt><trkpt lat="43.7789129851537" lon="11.479167782093521"><ele>335.0</ele><time>2026-04-18T12:23:26Z</time></trkpt><trkpt lat="43.7788234643429" lon="11.479162965459869"><ele>335.0</ele><time>2026-04-18T12:23:27Z</time></trkpt><trkpt lat="43.77873412015688" lon="11.479170279832857"><ele>335.0</ele><time>2026-04-18T12:23:28Z</time></trkpt><trkpt lat="43.77863091648897" lon="11.479228567246963"><ele>335.0</ele><time>2026-04-18T12:23:30Z</time></trkpt><trkpt lat="43.77858370913963" lon="11.479325924096667"><ele>335.0</ele><time>2026-04-18T12:23:31Z</time></trkpt><trkpt lat="43.77856826260269" lon="11.47946697915446"><ele>335.0</ele><time>2026-04-18T12:23:32Z</time></trkpt><trkpt lat="43.77858116005224" lon="11.479642065492758"><ele>336.0</ele><time>2026-04-18T12:23:33Z</time></trkpt><trkpt lat="43.778613268696745" lon="11.47980788103308"><ele>337.0</ele><time>2026-04-18T12:23:34Z</time></trkpt><trkpt lat="43.77864524027928" lon="11.479973641246048"><ele>338.0</ele><time>2026-04-18T12:23:35Z</time></trkpt><trkpt lat="43.778666536515594" lon="11.480135694223108"><ele>339.0</ele><time>2026-04-18T12:23:36Z</time></trkpt><trkpt lat="43.77868956435206" lon="11.48028417877902"><ele>339.0</ele><time>2026-04-18T12:23:37Z</time></trkpt><trkpt lat="43.77871536925804" lon="11.48042122797997"><ele>339.0</ele><time>2026-04-18T12:23:38Z</time></trkpt><trkpt lat="43.778738518500994" lon="11.480553241801614"><ele>339.0</ele><time>2026-04-18T12:23:39Z</time></trkpt><trkpt lat="43.778759278630524" lon="11.480675353692003"><ele>339.0</ele><time>2026-04-18T12:23:40Z</time></trkpt><trkpt lat="43.778790215845035" lon="11.480770989194227"><ele>339.0</ele><time>2026-04-18T12:23:41Z</time></trkpt><trkpt lat="43.778843626459015" lon="11.480832333692987"><ele>339.0</ele><time>2026-04-18T12:23:42Z</time></trkpt><trkpt lat="43.77891424249031" lon="11.48088708215134"><ele>338.2</ele><time>2026-04-18T12:23:44Z</time></trkpt><trkpt lat="43.77893533002517" lon="11.480989932008242"><ele>337.4</ele><time>2026-04-18T12:23:47Z</time></trkpt><trkpt lat="43.77886332339316" lon="11.48094636183484"><ele>336.6</ele><time>2026-04-18T12:23:49Z</time></trkpt><trkpt lat="43.77879223559763" lon="11.480896073706802"><ele>335.8</ele><time>2026-04-18T12:23:50Z</time></trkpt><trkpt lat="43.778678643597424" lon="11.480791590523438"><ele>335.0</ele><time>2026-04-18T12:23:52Z</time></trkpt><trkpt lat="43.778608971647664" lon="11.480713029463718"><ele>335.0</ele><time>2026-04-18T12:23:53Z</time></trkpt><trkpt lat="43.77853397216903" lon="11.480619184182501"><ele>335.0</ele><time>2026-04-18T12:23:54Z</time></trkpt><trkpt lat="43.77845592016566" lon="11.4805009742809"><ele>335.0</ele><time>2026-04-18T12:23:55Z</time></trkpt><trkpt lat="43.77837519641471" lon="11.48036688578204"><ele>335.0</ele><time>2026-04-18T12:23:56Z</time></trkpt><trkpt lat="43.77828984981964" lon="11.480214745418513"><ele>334.0</ele><time>2026-04-18T12:23:57Z</time></trkpt><trkpt lat="43.77821157223608" lon="11.48006925445887"><ele>333.0</ele><time>2026-04-18T12:23:58Z</time></trkpt><trkpt lat="43.77813685239521" lon="11.479926977148148"><ele>332.0</ele><time>2026-04-18T12:23:59Z</time></trkpt><trkpt lat="43.77805993784187" lon="11.47977186591382"><ele>331.0</ele><time>2026-04-18T12:24:00Z</time></trkpt><trkpt lat="43.77797566834208" lon="11.479598872922622"><ele>331.0</ele><time>2026-04-18T12:24:01Z</time></trkpt><trkpt lat="43.77790004775197" lon="11.479447282247744"><ele>331.0</ele><time>2026-04-18T12:24:02Z</time></trkpt><trkpt lat="43.777821064102696" lon="11.479306520212056"><ele>331.0</ele><time>2026-04-18T12:24:03Z</time></trkpt><trkpt lat="43.777691622237036" lon="11.479247650987887"><ele>331.0</ele><time>2026-04-18T12:24:04Z</time></trkpt><trkpt lat="43.77755919590105" lon="11.479212096048174"><ele>326.3333333333333</ele><time>2026-04-18T12:24:04.999Z</time></trkpt><trkpt lat="43.77741476468024" lon="11.479205352340596"><ele>321.6666666666667</ele><time>2026-04-18T12:24:05.999Z</time></trkpt><trkpt lat="43.77726063700631" lon="11.479157875783278"><ele>317.0</ele><time>2026-04-18T12:24:06.999Z</time></trkpt><trkpt lat="43.77708329212134" lon="11.479124180222751"><ele>317.0</ele><time>2026-04-18T12:24:07.999Z</time></trkpt><trkpt lat="43.77690731820818" lon="11.4791037558597"><ele>317.0</ele><time>2026-04-18T12:24:08.999Z</time></trkpt><trkpt lat="43.776762706682334" lon="11.47906995059663"><ele>317.0</ele><time>2026-04-18T12:24:09.999Z</time></trkpt><trkpt lat="43.77663770765143" lon="11.4790280323165"><ele>315.0</ele><time>2026-04-18T12:24:10.999Z</time></trkpt><trkpt lat="43.7765318268539" lon="11.478966672050946"><ele>313.0</ele><time>2026-04-18T12:24:11.999Z</time></trkpt><trkpt lat="43.776470800453076" lon="11.478826381185002"><ele>311.0</ele><time>2026-04-18T12:24:12.999Z</time></trkpt><trkpt lat="43.776433300124516" lon="11.478659529954621"><ele>309.0</ele><time>2026-04-18T12:24:13.999Z</time></trkpt><trkpt lat="43.77639398013436" lon="11.47846316376076"><ele>309.0</ele><time>2026-04-18T12:24:14.999Z</time></trkpt><trkpt lat="43.77635611572687" lon="11.478266409901412"><ele>309.0</ele><time>2026-04-18T12:24:15.999Z</time></trkpt><trkpt lat="43.776301531418255" lon="11.478062609154152"><ele>309.0</ele><time>2026-04-18T12:24:16.999Z</time></trkpt><trkpt lat="43.77622649727903" lon="11.47784578598317"><ele>309.0</ele><time>2026-04-18T12:24:17.999Z</time></trkpt><trkpt lat="43.7760997372081" lon="11.477639175733172"><ele>309.0</ele><time>2026-04-18T12:24:18.999Z</time></trkpt><trkpt lat="43.77597123087239" lon="11.477440443805959"><ele>309.0</ele><time>2026-04-18T12:24:19.999Z</time></trkpt><trkpt lat="43.77582578886124" lon="11.477251068382428"><ele>305.0</ele><time>2026-04-18T12:24:20.999Z</time></trkpt><trkpt lat="43.77564750180616" lon="11.477133103691653"><ele>301.0</ele><time>2026-04-18T12:24:21.999Z</time></trkpt><trkpt lat="43.77547183853848" lon="11.477015581480265"><ele>297.0</ele><time>2026-04-18T12:24:22.999Z</time></trkpt><trkpt lat="43.77529955821885" lon="11.476882447846567"><ele>294.3333333333333</ele><time>2026-04-18T12:24:23.999Z</time></trkpt><trkpt lat="43.77511798375658" lon="11.476768491466178"><ele>291.66666666666663</ele><time>2026-04-18T12:24:24.999Z</time></trkpt><trkpt lat="43.77494295194804" lon="11.476661882942025"><ele>289.0</ele><time>2026-04-18T12:24:25.999Z</time></trkpt><trkpt lat="43.77478009906546" lon="11.476562692368494"><ele>289.0</ele><time>2026-04-18T12:24:26.999Z</time></trkpt><trkpt lat="43.77463394425353" lon="11.476471117767375"><ele>289.0</ele><time>2026-04-18T12:24:27.999Z</time></trkpt><trkpt lat="43.774498858082744" lon="11.476385911498072"><ele>289.0</ele><time>2026-04-18T12:24:28.999Z</time></trkpt><trkpt lat="43.77437395918319" lon="11.476298242442423"><ele>289.0</ele><time>2026-04-18T12:24:29.999Z</time></trkpt><trkpt lat="43.77425233315023" lon="11.476179222032625"><ele>287.3333333333333</ele><time>2026-04-18T12:24:30.999Z</time></trkpt><trkpt lat="43.774133267759076" lon="11.47603961410131"><ele>285.6666666666667</ele><time>2026-04-18T12:24:31.999Z</time></trkpt><trkpt lat="43.774000715854065" lon="11.475876776000346"><ele>284.0</ele><time>2026-04-18T12:24:32.999Z</time></trkpt><trkpt lat="43.773854886502484" lon="11.47570257765734"><ele>284.0</ele><time>2026-04-18T12:24:33.999Z</time></trkpt><trkpt lat="43.77370470099291" lon="11.47552367365412"><ele>284.0</ele><time>2026-04-18T12:24:34.999Z</time></trkpt><trkpt lat="43.773557771763805" lon="11.475390118424173"><ele>284.0</ele><time>2026-04-18T12:24:35.999Z</time></trkpt><trkpt lat="43.7734407327431" lon="11.475240415645354"><ele>281.0</ele><time>2026-04-18T12:24:36.999Z</time></trkpt><trkpt lat="43.77335531851907" lon="11.475051561148957"><ele>278.0</ele><time>2026-04-18T12:24:37.999Z</time></trkpt><trkpt lat="43.773299971201546" lon="11.474802297783263"><ele>275.0</ele><time>2026-04-18T12:24:38.999Z</time></trkpt><trkpt lat="43.773295329305185" lon="11.474503691867346"><ele>274.33333333333337</ele><time>2026-04-18T12:24:39.999Z</time></trkpt><trkpt lat="43.77323406288825" lon="11.47421075697937"><ele>273.6666666666667</ele><time>2026-04-18T12:24:40.999Z</time></trkpt><trkpt lat="43.77317774852409" lon="11.473948441016448"><ele>273.0</ele><time>2026-04-18T12:24:41.999Z</time></trkpt><trkpt lat="43.773127620131056" lon="11.473733778925839"><ele>272.6666666666667</ele><time>2026-04-18T12:24:42.999Z</time></trkpt><trkpt lat="43.77303839531003" lon="11.473536598376597"><ele>272.33333333333337</ele><time>2026-04-18T12:24:43.999Z</time></trkpt><trkpt lat="43.77289538698114" lon="11.4733880389647"><ele>272.0</ele><time>2026-04-18T12:24:44.999Z</time></trkpt><trkpt lat="43.77273181724422" lon="11.47321524363013"><ele>269.6666666666667</ele><time>2026-04-18T12:24:45.999Z</time></trkpt><trkpt lat="43.77256362785986" lon="11.473025858924746"><ele>267.3333333333333</ele><time>2026-04-18T12:24:46.999Z</time></trkpt><trkpt lat="43.77239777847565" lon="11.47285185720426"><ele>265.0</ele><time>2026-04-18T12:24:47.999Z</time></trkpt><trkpt lat="43.7722556166203" lon="11.472709320917565"><ele>265.0</ele><time>2026-04-18T12:24:48.999Z</time></trkpt><trkpt lat="43.77211809705201" lon="11.472600876321208"><ele>265.0</ele><time>2026-04-18T12:24:49.999Z</time></trkpt><trkpt lat="43.77194643791787" lon="11.47257091622923"><ele>265.0</ele><time>2026-04-18T12:24:50.999Z</time></trkpt><trkpt lat="43.77175421768023" lon="11.472569425096749"><ele>261.66666666666663</ele><time>2026-04-18T12:24:51.999Z</time></trkpt><trkpt lat="43.77154616231647" lon="11.472612851757724"><ele>258.3333333333333</ele><time>2026-04-18T12:24:52.999Z</time></trkpt><trkpt lat="43.77135923975418" lon="11.472685305231089"><ele>255.0</ele><time>2026-04-18T12:24:53.999Z</time></trkpt><trkpt lat="43.77121407012402" lon="11.472741788069168"><ele>255.0</ele><time>2026-04-18T12:24:54.999Z</time></trkpt><trkpt lat="43.77109369437819" lon="11.47275890770082"><ele>255.0</ele><time>2026-04-18T12:24:55.999Z</time></trkpt><trkpt lat="43.77098048403053" lon="11.472688313797088"><ele>255.0</ele><time>2026-04-18T12:24:56.999Z</time></trkpt><trkpt lat="43.77090655306265" lon="11.472552995044207"><ele>255.0</ele><time>2026-04-18T12:24:57.999Z</time></trkpt><trkpt lat="43.770812684422644" lon="11.472406133027318"><ele>252.33333333333331</ele><time>2026-04-18T12:24:58.999Z</time></trkpt><trkpt lat="43.77070432778247" lon="11.472261745685485"><ele>249.66666666666666</ele><time>2026-04-18T12:24:59.999Z</time></trkpt><trkpt lat="43.770562988009544" lon="11.47215292161442"><ele>247.0</ele><time>2026-04-18T12:25:00.999Z</time></trkpt><trkpt lat="43.77041359806296" lon="11.472070023396494"><ele>247.0</ele><time>2026-04-18T12:25:01.999Z</time></trkpt><trkpt lat="43.77027213616132" lon="11.471988886730038"><ele>247.0</ele><time>2026-04-18T12:25:02.999Z</time></trkpt><trkpt lat="43.770136504808164" lon="11.471909496739222"><ele>247.0</ele><time>2026-04-18T12:25:03.999Z</time></trkpt><trkpt lat="43.77000806552272" lon="11.471828973049137"><ele>247.0</ele><time>2026-04-18T12:25:04.999Z</time></trkpt><trkpt lat="43.76988921579389" lon="11.47171266508061"><ele>244.5</ele><time>2026-04-18T12:25:05.999Z</time></trkpt><trkpt lat="43.76977683560032" lon="11.47156743811859"><ele>242.0</ele><time>2026-04-18T12:25:06.999Z</time></trkpt><trkpt lat="43.769672091947996" lon="11.471435584589747"><ele>239.5</ele><time>2026-04-18T12:25:07.999Z</time></trkpt><trkpt lat="43.76957688169872" lon="11.471314452572383"><ele>237.0</ele><time>2026-04-18T12:25:08.999Z</time></trkpt><trkpt lat="43.769499261998625" lon="11.471206481846195"><ele>236.0</ele><time>2026-04-18T12:25:09.999Z</time></trkpt><trkpt lat="43.76945030248207" lon="11.47109556178959"><ele>235.0</ele><time>2026-04-18T12:25:10.999Z</time></trkpt><trkpt lat="43.769423264666" lon="11.470974624698613"><ele>234.0</ele><time>2026-04-18T12:25:11.999Z</time></trkpt><trkpt lat="43.769460585254734" lon="11.47085333041477"><ele>233.0</ele><time>2026-04-18T12:25:12.999Z</time></trkpt><trkpt lat="43.76953649995529" lon="11.470765987495161"><ele>232.0</ele><time>2026-04-18T12:25:13.999Z</time></trkpt><trkpt lat="43.769635037420926" lon="11.470713420526552"><ele>232.0</ele><time>2026-04-18T12:25:14.999Z</time></trkpt><trkpt lat="43.76976183269547" lon="11.470724163639149"><ele>232.0</ele><time>2026-04-18T12:25:15.999Z</time></trkpt><trkpt lat="43.76989905184126" lon="11.470735881208997"><ele>232.0</ele><time>2026-04-18T12:25:16.999Z</time></trkpt><trkpt lat="43.77003323664835" lon="11.470738907217363"><ele>232.0</ele><time>2026-04-18T12:25:17.999Z</time></trkpt><trkpt lat="43.770149399378866" lon="11.470706181951838"><ele>230.75</ele><time>2026-04-18T12:25:18.998Z</time></trkpt><trkpt lat="43.77025357520872" lon="11.470640338056786"><ele>229.5</ele><time>2026-04-18T12:25:19.998Z</time></trkpt><trkpt lat="43.770354227448685" lon="11.47056139993935"><ele>228.25</ele><time>2026-04-18T12:25:20.998Z</time></trkpt><trkpt lat="43.77041467853504" lon="11.470405988736882"><ele>227.0</ele><time>2026-04-18T12:25:21.998Z</time></trkpt><trkpt lat="43.77044076699382" lon="11.4702559075116"><ele>227.0</ele><time>2026-04-18T12:25:22.998Z</time></trkpt><trkpt lat="43.77044664183755" lon="11.470103136102878"><ele>227.0</ele><time>2026-04-18T12:25:23.998Z</time></trkpt><trkpt lat="43.770446294829576" lon="11.46993873405689"><ele>227.0</ele><time>2026-04-18T12:25:24.998Z</time></trkpt><trkpt lat="43.77044238121007" lon="11.46978615520134"><ele>227.0</ele><time>2026-04-18T12:25:25.998Z</time></trkpt><trkpt lat="43.77043591510405" lon="11.469631840603938"><ele>225.25</ele><time>2026-04-18T12:25:27Z</time></trkpt><trkpt lat="43.77042779095229" lon="11.469460624478812"><ele>223.5</ele><time>2026-04-18T12:25:28Z</time></trkpt><trkpt lat="43.77041827987145" lon="11.469282012856999"><ele>221.75</ele><time>2026-04-18T12:25:29Z</time></trkpt><trkpt lat="43.77040681128849" lon="11.469095931603592"><ele>220.0</ele><time>2026-04-18T12:25:30Z</time></trkpt><trkpt lat="43.77039471088667" lon="11.46891200543081"><ele>218.0</ele><time>2026-04-18T12:25:31Z</time></trkpt><trkpt lat="43.770382777181794" lon="11.46873091889441"><ele>216.0</ele><time>2026-04-18T12:25:32Z</time></trkpt><trkpt lat="43.7703545010238" lon="11.46855501715669"><ele>214.0</ele><time>2026-04-18T12:25:33Z</time></trkpt><trkpt lat="43.770354953494675" lon="11.468382696645813"><ele>212.0</ele><time>2026-04-18T12:25:34Z</time></trkpt><trkpt lat="43.77033229648409" lon="11.468214338692203"><ele>212.0</ele><time>2026-04-18T12:25:35Z</time></trkpt><trkpt lat="43.770324229675225" lon="11.46804577157928"><ele>212.0</ele><time>2026-04-18T12:25:36Z</time></trkpt><trkpt lat="43.77031126613562" lon="11.467875849946573"><ele>212.0</ele><time>2026-04-18T12:25:37Z</time></trkpt><trkpt lat="43.770297562851766" lon="11.467709860373983"><ele>212.0</ele><time>2026-04-18T12:25:38Z</time></trkpt><trkpt lat="43.770285258073066" lon="11.467548930234413"><ele>210.75</ele><time>2026-04-18T12:25:39Z</time></trkpt><trkpt lat="43.77028521846876" lon="11.467384894349065"><ele>209.5</ele><time>2026-04-18T12:25:40Z</time></trkpt><trkpt lat="43.77029684499435" lon="11.46722812458223"><ele>208.25</ele><time>2026-04-18T12:25:41Z</time></trkpt><trkpt lat="43.77030576372368" lon="11.467060361418488"><ele>207.0</ele><time>2026-04-18T12:25:42Z</time></trkpt><trkpt lat="43.77031101395733" lon="11.466913152264109"><ele>206.6</ele><time>2026-04-18T12:25:43Z</time></trkpt><trkpt lat="43.77031769286548" lon="11.466773744197528"><ele>206.2</ele><time>2026-04-18T12:25:44Z</time></trkpt><trkpt lat="43.77032090973781" lon="11.466640328527294"><ele>205.8</ele><time>2026-04-18T12:25:45Z</time></trkpt><trkpt lat="43.77032205744395" lon="11.466512936972066"><ele>205.4</ele><time>2026-04-18T12:25:46Z</time></trkpt><trkpt lat="43.77032732953902" lon="11.466391821996233"><ele>205.0</ele><time>2026-04-18T12:25:47Z</time></trkpt><trkpt lat="43.77033317021049" lon="11.466277895927975"><ele>203.8</ele><time>2026-04-18T12:25:48Z</time></trkpt><trkpt lat="43.7703427785666" lon="11.466168837752992"><ele>202.6</ele><time>2026-04-18T12:25:49Z</time></trkpt><trkpt lat="43.77036625937368" lon="11.466060619551289"><ele>201.39999999999998</ele><time>2026-04-18T12:25:50Z</time></trkpt><trkpt lat="43.770403261241576" lon="11.465934689467936"><ele>200.2</ele><time>2026-04-18T12:25:51Z</time></trkpt><trkpt lat="43.770438247574816" lon="11.465797096882508"><ele>199.0</ele><time>2026-04-18T12:25:52Z</time></trkpt><trkpt lat="43.77044080705073" lon="11.465640607335718"><ele>199.0</ele><time>2026-04-18T12:25:53Z</time></trkpt><trkpt lat="43.77044042011319" lon="11.465467060046626"><ele>199.0</ele><time>2026-04-18T12:25:54Z</time></trkpt><trkpt lat="43.770502485693314" lon="11.465301202628172"><ele>199.0</ele><time>2026-04-18T12:25:55Z</time></trkpt><trkpt lat="43.77055556791276" lon="11.465115922254178"><ele>199.0</ele><time>2026-04-18T12:25:56Z</time></trkpt><trkpt lat="43.77061354131703" lon="11.464917565600851"><ele>198.5</ele><time>2026-04-18T12:25:57Z</time></trkpt><trkpt lat="43.77067100731834" lon="11.464720945009102"><ele>198.0</ele><time>2026-04-18T12:25:58Z</time></trkpt><trkpt lat="43.770721788006604" lon="11.464537181300958"><ele>197.5</ele><time>2026-04-18T12:25:59Z</time></trkpt><trkpt lat="43.77074921720775" lon="11.46433462624164"><ele>197.0</ele><time>2026-04-18T12:26:00Z</time></trkpt><trkpt lat="43.77075442955804" lon="11.464123557532725"><ele>195.75</ele><time>2026-04-18T12:26:01Z</time></trkpt><trkpt lat="43.770749783093734" lon="11.46392051808398"><ele>194.5</ele><time>2026-04-18T12:26:02Z</time></trkpt><trkpt lat="43.77074338387614" lon="11.463742563222805"><ele>193.25</ele><time>2026-04-18T12:26:03Z</time></trkpt><trkpt lat="43.77073803745008" lon="11.463580484455177"><ele>192.0</ele><time>2026-04-18T12:26:04Z</time></trkpt><trkpt lat="43.77073266662251" lon="11.463419691779578"><ele>191.0</ele><time>2026-04-18T12:26:05Z</time></trkpt><trkpt lat="43.77072748570721" lon="11.463264584703065"><ele>190.0</ele><time>2026-04-18T12:26:06Z</time></trkpt><trkpt lat="43.77072111757121" lon="11.46309803768452"><ele>189.0</ele><time>2026-04-18T12:26:07Z</time></trkpt><trkpt lat="43.770697265133954" lon="11.462924029376259"><ele>188.0</ele><time>2026-04-18T12:26:08Z</time></trkpt><trkpt lat="43.77069697339311" lon="11.462759934622362"><ele>186.5</ele><time>2026-04-18T12:26:09Z</time></trkpt><trkpt lat="43.77068621009661" lon="11.462583310372258"><ele>185.0</ele><time>2026-04-18T12:26:10Z</time></trkpt><trkpt lat="43.77067527991845" lon="11.462414125665676"><ele>183.5</ele><time>2026-04-18T12:26:11Z</time></trkpt><trkpt lat="43.77066623924497" lon="11.462261273750416"><ele>182.0</ele><time>2026-04-18T12:26:11.999Z</time></trkpt><trkpt lat="43.770668715141454" lon="11.462134676523043"><ele>181.6</ele><time>2026-04-18T12:26:12.999Z</time></trkpt><trkpt lat="43.77070417912876" lon="11.462033794519938"><ele>181.2</ele><time>2026-04-18T12:26:13.999Z</time></trkpt><trkpt lat="43.77078093257686" lon="11.46195434899714"><ele>180.8</ele><time>2026-04-18T12:26:14.999Z</time></trkpt><trkpt lat="43.77089418299367" lon="11.461894101922509"><ele>180.4</ele><time>2026-04-18T12:26:15.999Z</time></trkpt><trkpt lat="43.771009831594675" lon="11.461820459776556"><ele>180.0</ele><time>2026-04-18T12:26:16.999Z</time></trkpt><trkpt lat="43.77113508161453" lon="11.461728704355423"><ele>180.0</ele><time>2026-04-18T12:26:17.999Z</time></trkpt><trkpt lat="43.77125454440143" lon="11.46164765026275"><ele>180.0</ele><time>2026-04-18T12:26:18.999Z</time></trkpt><trkpt lat="43.77138449798519" lon="11.461567320265159"><ele>180.0</ele><time>2026-04-18T12:26:19.999Z</time></trkpt><trkpt lat="43.771520301222296" lon="11.461488845143034"><ele>180.0</ele><time>2026-04-18T12:26:20.999Z</time></trkpt><trkpt lat="43.77166140932689" lon="11.46142386315591"><ele>180.0</ele><time>2026-04-18T12:26:21.999Z</time></trkpt><trkpt lat="43.771814713790874" lon="11.461375041199954"><ele>180.0</ele><time>2026-04-18T12:26:22.999Z</time></trkpt><trkpt lat="43.77195383782313" lon="11.46132769693022"><ele>180.0</ele><time>2026-04-18T12:26:23.999Z</time></trkpt><trkpt lat="43.77208542961517" lon="11.461283545422564"><ele>180.0</ele><time>2026-04-18T12:26:24.999Z</time></trkpt><trkpt lat="43.77220563141577" lon="11.461239609357271"><ele>175.25</ele><time>2026-04-18T12:26:25.999Z</time></trkpt><trkpt lat="43.772321335069684" lon="11.461180944584992"><ele>170.5</ele><time>2026-04-18T12:26:26.999Z</time></trkpt><trkpt lat="43.77243364900581" lon="11.461082625481184"><ele>165.75</ele><time>2026-04-18T12:26:27.999Z</time></trkpt><trkpt lat="43.77254170013873" lon="11.460972282794692"><ele>161.0</ele><time>2026-04-18T12:26:28.999Z</time></trkpt><trkpt lat="43.77259065086973" lon="11.460777426711825"><ele>161.0</ele><time>2026-04-18T12:26:29.999Z</time></trkpt><trkpt lat="43.77264817659944" lon="11.46059114629049"><ele>161.0</ele><time>2026-04-18T12:26:30.999Z</time></trkpt><trkpt lat="43.77269452212621" lon="11.46039147284765"><ele>161.0</ele><time>2026-04-18T12:26:31.999Z</time></trkpt><trkpt lat="43.77274563254776" lon="11.460210537983187"><ele>161.0</ele><time>2026-04-18T12:26:32.999Z</time></trkpt><trkpt lat="43.77281465037973" lon="11.46004783899779"><ele>162.5</ele><time>2026-04-18T12:26:33.999Z</time></trkpt><trkpt lat="43.772876818880746" lon="11.45990361510822"><ele>164.0</ele><time>2026-04-18T12:26:34.999Z</time></trkpt><trkpt lat="43.77292337442714" lon="11.459760402394203"><ele>165.5</ele><time>2026-04-18T12:26:35.999Z</time></trkpt><trkpt lat="43.7729346932132" lon="11.459578506175596"><ele>167.0</ele><time>2026-04-18T12:26:36.999Z</time></trkpt><trkpt lat="43.77289947845408" lon="11.459396471758518"><ele>167.0</ele><time>2026-04-18T12:26:37.999Z</time></trkpt><trkpt lat="43.77290362279239" lon="11.459225512973818"><ele>167.0</ele><time>2026-04-18T12:26:38.999Z</time></trkpt><trkpt lat="43.772900124322774" lon="11.459071089849568"><ele>167.0</ele><time>2026-04-18T12:26:39.999Z</time></trkpt><trkpt lat="43.772923487551076" lon="11.458911093272947"><ele>167.0</ele><time>2026-04-18T12:26:40.999Z</time></trkpt><trkpt lat="43.772967437947955" lon="11.458750588305215"><ele>165.75</ele><time>2026-04-18T12:26:41.999Z</time></trkpt><trkpt lat="43.773013138649084" lon="11.458589415099894"><ele>164.5</ele><time>2026-04-18T12:26:42.999Z</time></trkpt><trkpt lat="43.77304941011392" lon="11.458440568516817"><ele>163.25</ele><time>2026-04-18T12:26:43.999Z</time></trkpt><trkpt lat="43.773063468635364" lon="11.458293218003003"><ele>162.0</ele><time>2026-04-18T12:26:44.999Z</time></trkpt><trkpt lat="43.773054020119375" lon="11.45814140459771"><ele>162.0</ele><time>2026-04-18T12:26:45.999Z</time></trkpt><trkpt lat="43.772974904900984" lon="11.457999758382508"><ele>162.0</ele><time>2026-04-18T12:26:46.999Z</time></trkpt><trkpt lat="43.772922752774605" lon="11.457842262653369"><ele>162.0</ele><time>2026-04-18T12:26:47.999Z</time></trkpt><trkpt lat="43.77285954409087" lon="11.457703454005838"><ele>162.0</ele><time>2026-04-18T12:26:48.999Z</time></trkpt><trkpt lat="43.772798766433766" lon="11.457568563634831"><ele>162.25</ele><time>2026-04-18T12:26:49.999Z</time></trkpt><trkpt lat="43.77274486629663" lon="11.457438047048385"><ele>162.5</ele><time>2026-04-18T12:26:50.999Z</time></trkpt><trkpt lat="43.77269077658106" lon="11.457292887039687"><ele>162.75</ele><time>2026-04-18T12:26:51.999Z</time></trkpt><trkpt lat="43.77264706295986" lon="11.45712719276442"><ele>163.0</ele><time>2026-04-18T12:26:52.999Z</time></trkpt><trkpt lat="43.77262034546338" lon="11.456963322412644"><ele>154.5</ele><time>2026-04-18T12:26:53.999Z</time></trkpt><trkpt lat="43.77259924529132" lon="11.45676279789609"><ele>146.0</ele><time>2026-04-18T12:26:54.999Z</time></trkpt><trkpt lat="43.77256749586858" lon="11.456571300069822"><ele>137.5</ele><time>2026-04-18T12:26:55.999Z</time></trkpt><trkpt lat="43.77255467707392" lon="11.456391248508927"><ele>129.0</ele><time>2026-04-18T12:26:56.999Z</time></trkpt><trkpt lat="43.772539304887296" lon="11.456219301602694"><ele>128.5</ele><time>2026-04-18T12:26:57.999Z</time></trkpt><trkpt lat="43.77252304170501" lon="11.456057786583065"><ele>128.0</ele><time>2026-04-18T12:26:58.999Z</time></trkpt><trkpt lat="43.772507635360085" lon="11.455891557540214"><ele>127.5</ele><time>2026-04-18T12:26:59.999Z</time></trkpt><trkpt lat="43.7724979282196" lon="11.455728184167732"><ele>127.0</ele><time>2026-04-18T12:27:00.999Z</time></trkpt><trkpt lat="43.77252799655012" lon="11.455592241749422"><ele>127.0</ele><time>2026-04-18T12:27:01.999Z</time></trkpt><trkpt lat="43.772561795796754" lon="11.45548034720603"><ele>126.99999999999999</ele><time>2026-04-18T12:27:02.999Z</time></trkpt><trkpt lat="43.772600099703716" lon="11.455353331884307"><ele>126.99999999999999</ele><time>2026-04-18T12:27:03.999Z</time></trkpt><trkpt lat="43.772663662034965" lon="11.455227902444593"><ele>127.0</ele><time>2026-04-18T12:27:04.999Z</time></trkpt><trkpt lat="43.77272924957351" lon="11.455100072866884"><ele>127.0</ele><time>2026-04-18T12:27:05.999Z</time></trkpt><trkpt lat="43.772789689540005" lon="11.454965421086092"><ele>127.0</ele><time>2026-04-18T12:27:06.999Z</time></trkpt><trkpt lat="43.772846686172784" lon="11.454844357538908"><ele>126.99999999999999</ele><time>2026-04-18T12:27:07.999Z</time></trkpt><trkpt lat="43.772900830045224" lon="11.454722972889783"><ele>126.99999999999999</ele><time>2026-04-18T12:27:08.999Z</time></trkpt><trkpt lat="43.77295896432079" lon="11.454589632275612"><ele>127.0</ele><time>2026-04-18T12:27:09.999Z</time></trkpt><trkpt lat="43.773018588609254" lon="11.454443648198817"><ele>127.0</ele><time>2026-04-18T12:27:10.999Z</time></trkpt><trkpt lat="43.77305778024851" lon="11.45427799026439"><ele>127.0</ele><time>2026-04-18T12:27:11.999Z</time></trkpt><trkpt lat="43.77308923447373" lon="11.454106855618695"><ele>127.0</ele><time>2026-04-18T12:27:12.999Z</time></trkpt><trkpt lat="43.77312194578092" lon="11.453931310467956"><ele>127.0</ele><time>2026-04-18T12:27:13.999Z</time></trkpt><trkpt lat="43.77314672314718" lon="11.453755357688689"><ele>127.0</ele><time>2026-04-18T12:27:14.999Z</time></trkpt><trkpt lat="43.77317871972517" lon="11.453589148233501"><ele>124.5</ele><time>2026-04-18T12:27:15.999Z</time></trkpt><trkpt lat="43.77323624073134" lon="11.453445875657598"><ele>122.0</ele><time>2026-04-18T12:27:16.999Z</time></trkpt><trkpt lat="43.773285178233785" lon="11.45330058272449"><ele>119.5</ele><time>2026-04-18T12:27:17.999Z</time></trkpt><trkpt lat="43.77333919931753" lon="11.453161959342331"><ele>117.0</ele><time>2026-04-18T12:27:18.999Z</time></trkpt><trkpt lat="43.77338458971255" lon="11.4530204878139"><ele>114.0</ele><time>2026-04-18T12:27:19.999Z</time></trkpt><trkpt lat="43.77344378949578" lon="11.452875544186611"><ele>111.0</ele><time>2026-04-18T12:27:20.999Z</time></trkpt><trkpt lat="43.773502744201004" lon="11.4527468550983"><ele>108.0</ele><time>2026-04-18T12:27:21.999Z</time></trkpt><trkpt lat="43.77356920826355" lon="11.452613907527219"><ele>105.0</ele><time>2026-04-18T12:27:22.999Z</time></trkpt><trkpt lat="43.773638634046215" lon="11.452468768157178"><ele>107.0</ele><time>2026-04-18T12:27:23.999Z</time></trkpt><trkpt lat="43.773703880531585" lon="11.452316634625353"><ele>109.0</ele><time>2026-04-18T12:27:24.999Z</time></trkpt><trkpt lat="43.7737682178754" lon="11.452162845140816"><ele>111.0</ele><time>2026-04-18T12:27:25.999Z</time></trkpt><trkpt lat="43.773831940970396" lon="11.4520089148998"><ele>113.0</ele><time>2026-04-18T12:27:26.999Z</time></trkpt><trkpt lat="43.77388023472365" lon="11.451892627229814"><ele>113.0</ele><time>2026-04-18T12:27:27.998Z</time></trkpt><trkpt lat="43.77393648569292" lon="11.451802946265076"><ele>113.0</ele><time>2026-04-18T12:27:28.998Z</time></trkpt><trkpt lat="43.77397418679573" lon="11.451712309861662"><ele>113.0</ele><time>2026-04-18T12:27:29.998Z</time></trkpt><trkpt lat="43.77384576866206" lon="11.451474541569134"><ele>113.0</ele><time>2026-04-18T12:27:32Z</time></trkpt><trkpt lat="43.77375649739029" lon="11.451370361915489"><ele>110.5</ele><time>2026-04-18T12:27:33Z</time></trkpt><trkpt lat="43.77369638362659" lon="11.451241779495188"><ele>108.0</ele><time>2026-04-18T12:27:34Z</time></trkpt><trkpt lat="43.77368160184037" lon="11.451072160764207"><ele>105.5</ele><time>2026-04-18T12:27:35Z</time></trkpt><trkpt lat="43.77369345797825" lon="11.450890274285195"><ele>103.0</ele><time>2026-04-18T12:27:36Z</time></trkpt><trkpt lat="43.7736974200467" lon="11.450720712665923"><ele>103.0</ele><time>2026-04-18T12:27:37Z</time></trkpt><trkpt lat="43.77368514374635" lon="11.45055279903558"><ele>103.0</ele><time>2026-04-18T12:27:38Z</time></trkpt><trkpt lat="43.773653165171105" lon="11.450352794661875"><ele>103.0</ele><time>2026-04-18T12:27:39Z</time></trkpt><trkpt lat="43.77359351912098" lon="11.450149400738445"><ele>103.0</ele><time>2026-04-18T12:27:40Z</time></trkpt><trkpt lat="43.773512184514544" lon="11.449977663459743"><ele>100.25</ele><time>2026-04-18T12:27:41Z</time></trkpt><trkpt lat="43.77341122766477" lon="11.449832478742715"><ele>97.5</ele><time>2026-04-18T12:27:42Z</time></trkpt><trkpt lat="43.77328975602418" lon="11.449696469435679"><ele>94.75</ele><time>2026-04-18T12:27:43Z</time></trkpt><trkpt lat="43.77316231905228" lon="11.449594611280915"><ele>92.0</ele><time>2026-04-18T12:27:44Z</time></trkpt><trkpt lat="43.77302048967177" lon="11.449517943194984"><ele>92.0</ele><time>2026-04-18T12:27:45Z</time></trkpt><trkpt lat="43.77284408035769" lon="11.449456957903132"><ele>92.0</ele><time>2026-04-18T12:27:46Z</time></trkpt><trkpt lat="43.77266269540838" lon="11.449360890268022"><ele>92.0</ele><time>2026-04-18T12:27:47Z</time></trkpt><trkpt lat="43.77251123266157" lon="11.449217639969008"><ele>90.66666666666667</ele><time>2026-04-18T12:27:48Z</time></trkpt><trkpt lat="43.77237910889684" lon="11.449039225144682"><ele>89.33333333333333</ele><time>2026-04-18T12:27:49Z</time></trkpt><trkpt lat="43.77226905965943" lon="11.448845801051403"><ele>88.0</ele><time>2026-04-18T12:27:50Z</time></trkpt><trkpt lat="43.7721755525538" lon="11.448659621264596"><ele>87.0</ele><time>2026-04-18T12:27:51Z</time></trkpt><trkpt lat="43.77208459713365" lon="11.448488642901422"><ele>86.0</ele><time>2026-04-18T12:27:52Z</time></trkpt><trkpt lat="43.77199290250479" lon="11.448315920272904"><ele>85.0</ele><time>2026-04-18T12:27:53Z</time></trkpt><trkpt lat="43.77190704569154" lon="11.448126369402976"><ele>84.66666666666666</ele><time>2026-04-18T12:27:54Z</time></trkpt><trkpt lat="43.771831680340824" lon="11.447921281887815"><ele>84.33333333333333</ele><time>2026-04-18T12:27:55Z</time></trkpt><trkpt lat="43.77176296840089" lon="11.44773365877011"><ele>84.0</ele><time>2026-04-18T12:27:56Z</time></trkpt><trkpt lat="43.77169863297394" lon="11.447541496044474"><ele>84.0</ele><time>2026-04-18T12:27:57Z</time></trkpt><trkpt lat="43.771639482477006" lon="11.44733294721753"><ele>84.0</ele><time>2026-04-18T12:27:58Z</time></trkpt><trkpt lat="43.7715882474915" lon="11.447114570022226"><ele>84.0</ele><time>2026-04-18T12:27:59Z</time></trkpt><trkpt lat="43.771548423606674" lon="11.44688906551368"><ele>84.0</ele><time>2026-04-18T12:28:00Z</time></trkpt><trkpt lat="43.77151401098822" lon="11.446658811738647"><ele>84.0</ele><time>2026-04-18T12:28:01Z</time></trkpt><trkpt lat="43.77149993187915" lon="11.446421383921047"><ele>84.0</ele><time>2026-04-18T12:28:02Z</time></trkpt><trkpt lat="43.771476062388714" lon="11.446182362718147"><ele>83.33333333333333</ele><time>2026-04-18T12:28:03Z</time></trkpt><trkpt lat="43.771455038661635" lon="11.44594349957951"><ele>82.66666666666666</ele><time>2026-04-18T12:28:04Z</time></trkpt><trkpt lat="43.77141841453074" lon="11.4457064430992"><ele>82.0</ele><time>2026-04-18T12:28:05Z</time></trkpt><trkpt lat="43.77140232894221" lon="11.445464581543826"><ele>82.33333333333333</ele><time>2026-04-18T12:28:06Z</time></trkpt><trkpt lat="43.77138059683776" lon="11.445221229844346"><ele>82.66666666666667</ele><time>2026-04-18T12:28:07Z</time></trkpt><trkpt lat="43.7713604302684" lon="11.444994251842534"><ele>83.0</ele><time>2026-04-18T12:28:08Z</time></trkpt><trkpt lat="43.77134167676332" lon="11.444780552248742"><ele>83.0</ele><time>2026-04-18T12:28:09Z</time></trkpt><trkpt lat="43.77132649416815" lon="11.444562673011703"><ele>83.0</ele><time>2026-04-18T12:28:10Z</time></trkpt><trkpt lat="43.77130959452161" lon="11.44433606737669"><ele>83.0</ele><time>2026-04-18T12:28:11Z</time></trkpt><trkpt lat="43.77129124463407" lon="11.444105205711653"><ele>83.0</ele><time>2026-04-18T12:28:12Z</time></trkpt><trkpt lat="43.77127373463296" lon="11.44387668100735"><ele>83.0</ele><time>2026-04-18T12:28:13Z</time></trkpt><trkpt lat="43.77125271922077" lon="11.44364741592822"><ele>83.0</ele><time>2026-04-18T12:28:14Z</time></trkpt><trkpt lat="43.77123253764205" lon="11.443410065169948"><ele>82.33333333333334</ele><time>2026-04-18T12:28:15Z</time></trkpt><trkpt lat="43.77121580567737" lon="11.44317836200805"><ele>81.66666666666667</ele><time>2026-04-18T12:28:16Z</time></trkpt><trkpt lat="43.77119758060086" lon="11.442948935403486"><ele>81.0</ele><time>2026-04-18T12:28:16.999Z</time></trkpt><trkpt lat="43.77117699210821" lon="11.44272516082958"><ele>80.66666666666667</ele><time>2026-04-18T12:28:17.999Z</time></trkpt><trkpt lat="43.77115478301365" lon="11.442500786864066"><ele>80.33333333333334</ele><time>2026-04-18T12:28:18.999Z</time></trkpt><trkpt lat="43.77112423999526" lon="11.442264609329708"><ele>80.0</ele><time>2026-04-18T12:28:19.999Z</time></trkpt><trkpt lat="43.77108270967344" lon="11.442018610299122"><ele>80.0</ele><time>2026-04-18T12:28:20.999Z</time></trkpt><trkpt lat="43.7710485455602" lon="11.44175947256287"><ele>80.0</ele><time>2026-04-18T12:28:21.999Z</time></trkpt><trkpt lat="43.770972426863686" lon="11.441498639958178"><ele>80.0</ele><time>2026-04-18T12:28:22.999Z</time></trkpt><trkpt lat="43.77090127400403" lon="11.441228236316746"><ele>80.0</ele><time>2026-04-18T12:28:23.999Z</time></trkpt><trkpt lat="43.77082589628067" lon="11.440986364830362"><ele>80.0</ele><time>2026-04-18T12:28:24.999Z</time></trkpt><trkpt lat="43.77074495733314" lon="11.44074608514389"><ele>80.0</ele><time>2026-04-18T12:28:25.999Z</time></trkpt><trkpt lat="43.770663305844906" lon="11.440509209707086"><ele>80.66666666666667</ele><time>2026-04-18T12:28:26.999Z</time></trkpt><trkpt lat="43.77058033351385" lon="11.440275626641986"><ele>81.33333333333333</ele><time>2026-04-18T12:28:27.999Z</time></trkpt><trkpt lat="43.77049476446611" lon="11.440044846345934"><ele>82.0</ele><time>2026-04-18T12:28:28.999Z</time></trkpt><trkpt lat="43.77042442402688" lon="11.439806949776477"><ele>82.66666666666666</ele><time>2026-04-18T12:28:29.999Z</time></trkpt><trkpt lat="43.77034620352251" lon="11.439583975974866"><ele>83.33333333333333</ele><time>2026-04-18T12:28:30.999Z</time></trkpt><trkpt lat="43.77027090420668" lon="11.43937194662681"><ele>84.0</ele><time>2026-04-18T12:28:31.999Z</time></trkpt><trkpt lat="43.77020176842747" lon="11.439175163574783"><ele>83.75</ele><time>2026-04-18T12:28:32.999Z</time></trkpt><trkpt lat="43.7701371183424" lon="11.43899232683184"><ele>83.5</ele><time>2026-04-18T12:28:33.999Z</time></trkpt><trkpt lat="43.77004881860996" lon="11.438829152585125"><ele>83.25</ele><time>2026-04-18T12:28:34.999Z</time></trkpt><trkpt lat="43.76999245661975" lon="11.438671071265563"><ele>83.0</ele><time>2026-04-18T12:28:35.999Z</time></trkpt><trkpt lat="43.76993580875531" lon="11.438506860040473"><ele>83.0</ele><time>2026-04-18T12:28:36.999Z</time></trkpt><trkpt lat="43.769878731418565" lon="11.438332874050086"><ele>83.0</ele><time>2026-04-18T12:28:37.999Z</time></trkpt><trkpt lat="43.76984248785645" lon="11.438128665925339"><ele>83.0</ele><time>2026-04-18T12:28:38.999Z</time></trkpt><trkpt lat="43.76977731331556" lon="11.437923265288426"><ele>83.0</ele><time>2026-04-18T12:28:39.999Z</time></trkpt><trkpt lat="43.769710761642" lon="11.437699281859453"><ele>83.0</ele><time>2026-04-18T12:28:40.999Z</time></trkpt><trkpt lat="43.76963585755208" lon="11.437456267584986"><ele>83.0</ele><time>2026-04-18T12:28:41.999Z</time></trkpt><trkpt lat="43.76957668477153" lon="11.437188550534188"><ele>83.0</ele><time>2026-04-18T12:28:42.999Z</time></trkpt><trkpt lat="43.76951988188025" lon="11.43691573690246"><ele>83.0</ele><time>2026-04-18T12:28:43.999Z</time></trkpt><trkpt lat="43.769469489582306" lon="11.436637834604628"><ele>83.0</ele><time>2026-04-18T12:28:44.999Z</time></trkpt><trkpt lat="43.769429320090204" lon="11.436374267063524"><ele>83.33333333333334</ele><time>2026-04-18T12:28:45.999Z</time></trkpt><trkpt lat="43.76939398033693" lon="11.436117946158456"><ele>83.66666666666667</ele><time>2026-04-18T12:28:46.999Z</time></trkpt><trkpt lat="43.769370180010675" lon="11.435865076699846"><ele>84.0</ele><time>2026-04-18T12:28:47.999Z</time></trkpt><trkpt lat="43.76935469897836" lon="11.43561151808943"><ele>83.33333333333333</ele><time>2026-04-18T12:28:48.999Z</time></trkpt><trkpt lat="43.769347240219886" lon="11.43535431025459"><ele>82.66666666666666</ele><time>2026-04-18T12:28:49.999Z</time></trkpt><trkpt lat="43.76934339659871" lon="11.435097835499441"><ele>82.0</ele><time>2026-04-18T12:28:50.999Z</time></trkpt><trkpt lat="43.7693451412362" lon="11.434837884419405"><ele>82.0</ele><time>2026-04-18T12:28:51.999Z</time></trkpt><trkpt lat="43.769351029028854" lon="11.434578111336874"><ele>82.0</ele><time>2026-04-18T12:28:52.999Z</time></trkpt><trkpt lat="43.769374842737115" lon="11.434324269934992"><ele>82.0</ele><time>2026-04-18T12:28:53.999Z</time></trkpt><trkpt lat="43.76939859761372" lon="11.434068086116332"><ele>82.0</ele><time>2026-04-18T12:28:54.999Z</time></trkpt><trkpt lat="43.76943146999238" lon="11.433801658286313"><ele>82.0</ele><time>2026-04-18T12:28:55.999Z</time></trkpt><trkpt lat="43.76947840034125" lon="11.433521985663392"><ele>82.0</ele><time>2026-04-18T12:28:56.999Z</time></trkpt><trkpt lat="43.769537028797295" lon="11.433238399422944"><ele>82.0</ele><time>2026-04-18T12:28:57.999Z</time></trkpt><trkpt lat="43.76959765151304" lon="11.432948300793871"><ele>82.0</ele><time>2026-04-18T12:28:58.999Z</time></trkpt><trkpt lat="43.76966649311893" lon="11.432639790890084"><ele>82.0</ele><time>2026-04-18T12:28:59.999Z</time></trkpt><trkpt lat="43.769753077217466" lon="11.432339112427542"><ele>82.0</ele><time>2026-04-18T12:29:00.999Z</time></trkpt><trkpt lat="43.7698732568396" lon="11.432029414083512"><ele>81.33333333333333</ele><time>2026-04-18T12:29:01.999Z</time></trkpt><trkpt lat="43.76996269588958" lon="11.431733129235795"><ele>80.66666666666667</ele><time>2026-04-18T12:29:02.999Z</time></trkpt><trkpt lat="43.770070484337325" lon="11.431481807236999"><ele>80.0</ele><time>2026-04-18T12:29:03.999Z</time></trkpt><trkpt lat="43.770160942984276" lon="11.431237792472091"><ele>80.66666666666667</ele><time>2026-04-18T12:29:04.999Z</time></trkpt><trkpt lat="43.77024463950814" lon="11.43098954698854"><ele>81.33333333333333</ele><time>2026-04-18T12:29:05.999Z</time></trkpt><trkpt lat="43.77032725606485" lon="11.430751500789105"><ele>82.0</ele><time>2026-04-18T12:29:06.999Z</time></trkpt><trkpt lat="43.77041212808124" lon="11.430524816136195"><ele>81.66666666666666</ele><time>2026-04-18T12:29:07.999Z</time></trkpt><trkpt lat="43.77049298550527" lon="11.430300897546152"><ele>81.33333333333333</ele><time>2026-04-18T12:29:08.999Z</time></trkpt><trkpt lat="43.77057098319084" lon="11.43007881979931"><ele>81.0</ele><time>2026-04-18T12:29:09.999Z</time></trkpt><trkpt lat="43.77064586205493" lon="11.429866059247551"><ele>81.0</ele><time>2026-04-18T12:29:10.999Z</time></trkpt><trkpt lat="43.77071822319418" lon="11.429658628282448"><ele>81.0</ele><time>2026-04-18T12:29:11.999Z</time></trkpt><trkpt lat="43.770785046134485" lon="11.429451889878724"><ele>81.0</ele><time>2026-04-18T12:29:12.999Z</time></trkpt><trkpt lat="43.7708476693748" lon="11.429241161910495"><ele>81.0</ele><time>2026-04-18T12:29:13.999Z</time></trkpt><trkpt lat="43.77090809185305" lon="11.429027041594837"><ele>81.0</ele><time>2026-04-18T12:29:14.999Z</time></trkpt><trkpt lat="43.77096676402971" lon="11.428811969594644"><ele>81.0</ele><time>2026-04-18T12:29:15.999Z</time></trkpt><trkpt lat="43.77101873023664" lon="11.428592311183126"><ele>81.33333333333333</ele><time>2026-04-18T12:29:16.999Z</time></trkpt><trkpt lat="43.77107429391241" lon="11.428372690657286"><ele>81.66666666666666</ele><time>2026-04-18T12:29:17.999Z</time></trkpt><trkpt lat="43.771127141277375" lon="11.428154324538683"><ele>82.0</ele><time>2026-04-18T12:29:18.999Z</time></trkpt><trkpt lat="43.77118092788686" lon="11.427933310037245"><ele>82.0</ele><time>2026-04-18T12:29:19.999Z</time></trkpt><trkpt lat="43.77123908584386" lon="11.427715727405502"><ele>82.0</ele><time>2026-04-18T12:29:20.999Z</time></trkpt><trkpt lat="43.77129343592269" lon="11.427496640301182"><ele>82.0</ele><time>2026-04-18T12:29:21.999Z</time></trkpt><trkpt lat="43.77134297522392" lon="11.427272975743602"><ele>81.66666666666666</ele><time>2026-04-18T12:29:22.999Z</time></trkpt><trkpt lat="43.771394707605474" lon="11.42705037996001"><ele>81.33333333333333</ele><time>2026-04-18T12:29:23.999Z</time></trkpt><trkpt lat="43.771456857530985" lon="11.426831253217971"><ele>81.0</ele><time>2026-04-18T12:29:24.999Z</time></trkpt><trkpt lat="43.77150208522069" lon="11.426626261781532"><ele>81.0</ele><time>2026-04-18T12:29:25.999Z</time></trkpt><trkpt lat="43.77154741911315" lon="11.426427456324067"><ele>81.0</ele><time>2026-04-18T12:29:26.999Z</time></trkpt><trkpt lat="43.77159510015405" lon="11.426207774930177"><ele>81.0</ele><time>2026-04-18T12:29:27.999Z</time></trkpt><trkpt lat="43.771641839390334" lon="11.425986161028757"><ele>81.0</ele><time>2026-04-18T12:29:28.999Z</time></trkpt><trkpt lat="43.77169119193157" lon="11.425757775457434"><ele>81.0</ele><time>2026-04-18T12:29:29.999Z</time></trkpt><trkpt lat="43.771743167770175" lon="11.425525151544992"><ele>81.0</ele><time>2026-04-18T12:29:30.999Z</time></trkpt><trkpt lat="43.771800441081695" lon="11.425285422144126"><ele>81.33333333333333</ele><time>2026-04-18T12:29:31.999Z</time></trkpt><trkpt lat="43.771859698244796" lon="11.425035623985512"><ele>81.66666666666666</ele><time>2026-04-18T12:29:32.999Z</time></trkpt><trkpt lat="43.77192118531589" lon="11.424782561511684"><ele>82.0</ele><time>2026-04-18T12:29:33.998Z</time></trkpt><trkpt lat="43.77198149839051" lon="11.424520689417566"><ele>82.0</ele><time>2026-04-18T12:29:34.998Z</time></trkpt><trkpt lat="43.77204500102278" lon="11.424260601254122"><ele>82.0</ele><time>2026-04-18T12:29:35.998Z</time></trkpt><trkpt lat="43.7721065113343" lon="11.423994728213872"><ele>82.0</ele><time>2026-04-18T12:29:36.998Z</time></trkpt><trkpt lat="43.77216758393317" lon="11.423731010472817"><ele>82.0</ele><time>2026-04-18T12:29:38Z</time></trkpt><trkpt lat="43.77222895235504" lon="11.423465891843671"><ele>82.0</ele><time>2026-04-18T12:29:39Z</time></trkpt><trkpt lat="43.772286683725824" lon="11.423202021414507"><ele>82.0</ele><time>2026-04-18T12:29:40Z</time></trkpt><trkpt lat="43.77234430285143" lon="11.422946929328551"><ele>81.66666666666666</ele><time>2026-04-18T12:29:41Z</time></trkpt><trkpt lat="43.77240232824926" lon="11.422695769573954"><ele>81.33333333333333</ele><time>2026-04-18T12:29:42Z</time></trkpt><trkpt lat="43.77245924198005" lon="11.422452983413997"><ele>81.0</ele><time>2026-04-18T12:29:43Z</time></trkpt><trkpt lat="43.77251197436338" lon="11.422208965298456"><ele>80.66666666666667</ele><time>2026-04-18T12:29:44Z</time></trkpt><trkpt lat="43.77256793183731" lon="11.421959880067599"><ele>80.33333333333334</ele><time>2026-04-18T12:29:45Z</time></trkpt><trkpt lat="43.772624971525744" lon="11.42171681848191"><ele>80.0</ele><time>2026-04-18T12:29:46Z</time></trkpt><trkpt lat="43.77268107873358" lon="11.421469667599863"><ele>80.33333333333334</ele><time>2026-04-18T12:29:47Z</time></trkpt><trkpt lat="43.772739215550374" lon="11.421239381706938"><ele>80.66666666666667</ele><time>2026-04-18T12:29:48Z</time></trkpt><trkpt lat="43.772799228300414" lon="11.421007869840585"><ele>81.0</ele><time>2026-04-18T12:29:49Z</time></trkpt><trkpt lat="43.77285111523545" lon="11.420785911678081"><ele>81.0</ele><time>2026-04-18T12:29:50Z</time></trkpt><trkpt lat="43.772896290456565" lon="11.42056104565415"><ele>81.0</ele><time>2026-04-18T12:29:51Z</time></trkpt><trkpt lat="43.77294420127747" lon="11.42032623721473"><ele>81.0</ele><time>2026-04-18T12:29:52Z</time></trkpt><trkpt lat="43.77300040533236" lon="11.420093455546711"><ele>81.0</ele><time>2026-04-18T12:29:53Z</time></trkpt><trkpt lat="43.77306232692901" lon="11.419850970452776"><ele>81.0</ele><time>2026-04-18T12:29:54Z</time></trkpt><trkpt lat="43.773115017350776" lon="11.419622304942504"><ele>81.0</ele><time>2026-04-18T12:29:55Z</time></trkpt><trkpt lat="43.77316300800876" lon="11.419424981926111"><ele>81.0</ele><time>2026-04-18T12:29:56Z</time></trkpt><trkpt lat="43.773204810271935" lon="11.41923611913987"><ele>81.0</ele><time>2026-04-18T12:29:57Z</time></trkpt><trkpt lat="43.77324499260292" lon="11.419046748397824"><ele>81.0</ele><time>2026-04-18T12:29:58Z</time></trkpt><trkpt lat="43.77328608010395" lon="11.418832759494391"><ele>81.0</ele><time>2026-04-18T12:29:59Z</time></trkpt><trkpt lat="43.773348328157304" lon="11.418620807273243"><ele>80.75</ele><time>2026-04-18T12:30:00Z</time></trkpt><trkpt lat="43.773393214108516" lon="11.418428791860041"><ele>80.5</ele><time>2026-04-18T12:30:01Z</time></trkpt><trkpt lat="43.773433213410954" lon="11.41825765435441"><ele>80.25</ele><time>2026-04-18T12:30:02Z</time></trkpt><trkpt lat="43.77345516915247" lon="11.41809474913412"><ele>80.0</ele><time>2026-04-18T12:30:03Z</time></trkpt><trkpt lat="43.773495148997156" lon="11.417956317956534"><ele>80.25</ele><time>2026-04-18T12:30:04Z</time></trkpt><trkpt lat="43.77353524456791" lon="11.417808205207244"><ele>80.5</ele><time>2026-04-18T12:30:05Z</time></trkpt><trkpt lat="43.77359418858072" lon="11.417648017526293"><ele>80.75</ele><time>2026-04-18T12:30:06Z</time></trkpt><trkpt lat="43.77367200355975" lon="11.417494832097814"><ele>81.0</ele><time>2026-04-18T12:30:07Z</time></trkpt><trkpt lat="43.77375822407062" lon="11.417359933653549"><ele>81.0</ele><time>2026-04-18T12:30:08Z</time></trkpt><trkpt lat="43.77383512518936" lon="11.417246789640137"><ele>81.0</ele><time>2026-04-18T12:30:09Z</time></trkpt><trkpt lat="43.773919737924956" lon="11.417144052757955"><ele>81.0</ele><time>2026-04-18T12:30:10Z</time></trkpt><trkpt lat="43.77400076632469" lon="11.417067594912854"><ele>81.0</ele><time>2026-04-18T12:30:11Z</time></trkpt><trkpt lat="43.77407755187725" lon="11.417026246276325"><ele>81.0</ele><time>2026-04-18T12:30:12Z</time></trkpt><trkpt lat="43.7741521694066" lon="11.417012775135587"><ele>81.0</ele><time>2026-04-18T12:30:13Z</time></trkpt><trkpt lat="43.774221648866934" lon="11.417013846869903"><ele>81.0</ele><time>2026-04-18T12:30:14Z</time></trkpt><trkpt lat="43.774308192003645" lon="11.417030327727158"><ele>81.0</ele><time>2026-04-18T12:30:15Z</time></trkpt><trkpt lat="43.774403736204356" lon="11.417040506650435"><ele>81.0</ele><time>2026-04-18T12:30:16Z</time></trkpt><trkpt lat="43.7745019480613" lon="11.417022380531762"><ele>81.0</ele><time>2026-04-18T12:30:17Z</time></trkpt><trkpt lat="43.774592107077254" lon="11.416948246139249"><ele>81.25</ele><time>2026-04-18T12:30:18Z</time></trkpt><trkpt lat="43.77466251970668" lon="11.416825436807697"><ele>81.5</ele><time>2026-04-18T12:30:19Z</time></trkpt><trkpt lat="43.774703937009285" lon="11.41667133450588"><ele>81.75</ele><time>2026-04-18T12:30:20Z</time></trkpt><trkpt lat="43.7747049256489" lon="11.416503805626162"><ele>82.0</ele><time>2026-04-18T12:30:21Z</time></trkpt><trkpt lat="43.774664362744886" lon="11.416343507901995"><ele>81.5</ele><time>2026-04-18T12:30:21.999Z</time></trkpt><trkpt lat="43.77459265740668" lon="11.416193199718936"><ele>81.0</ele><time>2026-04-18T12:30:22.999Z</time></trkpt><trkpt lat="43.774498967032876" lon="11.416038147081977"><ele>80.5</ele><time>2026-04-18T12:30:23.999Z</time></trkpt><trkpt lat="43.77441725112803" lon="11.415867690833387"><ele>80.0</ele><time>2026-04-18T12:30:24.999Z</time></trkpt><trkpt lat="43.77437262645308" lon="11.41568025290712"><ele>79.33333333333334</ele><time>2026-04-18T12:30:25.999Z</time></trkpt><trkpt lat="43.77434852390497" lon="11.415469955589739"><ele>78.66666666666667</ele><time>2026-04-18T12:30:26.999Z</time></trkpt><trkpt lat="43.77436140093815" lon="11.415237314685292"><ele>78.0</ele><time>2026-04-18T12:30:27.999Z</time></trkpt><trkpt lat="43.77433911893914" lon="11.414998162691234"><ele>78.0</ele><time>2026-04-18T12:30:28.999Z</time></trkpt><trkpt lat="43.77431646654527" lon="11.414754321205939"><ele>78.0</ele><time>2026-04-18T12:30:29.999Z</time></trkpt><trkpt lat="43.7742920481609" lon="11.41449604532802"><ele>78.0</ele><time>2026-04-18T12:30:30.999Z</time></trkpt><trkpt lat="43.77426709889042" lon="11.414232154244651"><ele>78.0</ele><time>2026-04-18T12:30:31.999Z</time></trkpt><trkpt lat="43.774242634809326" lon="11.413973948720182"><ele>78.0</ele><time>2026-04-18T12:30:32.999Z</time></trkpt><trkpt lat="43.77421750938571" lon="11.4137112005602"><ele>78.0</ele><time>2026-04-18T12:30:33.999Z</time></trkpt><trkpt lat="43.7741922006277" lon="11.413446535185996"><ele>78.0</ele><time>2026-04-18T12:30:34.999Z</time></trkpt><trkpt lat="43.7741642155489" lon="11.413184518387334"><ele>78.0</ele><time>2026-04-18T12:30:35.999Z</time></trkpt><trkpt lat="43.774163488617006" lon="11.412912380487473"><ele>78.0</ele><time>2026-04-18T12:30:36.999Z</time></trkpt><trkpt lat="43.77417590326515" lon="11.412645566523118"><ele>78.33333333333333</ele><time>2026-04-18T12:30:37.999Z</time></trkpt><trkpt lat="43.774199508605676" lon="11.41238119845101"><ele>78.66666666666666</ele><time>2026-04-18T12:30:38.999Z</time></trkpt><trkpt lat="43.77424298590945" lon="11.412122181326469"><ele>79.0</ele><time>2026-04-18T12:30:39.999Z</time></trkpt><trkpt lat="43.77430702281628" lon="11.411873247480885"><ele>79.66666666666666</ele><time>2026-04-18T12:30:40.999Z</time></trkpt><trkpt lat="43.77437863409198" lon="11.411655337705488"><ele>80.33333333333333</ele><time>2026-04-18T12:30:41.999Z</time></trkpt><trkpt lat="43.77446763767803" lon="11.411453739236308"><ele>81.0</ele><time>2026-04-18T12:30:42.999Z</time></trkpt><trkpt lat="43.774574196605236" lon="11.411265457884038"><ele>81.0</ele><time>2026-04-18T12:30:43.999Z</time></trkpt><trkpt lat="43.77471195248336" lon="11.411108099806876"><ele>81.0</ele><time>2026-04-18T12:30:44.999Z</time></trkpt><trkpt lat="43.77485072338897" lon="11.410946943451888"><ele>81.0</ele><time>2026-04-18T12:30:45.999Z</time></trkpt><trkpt lat="43.77499420657121" lon="11.410777396028054"><ele>81.0</ele><time>2026-04-18T12:30:46.999Z</time></trkpt><trkpt lat="43.775134967006444" lon="11.410603619493664"><ele>81.0</ele><time>2026-04-18T12:30:47.999Z</time></trkpt><trkpt lat="43.77527667381457" lon="11.410432005714226"><ele>81.0</ele><time>2026-04-18T12:30:48.999Z</time></trkpt><trkpt lat="43.775409999728204" lon="11.410242265015862"><ele>80.66666666666667</ele><time>2026-04-18T12:30:49.999Z</time></trkpt><trkpt lat="43.775542609431376" lon="11.410048884734417"><ele>80.33333333333334</ele><time>2026-04-18T12:30:50.999Z</time></trkpt><trkpt lat="43.77567394339058" lon="11.409853703934113"><ele>80.0</ele><time>2026-04-18T12:30:51.999Z</time></trkpt><trkpt lat="43.775802323025154" lon="11.409658844139996"><ele>80.33333333333334</ele><time>2026-04-18T12:30:52.999Z</time></trkpt><trkpt lat="43.77593066292638" lon="11.409459823722178"><ele>80.66666666666667</ele><time>2026-04-18T12:30:53.999Z</time></trkpt><trkpt lat="43.77605522895207" lon="11.40925374753773"><ele>81.0</ele><time>2026-04-18T12:30:54.999Z</time></trkpt><trkpt lat="43.776175479762195" lon="11.409049060024142"><ele>80.33333333333333</ele><time>2026-04-18T12:30:55.999Z</time></trkpt><trkpt lat="43.77629095417344" lon="11.40883548352497"><ele>79.66666666666666</ele><time>2026-04-18T12:30:56.999Z</time></trkpt><trkpt lat="43.77640345461307" lon="11.408617559936044"><ele>79.0</ele><time>2026-04-18T12:30:57.999Z</time></trkpt><trkpt lat="43.77651929683028" lon="11.408398788450715"><ele>79.0</ele><time>2026-04-18T12:30:58.999Z</time></trkpt><trkpt lat="43.7766339828741" lon="11.40818106394723"><ele>79.0</ele><time>2026-04-18T12:30:59.999Z</time></trkpt><trkpt lat="43.776746797098134" lon="11.407961954697354"><ele>79.0</ele><time>2026-04-18T12:31:00.999Z</time></trkpt><trkpt lat="43.77685681728902" lon="11.407748198911356"><ele>78.66666666666666</ele><time>2026-04-18T12:31:01.999Z</time></trkpt><trkpt lat="43.77696747590095" lon="11.407534690566647"><ele>78.33333333333333</ele><time>2026-04-18T12:31:02.999Z</time></trkpt><trkpt lat="43.77707792929529" lon="11.407323218413593"><ele>78.0</ele><time>2026-04-18T12:31:03.999Z</time></trkpt><trkpt lat="43.77718588110855" lon="11.407108313741798"><ele>77.33333333333333</ele><time>2026-04-18T12:31:04.999Z</time></trkpt><trkpt lat="43.7772930579362" lon="11.406893045965289"><ele>76.66666666666666</ele><time>2026-04-18T12:31:05.999Z</time></trkpt><trkpt lat="43.77739878071925" lon="11.406676478240575"><ele>76.0</ele><time>2026-04-18T12:31:06.999Z</time></trkpt><trkpt lat="43.77750685727112" lon="11.406463230156215"><ele>76.0</ele><time>2026-04-18T12:31:07.999Z</time></trkpt><trkpt lat="43.777616741906996" lon="11.40624987280641"><ele>76.0</ele><time>2026-04-18T12:31:08.999Z</time></trkpt><trkpt lat="43.77772461080271" lon="11.406038190901969"><ele>76.0</ele><time>2026-04-18T12:31:09.999Z</time></trkpt><trkpt lat="43.777831409800065" lon="11.40582910166431"><ele>76.0</ele><time>2026-04-18T12:31:10.999Z</time></trkpt><trkpt lat="43.77794095978166" lon="11.40562153864369"><ele>76.0</ele><time>2026-04-18T12:31:11.999Z</time></trkpt><trkpt lat="43.778049777269835" lon="11.405410412811841"><ele>76.0</ele><time>2026-04-18T12:31:12.999Z</time></trkpt><trkpt lat="43.778158796850505" lon="11.405197488282978"><ele>76.33333333333333</ele><time>2026-04-18T12:31:13.999Z</time></trkpt><trkpt lat="43.77826576193143" lon="11.404983674641036"><ele>76.66666666666667</ele><time>2026-04-18T12:31:14.999Z</time></trkpt><trkpt lat="43.778374076075984" lon="11.404768423696396"><ele>77.0</ele><time>2026-04-18T12:31:15.999Z</time></trkpt><trkpt lat="43.778480531122376" lon="11.4045552709077"><ele>76.66666666666667</ele><time>2026-04-18T12:31:16.999Z</time></trkpt><trkpt lat="43.77858190311442" lon="11.404343105364962"><ele>76.33333333333333</ele><time>2026-04-18T12:31:17.999Z</time></trkpt><trkpt lat="43.778678463368635" lon="11.404124966967398"><ele>76.0</ele><time>2026-04-18T12:31:18.999Z</time></trkpt><trkpt lat="43.77876280792864" lon="11.40390048108494"><ele>76.66666666666666</ele><time>2026-04-18T12:31:19.999Z</time></trkpt><trkpt lat="43.77883173389019" lon="11.403661408582854"><ele>77.33333333333333</ele><time>2026-04-18T12:31:20.999Z</time></trkpt><trkpt lat="43.77888891050352" lon="11.403407973426068"><ele>78.0</ele><time>2026-04-18T12:31:21.999Z</time></trkpt><trkpt lat="43.778941874980596" lon="11.403155965656799"><ele>78.33333333333333</ele><time>2026-04-18T12:31:22.999Z</time></trkpt><trkpt lat="43.77899993635255" lon="11.40290173349332"><ele>78.66666666666666</ele><time>2026-04-18T12:31:23.999Z</time></trkpt><trkpt lat="43.77907018103375" lon="11.402656210669333"><ele>79.0</ele><time>2026-04-18T12:31:24.999Z</time></trkpt><trkpt lat="43.77915284043685" lon="11.402421176053227"><ele>79.0</ele><time>2026-04-18T12:31:25.999Z</time></trkpt><trkpt lat="43.779252168156425" lon="11.402201631447412"><ele>79.0</ele><time>2026-04-18T12:31:26.999Z</time></trkpt><trkpt lat="43.77936744419901" lon="11.401993956417991"><ele>79.0</ele><time>2026-04-18T12:31:27.999Z</time></trkpt><trkpt lat="43.77949249775808" lon="11.401798822968965"><ele>79.66666666666666</ele><time>2026-04-18T12:31:28.999Z</time></trkpt><trkpt lat="43.779631964134865" lon="11.401621280741171"><ele>80.33333333333333</ele><time>2026-04-18T12:31:29.999Z</time></trkpt><trkpt lat="43.7797778261759" lon="11.401459159035966"><ele>81.0</ele><time>2026-04-18T12:31:30.999Z</time></trkpt><trkpt lat="43.77992353172387" lon="11.401303054816562"><ele>81.0</ele><time>2026-04-18T12:31:31.999Z</time></trkpt><trkpt lat="43.78006649368473" lon="11.401138809644591"><ele>81.0</ele><time>2026-04-18T12:31:32.999Z</time></trkpt><trkpt lat="43.78021618864644" lon="11.400974119962838"><ele>81.0</ele><time>2026-04-18T12:31:33.999Z</time></trkpt><trkpt lat="43.780360913569496" lon="11.400804422469717"><ele>81.66666666666667</ele><time>2026-04-18T12:31:34.999Z</time></trkpt><trkpt lat="43.78050757077326" lon="11.400627230585302"><ele>82.33333333333334</ele><time>2026-04-18T12:31:35.999Z</time></trkpt><trkpt lat="43.78066118089931" lon="11.40044977510503"><ele>83.0</ele><time>2026-04-18T12:31:36.999Z</time></trkpt><trkpt lat="43.780812790350495" lon="11.40027783221185"><ele>83.0</ele><time>2026-04-18T12:31:37.999Z</time></trkpt><trkpt lat="43.78096420677647" lon="11.400100935719689"><ele>83.0</ele><time>2026-04-18T12:31:38.999Z</time></trkpt><trkpt lat="43.78111299583875" lon="11.399926754052435"><ele>83.0</ele><time>2026-04-18T12:31:39.998Z</time></trkpt><trkpt lat="43.781261938615444" lon="11.39975508905498"><ele>80.66666666666667</ele><time>2026-04-18T12:31:40.998Z</time></trkpt><trkpt lat="43.78141448808806" lon="11.399585016348906"><ele>78.33333333333333</ele><time>2026-04-18T12:31:41.998Z</time></trkpt><trkpt lat="43.7815643431269" lon="11.399410279170489"><ele>76.0</ele><time>2026-04-18T12:31:42.998Z</time></trkpt><trkpt lat="43.781715185884224" lon="11.39923908552164"><ele>75.0</ele><time>2026-04-18T12:31:44Z</time></trkpt><trkpt lat="43.781865723035445" lon="11.399066930048127"><ele>74.0</ele><time>2026-04-18T12:31:45Z</time></trkpt><trkpt lat="43.78201648546025" lon="11.39889207206857"><ele>73.0</ele><time>2026-04-18T12:31:46Z</time></trkpt><trkpt lat="43.782159676504726" lon="11.398707950333495"><ele>73.0</ele><time>2026-04-18T12:31:47Z</time></trkpt><trkpt lat="43.78229499212618" lon="11.398512019164626"><ele>73.0</ele><time>2026-04-18T12:31:48Z</time></trkpt><trkpt lat="43.782419773752615" lon="11.398304573021784"><ele>73.0</ele><time>2026-04-18T12:31:49Z</time></trkpt><trkpt lat="43.78254028057806" lon="11.398093936416622"><ele>73.33333333333333</ele><time>2026-04-18T12:31:50Z</time></trkpt><trkpt lat="43.782655044754314" lon="11.397888316485634"><ele>73.66666666666667</ele><time>2026-04-18T12:31:51Z</time></trkpt><trkpt lat="43.78276239456588" lon="11.397677635913823"><ele>74.0</ele><time>2026-04-18T12:31:52Z</time></trkpt><trkpt lat="43.78285459464266" lon="11.397458945846646"><ele>75.0</ele><time>2026-04-18T12:31:53Z</time></trkpt><trkpt lat="43.78293503271693" lon="11.397230480878852"><ele>76.0</ele><time>2026-04-18T12:31:54Z</time></trkpt><trkpt lat="43.78300498597249" lon="11.397000896737582"><ele>77.0</ele><time>2026-04-18T12:31:55Z</time></trkpt><trkpt lat="43.7830703549958" lon="11.396762760115008"><ele>77.0</ele><time>2026-04-18T12:31:56Z</time></trkpt><trkpt lat="43.78312593247608" lon="11.396518856495645"><ele>77.0</ele><time>2026-04-18T12:31:57Z</time></trkpt><trkpt lat="43.78317427063709" lon="11.396276090912691"><ele>77.0</ele><time>2026-04-18T12:31:58Z</time></trkpt><trkpt lat="43.783224019304306" lon="11.396029570231864"><ele>77.66666666666667</ele><time>2026-04-18T12:31:59Z</time></trkpt><trkpt lat="43.78328166534173" lon="11.395788054738462"><ele>78.33333333333333</ele><time>2026-04-18T12:32:00Z</time></trkpt><trkpt lat="43.78335535257022" lon="11.395545567227307"><ele>79.0</ele><time>2026-04-18T12:32:01Z</time></trkpt><trkpt lat="43.783450949385376" lon="11.395313721633098"><ele>78.33333333333333</ele><time>2026-04-18T12:32:02Z</time></trkpt><trkpt lat="43.78356614329039" lon="11.395092129451161"><ele>77.66666666666667</ele><time>2026-04-18T12:32:03Z</time></trkpt><trkpt lat="43.783698612522684" lon="11.394886651446724"><ele>77.0</ele><time>2026-04-18T12:32:04Z</time></trkpt><trkpt lat="43.78383922159516" lon="11.394691348271502"><ele>79.66666666666667</ele><time>2026-04-18T12:32:05Z</time></trkpt><trkpt lat="43.78399300877898" lon="11.394517560185358"><ele>82.33333333333333</ele><time>2026-04-18T12:32:06Z</time></trkpt><trkpt lat="43.78415533527855" lon="11.394365629735704"><ele>85.0</ele><time>2026-04-18T12:32:07Z</time></trkpt><trkpt lat="43.78432000081599" lon="11.394220118291587"><ele>84.33333333333333</ele><time>2026-04-18T12:32:08Z</time></trkpt><trkpt lat="43.784479125154824" lon="11.394071809403039"><ele>83.66666666666667</ele><time>2026-04-18T12:32:09Z</time></trkpt><trkpt lat="43.78463321706113" lon="11.393912996413324"><ele>83.0</ele><time>2026-04-18T12:32:10Z</time></trkpt><trkpt lat="43.78478676306849" lon="11.393742686478566"><ele>84.0</ele><time>2026-04-18T12:32:11Z</time></trkpt><trkpt lat="43.78493826275594" lon="11.39355748761731"><ele>85.0</ele><time>2026-04-18T12:32:12Z</time></trkpt><trkpt lat="43.78508566497821" lon="11.39336460280461"><ele>86.0</ele><time>2026-04-18T12:32:13Z</time></trkpt><trkpt lat="43.78522971822579" lon="11.393159999807981"><ele>86.66666666666667</ele><time>2026-04-18T12:32:14Z</time></trkpt><trkpt lat="43.78536479877873" lon="11.392951804743367"><ele>87.33333333333333</ele><time>2026-04-18T12:32:15Z</time></trkpt><trkpt lat="43.78549263284773" lon="11.392733854649013"><ele>88.0</ele><time>2026-04-18T12:32:16Z</time></trkpt><trkpt lat="43.785610795540684" lon="11.392506191519544"><ele>88.0</ele><time>2026-04-18T12:32:17Z</time></trkpt><trkpt lat="43.78571674728248" lon="11.392271681178672"><ele>88.0</ele><time>2026-04-18T12:32:18Z</time></trkpt><trkpt lat="43.78581428036656" lon="11.392031140758515"><ele>88.0</ele><time>2026-04-18T12:32:19Z</time></trkpt><trkpt lat="43.78590160689989" lon="11.391782456269722"><ele>89.33333333333333</ele><time>2026-04-18T12:32:20Z</time></trkpt><trkpt lat="43.785982819039496" lon="11.391529979877548"><ele>90.66666666666667</ele><time>2026-04-18T12:32:21Z</time></trkpt><trkpt lat="43.786055345401124" lon="11.391272746910335"><ele>92.0</ele><time>2026-04-18T12:32:22Z</time></trkpt><trkpt lat="43.78613231295425" lon="11.391019033994086"><ele>88.66666666666667</ele><time>2026-04-18T12:32:23Z</time></trkpt><trkpt lat="43.78621330667272" lon="11.390767810114644"><ele>85.33333333333333</ele><time>2026-04-18T12:32:24Z</time></trkpt><trkpt lat="43.78629178619179" lon="11.390516409269859"><ele>82.0</ele><time>2026-04-18T12:32:25Z</time></trkpt><trkpt lat="43.78637083608311" lon="11.390270905119491"><ele>82.0</ele><time>2026-04-18T12:32:26Z</time></trkpt><trkpt lat="43.78644733996026" lon="11.390024799654821"><ele>82.0</ele><time>2026-04-18T12:32:27Z</time></trkpt><trkpt lat="43.78652167427364" lon="11.389783714342288"><ele>82.0</ele><time>2026-04-18T12:32:28Z</time></trkpt><trkpt lat="43.78659348449439" lon="11.389547111684637"><ele>83.66666666666666</ele><time>2026-04-18T12:32:29Z</time></trkpt><trkpt lat="43.78666680224679" lon="11.389310779515185"><ele>85.33333333333333</ele><time>2026-04-18T12:32:30Z</time></trkpt><trkpt lat="43.78674215720496" lon="11.389073567913174"><ele>87.0</ele><time>2026-04-18T12:32:31Z</time></trkpt><trkpt lat="43.786812669173976" lon="11.388840544685532"><ele>83.66666666666667</ele><time>2026-04-18T12:32:32Z</time></trkpt><trkpt lat="43.786868758471776" lon="11.38859739073743"><ele>80.33333333333334</ele><time>2026-04-18T12:32:33Z</time></trkpt><trkpt lat="43.78690767943646" lon="11.388353356100456"><ele>77.0</ele><time>2026-04-18T12:32:34Z</time></trkpt><trkpt lat="43.7869231651548" lon="11.388101878270296"><ele>77.33333333333334</ele><time>2026-04-18T12:32:34.999Z</time></trkpt><trkpt lat="43.78692351986969" lon="11.38784701308105"><ele>77.66666666666667</ele><time>2026-04-18T12:32:35.999Z</time></trkpt><trkpt lat="43.78690595185425" lon="11.387577183665782"><ele>78.0</ele><time>2026-04-18T12:32:36.999Z</time></trkpt><trkpt lat="43.78687861416179" lon="11.387310165515542"><ele>78.0</ele><time>2026-04-18T12:32:37.999Z</time></trkpt><trkpt lat="43.78685981725737" lon="11.387047507197128"><ele>78.0</ele><time>2026-04-18T12:32:38.999Z</time></trkpt><trkpt lat="43.78684406241201" lon="11.386789938217051"><ele>78.0</ele><time>2026-04-18T12:32:39.999Z</time></trkpt><trkpt lat="43.786820513963896" lon="11.386535203963412"><ele>78.33333333333333</ele><time>2026-04-18T12:32:40.999Z</time></trkpt><trkpt lat="43.78680224554005" lon="11.386283625989776"><ele>78.66666666666666</ele><time>2026-04-18T12:32:41.999Z</time></trkpt><trkpt lat="43.78679074103734" lon="11.386033265800533"><ele>79.0</ele><time>2026-04-18T12:32:42.999Z</time></trkpt><trkpt lat="43.78677038623027" lon="11.38578689729251"><ele>79.0</ele><time>2026-04-18T12:32:43.999Z</time></trkpt><trkpt lat="43.78675136721615" lon="11.385544049723467"><ele>79.0</ele><time>2026-04-18T12:32:44.999Z</time></trkpt><trkpt lat="43.78673299165095" lon="11.385304952099194"><ele>79.0</ele><time>2026-04-18T12:32:45.999Z</time></trkpt><trkpt lat="43.78670515247654" lon="11.385066155847278"><ele>78.66666666666666</ele><time>2026-04-18T12:32:46.999Z</time></trkpt><trkpt lat="43.786679178317264" lon="11.384820211824731"><ele>78.33333333333333</ele><time>2026-04-18T12:32:47.999Z</time></trkpt><trkpt lat="43.7866189079268" lon="11.384585241564823"><ele>78.0</ele><time>2026-04-18T12:32:48.999Z</time></trkpt><trkpt lat="43.78654872125078" lon="11.384356200730197"><ele>77.33333333333333</ele><time>2026-04-18T12:32:49.999Z</time></trkpt><trkpt lat="43.78645055460823" lon="11.384143380899573"><ele>76.66666666666666</ele><time>2026-04-18T12:32:50.999Z</time></trkpt><trkpt lat="43.78636849956375" lon="11.383920165027677"><ele>76.0</ele><time>2026-04-18T12:32:51.999Z</time></trkpt><trkpt lat="43.786260086745635" lon="11.383720954008286"><ele>76.33333333333333</ele><time>2026-04-18T12:32:52.999Z</time></trkpt><trkpt lat="43.78614692300962" lon="11.383524968055193"><ele>76.66666666666667</ele><time>2026-04-18T12:32:53.999Z</time></trkpt><trkpt lat="43.786028129452596" lon="11.38333533623245"><ele>77.0</ele><time>2026-04-18T12:32:54.999Z</time></trkpt><trkpt lat="43.78590232847764" lon="11.383151171490763"><ele>75.0</ele><time>2026-04-18T12:32:55.999Z</time></trkpt><trkpt lat="43.78575712850712" lon="11.38298746275547"><ele>73.0</ele><time>2026-04-18T12:32:56.999Z</time></trkpt><trkpt lat="43.78560808643651" lon="11.382827536762852"><ele>71.0</ele><time>2026-04-18T12:32:57.999Z</time></trkpt><trkpt lat="43.7854467162732" lon="11.382694302605858"><ele>71.0</ele><time>2026-04-18T12:32:58.999Z</time></trkpt><trkpt lat="43.785277793843036" lon="11.382578641375616"><ele>71.0</ele><time>2026-04-18T12:32:59.999Z</time></trkpt><trkpt lat="43.785110671469276" lon="11.382463225377553"><ele>71.0</ele><time>2026-04-18T12:33:00.999Z</time></trkpt><trkpt lat="43.784955352895686" lon="11.38232480476242"><ele>71.0</ele><time>2026-04-18T12:33:01.999Z</time></trkpt><trkpt lat="43.78481750627709" lon="11.382163086757512"><ele>71.0</ele><time>2026-04-18T12:33:02.999Z</time></trkpt><trkpt lat="43.78469480627329" lon="11.381984994418758"><ele>71.0</ele><time>2026-04-18T12:33:03.999Z</time></trkpt><trkpt lat="43.78460499680867" lon="11.381778149249415"><ele>71.0</ele><time>2026-04-18T12:33:04.999Z</time></trkpt><trkpt lat="43.7844958458387" lon="11.381587420971472"><ele>71.0</ele><time>2026-04-18T12:33:05.999Z</time></trkpt><trkpt lat="43.78440342899792" lon="11.38137030319363"><ele>71.0</ele><time>2026-04-18T12:33:06.999Z</time></trkpt><trkpt lat="43.78431112114315" lon="11.381157639061046"><ele>73.66666666666667</ele><time>2026-04-18T12:33:07.999Z</time></trkpt><trkpt lat="43.78421028984938" lon="11.380942788551922"><ele>76.33333333333333</ele><time>2026-04-18T12:33:08.999Z</time></trkpt><trkpt lat="43.78410198204303" lon="11.380701274278849"><ele>79.0</ele><time>2026-04-18T12:33:09.999Z</time></trkpt><trkpt lat="43.784014593701166" lon="11.380479622068128"><ele>79.0</ele><time>2026-04-18T12:33:10.999Z</time></trkpt><trkpt lat="43.78393605017325" lon="11.380240485158996"><ele>79.0</ele><time>2026-04-18T12:33:11.999Z</time></trkpt><trkpt lat="43.7838639982714" lon="11.379984951467351"><ele>79.0</ele><time>2026-04-18T12:33:12.999Z</time></trkpt><trkpt lat="43.7837936033387" lon="11.379713795215897"><ele>77.66666666666666</ele><time>2026-04-18T12:33:13.999Z</time></trkpt><trkpt lat="43.78371375699629" lon="11.379439669381433"><ele>76.33333333333333</ele><time>2026-04-18T12:33:14.999Z</time></trkpt><trkpt lat="43.78364988589279" lon="11.379173943442106"><ele>75.0</ele><time>2026-04-18T12:33:15.999Z</time></trkpt><trkpt lat="43.78360421054406" lon="11.378908804476426"><ele>73.66666666666667</ele><time>2026-04-18T12:33:16.999Z</time></trkpt><trkpt lat="43.78355400642351" lon="11.378649111008832"><ele>72.33333333333334</ele><time>2026-04-18T12:33:17.999Z</time></trkpt><trkpt lat="43.78348762567063" lon="11.378397227396631"><ele>71.0</ele><time>2026-04-18T12:33:18.999Z</time></trkpt><trkpt lat="43.78341407023925" lon="11.37814647865859"><ele>78.0</ele><time>2026-04-18T12:33:19.999Z</time></trkpt><trkpt lat="43.78333876303756" lon="11.377896642892724"><ele>85.0</ele><time>2026-04-18T12:33:20.999Z</time></trkpt><trkpt lat="43.78327168683216" lon="11.377645541187139"><ele>92.0</ele><time>2026-04-18T12:33:21.999Z</time></trkpt><trkpt lat="43.783203283763584" lon="11.377393973536968"><ele>89.33333333333334</ele><time>2026-04-18T12:33:22.999Z</time></trkpt><trkpt lat="43.78312941978413" lon="11.377143591566556"><ele>86.66666666666667</ele><time>2026-04-18T12:33:23.999Z</time></trkpt><trkpt lat="43.783060162585606" lon="11.376900757007625"><ele>84.0</ele><time>2026-04-18T12:33:24.999Z</time></trkpt><trkpt lat="43.782986791320425" lon="11.37665773019692"><ele>84.0</ele><time>2026-04-18T12:33:25.999Z</time></trkpt><trkpt lat="43.78291783915241" lon="11.376416605304538"><ele>84.0</ele><time>2026-04-18T12:33:26.999Z</time></trkpt><trkpt lat="43.782854331286366" lon="11.376173292093064"><ele>84.0</ele><time>2026-04-18T12:33:27.999Z</time></trkpt><trkpt lat="43.78279614526263" lon="11.375932418457618"><ele>81.0</ele><time>2026-04-18T12:33:28.999Z</time></trkpt><trkpt lat="43.78274927962318" lon="11.375686745469046"><ele>78.0</ele><time>2026-04-18T12:33:29.999Z</time></trkpt><trkpt lat="43.78271682651641" lon="11.375444605547532"><ele>75.0</ele><time>2026-04-18T12:33:30.999Z</time></trkpt><trkpt lat="43.782693982196314" lon="11.375198062179082"><ele>76.66666666666667</ele><time>2026-04-18T12:33:31.999Z</time></trkpt><trkpt lat="43.782662463803305" lon="11.374951963296498"><ele>78.33333333333334</ele><time>2026-04-18T12:33:32.999Z</time></trkpt><trkpt lat="43.78263874465887" lon="11.37470480958207"><ele>80.0</ele><time>2026-04-18T12:33:33.999Z</time></trkpt><trkpt lat="43.782625059739026" lon="11.374454799498308"><ele>80.0</ele><time>2026-04-18T12:33:34.999Z</time></trkpt><trkpt lat="43.782613701443715" lon="11.374202352357665"><ele>80.0</ele><time>2026-04-18T12:33:35.999Z</time></trkpt><trkpt lat="43.782605913168005" lon="11.373946839250923"><ele>80.0</ele><time>2026-04-18T12:33:36.999Z</time></trkpt><trkpt lat="43.782597384108506" lon="11.373690699731592"><ele>79.66666666666667</ele><time>2026-04-18T12:33:37.999Z</time></trkpt><trkpt lat="43.78258868693556" lon="11.373432768883568"><ele>79.33333333333333</ele><time>2026-04-18T12:33:38.999Z</time></trkpt><trkpt lat="43.78258182253505" lon="11.373173836995523"><ele>79.0</ele><time>2026-04-18T12:33:39.999Z</time></trkpt><trkpt lat="43.78257539499697" lon="11.37291956659549"><ele>78.66666666666666</ele><time>2026-04-18T12:33:40.999Z</time></trkpt><trkpt lat="43.782570389205034" lon="11.372664111708977"><ele>78.33333333333333</ele><time>2026-04-18T12:33:41.999Z</time></trkpt><trkpt lat="43.78256451801011" lon="11.372408662874118"><ele>78.0</ele><time>2026-04-18T12:33:42.999Z</time></trkpt><trkpt lat="43.78256306160912" lon="11.372168494123555"><ele>78.0</ele><time>2026-04-18T12:33:43.999Z</time></trkpt><trkpt lat="43.7825708761608" lon="11.37191799012418"><ele>78.0</ele><time>2026-04-18T12:33:44.999Z</time></trkpt><trkpt lat="43.78258000077476" lon="11.371660117461792"><ele>78.0</ele><time>2026-04-18T12:33:45.999Z</time></trkpt><trkpt lat="43.78260198635267" lon="11.371408939189386"><ele>78.66666666666667</ele><time>2026-04-18T12:33:46.999Z</time></trkpt><trkpt lat="43.78263115403334" lon="11.371160648514048"><ele>79.33333333333334</ele><time>2026-04-18T12:33:47.999Z</time></trkpt><trkpt lat="43.78265168751592" lon="11.370943670789078"><ele>80.0</ele><time>2026-04-18T12:33:48.999Z</time></trkpt><trkpt lat="43.78266640331758" lon="11.370768574545668"><ele>76.5</ele><time>2026-04-18T12:33:50Z</time></trkpt><trkpt lat="43.78268679515638" lon="11.370563191280064"><ele>73.0</ele><time>2026-04-18T12:33:51Z</time></trkpt><trkpt lat="43.78270325371469" lon="11.370365576387586"><ele>69.5</ele><time>2026-04-18T12:33:52Z</time></trkpt><trkpt lat="43.78272093844856" lon="11.370164541588696"><ele>66.0</ele><time>2026-04-18T12:33:53Z</time></trkpt><trkpt lat="43.78274702102354" lon="11.369953494767064"><ele>66.0</ele><time>2026-04-18T12:33:54Z</time></trkpt><trkpt lat="43.78276800245937" lon="11.36972909700497"><ele>66.0</ele><time>2026-04-18T12:33:55Z</time></trkpt><trkpt lat="43.78278996419987" lon="11.36950058110008"><ele>66.0</ele><time>2026-04-18T12:33:56Z</time></trkpt><trkpt lat="43.78281316094121" lon="11.369270526185288"><ele>66.66666666666667</ele><time>2026-04-18T12:33:57Z</time></trkpt><trkpt lat="43.78283655972402" lon="11.369032651024098"><ele>67.33333333333334</ele><time>2026-04-18T12:33:58Z</time></trkpt><trkpt lat="43.78285906967223" lon="11.36879037277232"><ele>68.0</ele><time>2026-04-18T12:33:59Z</time></trkpt><trkpt lat="43.78288105987055" lon="11.368555853211564"><ele>68.25</ele><time>2026-04-18T12:34:00Z</time></trkpt><trkpt lat="43.78289958649184" lon="11.36833488579766"><ele>68.5</ele><time>2026-04-18T12:34:01Z</time></trkpt><trkpt lat="43.78291444999418" lon="11.36813678882852"><ele>68.75</ele><time>2026-04-18T12:34:02Z</time></trkpt><trkpt lat="43.7829119428774" lon="11.367945738357305"><ele>69.0</ele><time>2026-04-18T12:34:03Z</time></trkpt><trkpt lat="43.782913468341235" lon="11.367766495352761"><ele>69.0</ele><time>2026-04-18T12:34:04Z</time></trkpt><trkpt lat="43.78289978980434" lon="11.367562547077553"><ele>69.0</ele><time>2026-04-18T12:34:05Z</time></trkpt><trkpt lat="43.78287093613914" lon="11.367356044053729"><ele>69.0</ele><time>2026-04-18T12:34:06Z</time></trkpt><trkpt lat="43.782831165924634" lon="11.36714967102308"><ele>68.66666666666667</ele><time>2026-04-18T12:34:07Z</time></trkpt><trkpt lat="43.78278285297689" lon="11.366941976700536"><ele>68.33333333333334</ele><time>2026-04-18T12:34:08Z</time></trkpt><trkpt lat="43.782722160974856" lon="11.366734779222128"><ele>68.0</ele><time>2026-04-18T12:34:09Z</time></trkpt><trkpt lat="43.78264727794206" lon="11.366534506185776"><ele>70.0</ele><time>2026-04-18T12:34:10Z</time></trkpt><trkpt lat="43.78257027341887" lon="11.366341406464482"><ele>72.0</ele><time>2026-04-18T12:34:11Z</time></trkpt><trkpt lat="43.78247669904439" lon="11.366159895294118"><ele>74.0</ele><time>2026-04-18T12:34:12Z</time></trkpt><trkpt lat="43.78236789202652" lon="11.365992092997192"><ele>74.0</ele><time>2026-04-18T12:34:13Z</time></trkpt><trkpt lat="43.78225079324883" lon="11.365835836014936"><ele>74.0</ele><time>2026-04-18T12:34:14Z</time></trkpt><trkpt lat="43.78212943426392" lon="11.365688172563578"><ele>74.0</ele><time>2026-04-18T12:34:15Z</time></trkpt><trkpt lat="43.782002766642876" lon="11.365548539786898"><ele>74.0</ele><time>2026-04-18T12:34:16Z</time></trkpt><trkpt lat="43.78186841926744" lon="11.365421513679765"><ele>74.0</ele><time>2026-04-18T12:34:17Z</time></trkpt><trkpt lat="43.78173532937597" lon="11.365294736078674"><ele>74.0</ele><time>2026-04-18T12:34:18Z</time></trkpt><trkpt lat="43.78160118243216" lon="11.365168628137944"><ele>75.66666666666667</ele><time>2026-04-18T12:34:19Z</time></trkpt><trkpt lat="43.781462772319806" lon="11.365044984652041"><ele>77.33333333333333</ele><time>2026-04-18T12:34:20Z</time></trkpt><trkpt lat="43.78132050747951" lon="11.364924236851307"><ele>79.0</ele><time>2026-04-18T12:34:21Z</time></trkpt><trkpt lat="43.78116743581018" lon="11.36481369482879"><ele>79.0</ele><time>2026-04-18T12:34:22Z</time></trkpt><trkpt lat="43.7810078380324" lon="11.364707789389739"><ele>79.0</ele><time>2026-04-18T12:34:23Z</time></trkpt><trkpt lat="43.78084767663489" lon="11.364601156985335"><ele>79.0</ele><time>2026-04-18T12:34:24Z</time></trkpt><trkpt lat="43.780681005465674" lon="11.364513287494484"><ele>79.0</ele><time>2026-04-18T12:34:25Z</time></trkpt><trkpt lat="43.78051132432201" lon="11.364437435388556"><ele>79.0</ele><time>2026-04-18T12:34:26Z</time></trkpt><trkpt lat="43.780341048830316" lon="11.364366581452652"><ele>79.0</ele><time>2026-04-18T12:34:27Z</time></trkpt><trkpt lat="43.78017269181106" lon="11.36430293157233"><ele>80.0</ele><time>2026-04-18T12:34:28Z</time></trkpt><trkpt lat="43.78000762036417" lon="11.364238831923883"><ele>81.0</ele><time>2026-04-18T12:34:29Z</time></trkpt><trkpt lat="43.77984486113637" lon="11.364171683835346"><ele>82.0</ele><time>2026-04-18T12:34:30Z</time></trkpt><trkpt lat="43.77968036932301" lon="11.364105954787776"><ele>82.0</ele><time>2026-04-18T12:34:31Z</time></trkpt><trkpt lat="43.77951456727322" lon="11.364037792470269"><ele>82.0</ele><time>2026-04-18T12:34:32Z</time></trkpt><trkpt lat="43.779347363171404" lon="11.363970414324873"><ele>82.0</ele><time>2026-04-18T12:34:33Z</time></trkpt><trkpt lat="43.77918012828216" lon="11.363908695882255"><ele>79.66666666666666</ele><time>2026-04-18T12:34:34Z</time></trkpt><trkpt lat="43.7790093885379" lon="11.363855334508939"><ele>77.33333333333333</ele><time>2026-04-18T12:34:35Z</time></trkpt><trkpt lat="43.778835134329654" lon="11.363824697340567"><ele>75.0</ele><time>2026-04-18T12:34:36Z</time></trkpt><trkpt lat="43.7786588300296" lon="11.36380022456699"><ele>74.33333333333333</ele><time>2026-04-18T12:34:37Z</time></trkpt><trkpt lat="43.77847854535446" lon="11.363797320595557"><ele>73.66666666666666</ele><time>2026-04-18T12:34:38Z</time></trkpt><trkpt lat="43.778298663136475" lon="11.363807182979034"><ele>73.0</ele><time>2026-04-18T12:34:38.999Z</time></trkpt><trkpt lat="43.77812271790934" lon="11.363815857667674"><ele>73.0</ele><time>2026-04-18T12:34:39.999Z</time></trkpt><trkpt lat="43.77795108506479" lon="11.363827879956254"><ele>73.0</ele><time>2026-04-18T12:34:40.999Z</time></trkpt><trkpt lat="43.77778056629109" lon="11.363835192454399"><ele>73.0</ele><time>2026-04-18T12:34:41.999Z</time></trkpt><trkpt lat="43.77760647892451" lon="11.363828497435899"><ele>72.0</ele><time>2026-04-18T12:34:42.999Z</time></trkpt><trkpt lat="43.77743622736732" lon="11.363805248314256"><ele>71.0</ele><time>2026-04-18T12:34:43.999Z</time></trkpt><trkpt lat="43.77726665050994" lon="11.36376786412277"><ele>70.0</ele><time>2026-04-18T12:34:44.999Z</time></trkpt><trkpt lat="43.777102623441515" lon="11.363701238796997"><ele>70.0</ele><time>2026-04-18T12:34:45.999Z</time></trkpt><trkpt lat="43.77693741057682" lon="11.36364006856024"><ele>70.0</ele><time>2026-04-18T12:34:46.999Z</time></trkpt><trkpt lat="43.776775066734395" lon="11.363552159996837"><ele>70.0</ele><time>2026-04-18T12:34:47.999Z</time></trkpt><trkpt lat="43.77661654948109" lon="11.363465573139468"><ele>69.75</ele><time>2026-04-18T12:34:48.999Z</time></trkpt><trkpt lat="43.77646801783807" lon="11.363396452320558"><ele>69.5</ele><time>2026-04-18T12:34:49.999Z</time></trkpt><trkpt lat="43.77633463471031" lon="11.363313420010485"><ele>69.25</ele><time>2026-04-18T12:34:50.999Z</time></trkpt><trkpt lat="43.7762059713496" lon="11.363245494454851"><ele>69.0</ele><time>2026-04-18T12:34:51.999Z</time></trkpt><trkpt lat="43.77608482361652" lon="11.363182519687776"><ele>69.0</ele><time>2026-04-18T12:34:52.999Z</time></trkpt><trkpt lat="43.775968541628615" lon="11.363124302038981"><ele>69.0</ele><time>2026-04-18T12:34:53.999Z</time></trkpt><trkpt lat="43.77585851921404" lon="11.363073725126956"><ele>69.0</ele><time>2026-04-18T12:34:54.999Z</time></trkpt><trkpt lat="43.77575101624054" lon="11.363031320677809"><ele>69.0</ele><time>2026-04-18T12:34:55.999Z</time></trkpt><trkpt lat="43.77565396646804" lon="11.363016715961532"><ele>69.0</ele><time>2026-04-18T12:34:56.999Z</time></trkpt><trkpt lat="43.775581961925795" lon="11.36297216798348"><ele>68.60000000000001</ele><time>2026-04-18T12:34:57.999Z</time></trkpt><trkpt lat="43.77548536436975" lon="11.362966344624827"><ele>68.2</ele><time>2026-04-18T12:34:59.999Z</time></trkpt><trkpt lat="43.77542301719659" lon="11.362948850393977"><ele>67.80000000000001</ele><time>2026-04-18T12:35:09.999Z</time></trkpt><trkpt lat="43.77530480846609" lon="11.362911693848606"><ele>67.4</ele><time>2026-04-18T12:35:11.999Z</time></trkpt><trkpt lat="43.77520314633815" lon="11.36287663078895"><ele>67.0</ele><time>2026-04-18T12:35:12.999Z</time></trkpt><trkpt lat="43.775096610245605" lon="11.362845154622393"><ele>66.75</ele><time>2026-04-18T12:35:13.999Z</time></trkpt><trkpt lat="43.774972894869286" lon="11.362806821722135"><ele>66.5</ele><time>2026-04-18T12:35:14.999Z</time></trkpt><trkpt lat="43.774831753353595" lon="11.362774844774634"><ele>66.25</ele><time>2026-04-18T12:35:15.999Z</time></trkpt><trkpt lat="43.77468230180518" lon="11.362734347123078"><ele>66.0</ele><time>2026-04-18T12:35:16.999Z</time></trkpt><trkpt lat="43.77453944837636" lon="11.362681548035807"><ele>66.0</ele><time>2026-04-18T12:35:17.999Z</time></trkpt><trkpt lat="43.77438780862492" lon="11.362638460150599"><ele>66.0</ele><time>2026-04-18T12:35:18.999Z</time></trkpt><trkpt lat="43.774223099846495" lon="11.362608153458236"><ele>66.0</ele><time>2026-04-18T12:35:19.999Z</time></trkpt><trkpt lat="43.77405982442142" lon="11.362552376641728"><ele>66.0</ele><time>2026-04-18T12:35:20.999Z</time></trkpt><trkpt lat="43.773910416244995" lon="11.362512846354207"><ele>66.0</ele><time>2026-04-18T12:35:21.999Z</time></trkpt><trkpt lat="43.773773358887475" lon="11.36247658384736"><ele>66.0</ele><time>2026-04-18T12:35:22.999Z</time></trkpt><trkpt lat="43.77363606539766" lon="11.362439947348333"><ele>66.0</ele><time>2026-04-18T12:35:23.999Z</time></trkpt><trkpt lat="43.773510146519016" lon="11.362405982385946"><ele>66.6</ele><time>2026-04-18T12:35:24.999Z</time></trkpt><trkpt lat="43.77339093838379" lon="11.362392794886949"><ele>67.19999999999999</ele><time>2026-04-18T12:35:25.999Z</time></trkpt><trkpt lat="43.773282318665395" lon="11.362360758111187"><ele>67.80000000000001</ele><time>2026-04-18T12:35:26.999Z</time></trkpt><trkpt lat="43.77318664541572" lon="11.362318965952143"><ele>68.4</ele><time>2026-04-18T12:35:27.999Z</time></trkpt><trkpt lat="43.77308938024127" lon="11.36230208936612"><ele>69.0</ele><time>2026-04-18T12:35:28.999Z</time></trkpt><trkpt lat="43.77300073513409" lon="11.362290903529574"><ele>69.0</ele><time>2026-04-18T12:35:29.999Z</time></trkpt><trkpt lat="43.772917215208544" lon="11.3622650852237"><ele>69.0</ele><time>2026-04-18T12:35:30.999Z</time></trkpt><trkpt lat="43.772840786991395" lon="11.362239435561674"><ele>69.0</ele><time>2026-04-18T12:35:31.999Z</time></trkpt><trkpt lat="43.77276151578845" lon="11.362215105994096"><ele>69.0</ele><time>2026-04-18T12:35:32.999Z</time></trkpt><trkpt lat="43.77266954166477" lon="11.362179824260785"><ele>69.0</ele><time>2026-04-18T12:35:33.999Z</time></trkpt><trkpt lat="43.7725601266512" lon="11.362135578011586"><ele>68.75</ele><time>2026-04-18T12:35:34.999Z</time></trkpt><trkpt lat="43.77244095325541" lon="11.362080963796219"><ele>68.5</ele><time>2026-04-18T12:35:35.999Z</time></trkpt><trkpt lat="43.772321988266036" lon="11.361974591959466"><ele>68.25</ele><time>2026-04-18T12:35:36.999Z</time></trkpt><trkpt lat="43.7722244145897" lon="11.361830756379852"><ele>68.0</ele><time>2026-04-18T12:35:37.999Z</time></trkpt><trkpt lat="43.7721729040197" lon="11.361639552291"><ele>68.0</ele><time>2026-04-18T12:35:38.999Z</time></trkpt><trkpt lat="43.772136767388595" lon="11.36143167898239"><ele>68.0</ele><time>2026-04-18T12:35:39.999Z</time></trkpt><trkpt lat="43.77207231768154" lon="11.361223574848893"><ele>68.0</ele><time>2026-04-18T12:35:40.999Z</time></trkpt><trkpt lat="43.77201703154821" lon="11.361044148747753"><ele>68.2</ele><time>2026-04-18T12:35:41.999Z</time></trkpt><trkpt lat="43.77195878075922" lon="11.360891705252664"><ele>68.4</ele><time>2026-04-18T12:35:42.999Z</time></trkpt><trkpt lat="43.77192307578297" lon="11.360768427572488"><ele>68.60000000000001</ele><time>2026-04-18T12:35:43.999Z</time></trkpt><trkpt lat="43.77189648970056" lon="11.360678165428869"><ele>68.8</ele><time>2026-04-18T12:35:44.999Z</time></trkpt><trkpt lat="43.7718502295646" lon="11.36056630556597"><ele>69.0</ele><time>2026-04-18T12:35:46.999Z</time></trkpt><trkpt lat="43.77180937011399" lon="11.360417727993191"><ele>69.0</ele><time>2026-04-18T12:35:48.999Z</time></trkpt><trkpt lat="43.77179449766351" lon="11.360324339230273"><ele>69.0</ele><time>2026-04-18T12:35:49.999Z</time></trkpt><trkpt lat="43.771785007231436" lon="11.360233005576683"><ele>69.0</ele><time>2026-04-18T12:35:50.999Z</time></trkpt><trkpt lat="43.77177463196171" lon="11.36013994588343"><ele>69.0</ele><time>2026-04-18T12:35:51.999Z</time></trkpt><trkpt lat="43.7717668917035" lon="11.360040632898368"><ele>69.0</ele><time>2026-04-18T12:35:52.999Z</time></trkpt><trkpt lat="43.77175692563878" lon="11.35993094145673"><ele>69.0</ele><time>2026-04-18T12:35:53.999Z</time></trkpt><trkpt lat="43.77174690726578" lon="11.35981308469025"><ele>69.0</ele><time>2026-04-18T12:35:54.999Z</time></trkpt><trkpt lat="43.77173851501836" lon="11.359691192957248"><ele>69.0</ele><time>2026-04-18T12:35:56Z</time></trkpt><trkpt lat="43.771726249717034" lon="11.359562103143421"><ele>69.0</ele><time>2026-04-18T12:35:57Z</time></trkpt><trkpt lat="43.77172579510307" lon="11.359426450592117"><ele>69.0</ele><time>2026-04-18T12:35:58Z</time></trkpt><trkpt lat="43.77170881562528" lon="11.359259920236143"><ele>69.0</ele><time>2026-04-18T12:35:59Z</time></trkpt><trkpt lat="43.77168288451159" lon="11.359058743808799"><ele>68.75</ele><time>2026-04-18T12:36:00Z</time></trkpt><trkpt lat="43.77166656381444" lon="11.358827650678993"><ele>68.5</ele><time>2026-04-18T12:36:01Z</time></trkpt><trkpt lat="43.77164383696571" lon="11.358633511290721"><ele>68.25</ele><time>2026-04-18T12:36:02Z</time></trkpt><trkpt lat="43.77161674914256" lon="11.35846151149395"><ele>68.0</ele><time>2026-04-18T12:36:03Z</time></trkpt><trkpt lat="43.77159773561226" lon="11.358288647408637"><ele>68.0</ele><time>2026-04-18T12:36:04Z</time></trkpt><trkpt lat="43.77157358169979" lon="11.358091824704312"><ele>68.0</ele><time>2026-04-18T12:36:05Z</time></trkpt><trkpt lat="43.77154887786617" lon="11.357888255576931"><ele>68.0</ele><time>2026-04-18T12:36:06Z</time></trkpt><trkpt lat="43.771533153665" lon="11.357678207153619"><ele>68.0</ele><time>2026-04-18T12:36:07Z</time></trkpt><trkpt lat="43.771534056108784" lon="11.357459121264728"><ele>68.0</ele><time>2026-04-18T12:36:08Z</time></trkpt><trkpt lat="43.771558847489786" lon="11.357222179020535"><ele>68.0</ele><time>2026-04-18T12:36:09Z</time></trkpt><trkpt lat="43.771594995508856" lon="11.356970111118082"><ele>68.0</ele><time>2026-04-18T12:36:10Z</time></trkpt><trkpt lat="43.77162939538069" lon="11.356710788533485"><ele>67.66666666666667</ele><time>2026-04-18T12:36:11Z</time></trkpt><trkpt lat="43.77165080667192" lon="11.356463368777028"><ele>67.33333333333333</ele><time>2026-04-18T12:36:12Z</time></trkpt><trkpt lat="43.77165874401839" lon="11.356221418624337"><ele>67.0</ele><time>2026-04-18T12:36:13Z</time></trkpt><trkpt lat="43.77164912767152" lon="11.355990654365137"><ele>66.66666666666666</ele><time>2026-04-18T12:36:14Z</time></trkpt><trkpt lat="43.77162631494018" lon="11.355755485526236"><ele>66.33333333333333</ele><time>2026-04-18T12:36:15Z</time></trkpt><trkpt lat="43.77159216129993" lon="11.355521220787294"><ele>66.0</ele><time>2026-04-18T12:36:16Z</time></trkpt><trkpt lat="43.771551826867544" lon="11.355287702424345"><ele>66.0</ele><time>2026-04-18T12:36:17Z</time></trkpt><trkpt lat="43.77151453299661" lon="11.355050671063397"><ele>66.0</ele><time>2026-04-18T12:36:18Z</time></trkpt><trkpt lat="43.77147818917346" lon="11.354814534843042"><ele>66.0</ele><time>2026-04-18T12:36:19Z</time></trkpt><trkpt lat="43.771437494589726" lon="11.354586483282397"><ele>65.0</ele><time>2026-04-18T12:36:20Z</time></trkpt><trkpt lat="43.77139078368739" lon="11.354353390403151"><ele>64.0</ele><time>2026-04-18T12:36:21Z</time></trkpt><trkpt lat="43.771339154443666" lon="11.354131408536242"><ele>63.0</ele><time>2026-04-18T12:36:22Z</time></trkpt><trkpt lat="43.77127926288415" lon="11.353912382323998"><ele>63.33333333333333</ele><time>2026-04-18T12:36:23Z</time></trkpt><trkpt lat="43.77121669448565" lon="11.353688872548213"><ele>63.666666666666664</ele><time>2026-04-18T12:36:24Z</time></trkpt><trkpt lat="43.771151483335444" lon="11.353463056748822"><ele>64.0</ele><time>2026-04-18T12:36:25Z</time></trkpt><trkpt lat="43.77107555585343" lon="11.35322884698423"><ele>66.0</ele><time>2026-04-18T12:36:26Z</time></trkpt><trkpt lat="43.77099937617969" lon="11.35299355470726"><ele>68.0</ele><time>2026-04-18T12:36:27Z</time></trkpt><trkpt lat="43.77092252841797" lon="11.352757039235554"><ele>70.0</ele><time>2026-04-18T12:36:28Z</time></trkpt><trkpt lat="43.770846056824546" lon="11.352520411606097"><ele>70.0</ele><time>2026-04-18T12:36:29Z</time></trkpt><trkpt lat="43.77077066337722" lon="11.352287253640093"><ele>70.0</ele><time>2026-04-18T12:36:30Z</time></trkpt><trkpt lat="43.77068531909392" lon="11.352057384728843"><ele>70.0</ele><time>2026-04-18T12:36:31Z</time></trkpt><trkpt lat="43.7705937234384" lon="11.351826998082306"><ele>68.33333333333333</ele><time>2026-04-18T12:36:32Z</time></trkpt><trkpt lat="43.77050100396055" lon="11.351607484570565"><ele>66.66666666666667</ele><time>2026-04-18T12:36:33Z</time></trkpt><trkpt lat="43.77040938326248" lon="11.351384406412079"><ele>65.0</ele><time>2026-04-18T12:36:34Z</time></trkpt><trkpt lat="43.770318236206656" lon="11.35115937695282"><ele>65.0</ele><time>2026-04-18T12:36:35Z</time></trkpt><trkpt lat="43.77022668568055" lon="11.35094181693343"><ele>65.0</ele><time>2026-04-18T12:36:36Z</time></trkpt><trkpt lat="43.770139400435525" lon="11.350722796787807"><ele>65.0</ele><time>2026-04-18T12:36:37Z</time></trkpt><trkpt lat="43.770048231809476" lon="11.35050739693706"><ele>65.0</ele><time>2026-04-18T12:36:38Z</time></trkpt><trkpt lat="43.769956515457736" lon="11.350292694443972"><ele>65.0</ele><time>2026-04-18T12:36:39Z</time></trkpt><trkpt lat="43.769866308511794" lon="11.35008478607633"><ele>65.0</ele><time>2026-04-18T12:36:40Z</time></trkpt><trkpt lat="43.76978264237295" lon="11.349880150348003"><ele>64.33333333333334</ele><time>2026-04-18T12:36:41Z</time></trkpt><trkpt lat="43.76969559837789" lon="11.349672871231537"><ele>63.66666666666667</ele><time>2026-04-18T12:36:42Z</time></trkpt><trkpt lat="43.7696087879282" lon="11.34946450151282"><ele>63.0</ele><time>2026-04-18T12:36:43Z</time></trkpt><trkpt lat="43.769525238936126" lon="11.349250457166775"><ele>63.0</ele><time>2026-04-18T12:36:44Z</time></trkpt><trkpt lat="43.76943750901043" lon="11.349037462738353"><ele>63.0</ele><time>2026-04-18T12:36:45Z</time></trkpt><trkpt lat="43.76935102905384" lon="11.348826208416796"><ele>63.0</ele><time>2026-04-18T12:36:46Z</time></trkpt><trkpt lat="43.76926076061963" lon="11.348611806382696"><ele>63.66666666666667</ele><time>2026-04-18T12:36:47Z</time></trkpt><trkpt lat="43.76917231359636" lon="11.348398400429726"><ele>64.33333333333334</ele><time>2026-04-18T12:36:47.999Z</time></trkpt><trkpt lat="43.76907987696224" lon="11.3481823507483"><ele>65.0</ele><time>2026-04-18T12:36:48.999Z</time></trkpt><trkpt lat="43.7689913921453" lon="11.347968316751388"><ele>65.0</ele><time>2026-04-18T12:36:49.999Z</time></trkpt><trkpt lat="43.768905752998734" lon="11.347750646164341"><ele>65.0</ele><time>2026-04-18T12:36:50.999Z</time></trkpt><trkpt lat="43.76881538385452" lon="11.347532436115934"><ele>65.0</ele><time>2026-04-18T12:36:51.999Z</time></trkpt><trkpt lat="43.76872567042626" lon="11.347315062243904"><ele>64.66666666666667</ele><time>2026-04-18T12:36:52.999Z</time></trkpt><trkpt lat="43.76863455082371" lon="11.347097372938919"><ele>64.33333333333333</ele><time>2026-04-18T12:36:53.999Z</time></trkpt><trkpt lat="43.76854686377828" lon="11.346878091534757"><ele>64.0</ele><time>2026-04-18T12:36:54.999Z</time></trkpt><trkpt lat="43.768457939127465" lon="11.346660236089654"><ele>64.66666666666666</ele><time>2026-04-18T12:36:55.999Z</time></trkpt><trkpt lat="43.76836844286276" lon="11.346438491393245"><ele>65.33333333333333</ele><time>2026-04-18T12:36:56.999Z</time></trkpt><trkpt lat="43.76827419019141" lon="11.346216947932907"><ele>66.0</ele><time>2026-04-18T12:36:57.999Z</time></trkpt><trkpt lat="43.76818235704271" lon="11.345992920445097"><ele>66.0</ele><time>2026-04-18T12:36:58.999Z</time></trkpt><trkpt lat="43.76808408154418" lon="11.345771531807882"><ele>66.0</ele><time>2026-04-18T12:36:59.999Z</time></trkpt><trkpt lat="43.76798097214759" lon="11.345557011286125"><ele>66.0</ele><time>2026-04-18T12:37:00.999Z</time></trkpt><trkpt lat="43.767866688217495" lon="11.345356878630588"><ele>66.66666666666667</ele><time>2026-04-18T12:37:01.999Z</time></trkpt><trkpt lat="43.76774795526198" lon="11.34518090827733"><ele>67.33333333333334</ele><time>2026-04-18T12:37:02.999Z</time></trkpt><trkpt lat="43.76762432791392" lon="11.345014221983469"><ele>68.0</ele><time>2026-04-18T12:37:03.999Z</time></trkpt><trkpt lat="43.76749916557745" lon="11.344845474210842"><ele>66.33333333333334</ele><time>2026-04-18T12:37:04.999Z</time></trkpt><trkpt lat="43.767369698717765" lon="11.344670324354386"><ele>64.66666666666667</ele><time>2026-04-18T12:37:05.999Z</time></trkpt><trkpt lat="43.767252480957076" lon="11.34448397860555"><ele>63.0</ele><time>2026-04-18T12:37:06.999Z</time></trkpt><trkpt lat="43.76712661770755" lon="11.344310385331294"><ele>63.0</ele><time>2026-04-18T12:37:07.999Z</time></trkpt><trkpt lat="43.76699928891553" lon="11.344136156044936"><ele>63.0</ele><time>2026-04-18T12:37:08.999Z</time></trkpt><trkpt lat="43.766874319546076" lon="11.343965155262627"><ele>63.0</ele><time>2026-04-18T12:37:09.999Z</time></trkpt><trkpt lat="43.76674952522373" lon="11.343794393970944"><ele>64.0</ele><time>2026-04-18T12:37:10.999Z</time></trkpt><trkpt lat="43.76662903175252" lon="11.343629517747832"><ele>65.0</ele><time>2026-04-18T12:37:11.999Z</time></trkpt><trkpt lat="43.76650608047969" lon="11.343490271539585"><ele>66.0</ele><time>2026-04-18T12:37:12.999Z</time></trkpt><trkpt lat="43.766398104496844" lon="11.343333583476609"><ele>66.0</ele><time>2026-04-18T12:37:13.999Z</time></trkpt><trkpt lat="43.76628922165107" lon="11.343180701491848"><ele>66.0</ele><time>2026-04-18T12:37:14.999Z</time></trkpt><trkpt lat="43.766180134978555" lon="11.34303807206348"><ele>66.0</ele><time>2026-04-18T12:37:15.999Z</time></trkpt><trkpt lat="43.766071370992485" lon="11.342895806122112"><ele>67.33333333333333</ele><time>2026-04-18T12:37:16.999Z</time></trkpt><trkpt lat="43.765957583068676" lon="11.342746271821055"><ele>68.66666666666666</ele><time>2026-04-18T12:37:17.999Z</time></trkpt><trkpt lat="43.7658491288154" lon="11.342586521522623"><ele>70.0</ele><time>2026-04-18T12:37:18.999Z</time></trkpt><trkpt lat="43.76573919173998" lon="11.342417268595373"><ele>70.0</ele><time>2026-04-18T12:37:19.999Z</time></trkpt><trkpt lat="43.76564313945686" lon="11.342222461282324"><ele>70.0</ele><time>2026-04-18T12:37:20.999Z</time></trkpt><trkpt lat="43.765551938552086" lon="11.342019769102663"><ele>70.0</ele><time>2026-04-18T12:37:21.999Z</time></trkpt><trkpt lat="43.765464072700034" lon="11.341813911905797"><ele>70.66666666666666</ele><time>2026-04-18T12:37:22.999Z</time></trkpt><trkpt lat="43.765373728381604" lon="11.34160224810763"><ele>71.33333333333333</ele><time>2026-04-18T12:37:23.999Z</time></trkpt><trkpt lat="43.76527424981196" lon="11.341381620835474"><ele>72.0</ele><time>2026-04-18T12:37:24.999Z</time></trkpt><trkpt lat="43.765169129783914" lon="11.341165727186267"><ele>72.0</ele><time>2026-04-18T12:37:25.999Z</time></trkpt><trkpt lat="43.76505736512013" lon="11.340979581482545"><ele>72.0</ele><time>2026-04-18T12:37:26.999Z</time></trkpt><trkpt lat="43.764963035363294" lon="11.340797755511781"><ele>72.0</ele><time>2026-04-18T12:37:27.999Z</time></trkpt><trkpt lat="43.76486044553619" lon="11.340631113827293"><ele>69.75</ele><time>2026-04-18T12:37:28.999Z</time></trkpt><trkpt lat="43.76478787494984" lon="11.340450165153824"><ele>67.5</ele><time>2026-04-18T12:37:29.999Z</time></trkpt><trkpt lat="43.76469143777698" lon="11.340281365050043"><ele>65.25</ele><time>2026-04-18T12:37:30.999Z</time></trkpt><trkpt lat="43.764642451473975" lon="11.340120809237872"><ele>63.0</ele><time>2026-04-18T12:37:31.999Z</time></trkpt><trkpt lat="43.76457585834931" lon="11.33998264210886"><ele>63.0</ele><time>2026-04-18T12:37:32.999Z</time></trkpt><trkpt lat="43.76451521116567" lon="11.339814950817356"><ele>63.0</ele><time>2026-04-18T12:37:33.999Z</time></trkpt><trkpt lat="43.76445429908986" lon="11.339654491920099"><ele>63.0</ele><time>2026-04-18T12:37:34.999Z</time></trkpt><trkpt lat="43.764391092321745" lon="11.33948074409008"><ele>63.0</ele><time>2026-04-18T12:37:35.999Z</time></trkpt><trkpt lat="43.764339775104844" lon="11.339299926753432"><ele>64.66666666666667</ele><time>2026-04-18T12:37:36.999Z</time></trkpt><trkpt lat="43.764277322559224" lon="11.339115204051883"><ele>66.33333333333334</ele><time>2026-04-18T12:37:37.999Z</time></trkpt><trkpt lat="43.76420925024549" lon="11.338925581499156"><ele>68.0</ele><time>2026-04-18T12:37:38.999Z</time></trkpt><trkpt lat="43.7641411301938" lon="11.338721744863609"><ele>68.0</ele><time>2026-04-18T12:37:39.999Z</time></trkpt><trkpt lat="43.76407349159631" lon="11.33850734862798"><ele>68.0</ele><time>2026-04-18T12:37:40.999Z</time></trkpt><trkpt lat="43.76400336149737" lon="11.338288061334339"><ele>68.0</ele><time>2026-04-18T12:37:41.999Z</time></trkpt><trkpt lat="43.76392994216514" lon="11.33806576391353"><ele>68.0</ele><time>2026-04-18T12:37:42.999Z</time></trkpt><trkpt lat="43.7638508001552" lon="11.337844785401826"><ele>68.0</ele><time>2026-04-18T12:37:43.999Z</time></trkpt><trkpt lat="43.76379685413844" lon="11.337628903942345"><ele>68.0</ele><time>2026-04-18T12:37:44.999Z</time></trkpt><trkpt lat="43.76373292547581" lon="11.337429079655948"><ele>68.0</ele><time>2026-04-18T12:37:45.999Z</time></trkpt><trkpt lat="43.763668678629145" lon="11.337230395975357"><ele>68.0</ele><time>2026-04-18T12:37:46.999Z</time></trkpt><trkpt lat="43.76360597408834" lon="11.337040911518212"><ele>68.0</ele><time>2026-04-18T12:37:47.999Z</time></trkpt><trkpt lat="43.76354060744229" lon="11.33685168274493"><ele>69.66666666666667</ele><time>2026-04-18T12:37:48.999Z</time></trkpt><trkpt lat="43.7634550917267" lon="11.336672139598186"><ele>71.33333333333333</ele><time>2026-04-18T12:37:49.999Z</time></trkpt><trkpt lat="43.76337674707726" lon="11.336478762948827"><ele>73.0</ele><time>2026-04-18T12:37:50.999Z</time></trkpt><trkpt lat="43.763298882894716" lon="11.336302511119985"><ele>73.0</ele><time>2026-04-18T12:37:51.999Z</time></trkpt><trkpt lat="43.763222621206495" lon="11.336149449157299"><ele>73.0</ele><time>2026-04-18T12:37:52.999Z</time></trkpt><trkpt lat="43.76314931221485" lon="11.336011886510866"><ele>73.0</ele><time>2026-04-18T12:37:53.999Z</time></trkpt><trkpt lat="43.763074819716515" lon="11.335879036781643"><ele>73.0</ele><time>2026-04-18T12:37:54.999Z</time></trkpt><trkpt lat="43.763003383518345" lon="11.335749191056717"><ele>73.0</ele><time>2026-04-18T12:37:55.999Z</time></trkpt><trkpt lat="43.76293745422056" lon="11.335627564564586"><ele>73.0</ele><time>2026-04-18T12:37:56.999Z</time></trkpt><trkpt lat="43.76286328451604" lon="11.335499169285066"><ele>73.0</ele><time>2026-04-18T12:37:57.999Z</time></trkpt><trkpt lat="43.762791328038496" lon="11.33538346189013"><ele>73.0</ele><time>2026-04-18T12:37:58.999Z</time></trkpt><trkpt lat="43.76271843103128" lon="11.335265925612847"><ele>73.0</ele><time>2026-04-18T12:37:59.999Z</time></trkpt><trkpt lat="43.762664710918536" lon="11.33518155028707"><ele>73.0</ele><time>2026-04-18T12:38:02Z</time></trkpt><trkpt lat="43.76257529335862" lon="11.335038566816628"><ele>73.0</ele><time>2026-04-18T12:38:32Z</time></trkpt><trkpt lat="43.76252132022494" lon="11.334946474958466"><ele>73.0</ele><time>2026-04-18T12:38:33Z</time></trkpt><trkpt lat="43.762430208522254" lon="11.334817758346937"><ele>73.0</ele><time>2026-04-18T12:38:34Z</time></trkpt><trkpt lat="43.76233101188645" lon="11.334667271172535"><ele>72.5</ele><time>2026-04-18T12:38:35Z</time></trkpt><trkpt lat="43.76224383285619" lon="11.334532510528744"><ele>72.0</ele><time>2026-04-18T12:38:36Z</time></trkpt><trkpt lat="43.762149043467" lon="11.334380371409225"><ele>71.5</ele><time>2026-04-18T12:38:37Z</time></trkpt><trkpt lat="43.762040760861034" lon="11.334208681323833"><ele>71.0</ele><time>2026-04-18T12:38:38Z</time></trkpt><trkpt lat="43.761934780518956" lon="11.334036842127544"><ele>71.0</ele><time>2026-04-18T12:38:39Z</time></trkpt><trkpt lat="43.76182516664847" lon="11.33384553795304"><ele>71.0</ele><time>2026-04-18T12:38:40Z</time></trkpt><trkpt lat="43.76171284872071" lon="11.3336365597831"><ele>71.0</ele><time>2026-04-18T12:38:41Z</time></trkpt><trkpt lat="43.761608113911024" lon="11.33342179969356"><ele>71.0</ele><time>2026-04-18T12:38:42Z</time></trkpt><trkpt lat="43.76151578803705" lon="11.33318841350605"><ele>71.0</ele><time>2026-04-18T12:38:43Z</time></trkpt><trkpt lat="43.761435811160815" lon="11.332939014042939"><ele>71.0</ele><time>2026-04-18T12:38:44Z</time></trkpt><trkpt lat="43.76135852155086" lon="11.33267629473057"><ele>70.66666666666667</ele><time>2026-04-18T12:38:45Z</time></trkpt><trkpt lat="43.761279921165254" lon="11.332408078092843"><ele>70.33333333333333</ele><time>2026-04-18T12:38:46Z</time></trkpt><trkpt lat="43.76120373876241" lon="11.332140659548605"><ele>70.0</ele><time>2026-04-18T12:38:47Z</time></trkpt><trkpt lat="43.761124905862076" lon="11.331874329788322"><ele>70.0</ele><time>2026-04-18T12:38:48Z</time></trkpt><trkpt lat="43.76104823667418" lon="11.331612065908118"><ele>70.0</ele><time>2026-04-18T12:38:49Z</time></trkpt><trkpt lat="43.76097536930075" lon="11.331354185340018"><ele>70.0</ele><time>2026-04-18T12:38:50Z</time></trkpt><trkpt lat="43.760903175975635" lon="11.331099744610887"><ele>70.0</ele><time>2026-04-18T12:38:51Z</time></trkpt><trkpt lat="43.76082965560172" lon="11.330851035998128"><ele>70.0</ele><time>2026-04-18T12:38:52Z</time></trkpt><trkpt lat="43.76075579280902" lon="11.330602277812957"><ele>70.0</ele><time>2026-04-18T12:38:53Z</time></trkpt><trkpt lat="43.760682691663035" lon="11.330355509325113"><ele>70.0</ele><time>2026-04-18T12:38:54Z</time></trkpt><trkpt lat="43.76060165390978" lon="11.330109159543154"><ele>70.0</ele><time>2026-04-18T12:38:54.999Z</time></trkpt><trkpt lat="43.760514850463785" lon="11.329874072437265"><ele>70.0</ele><time>2026-04-18T12:38:55.999Z</time></trkpt><trkpt lat="43.76041830377824" lon="11.32964776080357"><ele>70.0</ele><time>2026-04-18T12:38:56.999Z</time></trkpt><trkpt lat="43.76030301282044" lon="11.32943823893056"><ele>70.0</ele><time>2026-04-18T12:38:57.999Z</time></trkpt><trkpt lat="43.760177397963204" lon="11.329235304541589"><ele>70.0</ele><time>2026-04-18T12:38:58.999Z</time></trkpt><trkpt lat="43.76004302882413" lon="11.329042361779917"><ele>70.0</ele><time>2026-04-18T12:38:59.999Z</time></trkpt><trkpt lat="43.759898348985836" lon="11.328864417884677"><ele>70.0</ele><time>2026-04-18T12:39:00.999Z</time></trkpt><trkpt lat="43.75975342993058" lon="11.32870313870487"><ele>70.0</ele><time>2026-04-18T12:39:01.999Z</time></trkpt><trkpt lat="43.75960644450243" lon="11.328562288267465"><ele>70.0</ele><time>2026-04-18T12:39:02.999Z</time></trkpt><trkpt lat="43.75945687993081" lon="11.328437327592557"><ele>70.0</ele><time>2026-04-18T12:39:03.999Z</time></trkpt><trkpt lat="43.75930604055454" lon="11.328331629455164"><ele>70.0</ele><time>2026-04-18T12:39:04.999Z</time></trkpt><trkpt lat="43.75915638297816" lon="11.328245141136193"><ele>69.66666666666666</ele><time>2026-04-18T12:39:05.999Z</time></trkpt><trkpt lat="43.75899780607091" lon="11.328171748679614"><ele>69.33333333333333</ele><time>2026-04-18T12:39:06.999Z</time></trkpt><trkpt lat="43.75883458011041" lon="11.328103148909468"><ele>69.0</ele><time>2026-04-18T12:39:07.999Z</time></trkpt><trkpt lat="43.758677260613425" lon="11.32800581793457"><ele>70.33333333333333</ele><time>2026-04-18T12:39:08.999Z</time></trkpt><trkpt lat="43.75851405585131" lon="11.327923340481377"><ele>71.66666666666666</ele><time>2026-04-18T12:39:09.999Z</time></trkpt><trkpt lat="43.75835046220597" lon="11.327839624760097"><ele>73.0</ele><time>2026-04-18T12:39:10.999Z</time></trkpt><trkpt lat="43.75818464078374" lon="11.327757316501888"><ele>73.0</ele><time>2026-04-18T12:39:11.999Z</time></trkpt><trkpt lat="43.75801055785646" lon="11.327695984032475"><ele>73.0</ele><time>2026-04-18T12:39:12.999Z</time></trkpt><trkpt lat="43.757841144425974" lon="11.327593646879679"><ele>73.0</ele><time>2026-04-18T12:39:13.999Z</time></trkpt><trkpt lat="43.75766559238715" lon="11.327493552811477"><ele>73.33333333333333</ele><time>2026-04-18T12:39:14.999Z</time></trkpt><trkpt lat="43.75748521976356" lon="11.327397602885519"><ele>73.66666666666667</ele><time>2026-04-18T12:39:15.999Z</time></trkpt><trkpt lat="43.75730174500773" lon="11.327309030436444"><ele>74.0</ele><time>2026-04-18T12:39:16.999Z</time></trkpt><trkpt lat="43.75712566851717" lon="11.327223762433757"><ele>73.33333333333334</ele><time>2026-04-18T12:39:17.999Z</time></trkpt><trkpt lat="43.75696932736645" lon="11.327133348486997"><ele>72.66666666666667</ele><time>2026-04-18T12:39:18.999Z</time></trkpt><trkpt lat="43.75683703654978" lon="11.327009754875931"><ele>72.0</ele><time>2026-04-18T12:39:19.999Z</time></trkpt><trkpt lat="43.756741125531285" lon="11.326851712437973"><ele>72.0</ele><time>2026-04-18T12:39:20.999Z</time></trkpt><trkpt lat="43.75667332153167" lon="11.32665764413973"><ele>72.0</ele><time>2026-04-18T12:39:21.999Z</time></trkpt><trkpt lat="43.75663093558533" lon="11.326435531197829"><ele>72.0</ele><time>2026-04-18T12:39:22.999Z</time></trkpt><trkpt lat="43.75661623825319" lon="11.326195202110288"><ele>71.0</ele><time>2026-04-18T12:39:23.999Z</time></trkpt><trkpt lat="43.7566117909141" lon="11.325955657862522"><ele>70.0</ele><time>2026-04-18T12:39:24.999Z</time></trkpt><trkpt lat="43.75657417774101" lon="11.325742272478484"><ele>69.0</ele><time>2026-04-18T12:39:25.999Z</time></trkpt><trkpt lat="43.75649838281833" lon="11.325541107328942"><ele>68.33333333333333</ele><time>2026-04-18T12:39:26.999Z</time></trkpt><trkpt lat="43.756405095316964" lon="11.325352029136694"><ele>67.66666666666666</ele><time>2026-04-18T12:39:27.999Z</time></trkpt><trkpt lat="43.756326845271275" lon="11.325167046664998"><ele>67.0</ele><time>2026-04-18T12:39:28.999Z</time></trkpt><trkpt lat="43.756279486502" lon="11.324980337807336"><ele>67.0</ele><time>2026-04-18T12:39:29.999Z</time></trkpt><trkpt lat="43.75625552681162" lon="11.324780208490544"><ele>67.0</ele><time>2026-04-18T12:39:30.999Z</time></trkpt><trkpt lat="43.75625972718669" lon="11.324560697238253"><ele>67.0</ele><time>2026-04-18T12:39:31.999Z</time></trkpt><trkpt lat="43.75631425140824" lon="11.324332809761193"><ele>67.0</ele><time>2026-04-18T12:39:32.999Z</time></trkpt><trkpt lat="43.75634038893363" lon="11.32408494384921"><ele>67.0</ele><time>2026-04-18T12:39:33.999Z</time></trkpt><trkpt lat="43.75639584506995" lon="11.323835360892778"><ele>67.0</ele><time>2026-04-18T12:39:34.999Z</time></trkpt><trkpt lat="43.75644283616404" lon="11.323591803979927"><ele>66.66666666666666</ele><time>2026-04-18T12:39:35.999Z</time></trkpt><trkpt lat="43.75647938314722" lon="11.323339802126068"><ele>66.33333333333333</ele><time>2026-04-18T12:39:36.999Z</time></trkpt><trkpt lat="43.75650933705216" lon="11.32308359745117"><ele>66.0</ele><time>2026-04-18T12:39:37.999Z</time></trkpt><trkpt lat="43.75653837711877" lon="11.322828185499759"><ele>65.33333333333333</ele><time>2026-04-18T12:39:38.999Z</time></trkpt><trkpt lat="43.756561432053914" lon="11.322570243027606"><ele>64.66666666666666</ele><time>2026-04-18T12:39:39.999Z</time></trkpt><trkpt lat="43.756573625601916" lon="11.32230923309048"><ele>64.0</ele><time>2026-04-18T12:39:40.999Z</time></trkpt><trkpt lat="43.75657737563947" lon="11.32204593987553"><ele>63.666666666666664</ele><time>2026-04-18T12:39:41.999Z</time></trkpt><trkpt lat="43.756572256757266" lon="11.321780857556114"><ele>63.33333333333333</ele><time>2026-04-18T12:39:42.999Z</time></trkpt><trkpt lat="43.75656265654993" lon="11.321515152181071"><ele>63.0</ele><time>2026-04-18T12:39:43.999Z</time></trkpt><trkpt lat="43.75654613818363" lon="11.32124887206997"><ele>62.66666666666667</ele><time>2026-04-18T12:39:44.999Z</time></trkpt><trkpt lat="43.75652053399626" lon="11.320983500500281"><ele>62.333333333333336</ele><time>2026-04-18T12:39:45.999Z</time></trkpt><trkpt lat="43.75648864182619" lon="11.320720784121573"><ele>62.0</ele><time>2026-04-18T12:39:46.999Z</time></trkpt><trkpt lat="43.756447613654" lon="11.320461642226054"><ele>62.0</ele><time>2026-04-18T12:39:47.999Z</time></trkpt><trkpt lat="43.75640506268859" lon="11.32020456447474"><ele>62.0</ele><time>2026-04-18T12:39:48.999Z</time></trkpt><trkpt lat="43.75636740806098" lon="11.319948694973196"><ele>62.0</ele><time>2026-04-18T12:39:49.999Z</time></trkpt><trkpt lat="43.75632704717939" lon="11.319689820860756"><ele>62.0</ele><time>2026-04-18T12:39:50.999Z</time></trkpt><trkpt lat="43.756285489241776" lon="11.319432431257669"><ele>62.0</ele><time>2026-04-18T12:39:51.999Z</time></trkpt><trkpt lat="43.75624631259694" lon="11.319173027517994"><ele>62.0</ele><time>2026-04-18T12:39:52.999Z</time></trkpt><trkpt lat="43.75620743332334" lon="11.31891454517365"><ele>62.333333333333336</ele><time>2026-04-18T12:39:53.999Z</time></trkpt><trkpt lat="43.756167136285605" lon="11.31866975025799"><ele>62.66666666666667</ele><time>2026-04-18T12:39:54.999Z</time></trkpt><trkpt lat="43.7561289603928" lon="11.318438203792171"><ele>63.0</ele><time>2026-04-18T12:39:55.999Z</time></trkpt><trkpt lat="43.75609536917425" lon="11.31822420855446"><ele>63.0</ele><time>2026-04-18T12:39:56.999Z</time></trkpt><trkpt lat="43.75606702304227" lon="11.318029699711852"><ele>63.0</ele><time>2026-04-18T12:39:57.999Z</time></trkpt><trkpt lat="43.756050843129515" lon="11.317870964836265"><ele>63.0</ele><time>2026-04-18T12:39:58.999Z</time></trkpt><trkpt lat="43.75607061822852" lon="11.317719676652828"><ele>63.0</ele><time>2026-04-18T12:39:59.999Z</time></trkpt><trkpt lat="43.75614710062211" lon="11.317558627939412"><ele>63.0</ele><time>2026-04-18T12:40:00.999Z</time></trkpt><trkpt lat="43.756157823673306" lon="11.317406186409551"><ele>63.0</ele><time>2026-04-18T12:40:01.999Z</time></trkpt><trkpt lat="43.75615221540198" lon="11.317292663935147"><ele>63.0</ele><time>2026-04-18T12:40:02.999Z</time></trkpt><trkpt lat="43.75610368061493" lon="11.317182090534619"><ele>63.0</ele><time>2026-04-18T12:40:03.999Z</time></trkpt><trkpt lat="43.75602578883938" lon="11.317065323703636"><ele>63.0</ele><time>2026-04-18T12:40:04.999Z</time></trkpt><trkpt lat="43.75594175448483" lon="11.316925550449506"><ele>62.66666666666667</ele><time>2026-04-18T12:40:05.999Z</time></trkpt><trkpt lat="43.75588189206029" lon="11.31674372264702"><ele>62.333333333333336</ele><time>2026-04-18T12:40:06.999Z</time></trkpt><trkpt lat="43.7558423266156" lon="11.316533202376734"><ele>62.0</ele><time>2026-04-18T12:40:08Z</time></trkpt><trkpt lat="43.75579030398386" lon="11.316329156649731"><ele>62.0</ele><time>2026-04-18T12:40:09Z</time></trkpt><trkpt lat="43.755763806803316" lon="11.316121626309886"><ele>62.0</ele><time>2026-04-18T12:40:10Z</time></trkpt><trkpt lat="43.75572915060017" lon="11.315911913606254"><ele>62.0</ele><time>2026-04-18T12:40:11Z</time></trkpt><trkpt lat="43.755695005320426" lon="11.315701400039092"><ele>61.66666666666667</ele><time>2026-04-18T12:40:12Z</time></trkpt><trkpt lat="43.755659662864616" lon="11.315475467386987"><ele>61.33333333333333</ele><time>2026-04-18T12:40:13Z</time></trkpt><trkpt lat="43.75562510137607" lon="11.315241266600694"><ele>61.0</ele><time>2026-04-18T12:40:14Z</time></trkpt><trkpt lat="43.755587814640286" lon="11.315004118678454"><ele>61.0</ele><time>2026-04-18T12:40:15Z</time></trkpt><trkpt lat="43.75555061613169" lon="11.314767047748498"><ele>61.0</ele><time>2026-04-18T12:40:16Z</time></trkpt><trkpt lat="43.75551483147292" lon="11.314532093354186"><ele>61.0</ele><time>2026-04-18T12:40:17Z</time></trkpt><trkpt lat="43.755479458493326" lon="11.314298811173481"><ele>60.33333333333333</ele><time>2026-04-18T12:40:18Z</time></trkpt><trkpt lat="43.7554443107928" lon="11.314067014702507"><ele>59.66666666666667</ele><time>2026-04-18T12:40:19Z</time></trkpt><trkpt lat="43.755409219297846" lon="11.31383582161672"><ele>59.0</ele><time>2026-04-18T12:40:20Z</time></trkpt><trkpt lat="43.755374581825016" lon="11.31360775022587"><ele>59.0</ele><time>2026-04-18T12:40:21Z</time></trkpt><trkpt lat="43.75534026664597" lon="11.313381801141489"><ele>59.0</ele><time>2026-04-18T12:40:22Z</time></trkpt><trkpt lat="43.75530693977995" lon="11.313159137563488"><ele>59.0</ele><time>2026-04-18T12:40:23Z</time></trkpt><trkpt lat="43.75527422211901" lon="11.312938424709074"><ele>59.333333333333336</ele><time>2026-04-18T12:40:24Z</time></trkpt><trkpt lat="43.75524112280565" lon="11.312715137678344"><ele>59.66666666666667</ele><time>2026-04-18T12:40:25Z</time></trkpt><trkpt lat="43.75520792892441" lon="11.31249116905467"><ele>60.0</ele><time>2026-04-18T12:40:26Z</time></trkpt><trkpt lat="43.7551747132177" lon="11.312265410241983"><ele>59.66666666666667</ele><time>2026-04-18T12:40:27Z</time></trkpt><trkpt lat="43.75514664820398" lon="11.312044644218046"><ele>59.333333333333336</ele><time>2026-04-18T12:40:28Z</time></trkpt><trkpt lat="43.75512223313384" lon="11.311813960902615"><ele>59.0</ele><time>2026-04-18T12:40:29Z</time></trkpt><trkpt lat="43.755098861799816" lon="11.311582713449514"><ele>58.333333333333336</ele><time>2026-04-18T12:40:30Z</time></trkpt><trkpt lat="43.75507814895713" lon="11.311350901650522"><ele>57.66666666666667</ele><time>2026-04-18T12:40:31Z</time></trkpt><trkpt lat="43.75506320831317" lon="11.311128878966104"><ele>57.0</ele><time>2026-04-18T12:40:32Z</time></trkpt><trkpt lat="43.755053098640914" lon="11.31092442853452"><ele>57.0</ele><time>2026-04-18T12:40:33Z</time></trkpt><trkpt lat="43.755044524082756" lon="11.31073638828889"><ele>57.0</ele><time>2026-04-18T12:40:34Z</time></trkpt><trkpt lat="43.75503827848989" lon="11.31055641263815"><ele>57.0</ele><time>2026-04-18T12:40:35Z</time></trkpt><trkpt lat="43.75503489259458" lon="11.310417567375103"><ele>57.0</ele><time>2026-04-18T12:40:36Z</time></trkpt><trkpt lat="43.75503408510522" lon="11.310303655659862"><ele>57.0</ele><time>2026-04-18T12:40:37Z</time></trkpt><trkpt lat="43.75503341293035" lon="11.310208832548293"><ele>57.25</ele><time>2026-04-18T12:40:38Z</time></trkpt><trkpt lat="43.75503260858587" lon="11.310095364625028"><ele>57.5</ele><time>2026-04-18T12:40:40Z</time></trkpt><trkpt lat="43.75503146101071" lon="11.309827831480556"><ele>57.75</ele><time>2026-04-18T12:41:03.999Z</time></trkpt><trkpt lat="43.755031095233576" lon="11.309710619563717"><ele>58.0</ele><time>2026-04-18T12:41:04.999Z</time></trkpt><trkpt lat="43.75503295501884" lon="11.309571032972652"><ele>58.25</ele><time>2026-04-18T12:41:05.999Z</time></trkpt><trkpt lat="43.755037744808455" lon="11.309431049720155"><ele>58.5</ele><time>2026-04-18T12:41:06.999Z</time></trkpt><trkpt lat="43.755046776196004" lon="11.309268194100646"><ele>58.75</ele><time>2026-04-18T12:41:07.999Z</time></trkpt><trkpt lat="43.75505672354055" lon="11.309103103782341"><ele>59.0</ele><time>2026-04-18T12:41:08.999Z</time></trkpt><trkpt lat="43.75506892959567" lon="11.308915506997847"><ele>59.0</ele><time>2026-04-18T12:41:09.999Z</time></trkpt><trkpt lat="43.7550822527648" lon="11.308720258535901"><ele>59.0</ele><time>2026-04-18T12:41:10.999Z</time></trkpt><trkpt lat="43.755097249619304" lon="11.308516076488054"><ele>59.0</ele><time>2026-04-18T12:41:11.999Z</time></trkpt><trkpt lat="43.75511557429858" lon="11.308302545457561"><ele>59.0</ele><time>2026-04-18T12:41:12.999Z</time></trkpt><trkpt lat="43.75513989275344" lon="11.308088120069858"><ele>59.0</ele><time>2026-04-18T12:41:13.999Z</time></trkpt><trkpt lat="43.755167925744715" lon="11.307879044452337"><ele>59.0</ele><time>2026-04-18T12:41:14.999Z</time></trkpt><trkpt lat="43.755198839909916" lon="11.307653846680056"><ele>59.0</ele><time>2026-04-18T12:41:15.999Z</time></trkpt><trkpt lat="43.755230659731524" lon="11.307445340903538"><ele>58.75</ele><time>2026-04-18T12:41:16.999Z</time></trkpt><trkpt lat="43.75526392202539" lon="11.30724215196281"><ele>58.5</ele><time>2026-04-18T12:41:17.999Z</time></trkpt><trkpt lat="43.75529518687306" lon="11.307059807691392"><ele>58.25</ele><time>2026-04-18T12:41:18.999Z</time></trkpt><trkpt lat="43.755320862092695" lon="11.3069184321754"><ele>58.0</ele><time>2026-04-18T12:41:19.999Z</time></trkpt><trkpt lat="43.755342546283934" lon="11.30680104397288"><ele>58.0</ele><time>2026-04-18T12:41:20.999Z</time></trkpt><trkpt lat="43.75536289494625" lon="11.306694331685582"><ele>58.0</ele><time>2026-04-18T12:41:21.999Z</time></trkpt><trkpt lat="43.75538973113659" lon="11.306562859920241"><ele>58.0</ele><time>2026-04-18T12:41:22.999Z</time></trkpt><trkpt lat="43.75544180411499" lon="11.306422159833842"><ele>58.0</ele><time>2026-04-18T12:41:23.999Z</time></trkpt><trkpt lat="43.755476814125565" lon="11.306253296793502"><ele>58.0</ele><time>2026-04-18T12:41:24.999Z</time></trkpt><trkpt lat="43.755499406042944" lon="11.306075511234964"><ele>58.0</ele><time>2026-04-18T12:41:25.999Z</time></trkpt><trkpt lat="43.755534136910676" lon="11.305879370113562"><ele>58.0</ele><time>2026-04-18T12:41:26.999Z</time></trkpt><trkpt lat="43.755571653094805" lon="11.305674752582334"><ele>58.0</ele><time>2026-04-18T12:41:27.999Z</time></trkpt><trkpt lat="43.75561171310221" lon="11.305465243025456"><ele>57.75</ele><time>2026-04-18T12:41:28.999Z</time></trkpt><trkpt lat="43.75565348788368" lon="11.305257600408929"><ele>57.5</ele><time>2026-04-18T12:41:29.999Z</time></trkpt><trkpt lat="43.755695850682045" lon="11.305066635071922"><ele>57.25</ele><time>2026-04-18T12:41:30.999Z</time></trkpt><trkpt lat="43.755736008228496" lon="11.30489300607253"><ele>57.0</ele><time>2026-04-18T12:41:31.999Z</time></trkpt><trkpt lat="43.755774258748175" lon="11.304736885493384"><ele>57.400000000000006</ele><time>2026-04-18T12:41:32.999Z</time></trkpt><trkpt lat="43.7558034417648" lon="11.304607632439934"><ele>57.800000000000004</ele><time>2026-04-18T12:41:33.999Z</time></trkpt><trkpt lat="43.7558261939641" lon="11.304484897164047"><ele>58.2</ele><time>2026-04-18T12:41:34.999Z</time></trkpt><trkpt lat="43.75585268460441" lon="11.304369241143117"><ele>58.6</ele><time>2026-04-18T12:41:35.999Z</time></trkpt><trkpt lat="43.7558818331216" lon="11.304228691891371"><ele>59.0</ele><time>2026-04-18T12:41:36.999Z</time></trkpt><trkpt lat="43.755910905775345" lon="11.30407304219621"><ele>58.75</ele><time>2026-04-18T12:41:37.999Z</time></trkpt><trkpt lat="43.755941617092" lon="11.303903143786691"><ele>58.5</ele><time>2026-04-18T12:41:38.999Z</time></trkpt><trkpt lat="43.75596392779083" lon="11.303734048619846"><ele>58.25</ele><time>2026-04-18T12:41:39.999Z</time></trkpt><trkpt lat="43.75598307196682" lon="11.303592225477976"><ele>58.0</ele><time>2026-04-18T12:41:40.999Z</time></trkpt><trkpt lat="43.75600754736298" lon="11.303464716040052"><ele>58.0</ele><time>2026-04-18T12:41:41.999Z</time></trkpt><trkpt lat="43.75603455805249" lon="11.303320885815934"><ele>58.0</ele><time>2026-04-18T12:41:42.999Z</time></trkpt><trkpt lat="43.75606501835215" lon="11.303158414767001"><ele>58.0</ele><time>2026-04-18T12:41:43.999Z</time></trkpt><trkpt lat="43.75609890446173" lon="11.302977790811719"><ele>58.0</ele><time>2026-04-18T12:41:44.999Z</time></trkpt><trkpt lat="43.75613705235394" lon="11.302780337644503"><ele>58.0</ele><time>2026-04-18T12:41:45.999Z</time></trkpt><trkpt lat="43.75617766089726" lon="11.302577883684203"><ele>58.0</ele><time>2026-04-18T12:41:46.999Z</time></trkpt><trkpt lat="43.756218283865856" lon="11.302378745388962"><ele>58.0</ele><time>2026-04-18T12:41:47.999Z</time></trkpt><trkpt lat="43.75626453093026" lon="11.302154696526205"><ele>57.33333333333333</ele><time>2026-04-18T12:41:48.999Z</time></trkpt><trkpt lat="43.756312210977875" lon="11.301928002967605"><ele>56.66666666666667</ele><time>2026-04-18T12:41:49.999Z</time></trkpt><trkpt lat="43.756359064194385" lon="11.301704318041796"><ele>56.0</ele><time>2026-04-18T12:41:50.999Z</time></trkpt><trkpt lat="43.75640299300435" lon="11.30149330689211"><ele>56.25</ele><time>2026-04-18T12:41:51.999Z</time></trkpt><trkpt lat="43.75644359509444" lon="11.301292073904442"><ele>56.5</ele><time>2026-04-18T12:41:52.999Z</time></trkpt><trkpt lat="43.7564822951298" lon="11.301102568392242"><ele>56.75</ele><time>2026-04-18T12:41:53.999Z</time></trkpt><trkpt lat="43.75651812845398" lon="11.300926448555032"><ele>57.0</ele><time>2026-04-18T12:41:54.999Z</time></trkpt><trkpt lat="43.7565522283581" lon="11.300754335647577"><ele>57.0</ele><time>2026-04-18T12:41:55.999Z</time></trkpt><trkpt lat="43.756585932071246" lon="11.30058427225209"><ele>57.0</ele><time>2026-04-18T12:41:56.999Z</time></trkpt><trkpt lat="43.756617998625295" lon="11.300420190303328"><ele>57.0</ele><time>2026-04-18T12:41:57.999Z</time></trkpt><trkpt lat="43.75665067198161" lon="11.300256610213134"><ele>57.0</ele><time>2026-04-18T12:41:58.999Z</time></trkpt><trkpt lat="43.756680570531216" lon="11.300112088440597"><ele>57.0</ele><time>2026-04-18T12:41:59.999Z</time></trkpt><trkpt lat="43.75671127890027" lon="11.299963652181283"><ele>57.0</ele><time>2026-04-18T12:42:01.999Z</time></trkpt><trkpt lat="43.75673381779615" lon="11.299854774054872"><ele>57.0</ele><time>2026-04-18T12:42:04.999Z</time></trkpt><trkpt lat="43.75676267095933" lon="11.299717740090275"><ele>57.0</ele><time>2026-04-18T12:42:07.999Z</time></trkpt><trkpt lat="43.75678293835836" lon="11.299621481742804"><ele>57.0</ele><time>2026-04-18T12:42:09.999Z</time></trkpt><trkpt lat="43.75680584980348" lon="11.299518513764923"><ele>57.0</ele><time>2026-04-18T12:42:29Z</time></trkpt><trkpt lat="43.75684303252745" lon="11.299351039565964"><ele>57.0</ele><time>2026-04-18T12:42:31Z</time></trkpt><trkpt lat="43.756861616866146" lon="11.29925532839362"><ele>57.0</ele><time>2026-04-18T12:42:32Z</time></trkpt><trkpt lat="43.75688395882131" lon="11.29914026475919"><ele>57.0</ele><time>2026-04-18T12:42:33Z</time></trkpt><trkpt lat="43.756906565774884" lon="11.299041737455745"><ele>57.0</ele><time>2026-04-18T12:42:34Z</time></trkpt><trkpt lat="43.75692558819639" lon="11.298957193382982"><ele>57.0</ele><time>2026-04-18T12:42:35Z</time></trkpt><trkpt lat="43.75676537040983" lon="11.298800684894697"><ele>57.75</ele><time>2026-04-18T12:42:37Z</time></trkpt><trkpt lat="43.75667517412324" lon="11.298755904141105"><ele>58.5</ele><time>2026-04-18T12:42:38Z</time></trkpt><trkpt lat="43.756565819641054" lon="11.298701611720173"><ele>59.25</ele><time>2026-04-18T12:42:39Z</time></trkpt><trkpt lat="43.75645130348257" lon="11.29864266824868"><ele>60.0</ele><time>2026-04-18T12:42:40Z</time></trkpt><trkpt lat="43.75632536467753" lon="11.298606591332142"><ele>60.0</ele><time>2026-04-18T12:42:41Z</time></trkpt><trkpt lat="43.75620689035758" lon="11.298552245116134"><ele>60.0</ele><time>2026-04-18T12:42:42Z</time></trkpt><trkpt lat="43.756108076025036" lon="11.298483015629522"><ele>60.0</ele><time>2026-04-18T12:42:43Z</time></trkpt><trkpt lat="43.75604222797858" lon="11.298397649075353"><ele>60.0</ele><time>2026-04-18T12:42:44Z</time></trkpt><trkpt lat="43.75599346974586" lon="11.298310403459556"><ele>60.0</ele><time>2026-04-18T12:42:45Z</time></trkpt><trkpt lat="43.75599475599708" lon="11.298173917488274"><ele>59.75</ele><time>2026-04-18T12:42:46Z</time></trkpt><trkpt lat="43.755979531524346" lon="11.298018390060829"><ele>59.5</ele><time>2026-04-18T12:42:47Z</time></trkpt><trkpt lat="43.755970597291174" lon="11.297849215285849"><ele>59.25</ele><time>2026-04-18T12:42:48Z</time></trkpt><trkpt lat="43.75595121163811" lon="11.297688884360397"><ele>59.0</ele><time>2026-04-18T12:42:49Z</time></trkpt><trkpt lat="43.75594863048845" lon="11.297517468024148"><ele>59.0</ele><time>2026-04-18T12:42:50Z</time></trkpt><trkpt lat="43.75597340696252" lon="11.297364920535443"><ele>59.00000000000001</ele><time>2026-04-18T12:42:51Z</time></trkpt><trkpt lat="43.75600781301414" lon="11.297242928776791"><ele>59.00000000000001</ele><time>2026-04-18T12:42:52Z</time></trkpt><trkpt lat="43.75602679125785" lon="11.297150645578585"><ele>59.0</ele><time>2026-04-18T12:42:53Z</time></trkpt><trkpt lat="43.756189440898176" lon="11.297136845961626"><ele>59.0</ele><time>2026-04-18T12:42:55Z</time></trkpt><trkpt lat="43.75626276487814" lon="11.29714704645615"><ele>58.800000000000004</ele><time>2026-04-18T12:42:56Z</time></trkpt><trkpt lat="43.75634063912844" lon="11.297140433706502"><ele>58.60000000000001</ele><time>2026-04-18T12:42:57Z</time></trkpt><trkpt lat="43.75640703816227" lon="11.297006243034721"><ele>58.4</ele><time>2026-04-18T12:42:58Z</time></trkpt><trkpt lat="43.75637905572477" lon="11.29685031352068"><ele>58.2</ele><time>2026-04-18T12:42:59Z</time></trkpt><trkpt lat="43.75638437589564" lon="11.296719617709721"><ele>58.0</ele><time>2026-04-18T12:43:00Z</time></trkpt><trkpt lat="43.756383092321705" lon="11.296578257466592"><ele>58.0</ele><time>2026-04-18T12:43:01Z</time></trkpt><trkpt lat="43.75637653729203" lon="11.296429192395294"><ele>58.0</ele><time>2026-04-18T12:43:02Z</time></trkpt><trkpt lat="43.75636809611856" lon="11.296272737251515"><ele>58.0</ele><time>2026-04-18T12:43:03Z</time></trkpt><trkpt lat="43.756358831447656" lon="11.296097098376201"><ele>58.0</ele><time>2026-04-18T12:43:04Z</time></trkpt><trkpt lat="43.75635022616033" lon="11.295915774624794"><ele>58.0</ele><time>2026-04-18T12:43:05Z</time></trkpt><trkpt lat="43.75633478155366" lon="11.295726555490424"><ele>58.0</ele><time>2026-04-18T12:43:06Z</time></trkpt><trkpt lat="43.756316311512435" lon="11.29551173454953"><ele>58.0</ele><time>2026-04-18T12:43:07Z</time></trkpt><trkpt lat="43.756300329945404" lon="11.295292847719663"><ele>58.0</ele><time>2026-04-18T12:43:08Z</time></trkpt><trkpt lat="43.756286493688926" lon="11.2950870646498"><ele>58.0</ele><time>2026-04-18T12:43:09Z</time></trkpt><trkpt lat="43.75628119426568" lon="11.2949053301527"><ele>58.0</ele><time>2026-04-18T12:43:09.999Z</time></trkpt><trkpt lat="43.756280730240334" lon="11.294734656117035"><ele>58.0</ele><time>2026-04-18T12:43:10.999Z</time></trkpt><trkpt lat="43.75630767168591" lon="11.294594054254754"><ele>57.599999999999994</ele><time>2026-04-18T12:43:11.999Z</time></trkpt><trkpt lat="43.756326671138844" lon="11.294497131953277"><ele>57.199999999999996</ele><time>2026-04-18T12:43:12.999Z</time></trkpt><trkpt lat="43.75614136541619" lon="11.294338587080627"><ele>56.8</ele><time>2026-04-18T12:43:14.999Z</time></trkpt><trkpt lat="43.756054303083296" lon="11.294325026986774"><ele>56.4</ele><time>2026-04-18T12:43:15.999Z</time></trkpt><trkpt lat="43.75598490778439" lon="11.294348942457235"><ele>56.0</ele><time>2026-04-18T12:43:16.999Z</time></trkpt><trkpt lat="43.75589143929577" lon="11.294475296420865"><ele>56.0</ele><time>2026-04-18T12:43:18.999Z</time></trkpt><trkpt lat="43.75587244298573" lon="11.294623355784038"><ele>56.0</ele><time>2026-04-18T12:43:20.999Z</time></trkpt><trkpt lat="43.75586163955181" lon="11.294741081943895"><ele>56.0</ele><time>2026-04-18T12:43:22.999Z</time></trkpt><trkpt lat="43.75569980961593" lon="11.294736975139985"><ele>56.0</ele><time>2026-04-18T12:43:24.999Z</time></trkpt><trkpt lat="43.755608625087966" lon="11.294685988651553"><ele>56.0</ele><time>2026-04-18T12:43:25.999Z</time></trkpt><trkpt lat="43.755498379913874" lon="11.2946155819211"><ele>56.0</ele><time>2026-04-18T12:43:26.999Z</time></trkpt><trkpt lat="43.75538404339515" lon="11.29455368732765"><ele>56.0</ele><time>2026-04-18T12:43:27.999Z</time></trkpt><trkpt lat="43.75524494000251" lon="11.294487787612088"><ele>56.0</ele><time>2026-04-18T12:43:28.999Z</time></trkpt><trkpt lat="43.755105661899535" lon="11.29442650967939"><ele>56.66666666666667</ele><time>2026-04-18T12:43:29.999Z</time></trkpt><trkpt lat="43.754954022677374" lon="11.294353497968403"><ele>57.33333333333333</ele><time>2026-04-18T12:43:30.999Z</time></trkpt><trkpt lat="43.75478367581496" lon="11.294275461306311"><ele>58.0</ele><time>2026-04-18T12:43:31.999Z</time></trkpt><trkpt lat="43.75461909254285" lon="11.294195201949597"><ele>58.0</ele><time>2026-04-18T12:43:32.999Z</time></trkpt><trkpt lat="43.754448191115756" lon="11.294120786866385"><ele>58.0</ele><time>2026-04-18T12:43:33.999Z</time></trkpt><trkpt lat="43.75429784204678" lon="11.294071034585173"><ele>58.0</ele><time>2026-04-18T12:43:34.999Z</time></trkpt><trkpt lat="43.75416621143079" lon="11.294047506906416"><ele>58.0</ele><time>2026-04-18T12:43:35.999Z</time></trkpt><trkpt lat="43.754081384584936" lon="11.294033873235966"><ele>58.0</ele><time>2026-04-18T12:43:36.999Z</time></trkpt><trkpt lat="43.754004533850576" lon="11.29403014146992"><ele>58.0</ele><time>2026-04-18T12:43:38.999Z</time></trkpt><trkpt lat="43.753904243832956" lon="11.294006077658892"><ele>58.0</ele><time>2026-04-18T12:43:40.999Z</time></trkpt><trkpt lat="43.75380696023033" lon="11.293969157861163"><ele>58.0</ele><time>2026-04-18T12:43:41.999Z</time></trkpt><trkpt lat="43.75370563244001" lon="11.29391526049596"><ele>58.0</ele><time>2026-04-18T12:43:42.999Z</time></trkpt><trkpt lat="43.75359862348227" lon="11.293860121593108"><ele>58.0</ele><time>2026-04-18T12:43:43.999Z</time></trkpt><trkpt lat="43.75347427973275" lon="11.293804009837302"><ele>58.0</ele><time>2026-04-18T12:43:44.999Z</time></trkpt><trkpt lat="43.75335642006734" lon="11.293752712237687"><ele>58.0</ele><time>2026-04-18T12:43:45.999Z</time></trkpt><trkpt lat="43.753222317778686" lon="11.293696508228106"><ele>58.33333333333333</ele><time>2026-04-18T12:43:46.999Z</time></trkpt><trkpt lat="43.75307352581397" lon="11.293628784832885"><ele>58.66666666666667</ele><time>2026-04-18T12:43:47.999Z</time></trkpt><trkpt lat="43.75292907116782" lon="11.293562553231242"><ele>59.0</ele><time>2026-04-18T12:43:48.999Z</time></trkpt><trkpt lat="43.75278062520968" lon="11.293505990071704"><ele>59.0</ele><time>2026-04-18T12:43:49.999Z</time></trkpt><trkpt lat="43.75263149169619" lon="11.293476354690965"><ele>59.0</ele><time>2026-04-18T12:43:50.999Z</time></trkpt><trkpt lat="43.75248067607068" lon="11.293452152525044"><ele>59.0</ele><time>2026-04-18T12:43:51.999Z</time></trkpt><trkpt lat="43.752333084808" lon="11.293433220968812"><ele>59.0</ele><time>2026-04-18T12:43:52.999Z</time></trkpt><trkpt lat="43.752194480738574" lon="11.293410534961778"><ele>59.0</ele><time>2026-04-18T12:43:53.999Z</time></trkpt><trkpt lat="43.75206987451428" lon="11.293377323159975"><ele>59.0</ele><time>2026-04-18T12:43:54.999Z</time></trkpt><trkpt lat="43.75195603715279" lon="11.2933591580957"><ele>59.0</ele><time>2026-04-18T12:43:55.999Z</time></trkpt><trkpt lat="43.75185141459217" lon="11.293326613663995"><ele>59.0</ele><time>2026-04-18T12:43:56.999Z</time></trkpt><trkpt lat="43.75176287428403" lon="11.293274430306745"><ele>59.00000000000001</ele><time>2026-04-18T12:43:57.999Z</time></trkpt><trkpt lat="43.75168746416555" lon="11.293236399296854"><ele>59.00000000000001</ele><time>2026-04-18T12:43:59.999Z</time></trkpt><trkpt lat="43.751728542490234" lon="11.293027416323861"><ele>59.0</ele><time>2026-04-18T12:44:00.999Z</time></trkpt><trkpt lat="43.75179262578292" lon="11.292906777120054"><ele>59.0</ele><time>2026-04-18T12:44:01.999Z</time></trkpt><trkpt lat="43.75186468782037" lon="11.292753485324525"><ele>59.0</ele><time>2026-04-18T12:44:02.999Z</time></trkpt><trkpt lat="43.751940697485566" lon="11.292585234281976"><ele>59.0</ele><time>2026-04-18T12:44:03.999Z</time></trkpt><trkpt lat="43.75202162505954" lon="11.29239073938309"><ele>59.0</ele><time>2026-04-18T12:44:04.999Z</time></trkpt><trkpt lat="43.752099593003365" lon="11.292197178958807"><ele>58.66666666666667</ele><time>2026-04-18T12:44:05.999Z</time></trkpt><trkpt lat="43.752188048077684" lon="11.291989492872984"><ele>58.33333333333333</ele><time>2026-04-18T12:44:06.999Z</time></trkpt><trkpt lat="43.75228884167551" lon="11.291763811477152"><ele>58.0</ele><time>2026-04-18T12:44:07.999Z</time></trkpt><trkpt lat="43.75238538247867" lon="11.291549786504065"><ele>57.666666666666664</ele><time>2026-04-18T12:44:08.999Z</time></trkpt><trkpt lat="43.75248010737056" lon="11.29135493079719"><ele>57.33333333333333</ele><time>2026-04-18T12:44:09.999Z</time></trkpt><trkpt lat="43.752582415256505" lon="11.291175767460789"><ele>57.0</ele><time>2026-04-18T12:44:10.999Z</time></trkpt><trkpt lat="43.752705139843066" lon="11.29101989451772"><ele>57.0</ele><time>2026-04-18T12:44:11.999Z</time></trkpt><trkpt lat="43.75283500626356" lon="11.290877417121889"><ele>57.0</ele><time>2026-04-18T12:44:12.999Z</time></trkpt><trkpt lat="43.75295437988827" lon="11.29074665873547"><ele>57.0</ele><time>2026-04-18T12:44:13.999Z</time></trkpt><trkpt lat="43.75306851799803" lon="11.290625119652226"><ele>56.8</ele><time>2026-04-18T12:44:14.999Z</time></trkpt><trkpt lat="43.753151161820306" lon="11.290493447402158"><ele>56.6</ele><time>2026-04-18T12:44:15.999Z</time></trkpt><trkpt lat="43.75323155086762" lon="11.290368731030162"><ele>56.39999999999999</ele><time>2026-04-18T12:44:16.999Z</time></trkpt><trkpt lat="43.75329883631363" lon="11.290253297195596"><ele>56.199999999999996</ele><time>2026-04-18T12:44:17.999Z</time></trkpt><trkpt lat="43.75335878696749" lon="11.290166805628402"><ele>56.0</ele><time>2026-04-18T12:44:18.999Z</time></trkpt><trkpt lat="43.753418820318004" lon="11.290119433385701"><ele>56.0</ele><time>2026-04-18T12:44:20Z</time></trkpt><trkpt lat="43.75358363777056" lon="11.290160823965346"><ele>55.99999999999999</ele><time>2026-04-18T12:44:22Z</time></trkpt><trkpt lat="43.75366812893059" lon="11.290209263628343"><ele>55.99999999999999</ele><time>2026-04-18T12:44:23Z</time></trkpt><trkpt lat="43.75374869919194" lon="11.290243881691993"><ele>56.0</ele><time>2026-04-18T12:44:24Z</time></trkpt><trkpt lat="43.75382172049983" lon="11.290257861880205"><ele>56.0</ele><time>2026-04-18T12:44:25Z</time></trkpt><trkpt lat="43.75388416356414" lon="11.29023929950916"><ele>56.0</ele><time>2026-04-18T12:44:26Z</time></trkpt><trkpt lat="43.753954204559456" lon="11.290195892000966"><ele>56.0</ele><time>2026-04-18T12:45:06Z</time></trkpt><trkpt lat="43.75399752957959" lon="11.29012772061642"><ele>56.0</ele><time>2026-04-18T12:45:07Z</time></trkpt><trkpt lat="43.75399415394455" lon="11.290359285301657"><ele>56.0</ele><time>2026-04-18T12:45:10Z</time></trkpt><trkpt lat="43.754021795867" lon="11.290445341573083"><ele>56.0</ele><time>2026-04-18T12:45:12.017Z</time></trkpt></trkseg></trk></gpx>